<?xml version="1.0" encoding="UTF-8" standalone="no" ?>
<gpx xmlns="http://www.topografix.com/GPX/1/1" xmlns:xsi="http://www.w3.org/2001/XMLSchema-instance" xsi:schemaLocation="http://www.topografix.com/GPX/1/1 http://www.topografix.com/GPX/1/1/gpx.xsd" version="1.1" creator="VisuGPX - https://www.visugpx.com">
  <metadata>
    <name>marne-vincennes-paris</name>
    <desc><![CDATA[A-R Maisons Alfort, Paris avecle bord de l'eau et la coulée verte.]]></desc>
  </metadata>
  <trk>
    <name><![CDATA[marne-vincennes-paris]]></name>
    <trkseg>
      <trkpt lat="48.80857" lon="2.45755">
        <ele>30.9</ele>
        <time>2019-02-16T08:04:01Z</time>
      </trkpt>
      <trkpt lat="48.80856" lon="2.45753">
        <ele>29.46</ele>
        <time>2019-02-16T08:04:23Z</time>
      </trkpt>
      <trkpt lat="48.80856" lon="2.45754">
        <ele>30.9</ele>
        <time>2019-02-16T08:04:25Z</time>
      </trkpt>
      <trkpt lat="48.80856" lon="2.45755">
        <ele>30.42</ele>
        <time>2019-02-16T08:05:06Z</time>
      </trkpt>
      <trkpt lat="48.80858" lon="2.45756">
        <ele>30.9</ele>
        <time>2019-02-16T08:05:37Z</time>
      </trkpt>
      <trkpt lat="48.80858" lon="2.45756">
        <ele>31.38</ele>
        <time>2019-02-16T08:05:41Z</time>
      </trkpt>
      <trkpt lat="48.80857" lon="2.45755">
        <ele>30.42</ele>
        <time>2019-02-16T08:05:43Z</time>
      </trkpt>
      <trkpt lat="48.80857" lon="2.45756">
        <ele>27.53</ele>
        <time>2019-02-16T08:05:56Z</time>
      </trkpt>
      <trkpt lat="48.80857" lon="2.45756">
        <ele>32.34</ele>
        <time>2019-02-16T08:05:57Z</time>
      </trkpt>
      <trkpt lat="48.80857" lon="2.45756">
        <ele>27.05</ele>
        <time>2019-02-16T08:05:58Z</time>
      </trkpt>
      <trkpt lat="48.80858" lon="2.45756">
        <ele>35.23</ele>
        <time>2019-02-16T08:05:59Z</time>
      </trkpt>
      <trkpt lat="48.80858" lon="2.45756">
        <ele>31.38</ele>
        <time>2019-02-16T08:06:00Z</time>
      </trkpt>
      <trkpt lat="48.80857" lon="2.45756">
        <ele>32.34</ele>
        <time>2019-02-16T08:06:28Z</time>
      </trkpt>
      <trkpt lat="48.80857" lon="2.45756">
        <ele>27.53</ele>
        <time>2019-02-16T08:06:29Z</time>
      </trkpt>
      <trkpt lat="48.80857" lon="2.45756">
        <ele>29.94</ele>
        <time>2019-02-16T08:06:30Z</time>
      </trkpt>
      <trkpt lat="48.80857" lon="2.45756">
        <ele>25.13</ele>
        <time>2019-02-16T08:06:37Z</time>
      </trkpt>
      <trkpt lat="48.80857" lon="2.45756">
        <ele>34.26</ele>
        <time>2019-02-16T08:06:38Z</time>
      </trkpt>
      <trkpt lat="48.80857" lon="2.45756">
        <ele>30.42</ele>
        <time>2019-02-16T08:06:39Z</time>
      </trkpt>
      <trkpt lat="48.80856" lon="2.45755">
        <ele>30.42</ele>
        <time>2019-02-16T08:07:14Z</time>
      </trkpt>
      <trkpt lat="48.80857" lon="2.45757">
        <ele>30.42</ele>
        <time>2019-02-16T08:07:44Z</time>
      </trkpt>
      <trkpt lat="48.80859" lon="2.45759">
        <ele>31.38</ele>
        <time>2019-02-16T08:08:13Z</time>
      </trkpt>
      <trkpt lat="48.80865" lon="2.45757">
        <ele>31.86</ele>
        <time>2019-02-16T08:08:49Z</time>
      </trkpt>
      <trkpt lat="48.80863" lon="2.45756">
        <ele>31.38</ele>
        <time>2019-02-16T08:09:21Z</time>
      </trkpt>
      <trkpt lat="48.80862" lon="2.45756">
        <ele>32.34</ele>
        <time>2019-02-16T08:09:51Z</time>
      </trkpt>
      <trkpt lat="48.80859" lon="2.45762">
        <ele>31.86</ele>
        <time>2019-02-16T08:10:19Z</time>
      </trkpt>
      <trkpt lat="48.80858" lon="2.45767">
        <ele>31.86</ele>
        <time>2019-02-16T08:10:59Z</time>
      </trkpt>
      <trkpt lat="48.80851" lon="2.45766">
        <ele>32.34</ele>
        <time>2019-02-16T08:11:33Z</time>
      </trkpt>
      <trkpt lat="48.80856" lon="2.45758">
        <ele>32.34</ele>
        <time>2019-02-16T08:12:04Z</time>
      </trkpt>
      <trkpt lat="48.80852" lon="2.45758">
        <ele>32.34</ele>
        <time>2019-02-16T08:12:38Z</time>
      </trkpt>
      <trkpt lat="48.8085" lon="2.45758">
        <ele>31.86</ele>
        <time>2019-02-16T08:13:02Z</time>
      </trkpt>
      <trkpt lat="48.80851" lon="2.45758">
        <ele>31.86</ele>
        <time>2019-02-16T08:13:37Z</time>
      </trkpt>
      <trkpt lat="48.80847" lon="2.4576">
        <ele>31.86</ele>
        <time>2019-02-16T08:14:19Z</time>
      </trkpt>
      <trkpt lat="48.80851" lon="2.4576">
        <ele>31.86</ele>
        <time>2019-02-16T08:14:49Z</time>
      </trkpt>
      <trkpt lat="48.80855" lon="2.45761">
        <ele>31.86</ele>
        <time>2019-02-16T08:15:20Z</time>
      </trkpt>
      <trkpt lat="48.80852" lon="2.45757">
        <ele>31.86</ele>
        <time>2019-02-16T08:15:50Z</time>
      </trkpt>
      <trkpt lat="48.80848" lon="2.45762">
        <ele>31.86</ele>
        <time>2019-02-16T08:16:19Z</time>
      </trkpt>
      <trkpt lat="48.80852" lon="2.4576">
        <ele>31.38</ele>
        <time>2019-02-16T08:16:53Z</time>
      </trkpt>
      <trkpt lat="48.80856" lon="2.4576">
        <ele>31.38</ele>
        <time>2019-02-16T08:17:25Z</time>
      </trkpt>
      <trkpt lat="48.80856" lon="2.45757">
        <ele>31.38</ele>
        <time>2019-02-16T08:18:02Z</time>
      </trkpt>
      <trkpt lat="48.80857" lon="2.45756">
        <ele>31.38</ele>
        <time>2019-02-16T08:18:41Z</time>
      </trkpt>
      <trkpt lat="48.8086" lon="2.45755">
        <ele>30.42</ele>
        <time>2019-02-16T08:19:12Z</time>
      </trkpt>
      <trkpt lat="48.80858" lon="2.45758">
        <ele>30.9</ele>
        <time>2019-02-16T08:19:42Z</time>
      </trkpt>
      <trkpt lat="48.80856" lon="2.45758">
        <ele>31.38</ele>
        <time>2019-02-16T08:20:19Z</time>
      </trkpt>
      <trkpt lat="48.80855" lon="2.45757">
        <ele>30.9</ele>
        <time>2019-02-16T08:20:59Z</time>
      </trkpt>
      <trkpt lat="48.80856" lon="2.45758">
        <ele>31.38</ele>
        <time>2019-02-16T08:21:39Z</time>
      </trkpt>
      <trkpt lat="48.80854" lon="2.45758">
        <ele>30.9</ele>
        <time>2019-02-16T08:22:22Z</time>
      </trkpt>
      <trkpt lat="48.80854" lon="2.45758">
        <ele>30.42</ele>
        <time>2019-02-16T08:23:01Z</time>
      </trkpt>
      <trkpt lat="48.80857" lon="2.45758">
        <ele>30.9</ele>
        <time>2019-02-16T08:23:36Z</time>
      </trkpt>
      <trkpt lat="48.80862" lon="2.45755">
        <ele>30.9</ele>
        <time>2019-02-16T08:24:10Z</time>
      </trkpt>
      <trkpt lat="48.8086" lon="2.45755">
        <ele>31.86</ele>
        <time>2019-02-16T08:24:56Z</time>
      </trkpt>
      <trkpt lat="48.80858" lon="2.45756">
        <ele>30.9</ele>
        <time>2019-02-16T08:25:33Z</time>
      </trkpt>
      <trkpt lat="48.80857" lon="2.45757">
        <ele>31.86</ele>
        <time>2019-02-16T08:26:12Z</time>
      </trkpt>
      <trkpt lat="48.80859" lon="2.45756">
        <ele>31.38</ele>
        <time>2019-02-16T08:26:50Z</time>
      </trkpt>
      <trkpt lat="48.80859" lon="2.45753">
        <ele>31.86</ele>
        <time>2019-02-16T08:27:36Z</time>
      </trkpt>
      <trkpt lat="48.80858" lon="2.45754">
        <ele>31.86</ele>
        <time>2019-02-16T08:28:14Z</time>
      </trkpt>
      <trkpt lat="48.8086" lon="2.45757">
        <ele>31.38</ele>
        <time>2019-02-16T08:28:52Z</time>
      </trkpt>
      <trkpt lat="48.8086" lon="2.45756">
        <ele>31.86</ele>
        <time>2019-02-16T08:29:20Z</time>
      </trkpt>
      <trkpt lat="48.80859" lon="2.45757">
        <ele>31.86</ele>
        <time>2019-02-16T08:29:34Z</time>
      </trkpt>
      <trkpt lat="48.80858" lon="2.45758">
        <ele>31.86</ele>
        <time>2019-02-16T08:29:47Z</time>
      </trkpt>
      <trkpt lat="48.80859" lon="2.45754">
        <ele>31.86</ele>
        <time>2019-02-16T08:30:01Z</time>
      </trkpt>
      <trkpt lat="48.80863" lon="2.4575">
        <ele>31.86</ele>
        <time>2019-02-16T08:30:17Z</time>
      </trkpt>
      <trkpt lat="48.80863" lon="2.45749">
        <ele>31.86</ele>
        <time>2019-02-16T08:30:35Z</time>
      </trkpt>
      <trkpt lat="48.8086" lon="2.45753">
        <ele>31.38</ele>
        <time>2019-02-16T08:30:51Z</time>
      </trkpt>
      <trkpt lat="48.80858" lon="2.45754">
        <ele>32.34</ele>
        <time>2019-02-16T08:31:11Z</time>
      </trkpt>
      <trkpt lat="48.80857" lon="2.45753">
        <ele>31.38</ele>
        <time>2019-02-16T08:31:32Z</time>
      </trkpt>
      <trkpt lat="48.8086" lon="2.45752">
        <ele>32.34</ele>
        <time>2019-02-16T08:32:02Z</time>
      </trkpt>
      <trkpt lat="48.80858" lon="2.45752">
        <ele>31.38</ele>
        <time>2019-02-16T08:32:17Z</time>
      </trkpt>
      <trkpt lat="48.80859" lon="2.45753">
        <ele>32.34</ele>
        <time>2019-02-16T08:32:38Z</time>
      </trkpt>
      <trkpt lat="48.80858" lon="2.45753">
        <ele>31.86</ele>
        <time>2019-02-16T08:33:03Z</time>
      </trkpt>
      <trkpt lat="48.8086" lon="2.45755">
        <ele>31.86</ele>
        <time>2019-02-16T08:33:18Z</time>
      </trkpt>
      <trkpt lat="48.80875" lon="2.4577">
        <ele>32.34</ele>
        <time>2019-02-16T08:33:34Z</time>
      </trkpt>
      <trkpt lat="48.80882" lon="2.45784">
        <ele>31.86</ele>
        <time>2019-02-16T08:33:45Z</time>
      </trkpt>
      <trkpt lat="48.80896" lon="2.45808">
        <ele>31.38</ele>
        <time>2019-02-16T08:34:03Z</time>
      </trkpt>
      <trkpt lat="48.80903" lon="2.45826">
        <ele>28.5</ele>
        <time>2019-02-16T08:34:17Z</time>
      </trkpt>
      <trkpt lat="48.80905" lon="2.4583">
        <ele>31.38</ele>
        <time>2019-02-16T08:34:20Z</time>
      </trkpt>
      <trkpt lat="48.80911" lon="2.45844">
        <ele>31.38</ele>
        <time>2019-02-16T08:34:30Z</time>
      </trkpt>
      <trkpt lat="48.80911" lon="2.45846">
        <ele>31.38</ele>
        <time>2019-02-16T08:34:31Z</time>
      </trkpt>
      <trkpt lat="48.80916" lon="2.45854">
        <ele>31.38</ele>
        <time>2019-02-16T08:34:36Z</time>
      </trkpt>
      <trkpt lat="48.80935" lon="2.4587">
        <ele>30.9</ele>
        <time>2019-02-16T08:34:48Z</time>
      </trkpt>
      <trkpt lat="48.80955" lon="2.4588">
        <ele>30.42</ele>
        <time>2019-02-16T08:35:01Z</time>
      </trkpt>
      <trkpt lat="48.80956" lon="2.4588">
        <ele>31.38</ele>
        <time>2019-02-16T08:35:02Z</time>
      </trkpt>
      <trkpt lat="48.80958" lon="2.45879">
        <ele>30.9</ele>
        <time>2019-02-16T08:35:03Z</time>
      </trkpt>
      <trkpt lat="48.80963" lon="2.45874">
        <ele>30.42</ele>
        <time>2019-02-16T08:35:08Z</time>
      </trkpt>
      <trkpt lat="48.80963" lon="2.45873">
        <ele>30.42</ele>
        <time>2019-02-16T08:35:09Z</time>
      </trkpt>
      <trkpt lat="48.80964" lon="2.45872">
        <ele>30.42</ele>
        <time>2019-02-16T08:35:10Z</time>
      </trkpt>
      <trkpt lat="48.80966" lon="2.45865">
        <ele>31.86</ele>
        <time>2019-02-16T08:35:16Z</time>
      </trkpt>
      <trkpt lat="48.80966" lon="2.45863">
        <ele>30.9</ele>
        <time>2019-02-16T08:35:17Z</time>
      </trkpt>
      <trkpt lat="48.80968" lon="2.45859">
        <ele>30.9</ele>
        <time>2019-02-16T08:35:19Z</time>
      </trkpt>
      <trkpt lat="48.8097" lon="2.45852">
        <ele>30.42</ele>
        <time>2019-02-16T08:35:24Z</time>
      </trkpt>
      <trkpt lat="48.8097" lon="2.4585">
        <ele>30.42</ele>
        <time>2019-02-16T08:35:25Z</time>
      </trkpt>
      <trkpt lat="48.80976" lon="2.45833">
        <ele>30.42</ele>
        <time>2019-02-16T08:35:35Z</time>
      </trkpt>
      <trkpt lat="48.80977" lon="2.45831">
        <ele>30.9</ele>
        <time>2019-02-16T08:35:36Z</time>
      </trkpt>
      <trkpt lat="48.80981" lon="2.45815">
        <ele>31.38</ele>
        <time>2019-02-16T08:35:45Z</time>
      </trkpt>
      <trkpt lat="48.80982" lon="2.45813">
        <ele>31.38</ele>
        <time>2019-02-16T08:35:46Z</time>
      </trkpt>
      <trkpt lat="48.80983" lon="2.45811">
        <ele>31.38</ele>
        <time>2019-02-16T08:35:47Z</time>
      </trkpt>
      <trkpt lat="48.80984" lon="2.4581">
        <ele>31.38</ele>
        <time>2019-02-16T08:35:48Z</time>
      </trkpt>
      <trkpt lat="48.80985" lon="2.45808">
        <ele>30.42</ele>
        <time>2019-02-16T08:35:49Z</time>
      </trkpt>
      <trkpt lat="48.80985" lon="2.45806">
        <ele>31.86</ele>
        <time>2019-02-16T08:35:50Z</time>
      </trkpt>
      <trkpt lat="48.80986" lon="2.45805">
        <ele>30.9</ele>
        <time>2019-02-16T08:35:51Z</time>
      </trkpt>
      <trkpt lat="48.80987" lon="2.45803">
        <ele>30.9</ele>
        <time>2019-02-16T08:35:52Z</time>
      </trkpt>
      <trkpt lat="48.80988" lon="2.45801">
        <ele>30.9</ele>
        <time>2019-02-16T08:35:53Z</time>
      </trkpt>
      <trkpt lat="48.80996" lon="2.45784">
        <ele>31.86</ele>
        <time>2019-02-16T08:36:04Z</time>
      </trkpt>
      <trkpt lat="48.80999" lon="2.45779">
        <ele>30.9</ele>
        <time>2019-02-16T08:36:08Z</time>
      </trkpt>
      <trkpt lat="48.81006" lon="2.45761">
        <ele>31.86</ele>
        <time>2019-02-16T08:36:18Z</time>
      </trkpt>
      <trkpt lat="48.81006" lon="2.45759">
        <ele>31.86</ele>
        <time>2019-02-16T08:36:19Z</time>
      </trkpt>
      <trkpt lat="48.81011" lon="2.45751">
        <ele>32.34</ele>
        <time>2019-02-16T08:36:25Z</time>
      </trkpt>
      <trkpt lat="48.81019" lon="2.45728">
        <ele>33.3</ele>
        <time>2019-02-16T08:36:38Z</time>
      </trkpt>
      <trkpt lat="48.81022" lon="2.45723">
        <ele>32.34</ele>
        <time>2019-02-16T08:36:43Z</time>
      </trkpt>
      <trkpt lat="48.81023" lon="2.4572">
        <ele>32.82</ele>
        <time>2019-02-16T08:36:45Z</time>
      </trkpt>
      <trkpt lat="48.81026" lon="2.45709">
        <ele>32.82</ele>
        <time>2019-02-16T08:36:50Z</time>
      </trkpt>
      <trkpt lat="48.81027" lon="2.45704">
        <ele>33.3</ele>
        <time>2019-02-16T08:36:53Z</time>
      </trkpt>
      <trkpt lat="48.81029" lon="2.45692">
        <ele>33.78</ele>
        <time>2019-02-16T08:36:59Z</time>
      </trkpt>
      <trkpt lat="48.8103" lon="2.4569">
        <ele>34.26</ele>
        <time>2019-02-16T08:37:00Z</time>
      </trkpt>
      <trkpt lat="48.81035" lon="2.45681">
        <ele>33.78</ele>
        <time>2019-02-16T08:37:05Z</time>
      </trkpt>
      <trkpt lat="48.81038" lon="2.4568">
        <ele>33.3</ele>
        <time>2019-02-16T08:37:07Z</time>
      </trkpt>
      <trkpt lat="48.81045" lon="2.45681">
        <ele>33.3</ele>
        <time>2019-02-16T08:37:11Z</time>
      </trkpt>
      <trkpt lat="48.81048" lon="2.45679">
        <ele>33.3</ele>
        <time>2019-02-16T08:37:23Z</time>
      </trkpt>
      <trkpt lat="48.81054" lon="2.45665">
        <ele>35.23</ele>
        <time>2019-02-16T08:37:35Z</time>
      </trkpt>
      <trkpt lat="48.81062" lon="2.4567">
        <ele>35.23</ele>
        <time>2019-02-16T08:37:46Z</time>
      </trkpt>
      <trkpt lat="48.81073" lon="2.4569">
        <ele>36.19</ele>
        <time>2019-02-16T08:38:01Z</time>
      </trkpt>
      <trkpt lat="48.81076" lon="2.45695">
        <ele>35.23</ele>
        <time>2019-02-16T08:38:04Z</time>
      </trkpt>
      <trkpt lat="48.81084" lon="2.45706">
        <ele>35.71</ele>
        <time>2019-02-16T08:38:10Z</time>
      </trkpt>
      <trkpt lat="48.81097" lon="2.45727">
        <ele>36.19</ele>
        <time>2019-02-16T08:38:24Z</time>
      </trkpt>
      <trkpt lat="48.81108" lon="2.45748">
        <ele>35.71</ele>
        <time>2019-02-16T08:38:41Z</time>
      </trkpt>
      <trkpt lat="48.81114" lon="2.45758">
        <ele>34.74</ele>
        <time>2019-02-16T08:38:52Z</time>
      </trkpt>
      <trkpt lat="48.81125" lon="2.45778">
        <ele>34.74</ele>
        <time>2019-02-16T08:39:06Z</time>
      </trkpt>
      <trkpt lat="48.81129" lon="2.45787">
        <ele>33.78</ele>
        <time>2019-02-16T08:39:13Z</time>
      </trkpt>
      <trkpt lat="48.81139" lon="2.45801">
        <ele>33.78</ele>
        <time>2019-02-16T08:39:29Z</time>
      </trkpt>
      <trkpt lat="48.81142" lon="2.45802">
        <ele>33.78</ele>
        <time>2019-02-16T08:39:37Z</time>
      </trkpt>
      <trkpt lat="48.8115" lon="2.45805">
        <ele>33.78</ele>
        <time>2019-02-16T08:39:47Z</time>
      </trkpt>
      <trkpt lat="48.81151" lon="2.45807">
        <ele>33.78</ele>
        <time>2019-02-16T08:39:51Z</time>
      </trkpt>
      <trkpt lat="48.81152" lon="2.45808">
        <ele>33.78</ele>
        <time>2019-02-16T08:39:52Z</time>
      </trkpt>
      <trkpt lat="48.81164" lon="2.45825">
        <ele>34.26</ele>
        <time>2019-02-16T08:40:06Z</time>
      </trkpt>
      <trkpt lat="48.81175" lon="2.45845">
        <ele>32.82</ele>
        <time>2019-02-16T08:40:21Z</time>
      </trkpt>
      <trkpt lat="48.81187" lon="2.45866">
        <ele>32.82</ele>
        <time>2019-02-16T08:40:36Z</time>
      </trkpt>
      <trkpt lat="48.81198" lon="2.45884">
        <ele>32.34</ele>
        <time>2019-02-16T08:40:50Z</time>
      </trkpt>
      <trkpt lat="48.81202" lon="2.45889">
        <ele>32.82</ele>
        <time>2019-02-16T08:40:54Z</time>
      </trkpt>
      <trkpt lat="48.81215" lon="2.459">
        <ele>31.38</ele>
        <time>2019-02-16T08:41:05Z</time>
      </trkpt>
      <trkpt lat="48.81225" lon="2.45913">
        <ele>31.86</ele>
        <time>2019-02-16T08:41:15Z</time>
      </trkpt>
      <trkpt lat="48.81225" lon="2.45915">
        <ele>31.86</ele>
        <time>2019-02-16T08:41:16Z</time>
      </trkpt>
      <trkpt lat="48.81226" lon="2.45916">
        <ele>32.34</ele>
        <time>2019-02-16T08:41:17Z</time>
      </trkpt>
      <trkpt lat="48.81227" lon="2.45919">
        <ele>31.86</ele>
        <time>2019-02-16T08:41:18Z</time>
      </trkpt>
      <trkpt lat="48.81228" lon="2.45921">
        <ele>32.34</ele>
        <time>2019-02-16T08:41:19Z</time>
      </trkpt>
      <trkpt lat="48.81229" lon="2.45923">
        <ele>31.86</ele>
        <time>2019-02-16T08:41:20Z</time>
      </trkpt>
      <trkpt lat="48.8123" lon="2.45925">
        <ele>32.82</ele>
        <time>2019-02-16T08:41:21Z</time>
      </trkpt>
      <trkpt lat="48.81231" lon="2.45926">
        <ele>32.34</ele>
        <time>2019-02-16T08:41:22Z</time>
      </trkpt>
      <trkpt lat="48.81232" lon="2.45926">
        <ele>32.34</ele>
        <time>2019-02-16T08:41:23Z</time>
      </trkpt>
      <trkpt lat="48.81232" lon="2.45928">
        <ele>32.34</ele>
        <time>2019-02-16T08:41:24Z</time>
      </trkpt>
      <trkpt lat="48.81233" lon="2.45929">
        <ele>32.34</ele>
        <time>2019-02-16T08:41:25Z</time>
      </trkpt>
      <trkpt lat="48.81242" lon="2.45941">
        <ele>32.82</ele>
        <time>2019-02-16T08:41:38Z</time>
      </trkpt>
      <trkpt lat="48.81252" lon="2.45958">
        <ele>32.82</ele>
        <time>2019-02-16T08:41:51Z</time>
      </trkpt>
      <trkpt lat="48.8126" lon="2.45969">
        <ele>32.82</ele>
        <time>2019-02-16T08:42:04Z</time>
      </trkpt>
      <trkpt lat="48.81265" lon="2.45976">
        <ele>32.34</ele>
        <time>2019-02-16T08:42:15Z</time>
      </trkpt>
      <trkpt lat="48.81268" lon="2.4598">
        <ele>32.34</ele>
        <time>2019-02-16T08:42:19Z</time>
      </trkpt>
      <trkpt lat="48.81284" lon="2.46007">
        <ele>32.34</ele>
        <time>2019-02-16T08:42:37Z</time>
      </trkpt>
      <trkpt lat="48.81296" lon="2.46026">
        <ele>33.3</ele>
        <time>2019-02-16T08:42:50Z</time>
      </trkpt>
      <trkpt lat="48.81308" lon="2.46043">
        <ele>32.34</ele>
        <time>2019-02-16T08:43:05Z</time>
      </trkpt>
      <trkpt lat="48.81309" lon="2.46045">
        <ele>32.34</ele>
        <time>2019-02-16T08:43:06Z</time>
      </trkpt>
      <trkpt lat="48.81311" lon="2.46046">
        <ele>33.3</ele>
        <time>2019-02-16T08:43:07Z</time>
      </trkpt>
      <trkpt lat="48.81311" lon="2.46047">
        <ele>33.3</ele>
        <time>2019-02-16T08:43:08Z</time>
      </trkpt>
      <trkpt lat="48.81318" lon="2.46069">
        <ele>33.3</ele>
        <time>2019-02-16T08:43:20Z</time>
      </trkpt>
      <trkpt lat="48.81335" lon="2.46097">
        <ele>32.34</ele>
        <time>2019-02-16T08:43:37Z</time>
      </trkpt>
      <trkpt lat="48.8134" lon="2.46105">
        <ele>32.82</ele>
        <time>2019-02-16T08:43:44Z</time>
      </trkpt>
      <trkpt lat="48.81341" lon="2.46106">
        <ele>32.82</ele>
        <time>2019-02-16T08:43:45Z</time>
      </trkpt>
      <trkpt lat="48.81342" lon="2.46108">
        <ele>32.82</ele>
        <time>2019-02-16T08:43:46Z</time>
      </trkpt>
      <trkpt lat="48.81353" lon="2.46125">
        <ele>32.82</ele>
        <time>2019-02-16T08:43:59Z</time>
      </trkpt>
      <trkpt lat="48.81362" lon="2.4614">
        <ele>33.3</ele>
        <time>2019-02-16T08:44:12Z</time>
      </trkpt>
      <trkpt lat="48.81366" lon="2.46145">
        <ele>33.3</ele>
        <time>2019-02-16T08:44:16Z</time>
      </trkpt>
      <trkpt lat="48.81367" lon="2.46146">
        <ele>32.82</ele>
        <time>2019-02-16T08:44:17Z</time>
      </trkpt>
      <trkpt lat="48.81367" lon="2.46149">
        <ele>32.82</ele>
        <time>2019-02-16T08:44:18Z</time>
      </trkpt>
      <trkpt lat="48.81378" lon="2.46168">
        <ele>33.78</ele>
        <time>2019-02-16T08:44:33Z</time>
      </trkpt>
      <trkpt lat="48.81391" lon="2.4619">
        <ele>33.78</ele>
        <time>2019-02-16T08:44:49Z</time>
      </trkpt>
      <trkpt lat="48.81408" lon="2.46215">
        <ele>33.78</ele>
        <time>2019-02-16T08:45:06Z</time>
      </trkpt>
      <trkpt lat="48.81424" lon="2.46231">
        <ele>33.78</ele>
        <time>2019-02-16T08:45:24Z</time>
      </trkpt>
      <trkpt lat="48.81427" lon="2.46232">
        <ele>36.19</ele>
        <time>2019-02-16T08:45:33Z</time>
      </trkpt>
      <trkpt lat="48.81431" lon="2.4623">
        <ele>39.07</ele>
        <time>2019-02-16T08:45:42Z</time>
      </trkpt>
      <trkpt lat="48.81434" lon="2.4623">
        <ele>39.55</ele>
        <time>2019-02-16T08:45:45Z</time>
      </trkpt>
      <trkpt lat="48.81435" lon="2.46229">
        <ele>39.55</ele>
        <time>2019-02-16T08:45:46Z</time>
      </trkpt>
      <trkpt lat="48.81436" lon="2.46228">
        <ele>40.03</ele>
        <time>2019-02-16T08:45:47Z</time>
      </trkpt>
      <trkpt lat="48.81437" lon="2.46226">
        <ele>40.03</ele>
        <time>2019-02-16T08:45:48Z</time>
      </trkpt>
      <trkpt lat="48.81438" lon="2.46225">
        <ele>39.55</ele>
        <time>2019-02-16T08:45:49Z</time>
      </trkpt>
      <trkpt lat="48.81438" lon="2.46223">
        <ele>39.07</ele>
        <time>2019-02-16T08:45:50Z</time>
      </trkpt>
      <trkpt lat="48.81439" lon="2.46223">
        <ele>39.07</ele>
        <time>2019-02-16T08:45:51Z</time>
      </trkpt>
      <trkpt lat="48.8144" lon="2.46222">
        <ele>39.07</ele>
        <time>2019-02-16T08:45:52Z</time>
      </trkpt>
      <trkpt lat="48.81456" lon="2.46204">
        <ele>38.11</ele>
        <time>2019-02-16T08:46:07Z</time>
      </trkpt>
      <trkpt lat="48.81462" lon="2.46198">
        <ele>38.11</ele>
        <time>2019-02-16T08:46:13Z</time>
      </trkpt>
      <trkpt lat="48.81463" lon="2.46197">
        <ele>38.59</ele>
        <time>2019-02-16T08:46:14Z</time>
      </trkpt>
      <trkpt lat="48.81474" lon="2.46182">
        <ele>38.11</ele>
        <time>2019-02-16T08:46:26Z</time>
      </trkpt>
      <trkpt lat="48.81484" lon="2.46156">
        <ele>37.15</ele>
        <time>2019-02-16T08:46:41Z</time>
      </trkpt>
      <trkpt lat="48.81489" lon="2.46133">
        <ele>35.71</ele>
        <time>2019-02-16T08:46:55Z</time>
      </trkpt>
      <trkpt lat="48.81487" lon="2.46127">
        <ele>36.19</ele>
        <time>2019-02-16T08:47:01Z</time>
      </trkpt>
      <trkpt lat="48.81485" lon="2.46125">
        <ele>36.67</ele>
        <time>2019-02-16T08:47:02Z</time>
      </trkpt>
      <trkpt lat="48.81481" lon="2.46107">
        <ele>36.19</ele>
        <time>2019-02-16T08:47:11Z</time>
      </trkpt>
      <trkpt lat="48.81477" lon="2.46096">
        <ele>35.23</ele>
        <time>2019-02-16T08:47:18Z</time>
      </trkpt>
      <trkpt lat="48.81475" lon="2.46093">
        <ele>36.19</ele>
        <time>2019-02-16T08:47:22Z</time>
      </trkpt>
      <trkpt lat="48.81475" lon="2.46073">
        <ele>35.71</ele>
        <time>2019-02-16T08:47:33Z</time>
      </trkpt>
      <trkpt lat="48.81476" lon="2.46071">
        <ele>36.19</ele>
        <time>2019-02-16T08:47:34Z</time>
      </trkpt>
      <trkpt lat="48.81473" lon="2.46048">
        <ele>36.19</ele>
        <time>2019-02-16T08:47:46Z</time>
      </trkpt>
      <trkpt lat="48.81472" lon="2.4604">
        <ele>36.19</ele>
        <time>2019-02-16T08:47:51Z</time>
      </trkpt>
      <trkpt lat="48.81474" lon="2.46026">
        <ele>36.19</ele>
        <time>2019-02-16T08:47:57Z</time>
      </trkpt>
      <trkpt lat="48.81483" lon="2.45998">
        <ele>34.26</ele>
        <time>2019-02-16T08:48:09Z</time>
      </trkpt>
      <trkpt lat="48.81486" lon="2.45989">
        <ele>35.71</ele>
        <time>2019-02-16T08:48:13Z</time>
      </trkpt>
      <trkpt lat="48.81486" lon="2.45984">
        <ele>34.74</ele>
        <time>2019-02-16T08:48:15Z</time>
      </trkpt>
      <trkpt lat="48.81486" lon="2.45974">
        <ele>35.23</ele>
        <time>2019-02-16T08:48:20Z</time>
      </trkpt>
      <trkpt lat="48.81487" lon="2.45954">
        <ele>36.67</ele>
        <time>2019-02-16T08:48:33Z</time>
      </trkpt>
      <trkpt lat="48.81487" lon="2.45947">
        <ele>36.19</ele>
        <time>2019-02-16T08:48:37Z</time>
      </trkpt>
      <trkpt lat="48.8149" lon="2.45937">
        <ele>35.71</ele>
        <time>2019-02-16T08:48:48Z</time>
      </trkpt>
      <trkpt lat="48.81507" lon="2.45945">
        <ele>35.71</ele>
        <time>2019-02-16T08:49:05Z</time>
      </trkpt>
      <trkpt lat="48.81513" lon="2.45949">
        <ele>37.15</ele>
        <time>2019-02-16T08:49:22Z</time>
      </trkpt>
      <trkpt lat="48.81497" lon="2.45944">
        <ele>36.67</ele>
        <time>2019-02-16T08:49:39Z</time>
      </trkpt>
      <trkpt lat="48.81493" lon="2.45911">
        <ele>36.67</ele>
        <time>2019-02-16T08:50:00Z</time>
      </trkpt>
      <trkpt lat="48.81495" lon="2.45899">
        <ele>36.67</ele>
        <time>2019-02-16T08:50:04Z</time>
      </trkpt>
      <trkpt lat="48.81499" lon="2.45891">
        <ele>37.15</ele>
        <time>2019-02-16T08:50:25Z</time>
      </trkpt>
      <trkpt lat="48.81497" lon="2.45893">
        <ele>36.67</ele>
        <time>2019-02-16T08:50:29Z</time>
      </trkpt>
      <trkpt lat="48.81457" lon="2.45904">
        <ele>37.15</ele>
        <time>2019-02-16T08:50:49Z</time>
      </trkpt>
      <trkpt lat="48.81453" lon="2.45918">
        <ele>38.11</ele>
        <time>2019-02-16T08:51:04Z</time>
      </trkpt>
      <trkpt lat="48.81447" lon="2.45914">
        <ele>37.63</ele>
        <time>2019-02-16T08:51:21Z</time>
      </trkpt>
      <trkpt lat="48.81466" lon="2.45865">
        <ele>38.11</ele>
        <time>2019-02-16T08:51:32Z</time>
      </trkpt>
      <trkpt lat="48.81467" lon="2.45847">
        <ele>37.15</ele>
        <time>2019-02-16T08:51:41Z</time>
      </trkpt>
      <trkpt lat="48.81473" lon="2.4583">
        <ele>38.11</ele>
        <time>2019-02-16T08:51:54Z</time>
      </trkpt>
      <trkpt lat="48.81444" lon="2.45808">
        <ele>37.63</ele>
        <time>2019-02-16T08:52:11Z</time>
      </trkpt>
      <trkpt lat="48.81434" lon="2.45777">
        <ele>37.15</ele>
        <time>2019-02-16T08:52:24Z</time>
      </trkpt>
      <trkpt lat="48.81438" lon="2.45761">
        <ele>36.19</ele>
        <time>2019-02-16T08:52:35Z</time>
      </trkpt>
      <trkpt lat="48.81438" lon="2.4576">
        <ele>36.67</ele>
        <time>2019-02-16T08:52:36Z</time>
      </trkpt>
      <trkpt lat="48.81439" lon="2.45754">
        <ele>37.63</ele>
        <time>2019-02-16T08:52:39Z</time>
      </trkpt>
      <trkpt lat="48.81441" lon="2.45746">
        <ele>37.15</ele>
        <time>2019-02-16T08:52:42Z</time>
      </trkpt>
      <trkpt lat="48.81441" lon="2.45744">
        <ele>37.63</ele>
        <time>2019-02-16T08:52:43Z</time>
      </trkpt>
      <trkpt lat="48.81442" lon="2.45742">
        <ele>37.63</ele>
        <time>2019-02-16T08:52:44Z</time>
      </trkpt>
      <trkpt lat="48.81447" lon="2.45735">
        <ele>36.67</ele>
        <time>2019-02-16T08:52:49Z</time>
      </trkpt>
      <trkpt lat="48.81455" lon="2.45718">
        <ele>36.67</ele>
        <time>2019-02-16T08:53:03Z</time>
      </trkpt>
      <trkpt lat="48.81466" lon="2.45706">
        <ele>36.67</ele>
        <time>2019-02-16T08:53:14Z</time>
      </trkpt>
      <trkpt lat="48.8148" lon="2.45685">
        <ele>36.67</ele>
        <time>2019-02-16T08:53:25Z</time>
      </trkpt>
      <trkpt lat="48.81492" lon="2.45667">
        <ele>36.19</ele>
        <time>2019-02-16T08:53:39Z</time>
      </trkpt>
      <trkpt lat="48.81502" lon="2.45654">
        <ele>35.71</ele>
        <time>2019-02-16T08:53:53Z</time>
      </trkpt>
      <trkpt lat="48.81503" lon="2.45653">
        <ele>35.71</ele>
        <time>2019-02-16T08:53:54Z</time>
      </trkpt>
      <trkpt lat="48.81504" lon="2.45651">
        <ele>36.19</ele>
        <time>2019-02-16T08:53:55Z</time>
      </trkpt>
      <trkpt lat="48.81506" lon="2.45649">
        <ele>36.19</ele>
        <time>2019-02-16T08:53:56Z</time>
      </trkpt>
      <trkpt lat="48.81522" lon="2.45631">
        <ele>36.19</ele>
        <time>2019-02-16T08:54:09Z</time>
      </trkpt>
      <trkpt lat="48.81533" lon="2.45622">
        <ele>36.19</ele>
        <time>2019-02-16T08:54:23Z</time>
      </trkpt>
      <trkpt lat="48.81534" lon="2.45622">
        <ele>36.67</ele>
        <time>2019-02-16T08:54:24Z</time>
      </trkpt>
      <trkpt lat="48.8155" lon="2.45627">
        <ele>37.63</ele>
        <time>2019-02-16T08:54:37Z</time>
      </trkpt>
      <trkpt lat="48.81552" lon="2.4563">
        <ele>37.15</ele>
        <time>2019-02-16T08:54:40Z</time>
      </trkpt>
      <trkpt lat="48.81561" lon="2.4564">
        <ele>37.15</ele>
        <time>2019-02-16T08:54:51Z</time>
      </trkpt>
      <trkpt lat="48.81567" lon="2.45648">
        <ele>37.15</ele>
        <time>2019-02-16T08:55:01Z</time>
      </trkpt>
      <trkpt lat="48.81574" lon="2.45651">
        <ele>37.15</ele>
        <time>2019-02-16T08:55:15Z</time>
      </trkpt>
      <trkpt lat="48.81575" lon="2.45651">
        <ele>37.63</ele>
        <time>2019-02-16T08:55:29Z</time>
      </trkpt>
      <trkpt lat="48.81575" lon="2.45652">
        <ele>37.63</ele>
        <time>2019-02-16T08:55:47Z</time>
      </trkpt>
      <trkpt lat="48.81575" lon="2.45647">
        <ele>37.63</ele>
        <time>2019-02-16T08:56:05Z</time>
      </trkpt>
      <trkpt lat="48.81585" lon="2.45658">
        <ele>38.11</ele>
        <time>2019-02-16T08:56:23Z</time>
      </trkpt>
      <trkpt lat="48.81594" lon="2.45669">
        <ele>38.11</ele>
        <time>2019-02-16T08:56:35Z</time>
      </trkpt>
      <trkpt lat="48.81606" lon="2.45676">
        <ele>38.11</ele>
        <time>2019-02-16T08:56:45Z</time>
      </trkpt>
      <trkpt lat="48.81608" lon="2.45677">
        <ele>38.11</ele>
        <time>2019-02-16T08:56:46Z</time>
      </trkpt>
      <trkpt lat="48.81616" lon="2.45684">
        <ele>38.11</ele>
        <time>2019-02-16T08:56:56Z</time>
      </trkpt>
      <trkpt lat="48.81627" lon="2.45696">
        <ele>37.63</ele>
        <time>2019-02-16T08:57:08Z</time>
      </trkpt>
      <trkpt lat="48.81635" lon="2.45712">
        <ele>37.63</ele>
        <time>2019-02-16T08:57:17Z</time>
      </trkpt>
      <trkpt lat="48.81639" lon="2.45709">
        <ele>37.63</ele>
        <time>2019-02-16T08:57:18Z</time>
      </trkpt>
      <trkpt lat="48.81642" lon="2.45705">
        <ele>38.11</ele>
        <time>2019-02-16T08:57:19Z</time>
      </trkpt>
      <trkpt lat="48.81645" lon="2.45703">
        <ele>38.11</ele>
        <time>2019-02-16T08:57:20Z</time>
      </trkpt>
      <trkpt lat="48.81647" lon="2.45701">
        <ele>37.63</ele>
        <time>2019-02-16T08:57:21Z</time>
      </trkpt>
      <trkpt lat="48.81663" lon="2.45689">
        <ele>38.11</ele>
        <time>2019-02-16T08:57:28Z</time>
      </trkpt>
      <trkpt lat="48.81667" lon="2.45684">
        <ele>38.11</ele>
        <time>2019-02-16T08:57:30Z</time>
      </trkpt>
      <trkpt lat="48.81668" lon="2.45681">
        <ele>38.11</ele>
        <time>2019-02-16T08:57:31Z</time>
      </trkpt>
      <trkpt lat="48.81669" lon="2.45679">
        <ele>37.63</ele>
        <time>2019-02-16T08:57:32Z</time>
      </trkpt>
      <trkpt lat="48.81677" lon="2.45661">
        <ele>37.15</ele>
        <time>2019-02-16T08:57:42Z</time>
      </trkpt>
      <trkpt lat="48.81683" lon="2.45642">
        <ele>37.63</ele>
        <time>2019-02-16T08:57:52Z</time>
      </trkpt>
      <trkpt lat="48.81684" lon="2.45639">
        <ele>37.63</ele>
        <time>2019-02-16T08:57:53Z</time>
      </trkpt>
      <trkpt lat="48.81685" lon="2.45636">
        <ele>37.63</ele>
        <time>2019-02-16T08:57:54Z</time>
      </trkpt>
      <trkpt lat="48.81682" lon="2.45624">
        <ele>37.63</ele>
        <time>2019-02-16T08:58:03Z</time>
      </trkpt>
      <trkpt lat="48.81674" lon="2.45618">
        <ele>37.63</ele>
        <time>2019-02-16T08:58:07Z</time>
      </trkpt>
      <trkpt lat="48.81675" lon="2.45616">
        <ele>38.11</ele>
        <time>2019-02-16T08:58:08Z</time>
      </trkpt>
      <trkpt lat="48.81675" lon="2.45614">
        <ele>37.63</ele>
        <time>2019-02-16T08:58:09Z</time>
      </trkpt>
      <trkpt lat="48.81675" lon="2.45611">
        <ele>37.63</ele>
        <time>2019-02-16T08:58:10Z</time>
      </trkpt>
      <trkpt lat="48.81676" lon="2.45608">
        <ele>38.11</ele>
        <time>2019-02-16T08:58:11Z</time>
      </trkpt>
      <trkpt lat="48.81677" lon="2.45605">
        <ele>37.63</ele>
        <time>2019-02-16T08:58:12Z</time>
      </trkpt>
      <trkpt lat="48.81679" lon="2.45578">
        <ele>37.15</ele>
        <time>2019-02-16T08:58:23Z</time>
      </trkpt>
      <trkpt lat="48.81683" lon="2.45568">
        <ele>37.15</ele>
        <time>2019-02-16T08:58:34Z</time>
      </trkpt>
      <trkpt lat="48.81695" lon="2.45541">
        <ele>37.15</ele>
        <time>2019-02-16T08:58:45Z</time>
      </trkpt>
      <trkpt lat="48.81704" lon="2.45529">
        <ele>36.67</ele>
        <time>2019-02-16T08:58:57Z</time>
      </trkpt>
      <trkpt lat="48.81702" lon="2.45526">
        <ele>36.67</ele>
        <time>2019-02-16T08:59:01Z</time>
      </trkpt>
      <trkpt lat="48.81702" lon="2.45524">
        <ele>36.67</ele>
        <time>2019-02-16T08:59:02Z</time>
      </trkpt>
      <trkpt lat="48.81703" lon="2.45519">
        <ele>37.15</ele>
        <time>2019-02-16T08:59:04Z</time>
      </trkpt>
      <trkpt lat="48.81704" lon="2.45517">
        <ele>36.67</ele>
        <time>2019-02-16T08:59:05Z</time>
      </trkpt>
      <trkpt lat="48.81705" lon="2.45515">
        <ele>36.67</ele>
        <time>2019-02-16T08:59:06Z</time>
      </trkpt>
      <trkpt lat="48.81705" lon="2.4551">
        <ele>36.19</ele>
        <time>2019-02-16T08:59:08Z</time>
      </trkpt>
      <trkpt lat="48.81704" lon="2.45507">
        <ele>36.67</ele>
        <time>2019-02-16T08:59:09Z</time>
      </trkpt>
      <trkpt lat="48.81703" lon="2.45504">
        <ele>36.19</ele>
        <time>2019-02-16T08:59:10Z</time>
      </trkpt>
      <trkpt lat="48.81704" lon="2.45501">
        <ele>36.67</ele>
        <time>2019-02-16T08:59:11Z</time>
      </trkpt>
      <trkpt lat="48.81704" lon="2.45498">
        <ele>37.15</ele>
        <time>2019-02-16T08:59:12Z</time>
      </trkpt>
      <trkpt lat="48.81705" lon="2.45495">
        <ele>36.67</ele>
        <time>2019-02-16T08:59:13Z</time>
      </trkpt>
      <trkpt lat="48.81704" lon="2.45494">
        <ele>36.67</ele>
        <time>2019-02-16T08:59:14Z</time>
      </trkpt>
      <trkpt lat="48.81703" lon="2.45492">
        <ele>36.67</ele>
        <time>2019-02-16T08:59:15Z</time>
      </trkpt>
      <trkpt lat="48.81704" lon="2.45489">
        <ele>36.67</ele>
        <time>2019-02-16T08:59:16Z</time>
      </trkpt>
      <trkpt lat="48.81714" lon="2.45458">
        <ele>37.15</ele>
        <time>2019-02-16T08:59:32Z</time>
      </trkpt>
      <trkpt lat="48.81719" lon="2.45452">
        <ele>37.15</ele>
        <time>2019-02-16T08:59:39Z</time>
      </trkpt>
      <trkpt lat="48.8172" lon="2.45451">
        <ele>37.15</ele>
        <time>2019-02-16T08:59:40Z</time>
      </trkpt>
      <trkpt lat="48.81721" lon="2.4545">
        <ele>36.67</ele>
        <time>2019-02-16T08:59:41Z</time>
      </trkpt>
      <trkpt lat="48.81737" lon="2.45423">
        <ele>37.63</ele>
        <time>2019-02-16T08:59:59Z</time>
      </trkpt>
      <trkpt lat="48.81701" lon="2.45386">
        <ele>38.11</ele>
        <time>2019-02-16T09:00:16Z</time>
      </trkpt>
      <trkpt lat="48.81715" lon="2.4535">
        <ele>38.11</ele>
        <time>2019-02-16T09:00:26Z</time>
      </trkpt>
      <trkpt lat="48.8171" lon="2.45341">
        <ele>37.15</ele>
        <time>2019-02-16T09:00:28Z</time>
      </trkpt>
      <trkpt lat="48.81709" lon="2.45338">
        <ele>36.67</ele>
        <time>2019-02-16T09:00:29Z</time>
      </trkpt>
      <trkpt lat="48.81709" lon="2.45335">
        <ele>36.19</ele>
        <time>2019-02-16T09:00:30Z</time>
      </trkpt>
      <trkpt lat="48.81709" lon="2.4533">
        <ele>36.67</ele>
        <time>2019-02-16T09:00:32Z</time>
      </trkpt>
      <trkpt lat="48.81714" lon="2.45321">
        <ele>37.63</ele>
        <time>2019-02-16T09:00:40Z</time>
      </trkpt>
      <trkpt lat="48.81715" lon="2.45308">
        <ele>37.15</ele>
        <time>2019-02-16T09:00:53Z</time>
      </trkpt>
      <trkpt lat="48.8172" lon="2.45294">
        <ele>37.15</ele>
        <time>2019-02-16T09:00:57Z</time>
      </trkpt>
      <trkpt lat="48.81733" lon="2.45289">
        <ele>37.63</ele>
        <time>2019-02-16T09:01:09Z</time>
      </trkpt>
      <trkpt lat="48.81734" lon="2.4529">
        <ele>37.63</ele>
        <time>2019-02-16T09:01:13Z</time>
      </trkpt>
      <trkpt lat="48.8174" lon="2.45305">
        <ele>39.07</ele>
        <time>2019-02-16T09:01:23Z</time>
      </trkpt>
      <trkpt lat="48.8174" lon="2.45309">
        <ele>40.03</ele>
        <time>2019-02-16T09:01:27Z</time>
      </trkpt>
      <trkpt lat="48.8174" lon="2.4532">
        <ele>39.55</ele>
        <time>2019-02-16T09:01:32Z</time>
      </trkpt>
      <trkpt lat="48.81746" lon="2.45327">
        <ele>40.99</ele>
        <time>2019-02-16T09:01:39Z</time>
      </trkpt>
      <trkpt lat="48.81752" lon="2.45312">
        <ele>42.44</ele>
        <time>2019-02-16T09:01:50Z</time>
      </trkpt>
      <trkpt lat="48.81755" lon="2.45304">
        <ele>41.95</ele>
        <time>2019-02-16T09:01:53Z</time>
      </trkpt>
      <trkpt lat="48.81762" lon="2.45281">
        <ele>43.4</ele>
        <time>2019-02-16T09:02:07Z</time>
      </trkpt>
      <trkpt lat="48.8177" lon="2.45262">
        <ele>43.88</ele>
        <time>2019-02-16T09:02:18Z</time>
      </trkpt>
      <trkpt lat="48.81776" lon="2.45241">
        <ele>45.32</ele>
        <time>2019-02-16T09:02:30Z</time>
      </trkpt>
      <trkpt lat="48.81776" lon="2.45237">
        <ele>45.32</ele>
        <time>2019-02-16T09:02:33Z</time>
      </trkpt>
      <trkpt lat="48.81776" lon="2.45235">
        <ele>45.32</ele>
        <time>2019-02-16T09:02:34Z</time>
      </trkpt>
      <trkpt lat="48.81776" lon="2.45231">
        <ele>45.8</ele>
        <time>2019-02-16T09:02:36Z</time>
      </trkpt>
      <trkpt lat="48.81777" lon="2.45229">
        <ele>45.8</ele>
        <time>2019-02-16T09:02:37Z</time>
      </trkpt>
      <trkpt lat="48.81778" lon="2.45227">
        <ele>45.8</ele>
        <time>2019-02-16T09:02:38Z</time>
      </trkpt>
      <trkpt lat="48.81781" lon="2.45215">
        <ele>46.28</ele>
        <time>2019-02-16T09:02:48Z</time>
      </trkpt>
      <trkpt lat="48.81783" lon="2.45208">
        <ele>46.76</ele>
        <time>2019-02-16T09:02:51Z</time>
      </trkpt>
      <trkpt lat="48.81789" lon="2.45196">
        <ele>46.76</ele>
        <time>2019-02-16T09:02:59Z</time>
      </trkpt>
      <trkpt lat="48.81789" lon="2.45193">
        <ele>47.72</ele>
        <time>2019-02-16T09:03:00Z</time>
      </trkpt>
      <trkpt lat="48.81794" lon="2.4517">
        <ele>48.2</ele>
        <time>2019-02-16T09:03:13Z</time>
      </trkpt>
      <trkpt lat="48.81801" lon="2.45146">
        <ele>49.65</ele>
        <time>2019-02-16T09:03:26Z</time>
      </trkpt>
      <trkpt lat="48.81802" lon="2.45136">
        <ele>50.13</ele>
        <time>2019-02-16T09:03:32Z</time>
      </trkpt>
      <trkpt lat="48.81807" lon="2.4512">
        <ele>50.13</ele>
        <time>2019-02-16T09:03:44Z</time>
      </trkpt>
      <trkpt lat="48.81809" lon="2.45114">
        <ele>51.57</ele>
        <time>2019-02-16T09:04:00Z</time>
      </trkpt>
      <trkpt lat="48.8181" lon="2.45109">
        <ele>52.05</ele>
        <time>2019-02-16T09:04:13Z</time>
      </trkpt>
      <trkpt lat="48.81812" lon="2.45106">
        <ele>47.72</ele>
        <time>2019-02-16T09:04:18Z</time>
      </trkpt>
      <trkpt lat="48.81812" lon="2.45105">
        <ele>53.97</ele>
        <time>2019-02-16T09:04:19Z</time>
      </trkpt>
      <trkpt lat="48.81813" lon="2.45082">
        <ele>52.05</ele>
        <time>2019-02-16T09:04:33Z</time>
      </trkpt>
      <trkpt lat="48.81814" lon="2.45081">
        <ele>52.05</ele>
        <time>2019-02-16T09:04:34Z</time>
      </trkpt>
      <trkpt lat="48.81814" lon="2.45079">
        <ele>52.05</ele>
        <time>2019-02-16T09:04:35Z</time>
      </trkpt>
      <trkpt lat="48.81815" lon="2.45078">
        <ele>52.53</ele>
        <time>2019-02-16T09:04:36Z</time>
      </trkpt>
      <trkpt lat="48.81817" lon="2.45062">
        <ele>53.01</ele>
        <time>2019-02-16T09:04:46Z</time>
      </trkpt>
      <trkpt lat="48.81822" lon="2.45044">
        <ele>53.01</ele>
        <time>2019-02-16T09:04:59Z</time>
      </trkpt>
      <trkpt lat="48.81823" lon="2.45025">
        <ele>53.49</ele>
        <time>2019-02-16T09:05:12Z</time>
      </trkpt>
      <trkpt lat="48.81826" lon="2.45008">
        <ele>53.49</ele>
        <time>2019-02-16T09:05:22Z</time>
      </trkpt>
      <trkpt lat="48.81827" lon="2.45006">
        <ele>53.49</ele>
        <time>2019-02-16T09:05:23Z</time>
      </trkpt>
      <trkpt lat="48.81834" lon="2.44988">
        <ele>55.89</ele>
        <time>2019-02-16T09:05:36Z</time>
      </trkpt>
      <trkpt lat="48.81837" lon="2.4499">
        <ele>57.34</ele>
        <time>2019-02-16T09:05:39Z</time>
      </trkpt>
      <trkpt lat="48.81838" lon="2.44993">
        <ele>57.82</ele>
        <time>2019-02-16T09:05:41Z</time>
      </trkpt>
      <trkpt lat="48.81841" lon="2.45004">
        <ele>58.78</ele>
        <time>2019-02-16T09:05:50Z</time>
      </trkpt>
      <trkpt lat="48.81842" lon="2.45017">
        <ele>60.22</ele>
        <time>2019-02-16T09:06:00Z</time>
      </trkpt>
      <trkpt lat="48.81842" lon="2.45031">
        <ele>61.66</ele>
        <time>2019-02-16T09:06:09Z</time>
      </trkpt>
      <trkpt lat="48.81843" lon="2.4504">
        <ele>62.14</ele>
        <time>2019-02-16T09:06:22Z</time>
      </trkpt>
      <trkpt lat="48.81844" lon="2.45051">
        <ele>63.58</ele>
        <time>2019-02-16T09:06:34Z</time>
      </trkpt>
      <trkpt lat="48.81842" lon="2.45058">
        <ele>64.55</ele>
        <time>2019-02-16T09:06:44Z</time>
      </trkpt>
      <trkpt lat="48.81843" lon="2.45071">
        <ele>65.51</ele>
        <time>2019-02-16T09:06:53Z</time>
      </trkpt>
      <trkpt lat="48.81843" lon="2.45092">
        <ele>66.95</ele>
        <time>2019-02-16T09:07:05Z</time>
      </trkpt>
      <trkpt lat="48.81844" lon="2.45094">
        <ele>67.43</ele>
        <time>2019-02-16T09:07:06Z</time>
      </trkpt>
      <trkpt lat="48.81851" lon="2.45108">
        <ele>69.35</ele>
        <time>2019-02-16T09:07:17Z</time>
      </trkpt>
      <trkpt lat="48.81855" lon="2.45116">
        <ele>69.83</ele>
        <time>2019-02-16T09:07:29Z</time>
      </trkpt>
      <trkpt lat="48.81864" lon="2.45112">
        <ele>69.83</ele>
        <time>2019-02-16T09:07:41Z</time>
      </trkpt>
      <trkpt lat="48.81867" lon="2.45104">
        <ele>69.35</ele>
        <time>2019-02-16T09:07:53Z</time>
      </trkpt>
      <trkpt lat="48.81871" lon="2.45096">
        <ele>69.83</ele>
        <time>2019-02-16T09:08:08Z</time>
      </trkpt>
      <trkpt lat="48.8187" lon="2.45095">
        <ele>69.83</ele>
        <time>2019-02-16T09:08:11Z</time>
      </trkpt>
      <trkpt lat="48.81879" lon="2.45079">
        <ele>70.79</ele>
        <time>2019-02-16T09:08:22Z</time>
      </trkpt>
      <trkpt lat="48.81886" lon="2.45065">
        <ele>70.31</ele>
        <time>2019-02-16T09:08:31Z</time>
      </trkpt>
      <trkpt lat="48.81892" lon="2.45043">
        <ele>71.27</ele>
        <time>2019-02-16T09:08:44Z</time>
      </trkpt>
      <trkpt lat="48.81893" lon="2.4504">
        <ele>71.27</ele>
        <time>2019-02-16T09:08:46Z</time>
      </trkpt>
      <trkpt lat="48.81903" lon="2.45017">
        <ele>71.27</ele>
        <time>2019-02-16T09:09:02Z</time>
      </trkpt>
      <trkpt lat="48.81908" lon="2.45009">
        <ele>70.79</ele>
        <time>2019-02-16T09:09:08Z</time>
      </trkpt>
      <trkpt lat="48.81915" lon="2.44991">
        <ele>71.27</ele>
        <time>2019-02-16T09:09:19Z</time>
      </trkpt>
      <trkpt lat="48.81922" lon="2.4498">
        <ele>71.27</ele>
        <time>2019-02-16T09:09:29Z</time>
      </trkpt>
      <trkpt lat="48.81924" lon="2.44978">
        <ele>70.79</ele>
        <time>2019-02-16T09:09:31Z</time>
      </trkpt>
      <trkpt lat="48.81938" lon="2.44953">
        <ele>70.31</ele>
        <time>2019-02-16T09:09:47Z</time>
      </trkpt>
      <trkpt lat="48.81939" lon="2.44952">
        <ele>70.79</ele>
        <time>2019-02-16T09:09:48Z</time>
      </trkpt>
      <trkpt lat="48.81941" lon="2.44946">
        <ele>70.31</ele>
        <time>2019-02-16T09:09:52Z</time>
      </trkpt>
      <trkpt lat="48.81942" lon="2.44943">
        <ele>70.31</ele>
        <time>2019-02-16T09:09:54Z</time>
      </trkpt>
      <trkpt lat="48.81952" lon="2.44926">
        <ele>70.31</ele>
        <time>2019-02-16T09:10:08Z</time>
      </trkpt>
      <trkpt lat="48.81953" lon="2.4492">
        <ele>70.31</ele>
        <time>2019-02-16T09:10:15Z</time>
      </trkpt>
      <trkpt lat="48.81961" lon="2.44902">
        <ele>70.31</ele>
        <time>2019-02-16T09:10:26Z</time>
      </trkpt>
      <trkpt lat="48.81963" lon="2.44889">
        <ele>70.31</ele>
        <time>2019-02-16T09:10:36Z</time>
      </trkpt>
      <trkpt lat="48.81968" lon="2.44875">
        <ele>70.31</ele>
        <time>2019-02-16T09:10:47Z</time>
      </trkpt>
      <trkpt lat="48.81969" lon="2.44857">
        <ele>70.31</ele>
        <time>2019-02-16T09:11:00Z</time>
      </trkpt>
      <trkpt lat="48.8197" lon="2.44838">
        <ele>70.31</ele>
        <time>2019-02-16T09:11:11Z</time>
      </trkpt>
      <trkpt lat="48.81969" lon="2.44817">
        <ele>70.31</ele>
        <time>2019-02-16T09:11:24Z</time>
      </trkpt>
      <trkpt lat="48.81967" lon="2.4479">
        <ele>70.31</ele>
        <time>2019-02-16T09:11:37Z</time>
      </trkpt>
      <trkpt lat="48.81964" lon="2.44777">
        <ele>69.83</ele>
        <time>2019-02-16T09:11:46Z</time>
      </trkpt>
      <trkpt lat="48.81962" lon="2.44766">
        <ele>70.31</ele>
        <time>2019-02-16T09:11:53Z</time>
      </trkpt>
      <trkpt lat="48.8196" lon="2.44734">
        <ele>70.31</ele>
        <time>2019-02-16T09:12:09Z</time>
      </trkpt>
      <trkpt lat="48.81966" lon="2.44706">
        <ele>72.24</ele>
        <time>2019-02-16T09:12:25Z</time>
      </trkpt>
      <trkpt lat="48.81977" lon="2.44685">
        <ele>70.31</ele>
        <time>2019-02-16T09:12:40Z</time>
      </trkpt>
      <trkpt lat="48.81979" lon="2.44683">
        <ele>70.79</ele>
        <time>2019-02-16T09:12:43Z</time>
      </trkpt>
      <trkpt lat="48.81989" lon="2.44666">
        <ele>69.35</ele>
        <time>2019-02-16T09:12:54Z</time>
      </trkpt>
      <trkpt lat="48.81996" lon="2.4465">
        <ele>69.35</ele>
        <time>2019-02-16T09:13:05Z</time>
      </trkpt>
      <trkpt lat="48.81997" lon="2.44647">
        <ele>69.35</ele>
        <time>2019-02-16T09:13:07Z</time>
      </trkpt>
      <trkpt lat="48.81998" lon="2.44644">
        <ele>69.35</ele>
        <time>2019-02-16T09:13:08Z</time>
      </trkpt>
      <trkpt lat="48.81999" lon="2.44643">
        <ele>68.87</ele>
        <time>2019-02-16T09:13:09Z</time>
      </trkpt>
      <trkpt lat="48.82001" lon="2.44639">
        <ele>68.39</ele>
        <time>2019-02-16T09:13:11Z</time>
      </trkpt>
      <trkpt lat="48.82001" lon="2.44636">
        <ele>69.35</ele>
        <time>2019-02-16T09:13:13Z</time>
      </trkpt>
      <trkpt lat="48.8201" lon="2.44608">
        <ele>68.87</ele>
        <time>2019-02-16T09:13:28Z</time>
      </trkpt>
      <trkpt lat="48.82015" lon="2.44587">
        <ele>68.87</ele>
        <time>2019-02-16T09:13:42Z</time>
      </trkpt>
      <trkpt lat="48.82016" lon="2.44562">
        <ele>68.39</ele>
        <time>2019-02-16T09:13:56Z</time>
      </trkpt>
      <trkpt lat="48.82018" lon="2.44556">
        <ele>67.91</ele>
        <time>2019-02-16T09:14:00Z</time>
      </trkpt>
      <trkpt lat="48.82027" lon="2.4454">
        <ele>67.91</ele>
        <time>2019-02-16T09:14:09Z</time>
      </trkpt>
      <trkpt lat="48.82036" lon="2.44525">
        <ele>67.91</ele>
        <time>2019-02-16T09:14:21Z</time>
      </trkpt>
      <trkpt lat="48.82053" lon="2.4452">
        <ele>67.91</ele>
        <time>2019-02-16T09:14:33Z</time>
      </trkpt>
      <trkpt lat="48.82061" lon="2.44523">
        <ele>67.91</ele>
        <time>2019-02-16T09:14:39Z</time>
      </trkpt>
      <trkpt lat="48.82066" lon="2.44514">
        <ele>68.87</ele>
        <time>2019-02-16T09:14:49Z</time>
      </trkpt>
      <trkpt lat="48.82068" lon="2.4451">
        <ele>68.39</ele>
        <time>2019-02-16T09:14:52Z</time>
      </trkpt>
      <trkpt lat="48.82069" lon="2.44507">
        <ele>68.39</ele>
        <time>2019-02-16T09:14:55Z</time>
      </trkpt>
      <trkpt lat="48.8207" lon="2.44505">
        <ele>68.39</ele>
        <time>2019-02-16T09:14:56Z</time>
      </trkpt>
      <trkpt lat="48.8207" lon="2.44504">
        <ele>68.87</ele>
        <time>2019-02-16T09:14:57Z</time>
      </trkpt>
      <trkpt lat="48.82078" lon="2.44491">
        <ele>67.91</ele>
        <time>2019-02-16T09:15:10Z</time>
      </trkpt>
      <trkpt lat="48.82086" lon="2.44477">
        <ele>67.43</ele>
        <time>2019-02-16T09:15:22Z</time>
      </trkpt>
      <trkpt lat="48.82091" lon="2.44476">
        <ele>67.43</ele>
        <time>2019-02-16T09:15:35Z</time>
      </trkpt>
      <trkpt lat="48.82087" lon="2.44479">
        <ele>65.03</ele>
        <time>2019-02-16T09:15:52Z</time>
      </trkpt>
      <trkpt lat="48.82087" lon="2.44479">
        <ele>68.87</ele>
        <time>2019-02-16T09:15:53Z</time>
      </trkpt>
      <trkpt lat="48.82086" lon="2.44478">
        <ele>63.1</ele>
        <time>2019-02-16T09:15:55Z</time>
      </trkpt>
      <trkpt lat="48.82085" lon="2.44478">
        <ele>72.72</ele>
        <time>2019-02-16T09:15:56Z</time>
      </trkpt>
      <trkpt lat="48.82085" lon="2.44478">
        <ele>68.39</ele>
        <time>2019-02-16T09:15:57Z</time>
      </trkpt>
      <trkpt lat="48.82079" lon="2.44478">
        <ele>68.39</ele>
        <time>2019-02-16T09:16:17Z</time>
      </trkpt>
      <trkpt lat="48.82082" lon="2.44476">
        <ele>68.39</ele>
        <time>2019-02-16T09:16:40Z</time>
      </trkpt>
      <trkpt lat="48.82092" lon="2.44466">
        <ele>67.91</ele>
        <time>2019-02-16T09:16:55Z</time>
      </trkpt>
      <trkpt lat="48.82095" lon="2.44457">
        <ele>68.39</ele>
        <time>2019-02-16T09:17:04Z</time>
      </trkpt>
      <trkpt lat="48.82096" lon="2.44454">
        <ele>67.91</ele>
        <time>2019-02-16T09:17:05Z</time>
      </trkpt>
      <trkpt lat="48.82104" lon="2.44446">
        <ele>68.39</ele>
        <time>2019-02-16T09:17:15Z</time>
      </trkpt>
      <trkpt lat="48.82106" lon="2.44437">
        <ele>67.91</ele>
        <time>2019-02-16T09:17:27Z</time>
      </trkpt>
      <trkpt lat="48.82105" lon="2.44436">
        <ele>68.39</ele>
        <time>2019-02-16T09:17:28Z</time>
      </trkpt>
      <trkpt lat="48.82105" lon="2.44418">
        <ele>67.43</ele>
        <time>2019-02-16T09:17:40Z</time>
      </trkpt>
      <trkpt lat="48.82111" lon="2.44401">
        <ele>66.95</ele>
        <time>2019-02-16T09:17:51Z</time>
      </trkpt>
      <trkpt lat="48.82111" lon="2.44398">
        <ele>66.47</ele>
        <time>2019-02-16T09:17:53Z</time>
      </trkpt>
      <trkpt lat="48.82114" lon="2.44384">
        <ele>66.95</ele>
        <time>2019-02-16T09:18:04Z</time>
      </trkpt>
      <trkpt lat="48.82115" lon="2.44381">
        <ele>66.47</ele>
        <time>2019-02-16T09:18:06Z</time>
      </trkpt>
      <trkpt lat="48.82124" lon="2.44368">
        <ele>66.47</ele>
        <time>2019-02-16T09:18:16Z</time>
      </trkpt>
      <trkpt lat="48.82124" lon="2.44367">
        <ele>65.99</ele>
        <time>2019-02-16T09:18:17Z</time>
      </trkpt>
      <trkpt lat="48.82126" lon="2.44347">
        <ele>65.99</ele>
        <time>2019-02-16T09:18:31Z</time>
      </trkpt>
      <trkpt lat="48.82132" lon="2.44336">
        <ele>66.47</ele>
        <time>2019-02-16T09:18:41Z</time>
      </trkpt>
      <trkpt lat="48.82129" lon="2.44322">
        <ele>65.99</ele>
        <time>2019-02-16T09:18:53Z</time>
      </trkpt>
      <trkpt lat="48.8213" lon="2.44315">
        <ele>65.51</ele>
        <time>2019-02-16T09:19:01Z</time>
      </trkpt>
      <trkpt lat="48.8213" lon="2.44313">
        <ele>65.99</ele>
        <time>2019-02-16T09:19:02Z</time>
      </trkpt>
      <trkpt lat="48.8213" lon="2.4431">
        <ele>65.99</ele>
        <time>2019-02-16T09:19:03Z</time>
      </trkpt>
      <trkpt lat="48.82132" lon="2.44306">
        <ele>65.51</ele>
        <time>2019-02-16T09:19:08Z</time>
      </trkpt>
      <trkpt lat="48.82134" lon="2.44304">
        <ele>65.99</ele>
        <time>2019-02-16T09:19:10Z</time>
      </trkpt>
      <trkpt lat="48.82135" lon="2.44302">
        <ele>65.99</ele>
        <time>2019-02-16T09:19:11Z</time>
      </trkpt>
      <trkpt lat="48.82136" lon="2.44299">
        <ele>65.51</ele>
        <time>2019-02-16T09:19:12Z</time>
      </trkpt>
      <trkpt lat="48.82136" lon="2.44297">
        <ele>65.51</ele>
        <time>2019-02-16T09:19:13Z</time>
      </trkpt>
      <trkpt lat="48.82137" lon="2.44294">
        <ele>66.47</ele>
        <time>2019-02-16T09:19:14Z</time>
      </trkpt>
      <trkpt lat="48.82138" lon="2.44292">
        <ele>65.99</ele>
        <time>2019-02-16T09:19:15Z</time>
      </trkpt>
      <trkpt lat="48.82142" lon="2.44287">
        <ele>65.99</ele>
        <time>2019-02-16T09:19:20Z</time>
      </trkpt>
      <trkpt lat="48.82142" lon="2.44286">
        <ele>65.99</ele>
        <time>2019-02-16T09:19:21Z</time>
      </trkpt>
      <trkpt lat="48.82141" lon="2.44284">
        <ele>66.47</ele>
        <time>2019-02-16T09:19:22Z</time>
      </trkpt>
      <trkpt lat="48.82143" lon="2.4427">
        <ele>65.99</ele>
        <time>2019-02-16T09:19:30Z</time>
      </trkpt>
      <trkpt lat="48.8215" lon="2.44261">
        <ele>66.47</ele>
        <time>2019-02-16T09:19:39Z</time>
      </trkpt>
      <trkpt lat="48.82155" lon="2.44249">
        <ele>65.51</ele>
        <time>2019-02-16T09:19:48Z</time>
      </trkpt>
      <trkpt lat="48.82162" lon="2.4423">
        <ele>65.99</ele>
        <time>2019-02-16T09:19:59Z</time>
      </trkpt>
      <trkpt lat="48.82169" lon="2.44222">
        <ele>65.51</ele>
        <time>2019-02-16T09:20:09Z</time>
      </trkpt>
      <trkpt lat="48.82171" lon="2.44216">
        <ele>65.03</ele>
        <time>2019-02-16T09:20:20Z</time>
      </trkpt>
      <trkpt lat="48.82173" lon="2.44214">
        <ele>66.47</ele>
        <time>2019-02-16T09:20:22Z</time>
      </trkpt>
      <trkpt lat="48.82174" lon="2.44213">
        <ele>65.99</ele>
        <time>2019-02-16T09:20:23Z</time>
      </trkpt>
      <trkpt lat="48.82174" lon="2.44211">
        <ele>65.51</ele>
        <time>2019-02-16T09:20:24Z</time>
      </trkpt>
      <trkpt lat="48.82175" lon="2.44209">
        <ele>65.99</ele>
        <time>2019-02-16T09:20:25Z</time>
      </trkpt>
      <trkpt lat="48.82176" lon="2.44207">
        <ele>65.51</ele>
        <time>2019-02-16T09:20:26Z</time>
      </trkpt>
      <trkpt lat="48.82177" lon="2.44202">
        <ele>65.03</ele>
        <time>2019-02-16T09:20:29Z</time>
      </trkpt>
      <trkpt lat="48.82179" lon="2.44201">
        <ele>65.03</ele>
        <time>2019-02-16T09:20:30Z</time>
      </trkpt>
      <trkpt lat="48.82179" lon="2.44199">
        <ele>65.51</ele>
        <time>2019-02-16T09:20:31Z</time>
      </trkpt>
      <trkpt lat="48.8218" lon="2.44197">
        <ele>64.55</ele>
        <time>2019-02-16T09:20:32Z</time>
      </trkpt>
      <trkpt lat="48.82182" lon="2.44194">
        <ele>65.03</ele>
        <time>2019-02-16T09:20:33Z</time>
      </trkpt>
      <trkpt lat="48.82183" lon="2.44192">
        <ele>65.03</ele>
        <time>2019-02-16T09:20:34Z</time>
      </trkpt>
      <trkpt lat="48.82184" lon="2.4419">
        <ele>65.51</ele>
        <time>2019-02-16T09:20:35Z</time>
      </trkpt>
      <trkpt lat="48.82188" lon="2.4417">
        <ele>65.51</ele>
        <time>2019-02-16T09:20:44Z</time>
      </trkpt>
      <trkpt lat="48.82189" lon="2.44167">
        <ele>65.03</ele>
        <time>2019-02-16T09:20:46Z</time>
      </trkpt>
      <trkpt lat="48.8219" lon="2.44162">
        <ele>64.55</ele>
        <time>2019-02-16T09:20:55Z</time>
      </trkpt>
      <trkpt lat="48.8219" lon="2.4416">
        <ele>64.55</ele>
        <time>2019-02-16T09:20:56Z</time>
      </trkpt>
      <trkpt lat="48.8219" lon="2.44158">
        <ele>64.55</ele>
        <time>2019-02-16T09:20:57Z</time>
      </trkpt>
      <trkpt lat="48.8219" lon="2.44144">
        <ele>65.03</ele>
        <time>2019-02-16T09:21:06Z</time>
      </trkpt>
      <trkpt lat="48.82191" lon="2.44141">
        <ele>65.51</ele>
        <time>2019-02-16T09:21:07Z</time>
      </trkpt>
      <trkpt lat="48.82192" lon="2.44134">
        <ele>64.55</ele>
        <time>2019-02-16T09:21:13Z</time>
      </trkpt>
      <trkpt lat="48.82192" lon="2.44132">
        <ele>64.55</ele>
        <time>2019-02-16T09:21:14Z</time>
      </trkpt>
      <trkpt lat="48.82192" lon="2.4413">
        <ele>64.07</ele>
        <time>2019-02-16T09:21:15Z</time>
      </trkpt>
      <trkpt lat="48.82192" lon="2.44128">
        <ele>65.51</ele>
        <time>2019-02-16T09:21:16Z</time>
      </trkpt>
      <trkpt lat="48.82193" lon="2.44127">
        <ele>64.07</ele>
        <time>2019-02-16T09:21:17Z</time>
      </trkpt>
      <trkpt lat="48.82193" lon="2.44124">
        <ele>64.55</ele>
        <time>2019-02-16T09:21:18Z</time>
      </trkpt>
      <trkpt lat="48.82193" lon="2.4412">
        <ele>64.55</ele>
        <time>2019-02-16T09:21:20Z</time>
      </trkpt>
      <trkpt lat="48.82194" lon="2.44117">
        <ele>64.55</ele>
        <time>2019-02-16T09:21:21Z</time>
      </trkpt>
      <trkpt lat="48.82194" lon="2.44115">
        <ele>65.03</ele>
        <time>2019-02-16T09:21:22Z</time>
      </trkpt>
      <trkpt lat="48.822" lon="2.44105">
        <ele>64.07</ele>
        <time>2019-02-16T09:21:30Z</time>
      </trkpt>
      <trkpt lat="48.822" lon="2.44103">
        <ele>64.07</ele>
        <time>2019-02-16T09:21:31Z</time>
      </trkpt>
      <trkpt lat="48.82207" lon="2.44095">
        <ele>63.58</ele>
        <time>2019-02-16T09:21:43Z</time>
      </trkpt>
      <trkpt lat="48.82208" lon="2.44093">
        <ele>64.07</ele>
        <time>2019-02-16T09:21:50Z</time>
      </trkpt>
      <trkpt lat="48.82208" lon="2.44093">
        <ele>65.03</ele>
        <time>2019-02-16T09:21:51Z</time>
      </trkpt>
      <trkpt lat="48.82204" lon="2.44093">
        <ele>64.07</ele>
        <time>2019-02-16T09:22:02Z</time>
      </trkpt>
      <trkpt lat="48.82203" lon="2.4409">
        <ele>64.07</ele>
        <time>2019-02-16T09:22:04Z</time>
      </trkpt>
      <trkpt lat="48.82201" lon="2.44084">
        <ele>64.55</ele>
        <time>2019-02-16T09:22:09Z</time>
      </trkpt>
      <trkpt lat="48.822" lon="2.44078">
        <ele>64.55</ele>
        <time>2019-02-16T09:22:12Z</time>
      </trkpt>
      <trkpt lat="48.822" lon="2.44067">
        <ele>64.55</ele>
        <time>2019-02-16T09:22:17Z</time>
      </trkpt>
      <trkpt lat="48.82201" lon="2.44065">
        <ele>64.55</ele>
        <time>2019-02-16T09:22:18Z</time>
      </trkpt>
      <trkpt lat="48.82201" lon="2.44063">
        <ele>64.55</ele>
        <time>2019-02-16T09:22:19Z</time>
      </trkpt>
      <trkpt lat="48.82201" lon="2.44061">
        <ele>64.07</ele>
        <time>2019-02-16T09:22:20Z</time>
      </trkpt>
      <trkpt lat="48.82201" lon="2.44059">
        <ele>64.07</ele>
        <time>2019-02-16T09:22:21Z</time>
      </trkpt>
      <trkpt lat="48.82201" lon="2.44046">
        <ele>64.07</ele>
        <time>2019-02-16T09:22:26Z</time>
      </trkpt>
      <trkpt lat="48.82202" lon="2.44044">
        <ele>64.07</ele>
        <time>2019-02-16T09:22:27Z</time>
      </trkpt>
      <trkpt lat="48.82202" lon="2.44041">
        <ele>65.03</ele>
        <time>2019-02-16T09:22:28Z</time>
      </trkpt>
      <trkpt lat="48.82206" lon="2.44027">
        <ele>64.07</ele>
        <time>2019-02-16T09:22:34Z</time>
      </trkpt>
      <trkpt lat="48.82206" lon="2.44004">
        <ele>63.58</ele>
        <time>2019-02-16T09:22:46Z</time>
      </trkpt>
      <trkpt lat="48.82206" lon="2.43991">
        <ele>64.07</ele>
        <time>2019-02-16T09:22:52Z</time>
      </trkpt>
      <trkpt lat="48.82207" lon="2.43986">
        <ele>63.58</ele>
        <time>2019-02-16T09:22:54Z</time>
      </trkpt>
      <trkpt lat="48.82211" lon="2.43965">
        <ele>64.07</ele>
        <time>2019-02-16T09:23:02Z</time>
      </trkpt>
      <trkpt lat="48.82211" lon="2.43963">
        <ele>64.07</ele>
        <time>2019-02-16T09:23:03Z</time>
      </trkpt>
      <trkpt lat="48.8221" lon="2.43959">
        <ele>64.07</ele>
        <time>2019-02-16T09:23:05Z</time>
      </trkpt>
      <trkpt lat="48.82211" lon="2.43951">
        <ele>64.07</ele>
        <time>2019-02-16T09:23:10Z</time>
      </trkpt>
      <trkpt lat="48.82212" lon="2.43948">
        <ele>63.58</ele>
        <time>2019-02-16T09:23:12Z</time>
      </trkpt>
      <trkpt lat="48.82212" lon="2.43946">
        <ele>63.58</ele>
        <time>2019-02-16T09:23:13Z</time>
      </trkpt>
      <trkpt lat="48.82212" lon="2.43923">
        <ele>64.07</ele>
        <time>2019-02-16T09:23:20Z</time>
      </trkpt>
      <trkpt lat="48.82212" lon="2.4392">
        <ele>65.03</ele>
        <time>2019-02-16T09:23:21Z</time>
      </trkpt>
      <trkpt lat="48.82212" lon="2.43918">
        <ele>64.07</ele>
        <time>2019-02-16T09:23:22Z</time>
      </trkpt>
      <trkpt lat="48.82212" lon="2.43915">
        <ele>64.07</ele>
        <time>2019-02-16T09:23:23Z</time>
      </trkpt>
      <trkpt lat="48.82212" lon="2.43913">
        <ele>64.07</ele>
        <time>2019-02-16T09:23:24Z</time>
      </trkpt>
      <trkpt lat="48.82212" lon="2.43911">
        <ele>64.55</ele>
        <time>2019-02-16T09:23:25Z</time>
      </trkpt>
      <trkpt lat="48.82211" lon="2.43908">
        <ele>64.07</ele>
        <time>2019-02-16T09:23:26Z</time>
      </trkpt>
      <trkpt lat="48.82214" lon="2.4389">
        <ele>65.03</ele>
        <time>2019-02-16T09:23:34Z</time>
      </trkpt>
      <trkpt lat="48.82214" lon="2.43888">
        <ele>64.07</ele>
        <time>2019-02-16T09:23:35Z</time>
      </trkpt>
      <trkpt lat="48.82214" lon="2.43886">
        <ele>64.07</ele>
        <time>2019-02-16T09:23:36Z</time>
      </trkpt>
      <trkpt lat="48.82214" lon="2.43885">
        <ele>64.07</ele>
        <time>2019-02-16T09:23:37Z</time>
      </trkpt>
      <trkpt lat="48.82213" lon="2.43883">
        <ele>64.55</ele>
        <time>2019-02-16T09:23:38Z</time>
      </trkpt>
      <trkpt lat="48.82213" lon="2.43882">
        <ele>64.55</ele>
        <time>2019-02-16T09:23:39Z</time>
      </trkpt>
      <trkpt lat="48.82213" lon="2.43872">
        <ele>64.07</ele>
        <time>2019-02-16T09:23:45Z</time>
      </trkpt>
      <trkpt lat="48.82211" lon="2.43863">
        <ele>64.55</ele>
        <time>2019-02-16T09:23:50Z</time>
      </trkpt>
      <trkpt lat="48.8221" lon="2.43836">
        <ele>64.55</ele>
        <time>2019-02-16T09:24:01Z</time>
      </trkpt>
      <trkpt lat="48.82209" lon="2.43833">
        <ele>64.07</ele>
        <time>2019-02-16T09:24:02Z</time>
      </trkpt>
      <trkpt lat="48.82209" lon="2.43831">
        <ele>65.03</ele>
        <time>2019-02-16T09:24:03Z</time>
      </trkpt>
      <trkpt lat="48.8221" lon="2.43815">
        <ele>64.55</ele>
        <time>2019-02-16T09:24:11Z</time>
      </trkpt>
      <trkpt lat="48.82209" lon="2.43813">
        <ele>64.55</ele>
        <time>2019-02-16T09:24:12Z</time>
      </trkpt>
      <trkpt lat="48.82208" lon="2.43811">
        <ele>65.03</ele>
        <time>2019-02-16T09:24:13Z</time>
      </trkpt>
      <trkpt lat="48.82207" lon="2.4381">
        <ele>64.55</ele>
        <time>2019-02-16T09:24:14Z</time>
      </trkpt>
      <trkpt lat="48.8221" lon="2.43792">
        <ele>64.07</ele>
        <time>2019-02-16T09:24:24Z</time>
      </trkpt>
      <trkpt lat="48.82213" lon="2.43769">
        <ele>63.58</ele>
        <time>2019-02-16T09:24:37Z</time>
      </trkpt>
      <trkpt lat="48.82214" lon="2.43764">
        <ele>64.07</ele>
        <time>2019-02-16T09:24:39Z</time>
      </trkpt>
      <trkpt lat="48.82215" lon="2.43761">
        <ele>63.58</ele>
        <time>2019-02-16T09:24:40Z</time>
      </trkpt>
      <trkpt lat="48.82216" lon="2.43748">
        <ele>64.07</ele>
        <time>2019-02-16T09:24:45Z</time>
      </trkpt>
      <trkpt lat="48.82219" lon="2.43736">
        <ele>64.07</ele>
        <time>2019-02-16T09:24:50Z</time>
      </trkpt>
      <trkpt lat="48.82219" lon="2.43734">
        <ele>64.55</ele>
        <time>2019-02-16T09:24:51Z</time>
      </trkpt>
      <trkpt lat="48.8222" lon="2.43731">
        <ele>64.55</ele>
        <time>2019-02-16T09:24:52Z</time>
      </trkpt>
      <trkpt lat="48.82221" lon="2.43729">
        <ele>64.55</ele>
        <time>2019-02-16T09:24:53Z</time>
      </trkpt>
      <trkpt lat="48.82223" lon="2.43722">
        <ele>64.07</ele>
        <time>2019-02-16T09:24:57Z</time>
      </trkpt>
      <trkpt lat="48.82225" lon="2.43702">
        <ele>64.07</ele>
        <time>2019-02-16T09:25:08Z</time>
      </trkpt>
      <trkpt lat="48.82225" lon="2.43694">
        <ele>64.07</ele>
        <time>2019-02-16T09:25:12Z</time>
      </trkpt>
      <trkpt lat="48.82227" lon="2.43673">
        <ele>64.07</ele>
        <time>2019-02-16T09:25:20Z</time>
      </trkpt>
      <trkpt lat="48.82227" lon="2.4367">
        <ele>64.07</ele>
        <time>2019-02-16T09:25:21Z</time>
      </trkpt>
      <trkpt lat="48.82227" lon="2.43667">
        <ele>64.55</ele>
        <time>2019-02-16T09:25:22Z</time>
      </trkpt>
      <trkpt lat="48.82228" lon="2.43664">
        <ele>64.07</ele>
        <time>2019-02-16T09:25:23Z</time>
      </trkpt>
      <trkpt lat="48.82228" lon="2.43661">
        <ele>64.07</ele>
        <time>2019-02-16T09:25:24Z</time>
      </trkpt>
      <trkpt lat="48.82228" lon="2.43659">
        <ele>64.55</ele>
        <time>2019-02-16T09:25:25Z</time>
      </trkpt>
      <trkpt lat="48.82229" lon="2.43658">
        <ele>64.55</ele>
        <time>2019-02-16T09:25:26Z</time>
      </trkpt>
      <trkpt lat="48.8223" lon="2.43656">
        <ele>64.55</ele>
        <time>2019-02-16T09:25:27Z</time>
      </trkpt>
      <trkpt lat="48.8223" lon="2.43653">
        <ele>64.07</ele>
        <time>2019-02-16T09:25:28Z</time>
      </trkpt>
      <trkpt lat="48.82232" lon="2.43648">
        <ele>64.55</ele>
        <time>2019-02-16T09:25:31Z</time>
      </trkpt>
      <trkpt lat="48.82232" lon="2.43643">
        <ele>64.07</ele>
        <time>2019-02-16T09:25:34Z</time>
      </trkpt>
      <trkpt lat="48.82228" lon="2.43628">
        <ele>64.55</ele>
        <time>2019-02-16T09:25:44Z</time>
      </trkpt>
      <trkpt lat="48.82228" lon="2.43623">
        <ele>64.55</ele>
        <time>2019-02-16T09:25:46Z</time>
      </trkpt>
      <trkpt lat="48.82228" lon="2.43615">
        <ele>64.07</ele>
        <time>2019-02-16T09:25:50Z</time>
      </trkpt>
      <trkpt lat="48.82227" lon="2.4361">
        <ele>63.58</ele>
        <time>2019-02-16T09:25:53Z</time>
      </trkpt>
      <trkpt lat="48.82227" lon="2.43608">
        <ele>64.55</ele>
        <time>2019-02-16T09:25:54Z</time>
      </trkpt>
      <trkpt lat="48.82227" lon="2.43595">
        <ele>64.07</ele>
        <time>2019-02-16T09:26:03Z</time>
      </trkpt>
      <trkpt lat="48.82227" lon="2.43593">
        <ele>64.07</ele>
        <time>2019-02-16T09:26:04Z</time>
      </trkpt>
      <trkpt lat="48.82228" lon="2.43591">
        <ele>63.58</ele>
        <time>2019-02-16T09:26:05Z</time>
      </trkpt>
      <trkpt lat="48.8223" lon="2.43588">
        <ele>64.07</ele>
        <time>2019-02-16T09:26:06Z</time>
      </trkpt>
      <trkpt lat="48.82233" lon="2.43576">
        <ele>64.55</ele>
        <time>2019-02-16T09:26:16Z</time>
      </trkpt>
      <trkpt lat="48.82232" lon="2.43572">
        <ele>64.55</ele>
        <time>2019-02-16T09:26:21Z</time>
      </trkpt>
      <trkpt lat="48.82233" lon="2.4357">
        <ele>64.55</ele>
        <time>2019-02-16T09:26:22Z</time>
      </trkpt>
      <trkpt lat="48.82234" lon="2.43567">
        <ele>64.55</ele>
        <time>2019-02-16T09:26:23Z</time>
      </trkpt>
      <trkpt lat="48.82235" lon="2.43564">
        <ele>64.55</ele>
        <time>2019-02-16T09:26:24Z</time>
      </trkpt>
      <trkpt lat="48.82235" lon="2.43563">
        <ele>65.03</ele>
        <time>2019-02-16T09:26:25Z</time>
      </trkpt>
      <trkpt lat="48.82238" lon="2.43555">
        <ele>64.55</ele>
        <time>2019-02-16T09:26:29Z</time>
      </trkpt>
      <trkpt lat="48.82239" lon="2.43554">
        <ele>64.07</ele>
        <time>2019-02-16T09:26:30Z</time>
      </trkpt>
      <trkpt lat="48.82241" lon="2.43532">
        <ele>64.55</ele>
        <time>2019-02-16T09:26:42Z</time>
      </trkpt>
      <trkpt lat="48.82243" lon="2.43517">
        <ele>63.58</ele>
        <time>2019-02-16T09:26:49Z</time>
      </trkpt>
      <trkpt lat="48.82244" lon="2.43515">
        <ele>64.07</ele>
        <time>2019-02-16T09:26:50Z</time>
      </trkpt>
      <trkpt lat="48.82245" lon="2.43513">
        <ele>64.55</ele>
        <time>2019-02-16T09:26:51Z</time>
      </trkpt>
      <trkpt lat="48.82245" lon="2.4351">
        <ele>63.58</ele>
        <time>2019-02-16T09:26:52Z</time>
      </trkpt>
      <trkpt lat="48.82246" lon="2.43508">
        <ele>64.07</ele>
        <time>2019-02-16T09:26:53Z</time>
      </trkpt>
      <trkpt lat="48.82247" lon="2.43506">
        <ele>64.07</ele>
        <time>2019-02-16T09:26:54Z</time>
      </trkpt>
      <trkpt lat="48.82248" lon="2.43505">
        <ele>64.07</ele>
        <time>2019-02-16T09:26:55Z</time>
      </trkpt>
      <trkpt lat="48.82249" lon="2.43503">
        <ele>64.55</ele>
        <time>2019-02-16T09:26:56Z</time>
      </trkpt>
      <trkpt lat="48.82253" lon="2.43494">
        <ele>64.55</ele>
        <time>2019-02-16T09:27:02Z</time>
      </trkpt>
      <trkpt lat="48.82255" lon="2.43488">
        <ele>63.58</ele>
        <time>2019-02-16T09:27:06Z</time>
      </trkpt>
      <trkpt lat="48.82256" lon="2.43486">
        <ele>64.07</ele>
        <time>2019-02-16T09:27:07Z</time>
      </trkpt>
      <trkpt lat="48.82261" lon="2.4347">
        <ele>63.58</ele>
        <time>2019-02-16T09:27:15Z</time>
      </trkpt>
      <trkpt lat="48.82261" lon="2.43468">
        <ele>63.58</ele>
        <time>2019-02-16T09:27:16Z</time>
      </trkpt>
      <trkpt lat="48.82261" lon="2.43466">
        <ele>64.07</ele>
        <time>2019-02-16T09:27:17Z</time>
      </trkpt>
      <trkpt lat="48.82263" lon="2.43462">
        <ele>63.58</ele>
        <time>2019-02-16T09:27:21Z</time>
      </trkpt>
      <trkpt lat="48.82272" lon="2.43449">
        <ele>63.58</ele>
        <time>2019-02-16T09:27:31Z</time>
      </trkpt>
      <trkpt lat="48.82281" lon="2.43435">
        <ele>63.1</ele>
        <time>2019-02-16T09:27:42Z</time>
      </trkpt>
      <trkpt lat="48.82291" lon="2.43416">
        <ele>62.62</ele>
        <time>2019-02-16T09:27:52Z</time>
      </trkpt>
      <trkpt lat="48.82296" lon="2.43405">
        <ele>62.62</ele>
        <time>2019-02-16T09:28:02Z</time>
      </trkpt>
      <trkpt lat="48.82297" lon="2.43403">
        <ele>62.62</ele>
        <time>2019-02-16T09:28:03Z</time>
      </trkpt>
      <trkpt lat="48.82298" lon="2.434">
        <ele>63.1</ele>
        <time>2019-02-16T09:28:04Z</time>
      </trkpt>
      <trkpt lat="48.823" lon="2.43397">
        <ele>62.62</ele>
        <time>2019-02-16T09:28:06Z</time>
      </trkpt>
      <trkpt lat="48.82301" lon="2.43394">
        <ele>63.1</ele>
        <time>2019-02-16T09:28:07Z</time>
      </trkpt>
      <trkpt lat="48.82302" lon="2.43391">
        <ele>62.62</ele>
        <time>2019-02-16T09:28:08Z</time>
      </trkpt>
      <trkpt lat="48.82305" lon="2.43377">
        <ele>62.62</ele>
        <time>2019-02-16T09:28:19Z</time>
      </trkpt>
      <trkpt lat="48.82308" lon="2.43371">
        <ele>62.14</ele>
        <time>2019-02-16T09:28:22Z</time>
      </trkpt>
      <trkpt lat="48.8231" lon="2.43369">
        <ele>62.62</ele>
        <time>2019-02-16T09:28:23Z</time>
      </trkpt>
      <trkpt lat="48.82312" lon="2.43367">
        <ele>62.14</ele>
        <time>2019-02-16T09:28:24Z</time>
      </trkpt>
      <trkpt lat="48.82314" lon="2.43366">
        <ele>62.62</ele>
        <time>2019-02-16T09:28:25Z</time>
      </trkpt>
      <trkpt lat="48.82322" lon="2.43356">
        <ele>62.14</ele>
        <time>2019-02-16T09:28:34Z</time>
      </trkpt>
      <trkpt lat="48.82333" lon="2.43344">
        <ele>62.14</ele>
        <time>2019-02-16T09:28:46Z</time>
      </trkpt>
      <trkpt lat="48.82338" lon="2.43338">
        <ele>62.62</ele>
        <time>2019-02-16T09:28:55Z</time>
      </trkpt>
      <trkpt lat="48.8234" lon="2.43335">
        <ele>62.62</ele>
        <time>2019-02-16T09:28:57Z</time>
      </trkpt>
      <trkpt lat="48.82342" lon="2.43332">
        <ele>62.14</ele>
        <time>2019-02-16T09:28:58Z</time>
      </trkpt>
      <trkpt lat="48.82343" lon="2.4333">
        <ele>62.62</ele>
        <time>2019-02-16T09:28:59Z</time>
      </trkpt>
      <trkpt lat="48.82348" lon="2.4332">
        <ele>62.62</ele>
        <time>2019-02-16T09:29:08Z</time>
      </trkpt>
      <trkpt lat="48.82367" lon="2.43291">
        <ele>62.62</ele>
        <time>2019-02-16T09:29:23Z</time>
      </trkpt>
      <trkpt lat="48.82368" lon="2.43286">
        <ele>61.66</ele>
        <time>2019-02-16T09:29:27Z</time>
      </trkpt>
      <trkpt lat="48.82369" lon="2.43286">
        <ele>62.14</ele>
        <time>2019-02-16T09:29:28Z</time>
      </trkpt>
      <trkpt lat="48.82373" lon="2.43278">
        <ele>62.14</ele>
        <time>2019-02-16T09:29:34Z</time>
      </trkpt>
      <trkpt lat="48.82374" lon="2.43276">
        <ele>62.14</ele>
        <time>2019-02-16T09:29:35Z</time>
      </trkpt>
      <trkpt lat="48.82375" lon="2.43274">
        <ele>62.14</ele>
        <time>2019-02-16T09:29:36Z</time>
      </trkpt>
      <trkpt lat="48.82378" lon="2.43266">
        <ele>61.66</ele>
        <time>2019-02-16T09:29:40Z</time>
      </trkpt>
      <trkpt lat="48.82388" lon="2.43251">
        <ele>62.14</ele>
        <time>2019-02-16T09:29:49Z</time>
      </trkpt>
      <trkpt lat="48.82398" lon="2.43236">
        <ele>61.66</ele>
        <time>2019-02-16T09:29:59Z</time>
      </trkpt>
      <trkpt lat="48.82409" lon="2.43225">
        <ele>60.7</ele>
        <time>2019-02-16T09:30:10Z</time>
      </trkpt>
      <trkpt lat="48.82415" lon="2.43215">
        <ele>60.7</ele>
        <time>2019-02-16T09:30:19Z</time>
      </trkpt>
      <trkpt lat="48.82417" lon="2.43212">
        <ele>61.18</ele>
        <time>2019-02-16T09:30:30Z</time>
      </trkpt>
      <trkpt lat="48.82422" lon="2.43199">
        <ele>61.18</ele>
        <time>2019-02-16T09:30:38Z</time>
      </trkpt>
      <trkpt lat="48.82424" lon="2.4318">
        <ele>61.66</ele>
        <time>2019-02-16T09:30:48Z</time>
      </trkpt>
      <trkpt lat="48.82422" lon="2.43179">
        <ele>61.66</ele>
        <time>2019-02-16T09:30:50Z</time>
      </trkpt>
      <trkpt lat="48.82432" lon="2.43174">
        <ele>62.62</ele>
        <time>2019-02-16T09:30:57Z</time>
      </trkpt>
      <trkpt lat="48.82433" lon="2.43169">
        <ele>61.66</ele>
        <time>2019-02-16T09:31:01Z</time>
      </trkpt>
      <trkpt lat="48.82434" lon="2.43169">
        <ele>61.18</ele>
        <time>2019-02-16T09:31:02Z</time>
      </trkpt>
      <trkpt lat="48.82442" lon="2.43167">
        <ele>61.18</ele>
        <time>2019-02-16T09:31:08Z</time>
      </trkpt>
      <trkpt lat="48.82442" lon="2.43168">
        <ele>61.18</ele>
        <time>2019-02-16T09:31:09Z</time>
      </trkpt>
      <trkpt lat="48.82443" lon="2.43168">
        <ele>61.18</ele>
        <time>2019-02-16T09:31:10Z</time>
      </trkpt>
      <trkpt lat="48.82451" lon="2.4317">
        <ele>61.18</ele>
        <time>2019-02-16T09:31:21Z</time>
      </trkpt>
      <trkpt lat="48.82455" lon="2.43172">
        <ele>61.18</ele>
        <time>2019-02-16T09:31:23Z</time>
      </trkpt>
      <trkpt lat="48.82456" lon="2.43173">
        <ele>62.14</ele>
        <time>2019-02-16T09:31:24Z</time>
      </trkpt>
      <trkpt lat="48.82463" lon="2.43176">
        <ele>60.7</ele>
        <time>2019-02-16T09:31:33Z</time>
      </trkpt>
      <trkpt lat="48.82468" lon="2.43179">
        <ele>61.18</ele>
        <time>2019-02-16T09:31:37Z</time>
      </trkpt>
      <trkpt lat="48.8247" lon="2.4318">
        <ele>61.18</ele>
        <time>2019-02-16T09:31:38Z</time>
      </trkpt>
      <trkpt lat="48.82473" lon="2.4318">
        <ele>60.7</ele>
        <time>2019-02-16T09:31:39Z</time>
      </trkpt>
      <trkpt lat="48.82475" lon="2.43179">
        <ele>60.7</ele>
        <time>2019-02-16T09:31:40Z</time>
      </trkpt>
      <trkpt lat="48.82476" lon="2.43179">
        <ele>60.22</ele>
        <time>2019-02-16T09:31:41Z</time>
      </trkpt>
      <trkpt lat="48.82482" lon="2.43178">
        <ele>60.22</ele>
        <time>2019-02-16T09:31:47Z</time>
      </trkpt>
      <trkpt lat="48.82485" lon="2.4318">
        <ele>60.7</ele>
        <time>2019-02-16T09:31:52Z</time>
      </trkpt>
      <trkpt lat="48.82487" lon="2.4318">
        <ele>60.22</ele>
        <time>2019-02-16T09:31:53Z</time>
      </trkpt>
      <trkpt lat="48.825" lon="2.43173">
        <ele>60.22</ele>
        <time>2019-02-16T09:32:02Z</time>
      </trkpt>
      <trkpt lat="48.82502" lon="2.43171">
        <ele>60.22</ele>
        <time>2019-02-16T09:32:04Z</time>
      </trkpt>
      <trkpt lat="48.82509" lon="2.43166">
        <ele>59.74</ele>
        <time>2019-02-16T09:32:13Z</time>
      </trkpt>
      <trkpt lat="48.8251" lon="2.43165">
        <ele>60.22</ele>
        <time>2019-02-16T09:32:14Z</time>
      </trkpt>
      <trkpt lat="48.82525" lon="2.43158">
        <ele>59.74</ele>
        <time>2019-02-16T09:32:25Z</time>
      </trkpt>
      <trkpt lat="48.82539" lon="2.43147">
        <ele>59.74</ele>
        <time>2019-02-16T09:32:37Z</time>
      </trkpt>
      <trkpt lat="48.82542" lon="2.43145">
        <ele>59.26</ele>
        <time>2019-02-16T09:32:39Z</time>
      </trkpt>
      <trkpt lat="48.82544" lon="2.43144">
        <ele>59.74</ele>
        <time>2019-02-16T09:32:40Z</time>
      </trkpt>
      <trkpt lat="48.82547" lon="2.43141">
        <ele>59.74</ele>
        <time>2019-02-16T09:32:43Z</time>
      </trkpt>
      <trkpt lat="48.8255" lon="2.43138">
        <ele>59.74</ele>
        <time>2019-02-16T09:32:46Z</time>
      </trkpt>
      <trkpt lat="48.82551" lon="2.43138">
        <ele>59.74</ele>
        <time>2019-02-16T09:32:47Z</time>
      </trkpt>
      <trkpt lat="48.82553" lon="2.43137">
        <ele>60.22</ele>
        <time>2019-02-16T09:32:48Z</time>
      </trkpt>
      <trkpt lat="48.82555" lon="2.43136">
        <ele>60.22</ele>
        <time>2019-02-16T09:32:49Z</time>
      </trkpt>
      <trkpt lat="48.82557" lon="2.43135">
        <ele>59.74</ele>
        <time>2019-02-16T09:32:50Z</time>
      </trkpt>
      <trkpt lat="48.82559" lon="2.43133">
        <ele>60.22</ele>
        <time>2019-02-16T09:32:51Z</time>
      </trkpt>
      <trkpt lat="48.8256" lon="2.43132">
        <ele>60.7</ele>
        <time>2019-02-16T09:32:52Z</time>
      </trkpt>
      <trkpt lat="48.82562" lon="2.43131">
        <ele>60.22</ele>
        <time>2019-02-16T09:32:53Z</time>
      </trkpt>
      <trkpt lat="48.82574" lon="2.43125">
        <ele>60.7</ele>
        <time>2019-02-16T09:33:05Z</time>
      </trkpt>
      <trkpt lat="48.82576" lon="2.43126">
        <ele>59.74</ele>
        <time>2019-02-16T09:33:08Z</time>
      </trkpt>
      <trkpt lat="48.82584" lon="2.43121">
        <ele>59.74</ele>
        <time>2019-02-16T09:33:15Z</time>
      </trkpt>
      <trkpt lat="48.8259" lon="2.43118">
        <ele>59.26</ele>
        <time>2019-02-16T09:33:22Z</time>
      </trkpt>
      <trkpt lat="48.82592" lon="2.43119">
        <ele>59.74</ele>
        <time>2019-02-16T09:33:23Z</time>
      </trkpt>
      <trkpt lat="48.82605" lon="2.43116">
        <ele>59.74</ele>
        <time>2019-02-16T09:33:35Z</time>
      </trkpt>
      <trkpt lat="48.82616" lon="2.43113">
        <ele>59.74</ele>
        <time>2019-02-16T09:33:43Z</time>
      </trkpt>
      <trkpt lat="48.8263" lon="2.43101">
        <ele>58.78</ele>
        <time>2019-02-16T09:33:54Z</time>
      </trkpt>
      <trkpt lat="48.8264" lon="2.43093">
        <ele>58.78</ele>
        <time>2019-02-16T09:34:06Z</time>
      </trkpt>
      <trkpt lat="48.82649" lon="2.43083">
        <ele>59.26</ele>
        <time>2019-02-16T09:34:16Z</time>
      </trkpt>
      <trkpt lat="48.82658" lon="2.43081">
        <ele>59.26</ele>
        <time>2019-02-16T09:34:23Z</time>
      </trkpt>
      <trkpt lat="48.8266" lon="2.43081">
        <ele>58.78</ele>
        <time>2019-02-16T09:34:24Z</time>
      </trkpt>
      <trkpt lat="48.82675" lon="2.43074">
        <ele>59.26</ele>
        <time>2019-02-16T09:34:34Z</time>
      </trkpt>
      <trkpt lat="48.82684" lon="2.4307">
        <ele>58.78</ele>
        <time>2019-02-16T09:34:45Z</time>
      </trkpt>
      <trkpt lat="48.82695" lon="2.43058">
        <ele>59.26</ele>
        <time>2019-02-16T09:34:56Z</time>
      </trkpt>
      <trkpt lat="48.8271" lon="2.43054">
        <ele>59.26</ele>
        <time>2019-02-16T09:35:08Z</time>
      </trkpt>
      <trkpt lat="48.8272" lon="2.43039">
        <ele>59.26</ele>
        <time>2019-02-16T09:35:20Z</time>
      </trkpt>
      <trkpt lat="48.82736" lon="2.4304">
        <ele>59.26</ele>
        <time>2019-02-16T09:35:32Z</time>
      </trkpt>
      <trkpt lat="48.8275" lon="2.4303">
        <ele>59.74</ele>
        <time>2019-02-16T09:35:43Z</time>
      </trkpt>
      <trkpt lat="48.82763" lon="2.43024">
        <ele>58.78</ele>
        <time>2019-02-16T09:35:56Z</time>
      </trkpt>
      <trkpt lat="48.82766" lon="2.43022">
        <ele>59.26</ele>
        <time>2019-02-16T09:35:59Z</time>
      </trkpt>
      <trkpt lat="48.82768" lon="2.4302">
        <ele>59.26</ele>
        <time>2019-02-16T09:36:00Z</time>
      </trkpt>
      <trkpt lat="48.82769" lon="2.43018">
        <ele>59.74</ele>
        <time>2019-02-16T09:36:01Z</time>
      </trkpt>
      <trkpt lat="48.82783" lon="2.43015">
        <ele>58.78</ele>
        <time>2019-02-16T09:36:12Z</time>
      </trkpt>
      <trkpt lat="48.82786" lon="2.43012">
        <ele>58.78</ele>
        <time>2019-02-16T09:36:14Z</time>
      </trkpt>
      <trkpt lat="48.82788" lon="2.43008">
        <ele>59.26</ele>
        <time>2019-02-16T09:36:16Z</time>
      </trkpt>
      <trkpt lat="48.82804" lon="2.43001">
        <ele>58.3</ele>
        <time>2019-02-16T09:36:27Z</time>
      </trkpt>
      <trkpt lat="48.82816" lon="2.42997">
        <ele>58.78</ele>
        <time>2019-02-16T09:36:37Z</time>
      </trkpt>
      <trkpt lat="48.82832" lon="2.42982">
        <ele>58.78</ele>
        <time>2019-02-16T09:36:48Z</time>
      </trkpt>
      <trkpt lat="48.82842" lon="2.42972">
        <ele>58.3</ele>
        <time>2019-02-16T09:36:58Z</time>
      </trkpt>
      <trkpt lat="48.82841" lon="2.4297">
        <ele>58.78</ele>
        <time>2019-02-16T09:36:59Z</time>
      </trkpt>
      <trkpt lat="48.82841" lon="2.42968">
        <ele>59.26</ele>
        <time>2019-02-16T09:37:00Z</time>
      </trkpt>
      <trkpt lat="48.8284" lon="2.42965">
        <ele>58.78</ele>
        <time>2019-02-16T09:37:01Z</time>
      </trkpt>
      <trkpt lat="48.8284" lon="2.42963">
        <ele>58.78</ele>
        <time>2019-02-16T09:37:02Z</time>
      </trkpt>
      <trkpt lat="48.8284" lon="2.4296">
        <ele>58.78</ele>
        <time>2019-02-16T09:37:03Z</time>
      </trkpt>
      <trkpt lat="48.8284" lon="2.42958">
        <ele>59.26</ele>
        <time>2019-02-16T09:37:04Z</time>
      </trkpt>
      <trkpt lat="48.8284" lon="2.42955">
        <ele>59.26</ele>
        <time>2019-02-16T09:37:05Z</time>
      </trkpt>
      <trkpt lat="48.8284" lon="2.42953">
        <ele>58.3</ele>
        <time>2019-02-16T09:37:06Z</time>
      </trkpt>
      <trkpt lat="48.82843" lon="2.42949">
        <ele>59.26</ele>
        <time>2019-02-16T09:37:08Z</time>
      </trkpt>
      <trkpt lat="48.82847" lon="2.42941">
        <ele>57.82</ele>
        <time>2019-02-16T09:37:17Z</time>
      </trkpt>
      <trkpt lat="48.82848" lon="2.42939">
        <ele>58.78</ele>
        <time>2019-02-16T09:37:18Z</time>
      </trkpt>
      <trkpt lat="48.82848" lon="2.42937">
        <ele>58.78</ele>
        <time>2019-02-16T09:37:19Z</time>
      </trkpt>
      <trkpt lat="48.82849" lon="2.42935">
        <ele>58.3</ele>
        <time>2019-02-16T09:37:20Z</time>
      </trkpt>
      <trkpt lat="48.82849" lon="2.42934">
        <ele>58.78</ele>
        <time>2019-02-16T09:37:21Z</time>
      </trkpt>
      <trkpt lat="48.8285" lon="2.42933">
        <ele>58.3</ele>
        <time>2019-02-16T09:37:22Z</time>
      </trkpt>
      <trkpt lat="48.82853" lon="2.42931">
        <ele>58.78</ele>
        <time>2019-02-16T09:37:24Z</time>
      </trkpt>
      <trkpt lat="48.82854" lon="2.4293">
        <ele>57.82</ele>
        <time>2019-02-16T09:37:25Z</time>
      </trkpt>
      <trkpt lat="48.82855" lon="2.4293">
        <ele>57.82</ele>
        <time>2019-02-16T09:37:26Z</time>
      </trkpt>
      <trkpt lat="48.82855" lon="2.4293">
        <ele>58.78</ele>
        <time>2019-02-16T09:37:27Z</time>
      </trkpt>
      <trkpt lat="48.82868" lon="2.42925">
        <ele>57.82</ele>
        <time>2019-02-16T09:37:39Z</time>
      </trkpt>
      <trkpt lat="48.82874" lon="2.42922">
        <ele>57.82</ele>
        <time>2019-02-16T09:37:43Z</time>
      </trkpt>
      <trkpt lat="48.82879" lon="2.42922">
        <ele>57.34</ele>
        <time>2019-02-16T09:37:47Z</time>
      </trkpt>
      <trkpt lat="48.82883" lon="2.42918">
        <ele>57.82</ele>
        <time>2019-02-16T09:37:52Z</time>
      </trkpt>
      <trkpt lat="48.82885" lon="2.42918">
        <ele>58.3</ele>
        <time>2019-02-16T09:37:53Z</time>
      </trkpt>
      <trkpt lat="48.82895" lon="2.42921">
        <ele>58.3</ele>
        <time>2019-02-16T09:38:02Z</time>
      </trkpt>
      <trkpt lat="48.82901" lon="2.42934">
        <ele>58.3</ele>
        <time>2019-02-16T09:38:14Z</time>
      </trkpt>
      <trkpt lat="48.82902" lon="2.42935">
        <ele>58.3</ele>
        <time>2019-02-16T09:38:15Z</time>
      </trkpt>
      <trkpt lat="48.82904" lon="2.42936">
        <ele>58.78</ele>
        <time>2019-02-16T09:38:16Z</time>
      </trkpt>
      <trkpt lat="48.82912" lon="2.42939">
        <ele>57.82</ele>
        <time>2019-02-16T09:38:30Z</time>
      </trkpt>
      <trkpt lat="48.82936" lon="2.42948">
        <ele>58.3</ele>
        <time>2019-02-16T09:38:41Z</time>
      </trkpt>
      <trkpt lat="48.82955" lon="2.42948">
        <ele>58.3</ele>
        <time>2019-02-16T09:38:56Z</time>
      </trkpt>
      <trkpt lat="48.82958" lon="2.42948">
        <ele>58.78</ele>
        <time>2019-02-16T09:38:58Z</time>
      </trkpt>
      <trkpt lat="48.8297" lon="2.42946">
        <ele>57.82</ele>
        <time>2019-02-16T09:39:09Z</time>
      </trkpt>
      <trkpt lat="48.82983" lon="2.42945">
        <ele>57.82</ele>
        <time>2019-02-16T09:39:20Z</time>
      </trkpt>
      <trkpt lat="48.82997" lon="2.42943">
        <ele>58.3</ele>
        <time>2019-02-16T09:39:35Z</time>
      </trkpt>
      <trkpt lat="48.83013" lon="2.42942">
        <ele>57.34</ele>
        <time>2019-02-16T09:39:47Z</time>
      </trkpt>
      <trkpt lat="48.83015" lon="2.42941">
        <ele>57.82</ele>
        <time>2019-02-16T09:39:48Z</time>
      </trkpt>
      <trkpt lat="48.83028" lon="2.42938">
        <ele>57.82</ele>
        <time>2019-02-16T09:40:00Z</time>
      </trkpt>
      <trkpt lat="48.83041" lon="2.42937">
        <ele>57.82</ele>
        <time>2019-02-16T09:40:12Z</time>
      </trkpt>
      <trkpt lat="48.83055" lon="2.42933">
        <ele>57.82</ele>
        <time>2019-02-16T09:40:26Z</time>
      </trkpt>
      <trkpt lat="48.83058" lon="2.42934">
        <ele>57.82</ele>
        <time>2019-02-16T09:40:30Z</time>
      </trkpt>
      <trkpt lat="48.8306" lon="2.42934">
        <ele>57.82</ele>
        <time>2019-02-16T09:40:31Z</time>
      </trkpt>
      <trkpt lat="48.83067" lon="2.42934">
        <ele>58.3</ele>
        <time>2019-02-16T09:40:38Z</time>
      </trkpt>
      <trkpt lat="48.83071" lon="2.42932">
        <ele>58.78</ele>
        <time>2019-02-16T09:40:40Z</time>
      </trkpt>
      <trkpt lat="48.83073" lon="2.42932">
        <ele>57.82</ele>
        <time>2019-02-16T09:40:41Z</time>
      </trkpt>
      <trkpt lat="48.83075" lon="2.42931">
        <ele>58.3</ele>
        <time>2019-02-16T09:40:42Z</time>
      </trkpt>
      <trkpt lat="48.83085" lon="2.4293">
        <ele>57.82</ele>
        <time>2019-02-16T09:40:53Z</time>
      </trkpt>
      <trkpt lat="48.83103" lon="2.42917">
        <ele>59.26</ele>
        <time>2019-02-16T09:41:03Z</time>
      </trkpt>
      <trkpt lat="48.83107" lon="2.42916">
        <ele>58.78</ele>
        <time>2019-02-16T09:41:06Z</time>
      </trkpt>
      <trkpt lat="48.83115" lon="2.42911">
        <ele>58.78</ele>
        <time>2019-02-16T09:41:17Z</time>
      </trkpt>
      <trkpt lat="48.83125" lon="2.42905">
        <ele>59.26</ele>
        <time>2019-02-16T09:41:27Z</time>
      </trkpt>
      <trkpt lat="48.83138" lon="2.42899">
        <ele>58.78</ele>
        <time>2019-02-16T09:41:39Z</time>
      </trkpt>
      <trkpt lat="48.8315" lon="2.42893">
        <ele>59.26</ele>
        <time>2019-02-16T09:41:52Z</time>
      </trkpt>
      <trkpt lat="48.83165" lon="2.42891">
        <ele>59.26</ele>
        <time>2019-02-16T09:42:03Z</time>
      </trkpt>
      <trkpt lat="48.83179" lon="2.42883">
        <ele>59.26</ele>
        <time>2019-02-16T09:42:15Z</time>
      </trkpt>
      <trkpt lat="48.83187" lon="2.42883">
        <ele>58.78</ele>
        <time>2019-02-16T09:42:26Z</time>
      </trkpt>
      <trkpt lat="48.83209" lon="2.4288">
        <ele>59.26</ele>
        <time>2019-02-16T09:42:37Z</time>
      </trkpt>
      <trkpt lat="48.83219" lon="2.42882">
        <ele>59.26</ele>
        <time>2019-02-16T09:42:47Z</time>
      </trkpt>
      <trkpt lat="48.83235" lon="2.42886">
        <ele>59.74</ele>
        <time>2019-02-16T09:42:59Z</time>
      </trkpt>
      <trkpt lat="48.83238" lon="2.42887">
        <ele>59.26</ele>
        <time>2019-02-16T09:43:01Z</time>
      </trkpt>
      <trkpt lat="48.83239" lon="2.42888">
        <ele>59.26</ele>
        <time>2019-02-16T09:43:02Z</time>
      </trkpt>
      <trkpt lat="48.8324" lon="2.42888">
        <ele>59.26</ele>
        <time>2019-02-16T09:43:03Z</time>
      </trkpt>
      <trkpt lat="48.83241" lon="2.42889">
        <ele>59.74</ele>
        <time>2019-02-16T09:43:04Z</time>
      </trkpt>
      <trkpt lat="48.83245" lon="2.42892">
        <ele>59.26</ele>
        <time>2019-02-16T09:43:10Z</time>
      </trkpt>
      <trkpt lat="48.83247" lon="2.42892">
        <ele>59.26</ele>
        <time>2019-02-16T09:43:11Z</time>
      </trkpt>
      <trkpt lat="48.83248" lon="2.42892">
        <ele>60.22</ele>
        <time>2019-02-16T09:43:12Z</time>
      </trkpt>
      <trkpt lat="48.83251" lon="2.42893">
        <ele>60.22</ele>
        <time>2019-02-16T09:43:13Z</time>
      </trkpt>
      <trkpt lat="48.83253" lon="2.42894">
        <ele>60.22</ele>
        <time>2019-02-16T09:43:14Z</time>
      </trkpt>
      <trkpt lat="48.83258" lon="2.42898">
        <ele>58.78</ele>
        <time>2019-02-16T09:43:22Z</time>
      </trkpt>
      <trkpt lat="48.83259" lon="2.42898">
        <ele>59.74</ele>
        <time>2019-02-16T09:43:23Z</time>
      </trkpt>
      <trkpt lat="48.8326" lon="2.42898">
        <ele>58.78</ele>
        <time>2019-02-16T09:43:24Z</time>
      </trkpt>
      <trkpt lat="48.83272" lon="2.42902">
        <ele>59.26</ele>
        <time>2019-02-16T09:43:30Z</time>
      </trkpt>
      <trkpt lat="48.83273" lon="2.42908">
        <ele>58.3</ele>
        <time>2019-02-16T09:43:37Z</time>
      </trkpt>
      <trkpt lat="48.83279" lon="2.42909">
        <ele>58.3</ele>
        <time>2019-02-16T09:43:41Z</time>
      </trkpt>
      <trkpt lat="48.83281" lon="2.42909">
        <ele>58.3</ele>
        <time>2019-02-16T09:43:42Z</time>
      </trkpt>
      <trkpt lat="48.83283" lon="2.42909">
        <ele>58.78</ele>
        <time>2019-02-16T09:43:43Z</time>
      </trkpt>
      <trkpt lat="48.83285" lon="2.42909">
        <ele>58.78</ele>
        <time>2019-02-16T09:43:44Z</time>
      </trkpt>
      <trkpt lat="48.83291" lon="2.42908">
        <ele>58.78</ele>
        <time>2019-02-16T09:43:50Z</time>
      </trkpt>
      <trkpt lat="48.83292" lon="2.42907">
        <ele>58.78</ele>
        <time>2019-02-16T09:43:51Z</time>
      </trkpt>
      <trkpt lat="48.83294" lon="2.42908">
        <ele>58.78</ele>
        <time>2019-02-16T09:43:54Z</time>
      </trkpt>
      <trkpt lat="48.83305" lon="2.42911">
        <ele>59.26</ele>
        <time>2019-02-16T09:44:02Z</time>
      </trkpt>
      <trkpt lat="48.8331" lon="2.42918">
        <ele>57.82</ele>
        <time>2019-02-16T09:44:14Z</time>
      </trkpt>
      <trkpt lat="48.83312" lon="2.42918">
        <ele>57.34</ele>
        <time>2019-02-16T09:44:16Z</time>
      </trkpt>
      <trkpt lat="48.83315" lon="2.42919">
        <ele>58.78</ele>
        <time>2019-02-16T09:44:18Z</time>
      </trkpt>
      <trkpt lat="48.83317" lon="2.42919">
        <ele>58.3</ele>
        <time>2019-02-16T09:44:19Z</time>
      </trkpt>
      <trkpt lat="48.83329" lon="2.42919">
        <ele>57.82</ele>
        <time>2019-02-16T09:44:33Z</time>
      </trkpt>
      <trkpt lat="48.83347" lon="2.4292">
        <ele>57.34</ele>
        <time>2019-02-16T09:44:46Z</time>
      </trkpt>
      <trkpt lat="48.83361" lon="2.42919">
        <ele>57.34</ele>
        <time>2019-02-16T09:44:58Z</time>
      </trkpt>
      <trkpt lat="48.83367" lon="2.42914">
        <ele>57.82</ele>
        <time>2019-02-16T09:45:01Z</time>
      </trkpt>
      <trkpt lat="48.83369" lon="2.42913">
        <ele>57.82</ele>
        <time>2019-02-16T09:45:02Z</time>
      </trkpt>
      <trkpt lat="48.8338" lon="2.42908">
        <ele>56.86</ele>
        <time>2019-02-16T09:45:13Z</time>
      </trkpt>
      <trkpt lat="48.83391" lon="2.42901">
        <ele>56.86</ele>
        <time>2019-02-16T09:45:24Z</time>
      </trkpt>
      <trkpt lat="48.83396" lon="2.42901">
        <ele>57.34</ele>
        <time>2019-02-16T09:45:27Z</time>
      </trkpt>
      <trkpt lat="48.83398" lon="2.42902">
        <ele>57.34</ele>
        <time>2019-02-16T09:45:28Z</time>
      </trkpt>
      <trkpt lat="48.8342" lon="2.42907">
        <ele>56.86</ele>
        <time>2019-02-16T09:45:39Z</time>
      </trkpt>
      <trkpt lat="48.83429" lon="2.42909">
        <ele>56.86</ele>
        <time>2019-02-16T09:45:46Z</time>
      </trkpt>
      <trkpt lat="48.8343" lon="2.4291">
        <ele>56.86</ele>
        <time>2019-02-16T09:45:57Z</time>
      </trkpt>
      <trkpt lat="48.83439" lon="2.42913">
        <ele>56.37</ele>
        <time>2019-02-16T09:46:09Z</time>
      </trkpt>
      <trkpt lat="48.8345" lon="2.42909">
        <ele>56.37</ele>
        <time>2019-02-16T09:46:17Z</time>
      </trkpt>
      <trkpt lat="48.83459" lon="2.42904">
        <ele>56.86</ele>
        <time>2019-02-16T09:46:22Z</time>
      </trkpt>
      <trkpt lat="48.83466" lon="2.42901">
        <ele>55.89</ele>
        <time>2019-02-16T09:46:32Z</time>
      </trkpt>
      <trkpt lat="48.83477" lon="2.42892">
        <ele>55.41</ele>
        <time>2019-02-16T09:46:41Z</time>
      </trkpt>
      <trkpt lat="48.83479" lon="2.42891">
        <ele>55.89</ele>
        <time>2019-02-16T09:46:45Z</time>
      </trkpt>
      <trkpt lat="48.83481" lon="2.42889">
        <ele>55.89</ele>
        <time>2019-02-16T09:46:46Z</time>
      </trkpt>
      <trkpt lat="48.83482" lon="2.42888">
        <ele>55.89</ele>
        <time>2019-02-16T09:46:47Z</time>
      </trkpt>
      <trkpt lat="48.83497" lon="2.42878">
        <ele>55.41</ele>
        <time>2019-02-16T09:46:58Z</time>
      </trkpt>
      <trkpt lat="48.8351" lon="2.42867">
        <ele>55.41</ele>
        <time>2019-02-16T09:47:08Z</time>
      </trkpt>
      <trkpt lat="48.83526" lon="2.42852">
        <ele>55.41</ele>
        <time>2019-02-16T09:47:21Z</time>
      </trkpt>
      <trkpt lat="48.83536" lon="2.42841">
        <ele>54.93</ele>
        <time>2019-02-16T09:47:33Z</time>
      </trkpt>
      <trkpt lat="48.83541" lon="2.42836">
        <ele>55.41</ele>
        <time>2019-02-16T09:47:38Z</time>
      </trkpt>
      <trkpt lat="48.83543" lon="2.42834">
        <ele>55.41</ele>
        <time>2019-02-16T09:47:39Z</time>
      </trkpt>
      <trkpt lat="48.83548" lon="2.42828">
        <ele>56.37</ele>
        <time>2019-02-16T09:47:49Z</time>
      </trkpt>
      <trkpt lat="48.83552" lon="2.42821">
        <ele>55.41</ele>
        <time>2019-02-16T09:47:55Z</time>
      </trkpt>
      <trkpt lat="48.83554" lon="2.42819">
        <ele>56.86</ele>
        <time>2019-02-16T09:47:57Z</time>
      </trkpt>
      <trkpt lat="48.83562" lon="2.42807">
        <ele>54.93</ele>
        <time>2019-02-16T09:48:07Z</time>
      </trkpt>
      <trkpt lat="48.83564" lon="2.42806">
        <ele>54.93</ele>
        <time>2019-02-16T09:48:09Z</time>
      </trkpt>
      <trkpt lat="48.83566" lon="2.42804">
        <ele>55.41</ele>
        <time>2019-02-16T09:48:10Z</time>
      </trkpt>
      <trkpt lat="48.83583" lon="2.42794">
        <ele>55.41</ele>
        <time>2019-02-16T09:48:23Z</time>
      </trkpt>
      <trkpt lat="48.83585" lon="2.42789">
        <ele>54.93</ele>
        <time>2019-02-16T09:48:27Z</time>
      </trkpt>
      <trkpt lat="48.83586" lon="2.42787">
        <ele>55.41</ele>
        <time>2019-02-16T09:48:28Z</time>
      </trkpt>
      <trkpt lat="48.83587" lon="2.42786">
        <ele>55.89</ele>
        <time>2019-02-16T09:48:29Z</time>
      </trkpt>
      <trkpt lat="48.83598" lon="2.42779">
        <ele>55.41</ele>
        <time>2019-02-16T09:48:42Z</time>
      </trkpt>
      <trkpt lat="48.83604" lon="2.42775">
        <ele>54.93</ele>
        <time>2019-02-16T09:48:47Z</time>
      </trkpt>
      <trkpt lat="48.83608" lon="2.42772">
        <ele>54.45</ele>
        <time>2019-02-16T09:48:55Z</time>
      </trkpt>
      <trkpt lat="48.83619" lon="2.42763">
        <ele>54.45</ele>
        <time>2019-02-16T09:49:08Z</time>
      </trkpt>
      <trkpt lat="48.83625" lon="2.42758">
        <ele>54.45</ele>
        <time>2019-02-16T09:49:15Z</time>
      </trkpt>
      <trkpt lat="48.83634" lon="2.42749">
        <ele>53.97</ele>
        <time>2019-02-16T09:49:25Z</time>
      </trkpt>
      <trkpt lat="48.83636" lon="2.42748">
        <ele>54.93</ele>
        <time>2019-02-16T09:49:26Z</time>
      </trkpt>
      <trkpt lat="48.83641" lon="2.42741">
        <ele>54.45</ele>
        <time>2019-02-16T09:49:36Z</time>
      </trkpt>
      <trkpt lat="48.8365" lon="2.42729">
        <ele>54.93</ele>
        <time>2019-02-16T09:49:47Z</time>
      </trkpt>
      <trkpt lat="48.83663" lon="2.42717">
        <ele>53.97</ele>
        <time>2019-02-16T09:49:59Z</time>
      </trkpt>
      <trkpt lat="48.83671" lon="2.42704">
        <ele>54.45</ele>
        <time>2019-02-16T09:50:13Z</time>
      </trkpt>
      <trkpt lat="48.83676" lon="2.427">
        <ele>54.93</ele>
        <time>2019-02-16T09:50:16Z</time>
      </trkpt>
      <trkpt lat="48.83682" lon="2.42693">
        <ele>54.93</ele>
        <time>2019-02-16T09:50:20Z</time>
      </trkpt>
      <trkpt lat="48.83688" lon="2.42688">
        <ele>54.93</ele>
        <time>2019-02-16T09:50:24Z</time>
      </trkpt>
      <trkpt lat="48.83693" lon="2.42678">
        <ele>54.45</ele>
        <time>2019-02-16T09:50:35Z</time>
      </trkpt>
      <trkpt lat="48.837" lon="2.42669">
        <ele>54.93</ele>
        <time>2019-02-16T09:50:47Z</time>
      </trkpt>
      <trkpt lat="48.83706" lon="2.42664">
        <ele>54.45</ele>
        <time>2019-02-16T09:50:57Z</time>
      </trkpt>
      <trkpt lat="48.83729" lon="2.4264">
        <ele>54.45</ele>
        <time>2019-02-16T09:51:09Z</time>
      </trkpt>
      <trkpt lat="48.8373" lon="2.42638">
        <ele>54.45</ele>
        <time>2019-02-16T09:51:11Z</time>
      </trkpt>
      <trkpt lat="48.83737" lon="2.42629">
        <ele>53.97</ele>
        <time>2019-02-16T09:51:21Z</time>
      </trkpt>
      <trkpt lat="48.83741" lon="2.42625">
        <ele>54.45</ele>
        <time>2019-02-16T09:51:24Z</time>
      </trkpt>
      <trkpt lat="48.83747" lon="2.42613">
        <ele>54.93</ele>
        <time>2019-02-16T09:51:29Z</time>
      </trkpt>
      <trkpt lat="48.8375" lon="2.42608">
        <ele>54.45</ele>
        <time>2019-02-16T09:51:33Z</time>
      </trkpt>
      <trkpt lat="48.83758" lon="2.42603">
        <ele>54.45</ele>
        <time>2019-02-16T09:51:44Z</time>
      </trkpt>
      <trkpt lat="48.83767" lon="2.42591">
        <ele>54.45</ele>
        <time>2019-02-16T09:51:57Z</time>
      </trkpt>
      <trkpt lat="48.8378" lon="2.42568">
        <ele>54.45</ele>
        <time>2019-02-16T09:52:11Z</time>
      </trkpt>
      <trkpt lat="48.83781" lon="2.42559">
        <ele>54.45</ele>
        <time>2019-02-16T09:52:22Z</time>
      </trkpt>
      <trkpt lat="48.83789" lon="2.42548">
        <ele>55.41</ele>
        <time>2019-02-16T09:52:34Z</time>
      </trkpt>
      <trkpt lat="48.83795" lon="2.42541">
        <ele>54.45</ele>
        <time>2019-02-16T09:52:43Z</time>
      </trkpt>
      <trkpt lat="48.8381" lon="2.42529">
        <ele>54.45</ele>
        <time>2019-02-16T09:52:56Z</time>
      </trkpt>
      <trkpt lat="48.83822" lon="2.42519">
        <ele>53.97</ele>
        <time>2019-02-16T09:53:05Z</time>
      </trkpt>
      <trkpt lat="48.83832" lon="2.42511">
        <ele>54.45</ele>
        <time>2019-02-16T09:53:16Z</time>
      </trkpt>
      <trkpt lat="48.83834" lon="2.42509">
        <ele>54.45</ele>
        <time>2019-02-16T09:53:19Z</time>
      </trkpt>
      <trkpt lat="48.83838" lon="2.42505">
        <ele>53.97</ele>
        <time>2019-02-16T09:53:26Z</time>
      </trkpt>
      <trkpt lat="48.83836" lon="2.42501">
        <ele>54.45</ele>
        <time>2019-02-16T09:53:29Z</time>
      </trkpt>
      <trkpt lat="48.83832" lon="2.42493">
        <ele>55.89</ele>
        <time>2019-02-16T09:53:37Z</time>
      </trkpt>
      <trkpt lat="48.83833" lon="2.42488">
        <ele>54.45</ele>
        <time>2019-02-16T09:53:39Z</time>
      </trkpt>
      <trkpt lat="48.83834" lon="2.42484">
        <ele>53.97</ele>
        <time>2019-02-16T09:53:42Z</time>
      </trkpt>
      <trkpt lat="48.83839" lon="2.42473">
        <ele>54.45</ele>
        <time>2019-02-16T09:53:49Z</time>
      </trkpt>
      <trkpt lat="48.8384" lon="2.4247">
        <ele>54.45</ele>
        <time>2019-02-16T09:53:50Z</time>
      </trkpt>
      <trkpt lat="48.83842" lon="2.42468">
        <ele>54.45</ele>
        <time>2019-02-16T09:53:51Z</time>
      </trkpt>
      <trkpt lat="48.83843" lon="2.42465">
        <ele>54.93</ele>
        <time>2019-02-16T09:53:52Z</time>
      </trkpt>
      <trkpt lat="48.83844" lon="2.42463">
        <ele>55.89</ele>
        <time>2019-02-16T09:53:53Z</time>
      </trkpt>
      <trkpt lat="48.83846" lon="2.42462">
        <ele>54.45</ele>
        <time>2019-02-16T09:53:54Z</time>
      </trkpt>
      <trkpt lat="48.83847" lon="2.42461">
        <ele>54.93</ele>
        <time>2019-02-16T09:53:55Z</time>
      </trkpt>
      <trkpt lat="48.83849" lon="2.4246">
        <ele>54.93</ele>
        <time>2019-02-16T09:53:58Z</time>
      </trkpt>
      <trkpt lat="48.83858" lon="2.42453">
        <ele>53.97</ele>
        <time>2019-02-16T09:54:10Z</time>
      </trkpt>
      <trkpt lat="48.83872" lon="2.42439">
        <ele>54.45</ele>
        <time>2019-02-16T09:54:22Z</time>
      </trkpt>
      <trkpt lat="48.83883" lon="2.42425">
        <ele>54.45</ele>
        <time>2019-02-16T09:54:32Z</time>
      </trkpt>
      <trkpt lat="48.83891" lon="2.42415">
        <ele>53.97</ele>
        <time>2019-02-16T09:54:43Z</time>
      </trkpt>
      <trkpt lat="48.83908" lon="2.42402">
        <ele>53.97</ele>
        <time>2019-02-16T09:54:57Z</time>
      </trkpt>
      <trkpt lat="48.83916" lon="2.42389">
        <ele>54.45</ele>
        <time>2019-02-16T09:55:03Z</time>
      </trkpt>
      <trkpt lat="48.83917" lon="2.42387">
        <ele>54.45</ele>
        <time>2019-02-16T09:55:04Z</time>
      </trkpt>
      <trkpt lat="48.83919" lon="2.42385">
        <ele>54.45</ele>
        <time>2019-02-16T09:55:05Z</time>
      </trkpt>
      <trkpt lat="48.83925" lon="2.42373">
        <ele>54.45</ele>
        <time>2019-02-16T09:55:13Z</time>
      </trkpt>
      <trkpt lat="48.83935" lon="2.42358">
        <ele>54.93</ele>
        <time>2019-02-16T09:55:25Z</time>
      </trkpt>
      <trkpt lat="48.83944" lon="2.4234">
        <ele>55.41</ele>
        <time>2019-02-16T09:55:40Z</time>
      </trkpt>
      <trkpt lat="48.83958" lon="2.42322">
        <ele>55.41</ele>
        <time>2019-02-16T09:55:53Z</time>
      </trkpt>
      <trkpt lat="48.83963" lon="2.42316">
        <ele>56.86</ele>
        <time>2019-02-16T09:55:58Z</time>
      </trkpt>
      <trkpt lat="48.83966" lon="2.42305">
        <ele>56.86</ele>
        <time>2019-02-16T09:56:08Z</time>
      </trkpt>
      <trkpt lat="48.83971" lon="2.42297">
        <ele>55.89</ele>
        <time>2019-02-16T09:56:17Z</time>
      </trkpt>
      <trkpt lat="48.83982" lon="2.42283">
        <ele>55.41</ele>
        <time>2019-02-16T09:56:28Z</time>
      </trkpt>
      <trkpt lat="48.83994" lon="2.42265">
        <ele>55.41</ele>
        <time>2019-02-16T09:56:42Z</time>
      </trkpt>
      <trkpt lat="48.83995" lon="2.42263">
        <ele>55.41</ele>
        <time>2019-02-16T09:56:43Z</time>
      </trkpt>
      <trkpt lat="48.83996" lon="2.42262">
        <ele>55.41</ele>
        <time>2019-02-16T09:56:44Z</time>
      </trkpt>
      <trkpt lat="48.84" lon="2.42254">
        <ele>56.37</ele>
        <time>2019-02-16T09:56:50Z</time>
      </trkpt>
      <trkpt lat="48.84001" lon="2.42253">
        <ele>55.89</ele>
        <time>2019-02-16T09:56:51Z</time>
      </trkpt>
      <trkpt lat="48.84002" lon="2.42252">
        <ele>56.86</ele>
        <time>2019-02-16T09:56:52Z</time>
      </trkpt>
      <trkpt lat="48.84003" lon="2.4225">
        <ele>55.89</ele>
        <time>2019-02-16T09:56:53Z</time>
      </trkpt>
      <trkpt lat="48.84004" lon="2.42249">
        <ele>55.89</ele>
        <time>2019-02-16T09:56:54Z</time>
      </trkpt>
      <trkpt lat="48.84005" lon="2.42247">
        <ele>56.37</ele>
        <time>2019-02-16T09:56:55Z</time>
      </trkpt>
      <trkpt lat="48.84006" lon="2.42246">
        <ele>55.89</ele>
        <time>2019-02-16T09:56:56Z</time>
      </trkpt>
      <trkpt lat="48.84006" lon="2.42245">
        <ele>56.37</ele>
        <time>2019-02-16T09:56:57Z</time>
      </trkpt>
      <trkpt lat="48.84007" lon="2.42243">
        <ele>56.37</ele>
        <time>2019-02-16T09:56:58Z</time>
      </trkpt>
      <trkpt lat="48.84008" lon="2.42241">
        <ele>55.89</ele>
        <time>2019-02-16T09:56:59Z</time>
      </trkpt>
      <trkpt lat="48.84009" lon="2.42239">
        <ele>55.89</ele>
        <time>2019-02-16T09:57:00Z</time>
      </trkpt>
      <trkpt lat="48.8401" lon="2.42237">
        <ele>55.89</ele>
        <time>2019-02-16T09:57:01Z</time>
      </trkpt>
      <trkpt lat="48.84011" lon="2.42235">
        <ele>55.89</ele>
        <time>2019-02-16T09:57:02Z</time>
      </trkpt>
      <trkpt lat="48.84014" lon="2.42226">
        <ele>55.89</ele>
        <time>2019-02-16T09:57:08Z</time>
      </trkpt>
      <trkpt lat="48.84023" lon="2.42206">
        <ele>55.89</ele>
        <time>2019-02-16T09:57:23Z</time>
      </trkpt>
      <trkpt lat="48.84034" lon="2.42187">
        <ele>55.41</ele>
        <time>2019-02-16T09:57:36Z</time>
      </trkpt>
      <trkpt lat="48.84041" lon="2.42176">
        <ele>54.93</ele>
        <time>2019-02-16T09:57:44Z</time>
      </trkpt>
      <trkpt lat="48.84042" lon="2.42174">
        <ele>54.45</ele>
        <time>2019-02-16T09:57:45Z</time>
      </trkpt>
      <trkpt lat="48.8405" lon="2.42153">
        <ele>53.97</ele>
        <time>2019-02-16T09:57:57Z</time>
      </trkpt>
      <trkpt lat="48.84059" lon="2.42132">
        <ele>54.45</ele>
        <time>2019-02-16T09:58:11Z</time>
      </trkpt>
      <trkpt lat="48.84067" lon="2.42109">
        <ele>53.97</ele>
        <time>2019-02-16T09:58:24Z</time>
      </trkpt>
      <trkpt lat="48.84074" lon="2.42096">
        <ele>53.01</ele>
        <time>2019-02-16T09:58:32Z</time>
      </trkpt>
      <trkpt lat="48.84075" lon="2.42094">
        <ele>52.53</ele>
        <time>2019-02-16T09:58:33Z</time>
      </trkpt>
      <trkpt lat="48.84076" lon="2.42074">
        <ele>53.01</ele>
        <time>2019-02-16T09:58:45Z</time>
      </trkpt>
      <trkpt lat="48.84081" lon="2.42065">
        <ele>53.49</ele>
        <time>2019-02-16T09:58:51Z</time>
      </trkpt>
      <trkpt lat="48.84082" lon="2.4206">
        <ele>53.97</ele>
        <time>2019-02-16T09:58:53Z</time>
      </trkpt>
      <trkpt lat="48.84083" lon="2.42058">
        <ele>53.49</ele>
        <time>2019-02-16T09:58:54Z</time>
      </trkpt>
      <trkpt lat="48.84084" lon="2.42056">
        <ele>53.49</ele>
        <time>2019-02-16T09:58:55Z</time>
      </trkpt>
      <trkpt lat="48.84086" lon="2.42051">
        <ele>53.01</ele>
        <time>2019-02-16T09:58:58Z</time>
      </trkpt>
      <trkpt lat="48.84087" lon="2.4205">
        <ele>53.01</ele>
        <time>2019-02-16T09:58:59Z</time>
      </trkpt>
      <trkpt lat="48.84089" lon="2.42037">
        <ele>53.01</ele>
        <time>2019-02-16T09:59:09Z</time>
      </trkpt>
      <trkpt lat="48.84089" lon="2.42028">
        <ele>52.53</ele>
        <time>2019-02-16T09:59:16Z</time>
      </trkpt>
      <trkpt lat="48.84089" lon="2.42026">
        <ele>52.53</ele>
        <time>2019-02-16T09:59:17Z</time>
      </trkpt>
      <trkpt lat="48.84089" lon="2.42024">
        <ele>52.53</ele>
        <time>2019-02-16T09:59:18Z</time>
      </trkpt>
      <trkpt lat="48.84088" lon="2.42013">
        <ele>52.53</ele>
        <time>2019-02-16T09:59:26Z</time>
      </trkpt>
      <trkpt lat="48.84083" lon="2.42004">
        <ele>52.53</ele>
        <time>2019-02-16T09:59:36Z</time>
      </trkpt>
      <trkpt lat="48.84083" lon="2.41998">
        <ele>52.05</ele>
        <time>2019-02-16T09:59:49Z</time>
      </trkpt>
      <trkpt lat="48.84084" lon="2.41994">
        <ele>52.05</ele>
        <time>2019-02-16T09:59:55Z</time>
      </trkpt>
      <trkpt lat="48.84085" lon="2.41993">
        <ele>51.57</ele>
        <time>2019-02-16T09:59:56Z</time>
      </trkpt>
      <trkpt lat="48.84085" lon="2.41991">
        <ele>53.01</ele>
        <time>2019-02-16T09:59:57Z</time>
      </trkpt>
      <trkpt lat="48.84086" lon="2.41989">
        <ele>53.01</ele>
        <time>2019-02-16T09:59:58Z</time>
      </trkpt>
      <trkpt lat="48.84087" lon="2.41987">
        <ele>53.01</ele>
        <time>2019-02-16T09:59:59Z</time>
      </trkpt>
      <trkpt lat="48.84087" lon="2.41985">
        <ele>52.05</ele>
        <time>2019-02-16T10:00:00Z</time>
      </trkpt>
      <trkpt lat="48.84087" lon="2.41979">
        <ele>53.01</ele>
        <time>2019-02-16T10:00:05Z</time>
      </trkpt>
      <trkpt lat="48.84092" lon="2.41972">
        <ele>53.01</ele>
        <time>2019-02-16T10:00:13Z</time>
      </trkpt>
      <trkpt lat="48.84093" lon="2.4197">
        <ele>53.49</ele>
        <time>2019-02-16T10:00:18Z</time>
      </trkpt>
      <trkpt lat="48.84094" lon="2.41969">
        <ele>53.01</ele>
        <time>2019-02-16T10:00:19Z</time>
      </trkpt>
      <trkpt lat="48.84094" lon="2.41964">
        <ele>52.53</ele>
        <time>2019-02-16T10:00:24Z</time>
      </trkpt>
      <trkpt lat="48.84094" lon="2.41955">
        <ele>52.53</ele>
        <time>2019-02-16T10:00:32Z</time>
      </trkpt>
      <trkpt lat="48.84094" lon="2.41954">
        <ele>52.53</ele>
        <time>2019-02-16T10:00:33Z</time>
      </trkpt>
      <trkpt lat="48.84095" lon="2.41952">
        <ele>52.53</ele>
        <time>2019-02-16T10:00:34Z</time>
      </trkpt>
      <trkpt lat="48.84094" lon="2.41942">
        <ele>52.05</ele>
        <time>2019-02-16T10:00:42Z</time>
      </trkpt>
      <trkpt lat="48.84089" lon="2.41935">
        <ele>53.49</ele>
        <time>2019-02-16T10:00:49Z</time>
      </trkpt>
      <trkpt lat="48.84075" lon="2.4194">
        <ele>52.53</ele>
        <time>2019-02-16T10:01:01Z</time>
      </trkpt>
      <trkpt lat="48.84071" lon="2.41936">
        <ele>52.53</ele>
        <time>2019-02-16T10:01:08Z</time>
      </trkpt>
      <trkpt lat="48.84071" lon="2.41933">
        <ele>52.53</ele>
        <time>2019-02-16T10:01:09Z</time>
      </trkpt>
      <trkpt lat="48.8407" lon="2.41932">
        <ele>52.53</ele>
        <time>2019-02-16T10:01:10Z</time>
      </trkpt>
      <trkpt lat="48.8407" lon="2.41928">
        <ele>52.53</ele>
        <time>2019-02-16T10:01:12Z</time>
      </trkpt>
      <trkpt lat="48.84071" lon="2.41919">
        <ele>53.97</ele>
        <time>2019-02-16T10:01:20Z</time>
      </trkpt>
      <trkpt lat="48.84075" lon="2.41904">
        <ele>53.01</ele>
        <time>2019-02-16T10:01:29Z</time>
      </trkpt>
      <trkpt lat="48.84075" lon="2.41899">
        <ele>52.53</ele>
        <time>2019-02-16T10:01:32Z</time>
      </trkpt>
      <trkpt lat="48.84074" lon="2.41891">
        <ele>53.01</ele>
        <time>2019-02-16T10:01:37Z</time>
      </trkpt>
      <trkpt lat="48.84072" lon="2.41884">
        <ele>53.01</ele>
        <time>2019-02-16T10:01:40Z</time>
      </trkpt>
      <trkpt lat="48.84069" lon="2.41882">
        <ele>54.45</ele>
        <time>2019-02-16T10:01:41Z</time>
      </trkpt>
      <trkpt lat="48.84069" lon="2.41881">
        <ele>53.01</ele>
        <time>2019-02-16T10:01:42Z</time>
      </trkpt>
      <trkpt lat="48.84065" lon="2.41879">
        <ele>53.01</ele>
        <time>2019-02-16T10:01:44Z</time>
      </trkpt>
      <trkpt lat="48.84056" lon="2.4187">
        <ele>53.49</ele>
        <time>2019-02-16T10:01:52Z</time>
      </trkpt>
      <trkpt lat="48.84055" lon="2.41867">
        <ele>53.49</ele>
        <time>2019-02-16T10:01:53Z</time>
      </trkpt>
      <trkpt lat="48.84051" lon="2.4186">
        <ele>53.49</ele>
        <time>2019-02-16T10:01:59Z</time>
      </trkpt>
      <trkpt lat="48.84048" lon="2.41857">
        <ele>53.49</ele>
        <time>2019-02-16T10:02:03Z</time>
      </trkpt>
      <trkpt lat="48.84044" lon="2.41854">
        <ele>53.01</ele>
        <time>2019-02-16T10:02:06Z</time>
      </trkpt>
      <trkpt lat="48.84032" lon="2.41852">
        <ele>53.01</ele>
        <time>2019-02-16T10:02:19Z</time>
      </trkpt>
      <trkpt lat="48.84031" lon="2.41839">
        <ele>53.49</ele>
        <time>2019-02-16T10:02:29Z</time>
      </trkpt>
      <trkpt lat="48.8403" lon="2.41837">
        <ele>53.01</ele>
        <time>2019-02-16T10:02:30Z</time>
      </trkpt>
      <trkpt lat="48.84033" lon="2.41815">
        <ele>53.49</ele>
        <time>2019-02-16T10:02:39Z</time>
      </trkpt>
      <trkpt lat="48.84029" lon="2.41806">
        <ele>53.01</ele>
        <time>2019-02-16T10:02:46Z</time>
      </trkpt>
      <trkpt lat="48.84018" lon="2.41798">
        <ele>53.49</ele>
        <time>2019-02-16T10:02:55Z</time>
      </trkpt>
      <trkpt lat="48.84002" lon="2.41792">
        <ele>52.53</ele>
        <time>2019-02-16T10:03:08Z</time>
      </trkpt>
      <trkpt lat="48.84" lon="2.41768">
        <ele>53.01</ele>
        <time>2019-02-16T10:03:23Z</time>
      </trkpt>
      <trkpt lat="48.8399" lon="2.41765">
        <ele>52.53</ele>
        <time>2019-02-16T10:03:37Z</time>
      </trkpt>
      <trkpt lat="48.83977" lon="2.41749">
        <ele>51.57</ele>
        <time>2019-02-16T10:03:56Z</time>
      </trkpt>
      <trkpt lat="48.83984" lon="2.41717">
        <ele>50.13</ele>
        <time>2019-02-16T10:04:14Z</time>
      </trkpt>
      <trkpt lat="48.84" lon="2.41679">
        <ele>49.65</ele>
        <time>2019-02-16T10:04:32Z</time>
      </trkpt>
      <trkpt lat="48.83991" lon="2.41665">
        <ele>49.16</ele>
        <time>2019-02-16T10:04:44Z</time>
      </trkpt>
      <trkpt lat="48.8401" lon="2.41614">
        <ele>48.2</ele>
        <time>2019-02-16T10:05:00Z</time>
      </trkpt>
      <trkpt lat="48.84012" lon="2.41604">
        <ele>48.2</ele>
        <time>2019-02-16T10:05:04Z</time>
      </trkpt>
      <trkpt lat="48.84009" lon="2.41592">
        <ele>47.72</ele>
        <time>2019-02-16T10:05:09Z</time>
      </trkpt>
      <trkpt lat="48.84009" lon="2.4159">
        <ele>48.2</ele>
        <time>2019-02-16T10:05:10Z</time>
      </trkpt>
      <trkpt lat="48.84009" lon="2.41569">
        <ele>47.24</ele>
        <time>2019-02-16T10:05:24Z</time>
      </trkpt>
      <trkpt lat="48.84008" lon="2.41561">
        <ele>47.24</ele>
        <time>2019-02-16T10:05:30Z</time>
      </trkpt>
      <trkpt lat="48.84006" lon="2.41559">
        <ele>47.72</ele>
        <time>2019-02-16T10:05:31Z</time>
      </trkpt>
      <trkpt lat="48.83997" lon="2.41544">
        <ele>46.76</ele>
        <time>2019-02-16T10:05:43Z</time>
      </trkpt>
      <trkpt lat="48.83995" lon="2.41537">
        <ele>46.76</ele>
        <time>2019-02-16T10:05:49Z</time>
      </trkpt>
      <trkpt lat="48.83994" lon="2.41535">
        <ele>46.76</ele>
        <time>2019-02-16T10:05:50Z</time>
      </trkpt>
      <trkpt lat="48.83997" lon="2.4152">
        <ele>46.76</ele>
        <time>2019-02-16T10:05:55Z</time>
      </trkpt>
      <trkpt lat="48.83997" lon="2.41518">
        <ele>46.76</ele>
        <time>2019-02-16T10:05:56Z</time>
      </trkpt>
      <trkpt lat="48.83997" lon="2.41513">
        <ele>46.76</ele>
        <time>2019-02-16T10:05:59Z</time>
      </trkpt>
      <trkpt lat="48.83996" lon="2.41502">
        <ele>46.76</ele>
        <time>2019-02-16T10:06:04Z</time>
      </trkpt>
      <trkpt lat="48.83995" lon="2.415">
        <ele>47.24</ele>
        <time>2019-02-16T10:06:05Z</time>
      </trkpt>
      <trkpt lat="48.83996" lon="2.41481">
        <ele>46.76</ele>
        <time>2019-02-16T10:06:14Z</time>
      </trkpt>
      <trkpt lat="48.83996" lon="2.41479">
        <ele>46.28</ele>
        <time>2019-02-16T10:06:15Z</time>
      </trkpt>
      <trkpt lat="48.83996" lon="2.41471">
        <ele>46.76</ele>
        <time>2019-02-16T10:06:19Z</time>
      </trkpt>
      <trkpt lat="48.83996" lon="2.41469">
        <ele>46.76</ele>
        <time>2019-02-16T10:06:20Z</time>
      </trkpt>
      <trkpt lat="48.83995" lon="2.41468">
        <ele>46.28</ele>
        <time>2019-02-16T10:06:21Z</time>
      </trkpt>
      <trkpt lat="48.83991" lon="2.41464">
        <ele>46.76</ele>
        <time>2019-02-16T10:06:26Z</time>
      </trkpt>
      <trkpt lat="48.83991" lon="2.41462">
        <ele>46.28</ele>
        <time>2019-02-16T10:06:27Z</time>
      </trkpt>
      <trkpt lat="48.8399" lon="2.41456">
        <ele>46.28</ele>
        <time>2019-02-16T10:06:30Z</time>
      </trkpt>
      <trkpt lat="48.8399" lon="2.41454">
        <ele>46.76</ele>
        <time>2019-02-16T10:06:31Z</time>
      </trkpt>
      <trkpt lat="48.83983" lon="2.41429">
        <ele>46.28</ele>
        <time>2019-02-16T10:06:43Z</time>
      </trkpt>
      <trkpt lat="48.83983" lon="2.41414">
        <ele>45.8</ele>
        <time>2019-02-16T10:06:53Z</time>
      </trkpt>
      <trkpt lat="48.83984" lon="2.41408">
        <ele>45.32</ele>
        <time>2019-02-16T10:06:56Z</time>
      </trkpt>
      <trkpt lat="48.83985" lon="2.41406">
        <ele>45.32</ele>
        <time>2019-02-16T10:06:57Z</time>
      </trkpt>
      <trkpt lat="48.83985" lon="2.41404">
        <ele>45.8</ele>
        <time>2019-02-16T10:06:58Z</time>
      </trkpt>
      <trkpt lat="48.83987" lon="2.41392">
        <ele>45.8</ele>
        <time>2019-02-16T10:07:06Z</time>
      </trkpt>
      <trkpt lat="48.83986" lon="2.41389">
        <ele>45.8</ele>
        <time>2019-02-16T10:07:07Z</time>
      </trkpt>
      <trkpt lat="48.83986" lon="2.41387">
        <ele>46.28</ele>
        <time>2019-02-16T10:07:08Z</time>
      </trkpt>
      <trkpt lat="48.83986" lon="2.41385">
        <ele>45.8</ele>
        <time>2019-02-16T10:07:09Z</time>
      </trkpt>
      <trkpt lat="48.83985" lon="2.41383">
        <ele>45.32</ele>
        <time>2019-02-16T10:07:10Z</time>
      </trkpt>
      <trkpt lat="48.83982" lon="2.41375">
        <ele>45.32</ele>
        <time>2019-02-16T10:07:17Z</time>
      </trkpt>
      <trkpt lat="48.83978" lon="2.41375">
        <ele>45.32</ele>
        <time>2019-02-16T10:07:22Z</time>
      </trkpt>
      <trkpt lat="48.8397" lon="2.41331">
        <ele>45.32</ele>
        <time>2019-02-16T10:07:47Z</time>
      </trkpt>
      <trkpt lat="48.83982" lon="2.41314">
        <ele>44.84</ele>
        <time>2019-02-16T10:07:53Z</time>
      </trkpt>
      <trkpt lat="48.83988" lon="2.41313">
        <ele>45.32</ele>
        <time>2019-02-16T10:07:57Z</time>
      </trkpt>
      <trkpt lat="48.84009" lon="2.41315">
        <ele>45.8</ele>
        <time>2019-02-16T10:08:11Z</time>
      </trkpt>
      <trkpt lat="48.84021" lon="2.41319">
        <ele>45.8</ele>
        <time>2019-02-16T10:08:23Z</time>
      </trkpt>
      <trkpt lat="48.8403" lon="2.41323">
        <ele>45.8</ele>
        <time>2019-02-16T10:08:34Z</time>
      </trkpt>
      <trkpt lat="48.8404" lon="2.41324">
        <ele>47.24</ele>
        <time>2019-02-16T10:08:42Z</time>
      </trkpt>
      <trkpt lat="48.84042" lon="2.41325">
        <ele>46.28</ele>
        <time>2019-02-16T10:08:43Z</time>
      </trkpt>
      <trkpt lat="48.84044" lon="2.41325">
        <ele>46.28</ele>
        <time>2019-02-16T10:08:44Z</time>
      </trkpt>
      <trkpt lat="48.8405" lon="2.41327">
        <ele>47.24</ele>
        <time>2019-02-16T10:08:49Z</time>
      </trkpt>
      <trkpt lat="48.84052" lon="2.41327">
        <ele>47.24</ele>
        <time>2019-02-16T10:08:50Z</time>
      </trkpt>
      <trkpt lat="48.84062" lon="2.41327">
        <ele>47.24</ele>
        <time>2019-02-16T10:08:57Z</time>
      </trkpt>
      <trkpt lat="48.84076" lon="2.41329">
        <ele>48.2</ele>
        <time>2019-02-16T10:09:11Z</time>
      </trkpt>
      <trkpt lat="48.84082" lon="2.41326">
        <ele>48.68</ele>
        <time>2019-02-16T10:09:16Z</time>
      </trkpt>
      <trkpt lat="48.84099" lon="2.4132">
        <ele>49.16</ele>
        <time>2019-02-16T10:09:29Z</time>
      </trkpt>
      <trkpt lat="48.84109" lon="2.41317">
        <ele>48.68</ele>
        <time>2019-02-16T10:09:36Z</time>
      </trkpt>
      <trkpt lat="48.84115" lon="2.41308">
        <ele>47.72</ele>
        <time>2019-02-16T10:09:44Z</time>
      </trkpt>
      <trkpt lat="48.84115" lon="2.41306">
        <ele>47.72</ele>
        <time>2019-02-16T10:09:45Z</time>
      </trkpt>
      <trkpt lat="48.84115" lon="2.41304">
        <ele>48.2</ele>
        <time>2019-02-16T10:09:46Z</time>
      </trkpt>
      <trkpt lat="48.84115" lon="2.41301">
        <ele>47.72</ele>
        <time>2019-02-16T10:09:47Z</time>
      </trkpt>
      <trkpt lat="48.84115" lon="2.41299">
        <ele>47.72</ele>
        <time>2019-02-16T10:09:48Z</time>
      </trkpt>
      <trkpt lat="48.84115" lon="2.41296">
        <ele>47.24</ele>
        <time>2019-02-16T10:09:49Z</time>
      </trkpt>
      <trkpt lat="48.84115" lon="2.41294">
        <ele>47.24</ele>
        <time>2019-02-16T10:09:50Z</time>
      </trkpt>
      <trkpt lat="48.84114" lon="2.41291">
        <ele>48.2</ele>
        <time>2019-02-16T10:09:51Z</time>
      </trkpt>
      <trkpt lat="48.84114" lon="2.41289">
        <ele>46.76</ele>
        <time>2019-02-16T10:09:52Z</time>
      </trkpt>
      <trkpt lat="48.84112" lon="2.4128">
        <ele>46.76</ele>
        <time>2019-02-16T10:09:58Z</time>
      </trkpt>
      <trkpt lat="48.84108" lon="2.41268">
        <ele>46.76</ele>
        <time>2019-02-16T10:10:08Z</time>
      </trkpt>
      <trkpt lat="48.84109" lon="2.41264">
        <ele>45.8</ele>
        <time>2019-02-16T10:10:11Z</time>
      </trkpt>
      <trkpt lat="48.84109" lon="2.41261">
        <ele>46.28</ele>
        <time>2019-02-16T10:10:12Z</time>
      </trkpt>
      <trkpt lat="48.84109" lon="2.41259">
        <ele>46.28</ele>
        <time>2019-02-16T10:10:13Z</time>
      </trkpt>
      <trkpt lat="48.8411" lon="2.41251">
        <ele>46.28</ele>
        <time>2019-02-16T10:10:17Z</time>
      </trkpt>
      <trkpt lat="48.84112" lon="2.41246">
        <ele>45.32</ele>
        <time>2019-02-16T10:10:31Z</time>
      </trkpt>
      <trkpt lat="48.8411" lon="2.41234">
        <ele>45.8</ele>
        <time>2019-02-16T10:10:43Z</time>
      </trkpt>
      <trkpt lat="48.84105" lon="2.41222">
        <ele>46.28</ele>
        <time>2019-02-16T10:10:51Z</time>
      </trkpt>
      <trkpt lat="48.84103" lon="2.41215">
        <ele>46.28</ele>
        <time>2019-02-16T10:10:56Z</time>
      </trkpt>
      <trkpt lat="48.84104" lon="2.41202">
        <ele>47.24</ele>
        <time>2019-02-16T10:11:03Z</time>
      </trkpt>
      <trkpt lat="48.84101" lon="2.41183">
        <ele>48.2</ele>
        <time>2019-02-16T10:11:13Z</time>
      </trkpt>
      <trkpt lat="48.841" lon="2.4118">
        <ele>47.72</ele>
        <time>2019-02-16T10:11:15Z</time>
      </trkpt>
      <trkpt lat="48.841" lon="2.41178">
        <ele>47.72</ele>
        <time>2019-02-16T10:11:16Z</time>
      </trkpt>
      <trkpt lat="48.841" lon="2.41176">
        <ele>47.72</ele>
        <time>2019-02-16T10:11:17Z</time>
      </trkpt>
      <trkpt lat="48.841" lon="2.41174">
        <ele>48.68</ele>
        <time>2019-02-16T10:11:18Z</time>
      </trkpt>
      <trkpt lat="48.841" lon="2.41172">
        <ele>48.2</ele>
        <time>2019-02-16T10:11:19Z</time>
      </trkpt>
      <trkpt lat="48.841" lon="2.41154">
        <ele>48.2</ele>
        <time>2019-02-16T10:11:31Z</time>
      </trkpt>
      <trkpt lat="48.84099" lon="2.41152">
        <ele>48.68</ele>
        <time>2019-02-16T10:11:32Z</time>
      </trkpt>
      <trkpt lat="48.84098" lon="2.41143">
        <ele>48.68</ele>
        <time>2019-02-16T10:11:41Z</time>
      </trkpt>
      <trkpt lat="48.84094" lon="2.41131">
        <ele>48.2</ele>
        <time>2019-02-16T10:11:50Z</time>
      </trkpt>
      <trkpt lat="48.84093" lon="2.41128">
        <ele>48.68</ele>
        <time>2019-02-16T10:11:52Z</time>
      </trkpt>
      <trkpt lat="48.84084" lon="2.41117">
        <ele>48.2</ele>
        <time>2019-02-16T10:12:03Z</time>
      </trkpt>
      <trkpt lat="48.84083" lon="2.41111">
        <ele>48.2</ele>
        <time>2019-02-16T10:12:06Z</time>
      </trkpt>
      <trkpt lat="48.84079" lon="2.41107">
        <ele>47.72</ele>
        <time>2019-02-16T10:12:10Z</time>
      </trkpt>
      <trkpt lat="48.84078" lon="2.41106">
        <ele>48.2</ele>
        <time>2019-02-16T10:12:11Z</time>
      </trkpt>
      <trkpt lat="48.84077" lon="2.41103">
        <ele>49.16</ele>
        <time>2019-02-16T10:12:12Z</time>
      </trkpt>
      <trkpt lat="48.84077" lon="2.41086">
        <ele>48.2</ele>
        <time>2019-02-16T10:12:19Z</time>
      </trkpt>
      <trkpt lat="48.84078" lon="2.41083">
        <ele>48.68</ele>
        <time>2019-02-16T10:12:20Z</time>
      </trkpt>
      <trkpt lat="48.84077" lon="2.4108">
        <ele>48.68</ele>
        <time>2019-02-16T10:12:21Z</time>
      </trkpt>
      <trkpt lat="48.84079" lon="2.41064">
        <ele>48.2</ele>
        <time>2019-02-16T10:12:27Z</time>
      </trkpt>
      <trkpt lat="48.84076" lon="2.41052">
        <ele>48.2</ele>
        <time>2019-02-16T10:12:35Z</time>
      </trkpt>
      <trkpt lat="48.84073" lon="2.4103">
        <ele>49.16</ele>
        <time>2019-02-16T10:12:47Z</time>
      </trkpt>
      <trkpt lat="48.84074" lon="2.41021">
        <ele>48.68</ele>
        <time>2019-02-16T10:12:52Z</time>
      </trkpt>
      <trkpt lat="48.84075" lon="2.4102">
        <ele>48.68</ele>
        <time>2019-02-16T10:12:53Z</time>
      </trkpt>
      <trkpt lat="48.84075" lon="2.41017">
        <ele>48.68</ele>
        <time>2019-02-16T10:12:54Z</time>
      </trkpt>
      <trkpt lat="48.84075" lon="2.41014">
        <ele>49.16</ele>
        <time>2019-02-16T10:12:55Z</time>
      </trkpt>
      <trkpt lat="48.84075" lon="2.41012">
        <ele>49.16</ele>
        <time>2019-02-16T10:12:56Z</time>
      </trkpt>
      <trkpt lat="48.84076" lon="2.4101">
        <ele>49.16</ele>
        <time>2019-02-16T10:12:57Z</time>
      </trkpt>
      <trkpt lat="48.8407" lon="2.4098">
        <ele>49.16</ele>
        <time>2019-02-16T10:13:12Z</time>
      </trkpt>
      <trkpt lat="48.84071" lon="2.4097">
        <ele>49.16</ele>
        <time>2019-02-16T10:13:16Z</time>
      </trkpt>
      <trkpt lat="48.84069" lon="2.40947">
        <ele>49.16</ele>
        <time>2019-02-16T10:13:30Z</time>
      </trkpt>
      <trkpt lat="48.84066" lon="2.40934">
        <ele>49.16</ele>
        <time>2019-02-16T10:13:38Z</time>
      </trkpt>
      <trkpt lat="48.84066" lon="2.40931">
        <ele>49.16</ele>
        <time>2019-02-16T10:13:39Z</time>
      </trkpt>
      <trkpt lat="48.84066" lon="2.40929">
        <ele>49.65</ele>
        <time>2019-02-16T10:13:40Z</time>
      </trkpt>
      <trkpt lat="48.84066" lon="2.40912">
        <ele>48.68</ele>
        <time>2019-02-16T10:13:50Z</time>
      </trkpt>
      <trkpt lat="48.84066" lon="2.40903">
        <ele>49.65</ele>
        <time>2019-02-16T10:13:55Z</time>
      </trkpt>
      <trkpt lat="48.84065" lon="2.40901">
        <ele>49.65</ele>
        <time>2019-02-16T10:13:56Z</time>
      </trkpt>
      <trkpt lat="48.84065" lon="2.40899">
        <ele>49.16</ele>
        <time>2019-02-16T10:13:57Z</time>
      </trkpt>
      <trkpt lat="48.84066" lon="2.40885">
        <ele>48.68</ele>
        <time>2019-02-16T10:14:10Z</time>
      </trkpt>
      <trkpt lat="48.84067" lon="2.40882">
        <ele>48.68</ele>
        <time>2019-02-16T10:14:13Z</time>
      </trkpt>
      <trkpt lat="48.84068" lon="2.4088">
        <ele>48.2</ele>
        <time>2019-02-16T10:14:14Z</time>
      </trkpt>
      <trkpt lat="48.8407" lon="2.40862">
        <ele>47.72</ele>
        <time>2019-02-16T10:14:25Z</time>
      </trkpt>
      <trkpt lat="48.84071" lon="2.40856">
        <ele>47.72</ele>
        <time>2019-02-16T10:14:30Z</time>
      </trkpt>
      <trkpt lat="48.84073" lon="2.40845">
        <ele>47.72</ele>
        <time>2019-02-16T10:14:35Z</time>
      </trkpt>
      <trkpt lat="48.84072" lon="2.40843">
        <ele>48.2</ele>
        <time>2019-02-16T10:14:36Z</time>
      </trkpt>
      <trkpt lat="48.84071" lon="2.40828">
        <ele>47.72</ele>
        <time>2019-02-16T10:14:47Z</time>
      </trkpt>
      <trkpt lat="48.84066" lon="2.40815">
        <ele>47.24</ele>
        <time>2019-02-16T10:14:57Z</time>
      </trkpt>
      <trkpt lat="48.84066" lon="2.40805">
        <ele>46.76</ele>
        <time>2019-02-16T10:15:03Z</time>
      </trkpt>
      <trkpt lat="48.84068" lon="2.408">
        <ele>46.76</ele>
        <time>2019-02-16T10:15:06Z</time>
      </trkpt>
      <trkpt lat="48.84064" lon="2.40764">
        <ele>47.72</ele>
        <time>2019-02-16T10:15:20Z</time>
      </trkpt>
      <trkpt lat="48.84064" lon="2.40762">
        <ele>46.76</ele>
        <time>2019-02-16T10:15:22Z</time>
      </trkpt>
      <trkpt lat="48.84064" lon="2.40761">
        <ele>47.24</ele>
        <time>2019-02-16T10:15:23Z</time>
      </trkpt>
      <trkpt lat="48.84063" lon="2.40758">
        <ele>46.76</ele>
        <time>2019-02-16T10:15:27Z</time>
      </trkpt>
      <trkpt lat="48.84062" lon="2.40757">
        <ele>46.76</ele>
        <time>2019-02-16T10:15:28Z</time>
      </trkpt>
      <trkpt lat="48.84061" lon="2.40755">
        <ele>45.8</ele>
        <time>2019-02-16T10:15:30Z</time>
      </trkpt>
      <trkpt lat="48.84061" lon="2.40751">
        <ele>46.76</ele>
        <time>2019-02-16T10:15:32Z</time>
      </trkpt>
      <trkpt lat="48.84061" lon="2.40736">
        <ele>46.28</ele>
        <time>2019-02-16T10:15:45Z</time>
      </trkpt>
      <trkpt lat="48.8406" lon="2.4072">
        <ele>46.28</ele>
        <time>2019-02-16T10:15:57Z</time>
      </trkpt>
      <trkpt lat="48.8406" lon="2.40718">
        <ele>46.28</ele>
        <time>2019-02-16T10:15:58Z</time>
      </trkpt>
      <trkpt lat="48.84063" lon="2.40709">
        <ele>46.76</ele>
        <time>2019-02-16T10:16:01Z</time>
      </trkpt>
      <trkpt lat="48.84065" lon="2.40705">
        <ele>46.28</ele>
        <time>2019-02-16T10:16:02Z</time>
      </trkpt>
      <trkpt lat="48.84066" lon="2.40701">
        <ele>46.76</ele>
        <time>2019-02-16T10:16:03Z</time>
      </trkpt>
      <trkpt lat="48.84072" lon="2.40686">
        <ele>46.28</ele>
        <time>2019-02-16T10:16:08Z</time>
      </trkpt>
      <trkpt lat="48.84074" lon="2.40666">
        <ele>46.28</ele>
        <time>2019-02-16T10:16:16Z</time>
      </trkpt>
      <trkpt lat="48.84073" lon="2.40648">
        <ele>45.8</ele>
        <time>2019-02-16T10:16:27Z</time>
      </trkpt>
      <trkpt lat="48.84073" lon="2.40643">
        <ele>45.32</ele>
        <time>2019-02-16T10:16:29Z</time>
      </trkpt>
      <trkpt lat="48.84077" lon="2.4062">
        <ele>45.32</ele>
        <time>2019-02-16T10:16:40Z</time>
      </trkpt>
      <trkpt lat="48.84078" lon="2.40597">
        <ele>44.84</ele>
        <time>2019-02-16T10:16:54Z</time>
      </trkpt>
      <trkpt lat="48.84081" lon="2.40582">
        <ele>44.36</ele>
        <time>2019-02-16T10:17:01Z</time>
      </trkpt>
      <trkpt lat="48.84086" lon="2.4056">
        <ele>43.88</ele>
        <time>2019-02-16T10:17:14Z</time>
      </trkpt>
      <trkpt lat="48.84087" lon="2.40541">
        <ele>43.88</ele>
        <time>2019-02-16T10:17:23Z</time>
      </trkpt>
      <trkpt lat="48.84093" lon="2.40514">
        <ele>42.44</ele>
        <time>2019-02-16T10:17:37Z</time>
      </trkpt>
      <trkpt lat="48.84095" lon="2.40503">
        <ele>41.95</ele>
        <time>2019-02-16T10:17:43Z</time>
      </trkpt>
      <trkpt lat="48.84096" lon="2.40494">
        <ele>41.95</ele>
        <time>2019-02-16T10:17:46Z</time>
      </trkpt>
      <trkpt lat="48.84092" lon="2.40488">
        <ele>40.99</ele>
        <time>2019-02-16T10:17:51Z</time>
      </trkpt>
      <trkpt lat="48.84094" lon="2.40483">
        <ele>40.99</ele>
        <time>2019-02-16T10:17:53Z</time>
      </trkpt>
      <trkpt lat="48.84094" lon="2.4048">
        <ele>41.47</ele>
        <time>2019-02-16T10:17:54Z</time>
      </trkpt>
      <trkpt lat="48.84086" lon="2.40467">
        <ele>40.99</ele>
        <time>2019-02-16T10:18:04Z</time>
      </trkpt>
      <trkpt lat="48.84083" lon="2.40466">
        <ele>41.47</ele>
        <time>2019-02-16T10:18:19Z</time>
      </trkpt>
      <trkpt lat="48.84084" lon="2.40457">
        <ele>41.47</ele>
        <time>2019-02-16T10:18:27Z</time>
      </trkpt>
      <trkpt lat="48.84084" lon="2.40455">
        <ele>41.47</ele>
        <time>2019-02-16T10:18:28Z</time>
      </trkpt>
      <trkpt lat="48.84084" lon="2.40453">
        <ele>40.99</ele>
        <time>2019-02-16T10:18:29Z</time>
      </trkpt>
      <trkpt lat="48.84084" lon="2.40441">
        <ele>41.95</ele>
        <time>2019-02-16T10:18:38Z</time>
      </trkpt>
      <trkpt lat="48.84083" lon="2.40431">
        <ele>42.92</ele>
        <time>2019-02-16T10:18:46Z</time>
      </trkpt>
      <trkpt lat="48.84082" lon="2.40429">
        <ele>43.4</ele>
        <time>2019-02-16T10:18:47Z</time>
      </trkpt>
      <trkpt lat="48.84081" lon="2.40426">
        <ele>43.88</ele>
        <time>2019-02-16T10:18:48Z</time>
      </trkpt>
      <trkpt lat="48.8408" lon="2.40424">
        <ele>43.88</ele>
        <time>2019-02-16T10:18:49Z</time>
      </trkpt>
      <trkpt lat="48.84079" lon="2.40422">
        <ele>44.36</ele>
        <time>2019-02-16T10:18:50Z</time>
      </trkpt>
      <trkpt lat="48.84079" lon="2.40419">
        <ele>44.36</ele>
        <time>2019-02-16T10:18:52Z</time>
      </trkpt>
      <trkpt lat="48.84079" lon="2.40417">
        <ele>44.36</ele>
        <time>2019-02-16T10:18:53Z</time>
      </trkpt>
      <trkpt lat="48.84083" lon="2.40403">
        <ele>44.84</ele>
        <time>2019-02-16T10:19:05Z</time>
      </trkpt>
      <trkpt lat="48.84083" lon="2.40382">
        <ele>44.36</ele>
        <time>2019-02-16T10:19:17Z</time>
      </trkpt>
      <trkpt lat="48.84084" lon="2.40375">
        <ele>45.32</ele>
        <time>2019-02-16T10:19:21Z</time>
      </trkpt>
      <trkpt lat="48.84089" lon="2.40349">
        <ele>45.32</ele>
        <time>2019-02-16T10:19:36Z</time>
      </trkpt>
      <trkpt lat="48.84099" lon="2.40327">
        <ele>46.76</ele>
        <time>2019-02-16T10:19:47Z</time>
      </trkpt>
      <trkpt lat="48.84097" lon="2.40311">
        <ele>45.32</ele>
        <time>2019-02-16T10:19:58Z</time>
      </trkpt>
      <trkpt lat="48.84097" lon="2.40295">
        <ele>45.32</ele>
        <time>2019-02-16T10:20:10Z</time>
      </trkpt>
      <trkpt lat="48.84098" lon="2.40278">
        <ele>46.28</ele>
        <time>2019-02-16T10:20:24Z</time>
      </trkpt>
      <trkpt lat="48.84095" lon="2.40252">
        <ele>46.76</ele>
        <time>2019-02-16T10:20:39Z</time>
      </trkpt>
      <trkpt lat="48.84099" lon="2.40235">
        <ele>47.72</ele>
        <time>2019-02-16T10:20:52Z</time>
      </trkpt>
      <trkpt lat="48.84102" lon="2.40224">
        <ele>46.76</ele>
        <time>2019-02-16T10:21:04Z</time>
      </trkpt>
      <trkpt lat="48.84101" lon="2.40208">
        <ele>46.76</ele>
        <time>2019-02-16T10:21:16Z</time>
      </trkpt>
      <trkpt lat="48.84101" lon="2.40205">
        <ele>47.24</ele>
        <time>2019-02-16T10:21:17Z</time>
      </trkpt>
      <trkpt lat="48.84101" lon="2.40201">
        <ele>47.24</ele>
        <time>2019-02-16T10:21:19Z</time>
      </trkpt>
      <trkpt lat="48.84104" lon="2.40186">
        <ele>46.76</ele>
        <time>2019-02-16T10:21:30Z</time>
      </trkpt>
      <trkpt lat="48.84107" lon="2.4018">
        <ele>45.8</ele>
        <time>2019-02-16T10:21:34Z</time>
      </trkpt>
      <trkpt lat="48.84109" lon="2.40171">
        <ele>46.76</ele>
        <time>2019-02-16T10:21:39Z</time>
      </trkpt>
      <trkpt lat="48.8411" lon="2.40169">
        <ele>46.76</ele>
        <time>2019-02-16T10:21:40Z</time>
      </trkpt>
      <trkpt lat="48.8411" lon="2.40168">
        <ele>46.28</ele>
        <time>2019-02-16T10:21:41Z</time>
      </trkpt>
      <trkpt lat="48.84111" lon="2.40166">
        <ele>46.76</ele>
        <time>2019-02-16T10:21:42Z</time>
      </trkpt>
      <trkpt lat="48.84113" lon="2.40138">
        <ele>46.28</ele>
        <time>2019-02-16T10:21:56Z</time>
      </trkpt>
      <trkpt lat="48.84112" lon="2.4012">
        <ele>46.28</ele>
        <time>2019-02-16T10:22:06Z</time>
      </trkpt>
      <trkpt lat="48.84113" lon="2.40105">
        <ele>46.28</ele>
        <time>2019-02-16T10:22:25Z</time>
      </trkpt>
      <trkpt lat="48.84103" lon="2.40119">
        <ele>45.8</ele>
        <time>2019-02-16T10:22:27Z</time>
      </trkpt>
      <trkpt lat="48.84103" lon="2.40118">
        <ele>46.28</ele>
        <time>2019-02-16T10:22:28Z</time>
      </trkpt>
      <trkpt lat="48.84103" lon="2.40109">
        <ele>45.8</ele>
        <time>2019-02-16T10:22:55Z</time>
      </trkpt>
      <trkpt lat="48.84103" lon="2.40109">
        <ele>46.28</ele>
        <time>2019-02-16T10:22:56Z</time>
      </trkpt>
      <trkpt lat="48.84103" lon="2.40109">
        <ele>46.28</ele>
        <time>2019-02-16T10:22:57Z</time>
      </trkpt>
      <trkpt lat="48.84111" lon="2.40032">
        <ele>47.24</ele>
        <time>2019-02-16T10:23:17Z</time>
      </trkpt>
      <trkpt lat="48.84114" lon="2.40008">
        <ele>46.76</ele>
        <time>2019-02-16T10:23:33Z</time>
      </trkpt>
      <trkpt lat="48.84114" lon="2.39999">
        <ele>46.76</ele>
        <time>2019-02-16T10:23:37Z</time>
      </trkpt>
      <trkpt lat="48.84115" lon="2.39996">
        <ele>46.76</ele>
        <time>2019-02-16T10:23:38Z</time>
      </trkpt>
      <trkpt lat="48.84117" lon="2.39972">
        <ele>47.24</ele>
        <time>2019-02-16T10:23:51Z</time>
      </trkpt>
      <trkpt lat="48.84118" lon="2.39955">
        <ele>46.76</ele>
        <time>2019-02-16T10:24:03Z</time>
      </trkpt>
      <trkpt lat="48.84109" lon="2.39952">
        <ele>46.76</ele>
        <time>2019-02-16T10:24:23Z</time>
      </trkpt>
      <trkpt lat="48.84124" lon="2.39904">
        <ele>46.76</ele>
        <time>2019-02-16T10:24:42Z</time>
      </trkpt>
      <trkpt lat="48.84112" lon="2.39862">
        <ele>47.24</ele>
        <time>2019-02-16T10:24:51Z</time>
      </trkpt>
      <trkpt lat="48.84113" lon="2.39858">
        <ele>47.72</ele>
        <time>2019-02-16T10:24:54Z</time>
      </trkpt>
      <trkpt lat="48.84118" lon="2.39834">
        <ele>47.72</ele>
        <time>2019-02-16T10:25:05Z</time>
      </trkpt>
      <trkpt lat="48.84121" lon="2.39816">
        <ele>47.72</ele>
        <time>2019-02-16T10:25:15Z</time>
      </trkpt>
      <trkpt lat="48.8412" lon="2.39813">
        <ele>47.72</ele>
        <time>2019-02-16T10:25:17Z</time>
      </trkpt>
      <trkpt lat="48.84119" lon="2.3981">
        <ele>48.2</ele>
        <time>2019-02-16T10:25:18Z</time>
      </trkpt>
      <trkpt lat="48.84119" lon="2.39807">
        <ele>47.72</ele>
        <time>2019-02-16T10:25:19Z</time>
      </trkpt>
      <trkpt lat="48.84119" lon="2.39805">
        <ele>47.72</ele>
        <time>2019-02-16T10:25:20Z</time>
      </trkpt>
      <trkpt lat="48.84119" lon="2.39802">
        <ele>47.72</ele>
        <time>2019-02-16T10:25:21Z</time>
      </trkpt>
      <trkpt lat="48.84118" lon="2.398">
        <ele>47.72</ele>
        <time>2019-02-16T10:25:22Z</time>
      </trkpt>
      <trkpt lat="48.84118" lon="2.39781">
        <ele>49.16</ele>
        <time>2019-02-16T10:25:35Z</time>
      </trkpt>
      <trkpt lat="48.84116" lon="2.39776">
        <ele>48.68</ele>
        <time>2019-02-16T10:25:37Z</time>
      </trkpt>
      <trkpt lat="48.84117" lon="2.39754">
        <ele>48.68</ele>
        <time>2019-02-16T10:25:48Z</time>
      </trkpt>
      <trkpt lat="48.84118" lon="2.39748">
        <ele>48.2</ele>
        <time>2019-02-16T10:25:52Z</time>
      </trkpt>
      <trkpt lat="48.84119" lon="2.39744">
        <ele>48.68</ele>
        <time>2019-02-16T10:25:53Z</time>
      </trkpt>
      <trkpt lat="48.84119" lon="2.39741">
        <ele>49.16</ele>
        <time>2019-02-16T10:25:54Z</time>
      </trkpt>
      <trkpt lat="48.84122" lon="2.39724">
        <ele>49.16</ele>
        <time>2019-02-16T10:26:05Z</time>
      </trkpt>
      <trkpt lat="48.84123" lon="2.39718">
        <ele>49.16</ele>
        <time>2019-02-16T10:26:08Z</time>
      </trkpt>
      <trkpt lat="48.84122" lon="2.39715">
        <ele>49.16</ele>
        <time>2019-02-16T10:26:09Z</time>
      </trkpt>
      <trkpt lat="48.84122" lon="2.39712">
        <ele>49.65</ele>
        <time>2019-02-16T10:26:10Z</time>
      </trkpt>
      <trkpt lat="48.84122" lon="2.39709">
        <ele>49.16</ele>
        <time>2019-02-16T10:26:11Z</time>
      </trkpt>
      <trkpt lat="48.84122" lon="2.39706">
        <ele>49.65</ele>
        <time>2019-02-16T10:26:12Z</time>
      </trkpt>
      <trkpt lat="48.84124" lon="2.39692">
        <ele>49.16</ele>
        <time>2019-02-16T10:26:21Z</time>
      </trkpt>
      <trkpt lat="48.84125" lon="2.39689">
        <ele>49.16</ele>
        <time>2019-02-16T10:26:22Z</time>
      </trkpt>
      <trkpt lat="48.84124" lon="2.39686">
        <ele>49.16</ele>
        <time>2019-02-16T10:26:23Z</time>
      </trkpt>
      <trkpt lat="48.84124" lon="2.39683">
        <ele>49.65</ele>
        <time>2019-02-16T10:26:24Z</time>
      </trkpt>
      <trkpt lat="48.84123" lon="2.3968">
        <ele>49.16</ele>
        <time>2019-02-16T10:26:25Z</time>
      </trkpt>
      <trkpt lat="48.84122" lon="2.39677">
        <ele>49.16</ele>
        <time>2019-02-16T10:26:26Z</time>
      </trkpt>
      <trkpt lat="48.8412" lon="2.39675">
        <ele>49.65</ele>
        <time>2019-02-16T10:26:27Z</time>
      </trkpt>
      <trkpt lat="48.84119" lon="2.39673">
        <ele>49.65</ele>
        <time>2019-02-16T10:26:28Z</time>
      </trkpt>
      <trkpt lat="48.84118" lon="2.3967">
        <ele>49.16</ele>
        <time>2019-02-16T10:26:29Z</time>
      </trkpt>
      <trkpt lat="48.84115" lon="2.39666">
        <ele>49.16</ele>
        <time>2019-02-16T10:26:40Z</time>
      </trkpt>
      <trkpt lat="48.84117" lon="2.39661">
        <ele>49.16</ele>
        <time>2019-02-16T10:26:44Z</time>
      </trkpt>
      <trkpt lat="48.84117" lon="2.39658">
        <ele>48.68</ele>
        <time>2019-02-16T10:26:45Z</time>
      </trkpt>
      <trkpt lat="48.84122" lon="2.39636">
        <ele>49.16</ele>
        <time>2019-02-16T10:26:56Z</time>
      </trkpt>
      <trkpt lat="48.84123" lon="2.39634">
        <ele>49.65</ele>
        <time>2019-02-16T10:26:58Z</time>
      </trkpt>
      <trkpt lat="48.84125" lon="2.39621">
        <ele>49.65</ele>
        <time>2019-02-16T10:27:10Z</time>
      </trkpt>
      <trkpt lat="48.84123" lon="2.39611">
        <ele>50.13</ele>
        <time>2019-02-16T10:27:15Z</time>
      </trkpt>
      <trkpt lat="48.84123" lon="2.39602">
        <ele>49.16</ele>
        <time>2019-02-16T10:27:20Z</time>
      </trkpt>
      <trkpt lat="48.84122" lon="2.39599">
        <ele>49.65</ele>
        <time>2019-02-16T10:27:21Z</time>
      </trkpt>
      <trkpt lat="48.8412" lon="2.39584">
        <ele>49.16</ele>
        <time>2019-02-16T10:27:32Z</time>
      </trkpt>
      <trkpt lat="48.84119" lon="2.39581">
        <ele>49.65</ele>
        <time>2019-02-16T10:27:33Z</time>
      </trkpt>
      <trkpt lat="48.84118" lon="2.39578">
        <ele>49.16</ele>
        <time>2019-02-16T10:27:34Z</time>
      </trkpt>
      <trkpt lat="48.84115" lon="2.3957">
        <ele>49.65</ele>
        <time>2019-02-16T10:27:37Z</time>
      </trkpt>
      <trkpt lat="48.84115" lon="2.39567">
        <ele>50.13</ele>
        <time>2019-02-16T10:27:38Z</time>
      </trkpt>
      <trkpt lat="48.84115" lon="2.39564">
        <ele>49.16</ele>
        <time>2019-02-16T10:27:39Z</time>
      </trkpt>
      <trkpt lat="48.84115" lon="2.39561">
        <ele>50.13</ele>
        <time>2019-02-16T10:27:40Z</time>
      </trkpt>
      <trkpt lat="48.84116" lon="2.39557">
        <ele>50.13</ele>
        <time>2019-02-16T10:27:41Z</time>
      </trkpt>
      <trkpt lat="48.84118" lon="2.39553">
        <ele>50.13</ele>
        <time>2019-02-16T10:27:42Z</time>
      </trkpt>
      <trkpt lat="48.8412" lon="2.39536">
        <ele>49.65</ele>
        <time>2019-02-16T10:27:51Z</time>
      </trkpt>
      <trkpt lat="48.84111" lon="2.39535">
        <ele>49.65</ele>
        <time>2019-02-16T10:28:05Z</time>
      </trkpt>
      <trkpt lat="48.84115" lon="2.39531">
        <ele>49.65</ele>
        <time>2019-02-16T10:28:20Z</time>
      </trkpt>
      <trkpt lat="48.84114" lon="2.39531">
        <ele>49.16</ele>
        <time>2019-02-16T10:28:50Z</time>
      </trkpt>
      <trkpt lat="48.84114" lon="2.39531">
        <ele>49.16</ele>
        <time>2019-02-16T10:28:51Z</time>
      </trkpt>
      <trkpt lat="48.84115" lon="2.3953">
        <ele>50.13</ele>
        <time>2019-02-16T10:29:10Z</time>
      </trkpt>
      <trkpt lat="48.84114" lon="2.3953">
        <ele>50.13</ele>
        <time>2019-02-16T10:29:13Z</time>
      </trkpt>
      <trkpt lat="48.84115" lon="2.3953">
        <ele>50.13</ele>
        <time>2019-02-16T10:29:26Z</time>
      </trkpt>
      <trkpt lat="48.84114" lon="2.3953">
        <ele>50.13</ele>
        <time>2019-02-16T10:29:28Z</time>
      </trkpt>
      <trkpt lat="48.84097" lon="2.39317">
        <ele>50.13</ele>
        <time>2019-02-16T10:29:55Z</time>
      </trkpt>
      <trkpt lat="48.84124" lon="2.39337">
        <ele>50.61</ele>
        <time>2019-02-16T10:30:06Z</time>
      </trkpt>
      <trkpt lat="48.84124" lon="2.39344">
        <ele>51.09</ele>
        <time>2019-02-16T10:30:12Z</time>
      </trkpt>
      <trkpt lat="48.84123" lon="2.39334">
        <ele>49.65</ele>
        <time>2019-02-16T10:30:19Z</time>
      </trkpt>
      <trkpt lat="48.84123" lon="2.39332">
        <ele>50.13</ele>
        <time>2019-02-16T10:30:20Z</time>
      </trkpt>
      <trkpt lat="48.84123" lon="2.3933">
        <ele>50.61</ele>
        <time>2019-02-16T10:30:21Z</time>
      </trkpt>
      <trkpt lat="48.8412" lon="2.39309">
        <ele>50.61</ele>
        <time>2019-02-16T10:30:35Z</time>
      </trkpt>
      <trkpt lat="48.84119" lon="2.39307">
        <ele>50.61</ele>
        <time>2019-02-16T10:30:36Z</time>
      </trkpt>
      <trkpt lat="48.84119" lon="2.39305">
        <ele>50.61</ele>
        <time>2019-02-16T10:30:37Z</time>
      </trkpt>
      <trkpt lat="48.84119" lon="2.39303">
        <ele>50.61</ele>
        <time>2019-02-16T10:30:38Z</time>
      </trkpt>
      <trkpt lat="48.84119" lon="2.393">
        <ele>50.61</ele>
        <time>2019-02-16T10:30:39Z</time>
      </trkpt>
      <trkpt lat="48.84122" lon="2.39275">
        <ele>50.61</ele>
        <time>2019-02-16T10:30:52Z</time>
      </trkpt>
      <trkpt lat="48.84125" lon="2.39269">
        <ele>51.09</ele>
        <time>2019-02-16T10:30:58Z</time>
      </trkpt>
      <trkpt lat="48.84129" lon="2.39249">
        <ele>51.09</ele>
        <time>2019-02-16T10:31:12Z</time>
      </trkpt>
      <trkpt lat="48.84129" lon="2.39248">
        <ele>51.09</ele>
        <time>2019-02-16T10:31:13Z</time>
      </trkpt>
      <trkpt lat="48.84136" lon="2.39226">
        <ele>50.61</ele>
        <time>2019-02-16T10:31:26Z</time>
      </trkpt>
      <trkpt lat="48.8414" lon="2.39201">
        <ele>50.61</ele>
        <time>2019-02-16T10:31:41Z</time>
      </trkpt>
      <trkpt lat="48.84142" lon="2.39179">
        <ele>50.61</ele>
        <time>2019-02-16T10:31:54Z</time>
      </trkpt>
      <trkpt lat="48.84148" lon="2.39155">
        <ele>50.13</ele>
        <time>2019-02-16T10:32:08Z</time>
      </trkpt>
      <trkpt lat="48.84155" lon="2.39131">
        <ele>50.13</ele>
        <time>2019-02-16T10:32:21Z</time>
      </trkpt>
      <trkpt lat="48.8416" lon="2.39111">
        <ele>49.65</ele>
        <time>2019-02-16T10:32:31Z</time>
      </trkpt>
      <trkpt lat="48.84164" lon="2.39093">
        <ele>50.13</ele>
        <time>2019-02-16T10:32:39Z</time>
      </trkpt>
      <trkpt lat="48.84164" lon="2.39091">
        <ele>50.13</ele>
        <time>2019-02-16T10:32:40Z</time>
      </trkpt>
      <trkpt lat="48.84165" lon="2.39089">
        <ele>50.13</ele>
        <time>2019-02-16T10:32:41Z</time>
      </trkpt>
      <trkpt lat="48.84173" lon="2.39063">
        <ele>49.65</ele>
        <time>2019-02-16T10:32:55Z</time>
      </trkpt>
      <trkpt lat="48.84176" lon="2.39038">
        <ele>50.13</ele>
        <time>2019-02-16T10:33:08Z</time>
      </trkpt>
      <trkpt lat="48.8418" lon="2.39015">
        <ele>50.13</ele>
        <time>2019-02-16T10:33:22Z</time>
      </trkpt>
      <trkpt lat="48.8418" lon="2.38986">
        <ele>50.13</ele>
        <time>2019-02-16T10:33:35Z</time>
      </trkpt>
      <trkpt lat="48.84185" lon="2.38965">
        <ele>50.13</ele>
        <time>2019-02-16T10:33:49Z</time>
      </trkpt>
      <trkpt lat="48.84195" lon="2.38952">
        <ele>49.65</ele>
        <time>2019-02-16T10:34:03Z</time>
      </trkpt>
      <trkpt lat="48.84195" lon="2.38935">
        <ele>49.65</ele>
        <time>2019-02-16T10:34:14Z</time>
      </trkpt>
      <trkpt lat="48.84204" lon="2.38909">
        <ele>50.61</ele>
        <time>2019-02-16T10:34:28Z</time>
      </trkpt>
      <trkpt lat="48.84204" lon="2.38906">
        <ele>50.13</ele>
        <time>2019-02-16T10:34:29Z</time>
      </trkpt>
      <trkpt lat="48.84216" lon="2.38876">
        <ele>52.05</ele>
        <time>2019-02-16T10:34:44Z</time>
      </trkpt>
      <trkpt lat="48.84213" lon="2.38863">
        <ele>52.53</ele>
        <time>2019-02-16T10:34:51Z</time>
      </trkpt>
      <trkpt lat="48.84213" lon="2.38862">
        <ele>52.05</ele>
        <time>2019-02-16T10:34:52Z</time>
      </trkpt>
      <trkpt lat="48.84214" lon="2.3886">
        <ele>52.05</ele>
        <time>2019-02-16T10:34:53Z</time>
      </trkpt>
      <trkpt lat="48.84214" lon="2.38858">
        <ele>52.05</ele>
        <time>2019-02-16T10:34:54Z</time>
      </trkpt>
      <trkpt lat="48.84215" lon="2.38856">
        <ele>51.57</ele>
        <time>2019-02-16T10:34:55Z</time>
      </trkpt>
      <trkpt lat="48.84218" lon="2.38845">
        <ele>51.57</ele>
        <time>2019-02-16T10:35:05Z</time>
      </trkpt>
      <trkpt lat="48.84219" lon="2.38843">
        <ele>52.05</ele>
        <time>2019-02-16T10:35:06Z</time>
      </trkpt>
      <trkpt lat="48.84219" lon="2.38833">
        <ele>53.49</ele>
        <time>2019-02-16T10:35:13Z</time>
      </trkpt>
      <trkpt lat="48.84219" lon="2.38813">
        <ele>53.97</ele>
        <time>2019-02-16T10:35:26Z</time>
      </trkpt>
      <trkpt lat="48.84224" lon="2.38798">
        <ele>54.93</ele>
        <time>2019-02-16T10:35:37Z</time>
      </trkpt>
      <trkpt lat="48.84228" lon="2.38783">
        <ele>55.89</ele>
        <time>2019-02-16T10:35:45Z</time>
      </trkpt>
      <trkpt lat="48.84232" lon="2.38765">
        <ele>54.93</ele>
        <time>2019-02-16T10:35:57Z</time>
      </trkpt>
      <trkpt lat="48.84232" lon="2.38753">
        <ele>53.97</ele>
        <time>2019-02-16T10:36:09Z</time>
      </trkpt>
      <trkpt lat="48.84234" lon="2.38745">
        <ele>53.49</ele>
        <time>2019-02-16T10:36:15Z</time>
      </trkpt>
      <trkpt lat="48.84234" lon="2.38738">
        <ele>52.05</ele>
        <time>2019-02-16T10:36:22Z</time>
      </trkpt>
      <trkpt lat="48.84238" lon="2.38727">
        <ele>52.05</ele>
        <time>2019-02-16T10:36:34Z</time>
      </trkpt>
      <trkpt lat="48.8424" lon="2.38719">
        <ele>51.09</ele>
        <time>2019-02-16T10:36:46Z</time>
      </trkpt>
      <trkpt lat="48.84241" lon="2.38718">
        <ele>51.57</ele>
        <time>2019-02-16T10:37:00Z</time>
      </trkpt>
      <trkpt lat="48.84243" lon="2.38719">
        <ele>51.09</ele>
        <time>2019-02-16T10:37:07Z</time>
      </trkpt>
      <trkpt lat="48.84241" lon="2.38716">
        <ele>50.61</ele>
        <time>2019-02-16T10:37:17Z</time>
      </trkpt>
      <trkpt lat="48.84243" lon="2.38711">
        <ele>50.61</ele>
        <time>2019-02-16T10:37:27Z</time>
      </trkpt>
      <trkpt lat="48.8425" lon="2.38688">
        <ele>51.09</ele>
        <time>2019-02-16T10:37:44Z</time>
      </trkpt>
      <trkpt lat="48.84251" lon="2.38685">
        <ele>51.09</ele>
        <time>2019-02-16T10:37:46Z</time>
      </trkpt>
      <trkpt lat="48.84251" lon="2.38684">
        <ele>50.61</ele>
        <time>2019-02-16T10:37:47Z</time>
      </trkpt>
      <trkpt lat="48.84251" lon="2.3868">
        <ele>50.61</ele>
        <time>2019-02-16T10:37:51Z</time>
      </trkpt>
      <trkpt lat="48.84247" lon="2.38677">
        <ele>50.13</ele>
        <time>2019-02-16T10:37:59Z</time>
      </trkpt>
      <trkpt lat="48.84248" lon="2.38675">
        <ele>50.61</ele>
        <time>2019-02-16T10:38:00Z</time>
      </trkpt>
      <trkpt lat="48.84249" lon="2.38674">
        <ele>50.61</ele>
        <time>2019-02-16T10:38:01Z</time>
      </trkpt>
      <trkpt lat="48.8425" lon="2.38672">
        <ele>50.61</ele>
        <time>2019-02-16T10:38:02Z</time>
      </trkpt>
      <trkpt lat="48.8425" lon="2.3867">
        <ele>51.09</ele>
        <time>2019-02-16T10:38:03Z</time>
      </trkpt>
      <trkpt lat="48.8425" lon="2.38668">
        <ele>51.09</ele>
        <time>2019-02-16T10:38:04Z</time>
      </trkpt>
      <trkpt lat="48.84257" lon="2.38641">
        <ele>50.61</ele>
        <time>2019-02-16T10:38:19Z</time>
      </trkpt>
      <trkpt lat="48.84259" lon="2.38634">
        <ele>51.09</ele>
        <time>2019-02-16T10:38:24Z</time>
      </trkpt>
      <trkpt lat="48.84259" lon="2.38632">
        <ele>51.09</ele>
        <time>2019-02-16T10:38:25Z</time>
      </trkpt>
      <trkpt lat="48.84262" lon="2.38617">
        <ele>51.57</ele>
        <time>2019-02-16T10:38:35Z</time>
      </trkpt>
      <trkpt lat="48.84266" lon="2.38601">
        <ele>51.09</ele>
        <time>2019-02-16T10:38:46Z</time>
      </trkpt>
      <trkpt lat="48.84267" lon="2.38599">
        <ele>50.61</ele>
        <time>2019-02-16T10:38:47Z</time>
      </trkpt>
      <trkpt lat="48.84267" lon="2.38598">
        <ele>50.13</ele>
        <time>2019-02-16T10:38:48Z</time>
      </trkpt>
      <trkpt lat="48.84268" lon="2.38595">
        <ele>51.09</ele>
        <time>2019-02-16T10:38:50Z</time>
      </trkpt>
      <trkpt lat="48.84268" lon="2.38593">
        <ele>50.61</ele>
        <time>2019-02-16T10:38:51Z</time>
      </trkpt>
      <trkpt lat="48.84268" lon="2.38591">
        <ele>51.09</ele>
        <time>2019-02-16T10:38:52Z</time>
      </trkpt>
      <trkpt lat="48.84268" lon="2.38583">
        <ele>50.13</ele>
        <time>2019-02-16T10:39:03Z</time>
      </trkpt>
      <trkpt lat="48.84268" lon="2.38585">
        <ele>50.61</ele>
        <time>2019-02-16T10:39:16Z</time>
      </trkpt>
      <trkpt lat="48.84269" lon="2.38582">
        <ele>50.61</ele>
        <time>2019-02-16T10:39:28Z</time>
      </trkpt>
      <trkpt lat="48.84277" lon="2.3857">
        <ele>50.61</ele>
        <time>2019-02-16T10:39:41Z</time>
      </trkpt>
      <trkpt lat="48.84286" lon="2.38545">
        <ele>50.61</ele>
        <time>2019-02-16T10:39:57Z</time>
      </trkpt>
      <trkpt lat="48.84288" lon="2.3853">
        <ele>51.09</ele>
        <time>2019-02-16T10:40:05Z</time>
      </trkpt>
      <trkpt lat="48.84288" lon="2.38529">
        <ele>51.57</ele>
        <time>2019-02-16T10:40:06Z</time>
      </trkpt>
      <trkpt lat="48.84299" lon="2.38526">
        <ele>51.09</ele>
        <time>2019-02-16T10:40:19Z</time>
      </trkpt>
      <trkpt lat="48.84305" lon="2.38518">
        <ele>51.09</ele>
        <time>2019-02-16T10:40:34Z</time>
      </trkpt>
      <trkpt lat="48.84311" lon="2.38506">
        <ele>51.57</ele>
        <time>2019-02-16T10:40:44Z</time>
      </trkpt>
      <trkpt lat="48.84307" lon="2.38488">
        <ele>51.57</ele>
        <time>2019-02-16T10:40:59Z</time>
      </trkpt>
      <trkpt lat="48.84312" lon="2.38474">
        <ele>51.09</ele>
        <time>2019-02-16T10:41:12Z</time>
      </trkpt>
      <trkpt lat="48.84313" lon="2.38474">
        <ele>51.57</ele>
        <time>2019-02-16T10:41:23Z</time>
      </trkpt>
      <trkpt lat="48.84322" lon="2.38458">
        <ele>51.57</ele>
        <time>2019-02-16T10:41:36Z</time>
      </trkpt>
      <trkpt lat="48.84326" lon="2.38444">
        <ele>51.57</ele>
        <time>2019-02-16T10:41:50Z</time>
      </trkpt>
      <trkpt lat="48.84334" lon="2.38427">
        <ele>51.57</ele>
        <time>2019-02-16T10:42:03Z</time>
      </trkpt>
      <trkpt lat="48.84338" lon="2.38417">
        <ele>51.09</ele>
        <time>2019-02-16T10:42:10Z</time>
      </trkpt>
      <trkpt lat="48.84347" lon="2.38398">
        <ele>51.57</ele>
        <time>2019-02-16T10:42:23Z</time>
      </trkpt>
      <trkpt lat="48.84355" lon="2.38377">
        <ele>51.57</ele>
        <time>2019-02-16T10:42:39Z</time>
      </trkpt>
      <trkpt lat="48.84359" lon="2.38363">
        <ele>51.09</ele>
        <time>2019-02-16T10:42:51Z</time>
      </trkpt>
      <trkpt lat="48.84361" lon="2.38359">
        <ele>51.09</ele>
        <time>2019-02-16T10:42:53Z</time>
      </trkpt>
      <trkpt lat="48.84361" lon="2.38357">
        <ele>51.57</ele>
        <time>2019-02-16T10:42:54Z</time>
      </trkpt>
      <trkpt lat="48.84367" lon="2.38346">
        <ele>50.61</ele>
        <time>2019-02-16T10:43:00Z</time>
      </trkpt>
      <trkpt lat="48.84377" lon="2.38331">
        <ele>51.09</ele>
        <time>2019-02-16T10:43:11Z</time>
      </trkpt>
      <trkpt lat="48.84378" lon="2.38321">
        <ele>52.05</ele>
        <time>2019-02-16T10:43:23Z</time>
      </trkpt>
      <trkpt lat="48.84386" lon="2.38305">
        <ele>51.09</ele>
        <time>2019-02-16T10:43:35Z</time>
      </trkpt>
      <trkpt lat="48.8439" lon="2.3829">
        <ele>51.09</ele>
        <time>2019-02-16T10:43:47Z</time>
      </trkpt>
      <trkpt lat="48.84393" lon="2.3828">
        <ele>51.57</ele>
        <time>2019-02-16T10:43:54Z</time>
      </trkpt>
      <trkpt lat="48.84395" lon="2.38279">
        <ele>51.57</ele>
        <time>2019-02-16T10:43:56Z</time>
      </trkpt>
      <trkpt lat="48.84396" lon="2.38276">
        <ele>51.09</ele>
        <time>2019-02-16T10:43:58Z</time>
      </trkpt>
      <trkpt lat="48.84397" lon="2.38273">
        <ele>51.57</ele>
        <time>2019-02-16T10:44:00Z</time>
      </trkpt>
      <trkpt lat="48.84398" lon="2.38272">
        <ele>51.57</ele>
        <time>2019-02-16T10:44:01Z</time>
      </trkpt>
      <trkpt lat="48.84405" lon="2.3826">
        <ele>51.09</ele>
        <time>2019-02-16T10:44:13Z</time>
      </trkpt>
      <trkpt lat="48.84406" lon="2.38259">
        <ele>50.61</ele>
        <time>2019-02-16T10:44:14Z</time>
      </trkpt>
      <trkpt lat="48.84407" lon="2.38258">
        <ele>51.09</ele>
        <time>2019-02-16T10:44:15Z</time>
      </trkpt>
      <trkpt lat="48.84412" lon="2.38252">
        <ele>51.09</ele>
        <time>2019-02-16T10:44:22Z</time>
      </trkpt>
      <trkpt lat="48.8441" lon="2.38252">
        <ele>51.09</ele>
        <time>2019-02-16T10:44:27Z</time>
      </trkpt>
      <trkpt lat="48.84411" lon="2.38253">
        <ele>51.09</ele>
        <time>2019-02-16T10:44:28Z</time>
      </trkpt>
      <trkpt lat="48.84412" lon="2.38251">
        <ele>50.61</ele>
        <time>2019-02-16T10:44:39Z</time>
      </trkpt>
      <trkpt lat="48.84409" lon="2.38252">
        <ele>51.09</ele>
        <time>2019-02-16T10:44:56Z</time>
      </trkpt>
      <trkpt lat="48.84406" lon="2.38256">
        <ele>51.09</ele>
        <time>2019-02-16T10:45:12Z</time>
      </trkpt>
      <trkpt lat="48.84407" lon="2.38255">
        <ele>51.09</ele>
        <time>2019-02-16T10:45:28Z</time>
      </trkpt>
      <trkpt lat="48.84412" lon="2.38248">
        <ele>51.09</ele>
        <time>2019-02-16T10:45:47Z</time>
      </trkpt>
      <trkpt lat="48.84417" lon="2.38243">
        <ele>52.53</ele>
        <time>2019-02-16T10:46:03Z</time>
      </trkpt>
      <trkpt lat="48.84419" lon="2.3824">
        <ele>51.57</ele>
        <time>2019-02-16T10:46:07Z</time>
      </trkpt>
      <trkpt lat="48.8442" lon="2.38239">
        <ele>51.09</ele>
        <time>2019-02-16T10:46:08Z</time>
      </trkpt>
      <trkpt lat="48.84444" lon="2.38203">
        <ele>51.09</ele>
        <time>2019-02-16T10:46:24Z</time>
      </trkpt>
      <trkpt lat="48.84448" lon="2.38193">
        <ele>51.09</ele>
        <time>2019-02-16T10:46:29Z</time>
      </trkpt>
      <trkpt lat="48.84448" lon="2.3819">
        <ele>50.61</ele>
        <time>2019-02-16T10:46:30Z</time>
      </trkpt>
      <trkpt lat="48.84461" lon="2.38184">
        <ele>50.61</ele>
        <time>2019-02-16T10:46:44Z</time>
      </trkpt>
      <trkpt lat="48.84467" lon="2.38187">
        <ele>51.09</ele>
        <time>2019-02-16T10:46:55Z</time>
      </trkpt>
      <trkpt lat="48.84469" lon="2.38195">
        <ele>51.57</ele>
        <time>2019-02-16T10:47:10Z</time>
      </trkpt>
      <trkpt lat="48.84463" lon="2.38191">
        <ele>51.09</ele>
        <time>2019-02-16T10:47:22Z</time>
      </trkpt>
      <trkpt lat="48.84453" lon="2.3818">
        <ele>51.09</ele>
        <time>2019-02-16T10:47:35Z</time>
      </trkpt>
      <trkpt lat="48.84454" lon="2.38178">
        <ele>50.61</ele>
        <time>2019-02-16T10:47:36Z</time>
      </trkpt>
      <trkpt lat="48.84455" lon="2.38176">
        <ele>50.61</ele>
        <time>2019-02-16T10:47:37Z</time>
      </trkpt>
      <trkpt lat="48.84457" lon="2.38154">
        <ele>50.13</ele>
        <time>2019-02-16T10:47:50Z</time>
      </trkpt>
      <trkpt lat="48.84466" lon="2.38134">
        <ele>50.13</ele>
        <time>2019-02-16T10:48:04Z</time>
      </trkpt>
      <trkpt lat="48.84472" lon="2.38128">
        <ele>50.61</ele>
        <time>2019-02-16T10:48:13Z</time>
      </trkpt>
      <trkpt lat="48.84473" lon="2.38126">
        <ele>51.09</ele>
        <time>2019-02-16T10:48:14Z</time>
      </trkpt>
      <trkpt lat="48.84474" lon="2.38122">
        <ele>50.61</ele>
        <time>2019-02-16T10:48:16Z</time>
      </trkpt>
      <trkpt lat="48.84476" lon="2.38118">
        <ele>50.61</ele>
        <time>2019-02-16T10:48:18Z</time>
      </trkpt>
      <trkpt lat="48.8448" lon="2.3811">
        <ele>50.61</ele>
        <time>2019-02-16T10:48:26Z</time>
      </trkpt>
      <trkpt lat="48.84484" lon="2.38104">
        <ele>50.61</ele>
        <time>2019-02-16T10:48:31Z</time>
      </trkpt>
      <trkpt lat="48.84486" lon="2.38093">
        <ele>50.13</ele>
        <time>2019-02-16T10:48:43Z</time>
      </trkpt>
      <trkpt lat="48.84495" lon="2.38078">
        <ele>50.13</ele>
        <time>2019-02-16T10:48:57Z</time>
      </trkpt>
      <trkpt lat="48.84498" lon="2.38071">
        <ele>50.61</ele>
        <time>2019-02-16T10:49:03Z</time>
      </trkpt>
      <trkpt lat="48.84499" lon="2.3807">
        <ele>50.61</ele>
        <time>2019-02-16T10:49:04Z</time>
      </trkpt>
      <trkpt lat="48.845" lon="2.38068">
        <ele>50.61</ele>
        <time>2019-02-16T10:49:05Z</time>
      </trkpt>
      <trkpt lat="48.845" lon="2.38066">
        <ele>50.13</ele>
        <time>2019-02-16T10:49:06Z</time>
      </trkpt>
      <trkpt lat="48.84501" lon="2.38064">
        <ele>50.61</ele>
        <time>2019-02-16T10:49:07Z</time>
      </trkpt>
      <trkpt lat="48.84507" lon="2.38052">
        <ele>50.13</ele>
        <time>2019-02-16T10:49:18Z</time>
      </trkpt>
      <trkpt lat="48.84514" lon="2.38038">
        <ele>50.61</ele>
        <time>2019-02-16T10:49:31Z</time>
      </trkpt>
      <trkpt lat="48.84522" lon="2.38021">
        <ele>50.13</ele>
        <time>2019-02-16T10:49:43Z</time>
      </trkpt>
      <trkpt lat="48.84526" lon="2.38017">
        <ele>50.13</ele>
        <time>2019-02-16T10:49:55Z</time>
      </trkpt>
      <trkpt lat="48.84525" lon="2.38012">
        <ele>50.13</ele>
        <time>2019-02-16T10:50:06Z</time>
      </trkpt>
      <trkpt lat="48.84537" lon="2.3799">
        <ele>50.61</ele>
        <time>2019-02-16T10:50:19Z</time>
      </trkpt>
      <trkpt lat="48.84538" lon="2.37988">
        <ele>50.13</ele>
        <time>2019-02-16T10:50:20Z</time>
      </trkpt>
      <trkpt lat="48.84545" lon="2.3797">
        <ele>50.13</ele>
        <time>2019-02-16T10:50:33Z</time>
      </trkpt>
      <trkpt lat="48.84545" lon="2.37968">
        <ele>50.61</ele>
        <time>2019-02-16T10:50:34Z</time>
      </trkpt>
      <trkpt lat="48.84545" lon="2.37965">
        <ele>50.61</ele>
        <time>2019-02-16T10:50:36Z</time>
      </trkpt>
      <trkpt lat="48.84551" lon="2.37954">
        <ele>50.13</ele>
        <time>2019-02-16T10:50:48Z</time>
      </trkpt>
      <trkpt lat="48.84558" lon="2.37943">
        <ele>50.13</ele>
        <time>2019-02-16T10:50:59Z</time>
      </trkpt>
      <trkpt lat="48.84561" lon="2.37937">
        <ele>50.13</ele>
        <time>2019-02-16T10:51:15Z</time>
      </trkpt>
      <trkpt lat="48.84567" lon="2.37923">
        <ele>50.61</ele>
        <time>2019-02-16T10:51:26Z</time>
      </trkpt>
      <trkpt lat="48.84567" lon="2.37921">
        <ele>50.13</ele>
        <time>2019-02-16T10:51:32Z</time>
      </trkpt>
      <trkpt lat="48.84568" lon="2.37919">
        <ele>50.13</ele>
        <time>2019-02-16T10:51:33Z</time>
      </trkpt>
      <trkpt lat="48.84573" lon="2.37907">
        <ele>50.13</ele>
        <time>2019-02-16T10:51:40Z</time>
      </trkpt>
      <trkpt lat="48.84574" lon="2.37905">
        <ele>50.61</ele>
        <time>2019-02-16T10:51:41Z</time>
      </trkpt>
      <trkpt lat="48.84583" lon="2.37894">
        <ele>50.13</ele>
        <time>2019-02-16T10:51:55Z</time>
      </trkpt>
      <trkpt lat="48.84586" lon="2.37885">
        <ele>50.13</ele>
        <time>2019-02-16T10:52:09Z</time>
      </trkpt>
      <trkpt lat="48.84588" lon="2.37882">
        <ele>50.61</ele>
        <time>2019-02-16T10:52:11Z</time>
      </trkpt>
      <trkpt lat="48.84588" lon="2.37881">
        <ele>50.61</ele>
        <time>2019-02-16T10:52:12Z</time>
      </trkpt>
      <trkpt lat="48.84595" lon="2.3787">
        <ele>50.13</ele>
        <time>2019-02-16T10:52:21Z</time>
      </trkpt>
      <trkpt lat="48.84601" lon="2.37856">
        <ele>50.61</ele>
        <time>2019-02-16T10:52:31Z</time>
      </trkpt>
      <trkpt lat="48.8461" lon="2.37844">
        <ele>50.13</ele>
        <time>2019-02-16T10:52:43Z</time>
      </trkpt>
      <trkpt lat="48.8461" lon="2.37839">
        <ele>50.61</ele>
        <time>2019-02-16T10:52:49Z</time>
      </trkpt>
      <trkpt lat="48.84611" lon="2.37836">
        <ele>50.61</ele>
        <time>2019-02-16T10:52:52Z</time>
      </trkpt>
      <trkpt lat="48.84624" lon="2.37815">
        <ele>51.09</ele>
        <time>2019-02-16T10:53:04Z</time>
      </trkpt>
      <trkpt lat="48.84628" lon="2.37797">
        <ele>51.09</ele>
        <time>2019-02-16T10:53:17Z</time>
      </trkpt>
      <trkpt lat="48.84634" lon="2.37787">
        <ele>50.61</ele>
        <time>2019-02-16T10:53:24Z</time>
      </trkpt>
      <trkpt lat="48.84635" lon="2.37784">
        <ele>51.09</ele>
        <time>2019-02-16T10:53:25Z</time>
      </trkpt>
      <trkpt lat="48.84642" lon="2.37768">
        <ele>51.09</ele>
        <time>2019-02-16T10:53:37Z</time>
      </trkpt>
      <trkpt lat="48.84643" lon="2.37764">
        <ele>50.61</ele>
        <time>2019-02-16T10:53:40Z</time>
      </trkpt>
      <trkpt lat="48.84644" lon="2.37763">
        <ele>50.61</ele>
        <time>2019-02-16T10:53:41Z</time>
      </trkpt>
      <trkpt lat="48.84645" lon="2.37761">
        <ele>50.13</ele>
        <time>2019-02-16T10:53:42Z</time>
      </trkpt>
      <trkpt lat="48.8465" lon="2.3775">
        <ele>50.61</ele>
        <time>2019-02-16T10:53:49Z</time>
      </trkpt>
      <trkpt lat="48.84651" lon="2.3775">
        <ele>50.61</ele>
        <time>2019-02-16T10:53:59Z</time>
      </trkpt>
      <trkpt lat="48.8465" lon="2.37756">
        <ele>49.16</ele>
        <time>2019-02-16T10:54:09Z</time>
      </trkpt>
      <trkpt lat="48.8465" lon="2.37757">
        <ele>48.2</ele>
        <time>2019-02-16T10:54:10Z</time>
      </trkpt>
      <trkpt lat="48.8465" lon="2.37759">
        <ele>48.2</ele>
        <time>2019-02-16T10:54:11Z</time>
      </trkpt>
      <trkpt lat="48.8465" lon="2.37761">
        <ele>47.72</ele>
        <time>2019-02-16T10:54:12Z</time>
      </trkpt>
      <trkpt lat="48.84651" lon="2.37772">
        <ele>45.32</ele>
        <time>2019-02-16T10:54:17Z</time>
      </trkpt>
      <trkpt lat="48.84651" lon="2.37773">
        <ele>41.95</ele>
        <time>2019-02-16T10:54:26Z</time>
      </trkpt>
      <trkpt lat="48.84637" lon="2.37752">
        <ele>41.95</ele>
        <time>2019-02-16T10:54:40Z</time>
      </trkpt>
      <trkpt lat="48.84637" lon="2.37749">
        <ele>41.47</ele>
        <time>2019-02-16T10:54:52Z</time>
      </trkpt>
      <trkpt lat="48.84637" lon="2.37744">
        <ele>41.47</ele>
        <time>2019-02-16T10:55:04Z</time>
      </trkpt>
      <trkpt lat="48.8464" lon="2.37751">
        <ele>41.47</ele>
        <time>2019-02-16T10:55:24Z</time>
      </trkpt>
      <trkpt lat="48.8465" lon="2.3774">
        <ele>41.95</ele>
        <time>2019-02-16T10:55:37Z</time>
      </trkpt>
      <trkpt lat="48.84652" lon="2.37737">
        <ele>41.95</ele>
        <time>2019-02-16T10:55:41Z</time>
      </trkpt>
      <trkpt lat="48.84652" lon="2.37722">
        <ele>41.95</ele>
        <time>2019-02-16T10:55:53Z</time>
      </trkpt>
      <trkpt lat="48.84651" lon="2.37719">
        <ele>40.99</ele>
        <time>2019-02-16T10:55:55Z</time>
      </trkpt>
      <trkpt lat="48.84652" lon="2.37717">
        <ele>41.47</ele>
        <time>2019-02-16T10:55:57Z</time>
      </trkpt>
      <trkpt lat="48.84657" lon="2.37705">
        <ele>41.95</ele>
        <time>2019-02-16T10:56:07Z</time>
      </trkpt>
      <trkpt lat="48.84662" lon="2.37706">
        <ele>41.95</ele>
        <time>2019-02-16T10:56:11Z</time>
      </trkpt>
      <trkpt lat="48.8467" lon="2.37693">
        <ele>41.47</ele>
        <time>2019-02-16T10:56:24Z</time>
      </trkpt>
      <trkpt lat="48.84672" lon="2.37683">
        <ele>41.47</ele>
        <time>2019-02-16T10:56:33Z</time>
      </trkpt>
      <trkpt lat="48.84673" lon="2.37681">
        <ele>40.51</ele>
        <time>2019-02-16T10:56:34Z</time>
      </trkpt>
      <trkpt lat="48.84674" lon="2.3768">
        <ele>40.99</ele>
        <time>2019-02-16T10:56:35Z</time>
      </trkpt>
      <trkpt lat="48.84676" lon="2.37679">
        <ele>40.51</ele>
        <time>2019-02-16T10:56:36Z</time>
      </trkpt>
      <trkpt lat="48.84677" lon="2.37678">
        <ele>40.99</ele>
        <time>2019-02-16T10:56:37Z</time>
      </trkpt>
      <trkpt lat="48.84678" lon="2.37675">
        <ele>40.99</ele>
        <time>2019-02-16T10:56:39Z</time>
      </trkpt>
      <trkpt lat="48.8468" lon="2.37672">
        <ele>41.47</ele>
        <time>2019-02-16T10:56:43Z</time>
      </trkpt>
      <trkpt lat="48.84685" lon="2.37663">
        <ele>40.99</ele>
        <time>2019-02-16T10:56:53Z</time>
      </trkpt>
      <trkpt lat="48.84687" lon="2.37662">
        <ele>40.51</ele>
        <time>2019-02-16T10:56:54Z</time>
      </trkpt>
      <trkpt lat="48.84692" lon="2.37652">
        <ele>40.99</ele>
        <time>2019-02-16T10:57:08Z</time>
      </trkpt>
      <trkpt lat="48.84684" lon="2.37625">
        <ele>40.99</ele>
        <time>2019-02-16T10:57:30Z</time>
      </trkpt>
      <trkpt lat="48.84683" lon="2.37615">
        <ele>40.51</ele>
        <time>2019-02-16T10:57:42Z</time>
      </trkpt>
      <trkpt lat="48.84688" lon="2.37608">
        <ele>40.51</ele>
        <time>2019-02-16T10:57:46Z</time>
      </trkpt>
      <trkpt lat="48.84694" lon="2.37596">
        <ele>40.99</ele>
        <time>2019-02-16T10:58:01Z</time>
      </trkpt>
      <trkpt lat="48.84701" lon="2.37587">
        <ele>40.51</ele>
        <time>2019-02-16T10:58:18Z</time>
      </trkpt>
      <trkpt lat="48.84702" lon="2.37582">
        <ele>40.99</ele>
        <time>2019-02-16T10:58:23Z</time>
      </trkpt>
      <trkpt lat="48.84706" lon="2.37575">
        <ele>40.99</ele>
        <time>2019-02-16T10:58:30Z</time>
      </trkpt>
      <trkpt lat="48.84716" lon="2.37559">
        <ele>40.51</ele>
        <time>2019-02-16T10:58:43Z</time>
      </trkpt>
      <trkpt lat="48.8472" lon="2.37553">
        <ele>40.51</ele>
        <time>2019-02-16T10:58:54Z</time>
      </trkpt>
      <trkpt lat="48.84717" lon="2.37544">
        <ele>40.03</ele>
        <time>2019-02-16T10:59:10Z</time>
      </trkpt>
      <trkpt lat="48.84713" lon="2.37537">
        <ele>40.51</ele>
        <time>2019-02-16T10:59:28Z</time>
      </trkpt>
      <trkpt lat="48.84725" lon="2.37521">
        <ele>40.51</ele>
        <time>2019-02-16T10:59:44Z</time>
      </trkpt>
      <trkpt lat="48.8473" lon="2.37516">
        <ele>40.03</ele>
        <time>2019-02-16T10:59:52Z</time>
      </trkpt>
      <trkpt lat="48.84734" lon="2.37513">
        <ele>40.03</ele>
        <time>2019-02-16T10:59:58Z</time>
      </trkpt>
      <trkpt lat="48.84738" lon="2.3751">
        <ele>40.03</ele>
        <time>2019-02-16T11:00:11Z</time>
      </trkpt>
      <trkpt lat="48.84746" lon="2.37508">
        <ele>40.03</ele>
        <time>2019-02-16T11:00:23Z</time>
      </trkpt>
      <trkpt lat="48.84756" lon="2.375">
        <ele>40.51</ele>
        <time>2019-02-16T11:00:39Z</time>
      </trkpt>
      <trkpt lat="48.84764" lon="2.37488">
        <ele>40.03</ele>
        <time>2019-02-16T11:00:51Z</time>
      </trkpt>
      <trkpt lat="48.84778" lon="2.37468">
        <ele>40.51</ele>
        <time>2019-02-16T11:01:06Z</time>
      </trkpt>
      <trkpt lat="48.84782" lon="2.37456">
        <ele>40.03</ele>
        <time>2019-02-16T11:01:15Z</time>
      </trkpt>
      <trkpt lat="48.84784" lon="2.37453">
        <ele>40.03</ele>
        <time>2019-02-16T11:01:17Z</time>
      </trkpt>
      <trkpt lat="48.84785" lon="2.37433">
        <ele>40.03</ele>
        <time>2019-02-16T11:01:31Z</time>
      </trkpt>
      <trkpt lat="48.84781" lon="2.37415">
        <ele>40.03</ele>
        <time>2019-02-16T11:01:44Z</time>
      </trkpt>
      <trkpt lat="48.84782" lon="2.37414">
        <ele>39.55</ele>
        <time>2019-02-16T11:01:45Z</time>
      </trkpt>
      <trkpt lat="48.84788" lon="2.37404">
        <ele>39.55</ele>
        <time>2019-02-16T11:01:56Z</time>
      </trkpt>
      <trkpt lat="48.84798" lon="2.37392">
        <ele>39.55</ele>
        <time>2019-02-16T11:02:12Z</time>
      </trkpt>
      <trkpt lat="48.84801" lon="2.37389">
        <ele>40.03</ele>
        <time>2019-02-16T11:02:25Z</time>
      </trkpt>
      <trkpt lat="48.84804" lon="2.37393">
        <ele>40.03</ele>
        <time>2019-02-16T11:02:39Z</time>
      </trkpt>
      <trkpt lat="48.84803" lon="2.37399">
        <ele>39.55</ele>
        <time>2019-02-16T11:02:52Z</time>
      </trkpt>
      <trkpt lat="48.84808" lon="2.37393">
        <ele>39.55</ele>
        <time>2019-02-16T11:02:57Z</time>
      </trkpt>
      <trkpt lat="48.84813" lon="2.37385">
        <ele>39.55</ele>
        <time>2019-02-16T11:03:10Z</time>
      </trkpt>
      <trkpt lat="48.84815" lon="2.37382">
        <ele>40.03</ele>
        <time>2019-02-16T11:03:12Z</time>
      </trkpt>
      <trkpt lat="48.84819" lon="2.37376">
        <ele>39.55</ele>
        <time>2019-02-16T11:03:17Z</time>
      </trkpt>
      <trkpt lat="48.84826" lon="2.37364">
        <ele>40.03</ele>
        <time>2019-02-16T11:03:30Z</time>
      </trkpt>
      <trkpt lat="48.84828" lon="2.37361">
        <ele>40.51</ele>
        <time>2019-02-16T11:03:33Z</time>
      </trkpt>
      <trkpt lat="48.84836" lon="2.37344">
        <ele>40.03</ele>
        <time>2019-02-16T11:03:43Z</time>
      </trkpt>
      <trkpt lat="48.84847" lon="2.37322">
        <ele>39.55</ele>
        <time>2019-02-16T11:03:56Z</time>
      </trkpt>
      <trkpt lat="48.84846" lon="2.37318">
        <ele>40.03</ele>
        <time>2019-02-16T11:04:03Z</time>
      </trkpt>
      <trkpt lat="48.84852" lon="2.37296">
        <ele>40.03</ele>
        <time>2019-02-16T11:04:16Z</time>
      </trkpt>
      <trkpt lat="48.84857" lon="2.37281">
        <ele>40.51</ele>
        <time>2019-02-16T11:04:27Z</time>
      </trkpt>
      <trkpt lat="48.84861" lon="2.37273">
        <ele>40.51</ele>
        <time>2019-02-16T11:04:32Z</time>
      </trkpt>
      <trkpt lat="48.84863" lon="2.37267">
        <ele>40.03</ele>
        <time>2019-02-16T11:04:46Z</time>
      </trkpt>
      <trkpt lat="48.84865" lon="2.37268">
        <ele>39.55</ele>
        <time>2019-02-16T11:04:59Z</time>
      </trkpt>
      <trkpt lat="48.84872" lon="2.37284">
        <ele>40.03</ele>
        <time>2019-02-16T11:05:15Z</time>
      </trkpt>
      <trkpt lat="48.84885" lon="2.37306">
        <ele>39.07</ele>
        <time>2019-02-16T11:05:29Z</time>
      </trkpt>
      <trkpt lat="48.84903" lon="2.37323">
        <ele>39.07</ele>
        <time>2019-02-16T11:05:45Z</time>
      </trkpt>
      <trkpt lat="48.84902" lon="2.37326">
        <ele>39.07</ele>
        <time>2019-02-16T11:06:07Z</time>
      </trkpt>
      <trkpt lat="48.84908" lon="2.37346">
        <ele>39.55</ele>
        <time>2019-02-16T11:06:34Z</time>
      </trkpt>
      <trkpt lat="48.84907" lon="2.37354">
        <ele>39.55</ele>
        <time>2019-02-16T11:06:48Z</time>
      </trkpt>
      <trkpt lat="48.84914" lon="2.37373">
        <ele>40.03</ele>
        <time>2019-02-16T11:07:18Z</time>
      </trkpt>
      <trkpt lat="48.8489" lon="2.37383">
        <ele>39.55</ele>
        <time>2019-02-16T11:07:43Z</time>
      </trkpt>
      <trkpt lat="48.84885" lon="2.37388">
        <ele>39.55</ele>
        <time>2019-02-16T11:08:15Z</time>
      </trkpt>
      <trkpt lat="48.84888" lon="2.37383">
        <ele>39.55</ele>
        <time>2019-02-16T11:08:38Z</time>
      </trkpt>
      <trkpt lat="48.84886" lon="2.37358">
        <ele>40.51</ele>
        <time>2019-02-16T11:09:06Z</time>
      </trkpt>
      <trkpt lat="48.84893" lon="2.37333">
        <ele>39.55</ele>
        <time>2019-02-16T11:09:32Z</time>
      </trkpt>
      <trkpt lat="48.84916" lon="2.37333">
        <ele>39.07</ele>
        <time>2019-02-16T11:09:44Z</time>
      </trkpt>
      <trkpt lat="48.84924" lon="2.3735">
        <ele>39.55</ele>
        <time>2019-02-16T11:10:00Z</time>
      </trkpt>
      <trkpt lat="48.84937" lon="2.37371">
        <ele>39.55</ele>
        <time>2019-02-16T11:10:13Z</time>
      </trkpt>
      <trkpt lat="48.84946" lon="2.37382">
        <ele>39.55</ele>
        <time>2019-02-16T11:10:29Z</time>
      </trkpt>
      <trkpt lat="48.84946" lon="2.37385">
        <ele>39.55</ele>
        <time>2019-02-16T11:10:51Z</time>
      </trkpt>
      <trkpt lat="48.84949" lon="2.37382">
        <ele>37.15</ele>
        <time>2019-02-16T11:11:02Z</time>
      </trkpt>
      <trkpt lat="48.84934" lon="2.37275">
        <ele>31.86</ele>
        <time>2019-02-16T12:49:48Z</time>
      </trkpt>
      <trkpt lat="48.84933" lon="2.37274">
        <ele>32.34</ele>
        <time>2019-02-16T12:49:50Z</time>
      </trkpt>
      <trkpt lat="48.84926" lon="2.37256">
        <ele>33.78</ele>
        <time>2019-02-16T12:50:04Z</time>
      </trkpt>
      <trkpt lat="48.84923" lon="2.37254">
        <ele>33.3</ele>
        <time>2019-02-16T12:50:08Z</time>
      </trkpt>
      <trkpt lat="48.84899" lon="2.37272">
        <ele>32.82</ele>
        <time>2019-02-16T12:50:22Z</time>
      </trkpt>
      <trkpt lat="48.84898" lon="2.37271">
        <ele>33.78</ele>
        <time>2019-02-16T12:50:23Z</time>
      </trkpt>
      <trkpt lat="48.84894" lon="2.3727">
        <ele>33.3</ele>
        <time>2019-02-16T12:50:26Z</time>
      </trkpt>
      <trkpt lat="48.84875" lon="2.37284">
        <ele>33.3</ele>
        <time>2019-02-16T12:50:35Z</time>
      </trkpt>
      <trkpt lat="48.84875" lon="2.37277">
        <ele>33.78</ele>
        <time>2019-02-16T12:50:50Z</time>
      </trkpt>
      <trkpt lat="48.8487" lon="2.37279">
        <ele>33.78</ele>
        <time>2019-02-16T12:50:57Z</time>
      </trkpt>
      <trkpt lat="48.84878" lon="2.37269">
        <ele>33.78</ele>
        <time>2019-02-16T12:51:08Z</time>
      </trkpt>
      <trkpt lat="48.84886" lon="2.37267">
        <ele>37.15</ele>
        <time>2019-02-16T12:51:19Z</time>
      </trkpt>
      <trkpt lat="48.84888" lon="2.37268">
        <ele>40.51</ele>
        <time>2019-02-16T12:51:24Z</time>
      </trkpt>
      <trkpt lat="48.84887" lon="2.37261">
        <ele>42.44</ele>
        <time>2019-02-16T12:51:37Z</time>
      </trkpt>
      <trkpt lat="48.8489" lon="2.37249">
        <ele>43.88</ele>
        <time>2019-02-16T12:51:48Z</time>
      </trkpt>
      <trkpt lat="48.84903" lon="2.37235">
        <ele>43.88</ele>
        <time>2019-02-16T12:52:04Z</time>
      </trkpt>
      <trkpt lat="48.84904" lon="2.3723">
        <ele>43.4</ele>
        <time>2019-02-16T12:52:07Z</time>
      </trkpt>
      <trkpt lat="48.84904" lon="2.37229">
        <ele>43.4</ele>
        <time>2019-02-16T12:52:08Z</time>
      </trkpt>
      <trkpt lat="48.84915" lon="2.37214">
        <ele>43.4</ele>
        <time>2019-02-16T12:52:24Z</time>
      </trkpt>
      <trkpt lat="48.84922" lon="2.37202">
        <ele>43.4</ele>
        <time>2019-02-16T12:52:35Z</time>
      </trkpt>
      <trkpt lat="48.84927" lon="2.37191">
        <ele>44.36</ele>
        <time>2019-02-16T12:52:48Z</time>
      </trkpt>
      <trkpt lat="48.8493" lon="2.3718">
        <ele>44.36</ele>
        <time>2019-02-16T12:52:55Z</time>
      </trkpt>
      <trkpt lat="48.84931" lon="2.37178">
        <ele>43.88</ele>
        <time>2019-02-16T12:52:56Z</time>
      </trkpt>
      <trkpt lat="48.84939" lon="2.37162">
        <ele>43.4</ele>
        <time>2019-02-16T12:53:09Z</time>
      </trkpt>
      <trkpt lat="48.84948" lon="2.37144">
        <ele>43.4</ele>
        <time>2019-02-16T12:53:25Z</time>
      </trkpt>
      <trkpt lat="48.84949" lon="2.3713">
        <ele>40.51</ele>
        <time>2019-02-16T12:53:39Z</time>
      </trkpt>
      <trkpt lat="48.84943" lon="2.37115">
        <ele>39.07</ele>
        <time>2019-02-16T12:53:52Z</time>
      </trkpt>
      <trkpt lat="48.84938" lon="2.37107">
        <ele>35.71</ele>
        <time>2019-02-16T12:54:05Z</time>
      </trkpt>
      <trkpt lat="48.84938" lon="2.37112">
        <ele>35.23</ele>
        <time>2019-02-16T12:54:11Z</time>
      </trkpt>
      <trkpt lat="48.84933" lon="2.37105">
        <ele>35.23</ele>
        <time>2019-02-16T12:54:15Z</time>
      </trkpt>
      <trkpt lat="48.84931" lon="2.37102">
        <ele>35.23</ele>
        <time>2019-02-16T12:54:16Z</time>
      </trkpt>
      <trkpt lat="48.84928" lon="2.37093">
        <ele>35.71</ele>
        <time>2019-02-16T12:54:22Z</time>
      </trkpt>
      <trkpt lat="48.84934" lon="2.37084">
        <ele>35.71</ele>
        <time>2019-02-16T12:54:34Z</time>
      </trkpt>
      <trkpt lat="48.84944" lon="2.37084">
        <ele>35.71</ele>
        <time>2019-02-16T12:54:41Z</time>
      </trkpt>
      <trkpt lat="48.84969" lon="2.37088">
        <ele>35.71</ele>
        <time>2019-02-16T12:54:48Z</time>
      </trkpt>
      <trkpt lat="48.84973" lon="2.37089">
        <ele>37.63</ele>
        <time>2019-02-16T12:54:49Z</time>
      </trkpt>
      <trkpt lat="48.84983" lon="2.37088">
        <ele>36.19</ele>
        <time>2019-02-16T12:54:53Z</time>
      </trkpt>
      <trkpt lat="48.84998" lon="2.37087">
        <ele>37.63</ele>
        <time>2019-02-16T12:55:04Z</time>
      </trkpt>
      <trkpt lat="48.85004" lon="2.37068">
        <ele>37.63</ele>
        <time>2019-02-16T12:55:15Z</time>
      </trkpt>
      <trkpt lat="48.85004" lon="2.37068">
        <ele>36.19</ele>
        <time>2019-02-16T12:55:16Z</time>
      </trkpt>
      <trkpt lat="48.8501" lon="2.3705">
        <ele>37.15</ele>
        <time>2019-02-16T12:55:34Z</time>
      </trkpt>
      <trkpt lat="48.85026" lon="2.37041">
        <ele>37.15</ele>
        <time>2019-02-16T12:55:54Z</time>
      </trkpt>
      <trkpt lat="48.85037" lon="2.37036">
        <ele>37.63</ele>
        <time>2019-02-16T12:56:06Z</time>
      </trkpt>
      <trkpt lat="48.85063" lon="2.37027">
        <ele>37.63</ele>
        <time>2019-02-16T12:56:27Z</time>
      </trkpt>
      <trkpt lat="48.8507" lon="2.37022">
        <ele>38.11</ele>
        <time>2019-02-16T12:56:34Z</time>
      </trkpt>
      <trkpt lat="48.85073" lon="2.37019">
        <ele>37.63</ele>
        <time>2019-02-16T12:56:39Z</time>
      </trkpt>
      <trkpt lat="48.85076" lon="2.37018">
        <ele>38.11</ele>
        <time>2019-02-16T12:56:41Z</time>
      </trkpt>
      <trkpt lat="48.85093" lon="2.3701">
        <ele>38.11</ele>
        <time>2019-02-16T12:56:57Z</time>
      </trkpt>
      <trkpt lat="48.85096" lon="2.3701">
        <ele>38.11</ele>
        <time>2019-02-16T12:57:00Z</time>
      </trkpt>
      <trkpt lat="48.85114" lon="2.37016">
        <ele>38.59</ele>
        <time>2019-02-16T12:57:20Z</time>
      </trkpt>
      <trkpt lat="48.85138" lon="2.36981">
        <ele>38.59</ele>
        <time>2019-02-16T12:57:27Z</time>
      </trkpt>
      <trkpt lat="48.85139" lon="2.36981">
        <ele>38.59</ele>
        <time>2019-02-16T12:57:28Z</time>
      </trkpt>
      <trkpt lat="48.85147" lon="2.36969">
        <ele>38.59</ele>
        <time>2019-02-16T12:57:43Z</time>
      </trkpt>
      <trkpt lat="48.85151" lon="2.36956">
        <ele>38.59</ele>
        <time>2019-02-16T12:58:01Z</time>
      </trkpt>
      <trkpt lat="48.85155" lon="2.36954">
        <ele>38.59</ele>
        <time>2019-02-16T12:58:18Z</time>
      </trkpt>
      <trkpt lat="48.85153" lon="2.36946">
        <ele>39.07</ele>
        <time>2019-02-16T12:58:34Z</time>
      </trkpt>
      <trkpt lat="48.85169" lon="2.36938">
        <ele>39.55</ele>
        <time>2019-02-16T12:58:49Z</time>
      </trkpt>
      <trkpt lat="48.85171" lon="2.36934">
        <ele>40.03</ele>
        <time>2019-02-16T12:58:51Z</time>
      </trkpt>
      <trkpt lat="48.8518" lon="2.36926">
        <ele>40.51</ele>
        <time>2019-02-16T12:59:02Z</time>
      </trkpt>
      <trkpt lat="48.85176" lon="2.36918">
        <ele>40.03</ele>
        <time>2019-02-16T12:59:12Z</time>
      </trkpt>
      <trkpt lat="48.85175" lon="2.36917">
        <ele>40.51</ele>
        <time>2019-02-16T12:59:13Z</time>
      </trkpt>
      <trkpt lat="48.85173" lon="2.36915">
        <ele>40.51</ele>
        <time>2019-02-16T12:59:16Z</time>
      </trkpt>
      <trkpt lat="48.85171" lon="2.36914">
        <ele>40.03</ele>
        <time>2019-02-16T12:59:24Z</time>
      </trkpt>
      <trkpt lat="48.85168" lon="2.36912">
        <ele>40.51</ele>
        <time>2019-02-16T12:59:27Z</time>
      </trkpt>
      <trkpt lat="48.85161" lon="2.36907">
        <ele>40.03</ele>
        <time>2019-02-16T12:59:35Z</time>
      </trkpt>
      <trkpt lat="48.85161" lon="2.36905">
        <ele>39.55</ele>
        <time>2019-02-16T12:59:36Z</time>
      </trkpt>
      <trkpt lat="48.85154" lon="2.36897">
        <ele>39.07</ele>
        <time>2019-02-16T12:59:47Z</time>
      </trkpt>
      <trkpt lat="48.85154" lon="2.3689">
        <ele>39.07</ele>
        <time>2019-02-16T12:59:59Z</time>
      </trkpt>
      <trkpt lat="48.85154" lon="2.36895">
        <ele>40.51</ele>
        <time>2019-02-16T13:00:08Z</time>
      </trkpt>
      <trkpt lat="48.85155" lon="2.36894">
        <ele>43.88</ele>
        <time>2019-02-16T13:00:15Z</time>
      </trkpt>
      <trkpt lat="48.8515" lon="2.36889">
        <ele>46.28</ele>
        <time>2019-02-16T13:00:24Z</time>
      </trkpt>
      <trkpt lat="48.85143" lon="2.36878">
        <ele>48.2</ele>
        <time>2019-02-16T13:00:35Z</time>
      </trkpt>
      <trkpt lat="48.85138" lon="2.3687">
        <ele>51.57</ele>
        <time>2019-02-16T13:00:46Z</time>
      </trkpt>
      <trkpt lat="48.85137" lon="2.36869">
        <ele>51.57</ele>
        <time>2019-02-16T13:00:47Z</time>
      </trkpt>
      <trkpt lat="48.85135" lon="2.36865">
        <ele>53.97</ele>
        <time>2019-02-16T13:00:51Z</time>
      </trkpt>
      <trkpt lat="48.8513" lon="2.36861">
        <ele>56.86</ele>
        <time>2019-02-16T13:00:59Z</time>
      </trkpt>
      <trkpt lat="48.85129" lon="2.36859">
        <ele>58.78</ele>
        <time>2019-02-16T13:01:04Z</time>
      </trkpt>
      <trkpt lat="48.85126" lon="2.3686">
        <ele>59.74</ele>
        <time>2019-02-16T13:01:06Z</time>
      </trkpt>
      <trkpt lat="48.8512" lon="2.36861">
        <ele>62.62</ele>
        <time>2019-02-16T13:01:14Z</time>
      </trkpt>
      <trkpt lat="48.85095" lon="2.36838">
        <ele>65.03</ele>
        <time>2019-02-16T13:01:28Z</time>
      </trkpt>
      <trkpt lat="48.85092" lon="2.3683">
        <ele>61.66</ele>
        <time>2019-02-16T13:01:31Z</time>
      </trkpt>
      <trkpt lat="48.85092" lon="2.36829">
        <ele>60.7</ele>
        <time>2019-02-16T13:01:32Z</time>
      </trkpt>
      <trkpt lat="48.85093" lon="2.36823">
        <ele>54.93</ele>
        <time>2019-02-16T13:01:37Z</time>
      </trkpt>
      <trkpt lat="48.85091" lon="2.36821">
        <ele>52.05</ele>
        <time>2019-02-16T13:01:39Z</time>
      </trkpt>
      <trkpt lat="48.85089" lon="2.36817">
        <ele>49.65</ele>
        <time>2019-02-16T13:01:42Z</time>
      </trkpt>
      <trkpt lat="48.85086" lon="2.36816">
        <ele>44.36</ele>
        <time>2019-02-16T13:01:48Z</time>
      </trkpt>
      <trkpt lat="48.85087" lon="2.36817">
        <ele>43.4</ele>
        <time>2019-02-16T13:01:50Z</time>
      </trkpt>
      <trkpt lat="48.85086" lon="2.36819">
        <ele>40.99</ele>
        <time>2019-02-16T13:01:54Z</time>
      </trkpt>
      <trkpt lat="48.85083" lon="2.36816">
        <ele>39.07</ele>
        <time>2019-02-16T13:01:58Z</time>
      </trkpt>
      <trkpt lat="48.85078" lon="2.36813">
        <ele>38.11</ele>
        <time>2019-02-16T13:02:02Z</time>
      </trkpt>
      <trkpt lat="48.85067" lon="2.36809">
        <ele>36.67</ele>
        <time>2019-02-16T13:02:11Z</time>
      </trkpt>
      <trkpt lat="48.85056" lon="2.36804">
        <ele>36.19</ele>
        <time>2019-02-16T13:02:24Z</time>
      </trkpt>
      <trkpt lat="48.85041" lon="2.36799">
        <ele>36.67</ele>
        <time>2019-02-16T13:02:38Z</time>
      </trkpt>
      <trkpt lat="48.85026" lon="2.36793">
        <ele>36.19</ele>
        <time>2019-02-16T13:02:53Z</time>
      </trkpt>
      <trkpt lat="48.8502" lon="2.36789">
        <ele>36.67</ele>
        <time>2019-02-16T13:03:04Z</time>
      </trkpt>
      <trkpt lat="48.85019" lon="2.36787">
        <ele>36.67</ele>
        <time>2019-02-16T13:03:06Z</time>
      </trkpt>
      <trkpt lat="48.85003" lon="2.36778">
        <ele>36.67</ele>
        <time>2019-02-16T13:03:22Z</time>
      </trkpt>
      <trkpt lat="48.85001" lon="2.36778">
        <ele>36.67</ele>
        <time>2019-02-16T13:03:24Z</time>
      </trkpt>
      <trkpt lat="48.84985" lon="2.36774">
        <ele>36.67</ele>
        <time>2019-02-16T13:03:39Z</time>
      </trkpt>
      <trkpt lat="48.84968" lon="2.36767">
        <ele>36.19</ele>
        <time>2019-02-16T13:03:53Z</time>
      </trkpt>
      <trkpt lat="48.84966" lon="2.36766">
        <ele>36.19</ele>
        <time>2019-02-16T13:03:56Z</time>
      </trkpt>
      <trkpt lat="48.84965" lon="2.36765">
        <ele>36.19</ele>
        <time>2019-02-16T13:03:58Z</time>
      </trkpt>
      <trkpt lat="48.84957" lon="2.36763">
        <ele>36.19</ele>
        <time>2019-02-16T13:04:04Z</time>
      </trkpt>
      <trkpt lat="48.84942" lon="2.36757">
        <ele>36.19</ele>
        <time>2019-02-16T13:04:16Z</time>
      </trkpt>
      <trkpt lat="48.8493" lon="2.3675">
        <ele>35.71</ele>
        <time>2019-02-16T13:04:29Z</time>
      </trkpt>
      <trkpt lat="48.84916" lon="2.36743">
        <ele>36.19</ele>
        <time>2019-02-16T13:04:41Z</time>
      </trkpt>
      <trkpt lat="48.84902" lon="2.36734">
        <ele>35.71</ele>
        <time>2019-02-16T13:04:54Z</time>
      </trkpt>
      <trkpt lat="48.84893" lon="2.36733">
        <ele>35.71</ele>
        <time>2019-02-16T13:05:03Z</time>
      </trkpt>
      <trkpt lat="48.84889" lon="2.36732">
        <ele>35.71</ele>
        <time>2019-02-16T13:05:07Z</time>
      </trkpt>
      <trkpt lat="48.84888" lon="2.36732">
        <ele>35.71</ele>
        <time>2019-02-16T13:05:08Z</time>
      </trkpt>
      <trkpt lat="48.84886" lon="2.36731">
        <ele>36.19</ele>
        <time>2019-02-16T13:05:09Z</time>
      </trkpt>
      <trkpt lat="48.84874" lon="2.36728">
        <ele>35.71</ele>
        <time>2019-02-16T13:05:21Z</time>
      </trkpt>
      <trkpt lat="48.8486" lon="2.36724">
        <ele>35.71</ele>
        <time>2019-02-16T13:05:34Z</time>
      </trkpt>
      <trkpt lat="48.84841" lon="2.36718">
        <ele>35.71</ele>
        <time>2019-02-16T13:05:48Z</time>
      </trkpt>
      <trkpt lat="48.8484" lon="2.36718">
        <ele>35.71</ele>
        <time>2019-02-16T13:05:49Z</time>
      </trkpt>
      <trkpt lat="48.84838" lon="2.36717">
        <ele>35.71</ele>
        <time>2019-02-16T13:05:50Z</time>
      </trkpt>
      <trkpt lat="48.84836" lon="2.36717">
        <ele>35.23</ele>
        <time>2019-02-16T13:05:51Z</time>
      </trkpt>
      <trkpt lat="48.84835" lon="2.36717">
        <ele>35.71</ele>
        <time>2019-02-16T13:05:52Z</time>
      </trkpt>
      <trkpt lat="48.84822" lon="2.36714">
        <ele>35.71</ele>
        <time>2019-02-16T13:06:04Z</time>
      </trkpt>
      <trkpt lat="48.84811" lon="2.36715">
        <ele>35.23</ele>
        <time>2019-02-16T13:06:17Z</time>
      </trkpt>
      <trkpt lat="48.84799" lon="2.36713">
        <ele>34.26</ele>
        <time>2019-02-16T13:06:28Z</time>
      </trkpt>
      <trkpt lat="48.84797" lon="2.36713">
        <ele>35.71</ele>
        <time>2019-02-16T13:06:30Z</time>
      </trkpt>
      <trkpt lat="48.84789" lon="2.36712">
        <ele>35.23</ele>
        <time>2019-02-16T13:06:38Z</time>
      </trkpt>
      <trkpt lat="48.84772" lon="2.36704">
        <ele>35.23</ele>
        <time>2019-02-16T13:06:53Z</time>
      </trkpt>
      <trkpt lat="48.84766" lon="2.36703">
        <ele>35.23</ele>
        <time>2019-02-16T13:06:58Z</time>
      </trkpt>
      <trkpt lat="48.84762" lon="2.367">
        <ele>35.23</ele>
        <time>2019-02-16T13:07:02Z</time>
      </trkpt>
      <trkpt lat="48.8475" lon="2.367">
        <ele>34.74</ele>
        <time>2019-02-16T13:07:11Z</time>
      </trkpt>
      <trkpt lat="48.84748" lon="2.36699">
        <ele>35.23</ele>
        <time>2019-02-16T13:07:13Z</time>
      </trkpt>
      <trkpt lat="48.84738" lon="2.36698">
        <ele>35.23</ele>
        <time>2019-02-16T13:07:23Z</time>
      </trkpt>
      <trkpt lat="48.84735" lon="2.36696">
        <ele>34.26</ele>
        <time>2019-02-16T13:07:36Z</time>
      </trkpt>
      <trkpt lat="48.84731" lon="2.36694">
        <ele>34.74</ele>
        <time>2019-02-16T13:07:51Z</time>
      </trkpt>
      <trkpt lat="48.84723" lon="2.36689">
        <ele>34.74</ele>
        <time>2019-02-16T13:08:04Z</time>
      </trkpt>
      <trkpt lat="48.84717" lon="2.36678">
        <ele>34.26</ele>
        <time>2019-02-16T13:08:17Z</time>
      </trkpt>
      <trkpt lat="48.84718" lon="2.36659">
        <ele>34.26</ele>
        <time>2019-02-16T13:08:30Z</time>
      </trkpt>
      <trkpt lat="48.84714" lon="2.36636">
        <ele>35.23</ele>
        <time>2019-02-16T13:08:44Z</time>
      </trkpt>
      <trkpt lat="48.84712" lon="2.36634">
        <ele>34.74</ele>
        <time>2019-02-16T13:08:54Z</time>
      </trkpt>
      <trkpt lat="48.84715" lon="2.36637">
        <ele>34.74</ele>
        <time>2019-02-16T13:09:00Z</time>
      </trkpt>
      <trkpt lat="48.8472" lon="2.3662">
        <ele>34.74</ele>
        <time>2019-02-16T13:09:14Z</time>
      </trkpt>
      <trkpt lat="48.84721" lon="2.36632">
        <ele>28.98</ele>
        <time>2019-02-16T13:09:25Z</time>
      </trkpt>
      <trkpt lat="48.84721" lon="2.36632">
        <ele>40.99</ele>
        <time>2019-02-16T13:09:26Z</time>
      </trkpt>
      <trkpt lat="48.8472" lon="2.36635">
        <ele>35.23</ele>
        <time>2019-02-16T13:09:27Z</time>
      </trkpt>
      <trkpt lat="48.84709" lon="2.36673">
        <ele>34.26</ele>
        <time>2019-02-16T13:09:56Z</time>
      </trkpt>
      <trkpt lat="48.84685" lon="2.36643">
        <ele>35.23</ele>
        <time>2019-02-16T13:10:04Z</time>
      </trkpt>
      <trkpt lat="48.84705" lon="2.36578">
        <ele>35.71</ele>
        <time>2019-02-16T13:10:17Z</time>
      </trkpt>
      <trkpt lat="48.84705" lon="2.36576">
        <ele>36.67</ele>
        <time>2019-02-16T13:10:23Z</time>
      </trkpt>
      <trkpt lat="48.84705" lon="2.36577">
        <ele>35.23</ele>
        <time>2019-02-16T13:10:30Z</time>
      </trkpt>
      <trkpt lat="48.84707" lon="2.36573">
        <ele>34.74</ele>
        <time>2019-02-16T13:10:41Z</time>
      </trkpt>
      <trkpt lat="48.84707" lon="2.36572">
        <ele>34.74</ele>
        <time>2019-02-16T13:10:42Z</time>
      </trkpt>
      <trkpt lat="48.84701" lon="2.36564">
        <ele>34.74</ele>
        <time>2019-02-16T13:10:49Z</time>
      </trkpt>
      <trkpt lat="48.84698" lon="2.36555">
        <ele>34.26</ele>
        <time>2019-02-16T13:11:00Z</time>
      </trkpt>
      <trkpt lat="48.84697" lon="2.36556">
        <ele>36.19</ele>
        <time>2019-02-16T13:11:11Z</time>
      </trkpt>
      <trkpt lat="48.84704" lon="2.3655">
        <ele>37.15</ele>
        <time>2019-02-16T13:11:25Z</time>
      </trkpt>
      <trkpt lat="48.84707" lon="2.36542">
        <ele>39.55</ele>
        <time>2019-02-16T13:11:36Z</time>
      </trkpt>
      <trkpt lat="48.84715" lon="2.36542">
        <ele>40.99</ele>
        <time>2019-02-16T13:11:45Z</time>
      </trkpt>
      <trkpt lat="48.84717" lon="2.36542">
        <ele>41.47</ele>
        <time>2019-02-16T13:11:48Z</time>
      </trkpt>
      <trkpt lat="48.84722" lon="2.36543">
        <ele>41.47</ele>
        <time>2019-02-16T13:11:53Z</time>
      </trkpt>
      <trkpt lat="48.84729" lon="2.36542">
        <ele>41.47</ele>
        <time>2019-02-16T13:12:00Z</time>
      </trkpt>
      <trkpt lat="48.8473" lon="2.36539">
        <ele>40.99</ele>
        <time>2019-02-16T13:12:03Z</time>
      </trkpt>
      <trkpt lat="48.84728" lon="2.36534">
        <ele>41.47</ele>
        <time>2019-02-16T13:12:18Z</time>
      </trkpt>
      <trkpt lat="48.84724" lon="2.36509">
        <ele>41.47</ele>
        <time>2019-02-16T13:12:31Z</time>
      </trkpt>
      <trkpt lat="48.84723" lon="2.3649">
        <ele>40.99</ele>
        <time>2019-02-16T13:12:42Z</time>
      </trkpt>
      <trkpt lat="48.84722" lon="2.36488">
        <ele>40.99</ele>
        <time>2019-02-16T13:12:56Z</time>
      </trkpt>
      <trkpt lat="48.84719" lon="2.36488">
        <ele>40.99</ele>
        <time>2019-02-16T13:13:05Z</time>
      </trkpt>
      <trkpt lat="48.8472" lon="2.36487">
        <ele>40.99</ele>
        <time>2019-02-16T13:13:16Z</time>
      </trkpt>
      <trkpt lat="48.84717" lon="2.36488">
        <ele>41.47</ele>
        <time>2019-02-16T13:13:26Z</time>
      </trkpt>
      <trkpt lat="48.84716" lon="2.3649">
        <ele>40.99</ele>
        <time>2019-02-16T13:13:27Z</time>
      </trkpt>
      <trkpt lat="48.84715" lon="2.36491">
        <ele>40.99</ele>
        <time>2019-02-16T13:13:28Z</time>
      </trkpt>
      <trkpt lat="48.84712" lon="2.36493">
        <ele>41.47</ele>
        <time>2019-02-16T13:13:32Z</time>
      </trkpt>
      <trkpt lat="48.84711" lon="2.36495">
        <ele>40.99</ele>
        <time>2019-02-16T13:13:34Z</time>
      </trkpt>
      <trkpt lat="48.84702" lon="2.36501">
        <ele>42.44</ele>
        <time>2019-02-16T13:13:42Z</time>
      </trkpt>
      <trkpt lat="48.84697" lon="2.36501">
        <ele>42.44</ele>
        <time>2019-02-16T13:13:55Z</time>
      </trkpt>
      <trkpt lat="48.84698" lon="2.36505">
        <ele>41.47</ele>
        <time>2019-02-16T13:14:13Z</time>
      </trkpt>
      <trkpt lat="48.84696" lon="2.36503">
        <ele>41.95</ele>
        <time>2019-02-16T13:14:31Z</time>
      </trkpt>
      <trkpt lat="48.84694" lon="2.36509">
        <ele>41.95</ele>
        <time>2019-02-16T13:14:48Z</time>
      </trkpt>
      <trkpt lat="48.84682" lon="2.3652">
        <ele>41.95</ele>
        <time>2019-02-16T13:15:00Z</time>
      </trkpt>
      <trkpt lat="48.84676" lon="2.36525">
        <ele>41.95</ele>
        <time>2019-02-16T13:15:07Z</time>
      </trkpt>
      <trkpt lat="48.84672" lon="2.3653">
        <ele>41.47</ele>
        <time>2019-02-16T13:15:14Z</time>
      </trkpt>
      <trkpt lat="48.84664" lon="2.36537">
        <ele>41.47</ele>
        <time>2019-02-16T13:15:25Z</time>
      </trkpt>
      <trkpt lat="48.84654" lon="2.36549">
        <ele>40.51</ele>
        <time>2019-02-16T13:15:38Z</time>
      </trkpt>
      <trkpt lat="48.84649" lon="2.36548">
        <ele>41.47</ele>
        <time>2019-02-16T13:15:51Z</time>
      </trkpt>
      <trkpt lat="48.84647" lon="2.3655">
        <ele>41.47</ele>
        <time>2019-02-16T13:16:15Z</time>
      </trkpt>
      <trkpt lat="48.84647" lon="2.36553">
        <ele>40.99</ele>
        <time>2019-02-16T13:16:48Z</time>
      </trkpt>
      <trkpt lat="48.84649" lon="2.3655">
        <ele>40.99</ele>
        <time>2019-02-16T13:17:05Z</time>
      </trkpt>
      <trkpt lat="48.84643" lon="2.36556">
        <ele>40.99</ele>
        <time>2019-02-16T13:17:17Z</time>
      </trkpt>
      <trkpt lat="48.84642" lon="2.36557">
        <ele>40.51</ele>
        <time>2019-02-16T13:17:22Z</time>
      </trkpt>
      <trkpt lat="48.84637" lon="2.36561">
        <ele>40.51</ele>
        <time>2019-02-16T13:17:32Z</time>
      </trkpt>
      <trkpt lat="48.84634" lon="2.36564">
        <ele>40.51</ele>
        <time>2019-02-16T13:17:36Z</time>
      </trkpt>
      <trkpt lat="48.84622" lon="2.36576">
        <ele>39.07</ele>
        <time>2019-02-16T13:17:48Z</time>
      </trkpt>
      <trkpt lat="48.84609" lon="2.3659">
        <ele>38.11</ele>
        <time>2019-02-16T13:18:02Z</time>
      </trkpt>
      <trkpt lat="48.84594" lon="2.36609">
        <ele>36.67</ele>
        <time>2019-02-16T13:18:20Z</time>
      </trkpt>
      <trkpt lat="48.84588" lon="2.36616">
        <ele>36.19</ele>
        <time>2019-02-16T13:18:27Z</time>
      </trkpt>
      <trkpt lat="48.84577" lon="2.36629">
        <ele>35.71</ele>
        <time>2019-02-16T13:18:40Z</time>
      </trkpt>
      <trkpt lat="48.84565" lon="2.36644">
        <ele>35.23</ele>
        <time>2019-02-16T13:18:53Z</time>
      </trkpt>
      <trkpt lat="48.84563" lon="2.36646">
        <ele>34.74</ele>
        <time>2019-02-16T13:18:55Z</time>
      </trkpt>
      <trkpt lat="48.84554" lon="2.36657">
        <ele>33.78</ele>
        <time>2019-02-16T13:19:06Z</time>
      </trkpt>
      <trkpt lat="48.84546" lon="2.36662">
        <ele>33.3</ele>
        <time>2019-02-16T13:19:18Z</time>
      </trkpt>
      <trkpt lat="48.84545" lon="2.36662">
        <ele>33.3</ele>
        <time>2019-02-16T13:19:19Z</time>
      </trkpt>
      <trkpt lat="48.84544" lon="2.36662">
        <ele>33.3</ele>
        <time>2019-02-16T13:19:20Z</time>
      </trkpt>
      <trkpt lat="48.84526" lon="2.3671">
        <ele>33.3</ele>
        <time>2019-02-16T13:19:37Z</time>
      </trkpt>
      <trkpt lat="48.84511" lon="2.36741">
        <ele>33.3</ele>
        <time>2019-02-16T13:19:52Z</time>
      </trkpt>
      <trkpt lat="48.84508" lon="2.36743">
        <ele>33.3</ele>
        <time>2019-02-16T13:19:56Z</time>
      </trkpt>
      <trkpt lat="48.84507" lon="2.36744">
        <ele>33.3</ele>
        <time>2019-02-16T13:19:57Z</time>
      </trkpt>
      <trkpt lat="48.845" lon="2.36746">
        <ele>33.3</ele>
        <time>2019-02-16T13:20:06Z</time>
      </trkpt>
      <trkpt lat="48.84495" lon="2.36747">
        <ele>33.78</ele>
        <time>2019-02-16T13:20:12Z</time>
      </trkpt>
      <trkpt lat="48.84483" lon="2.36755">
        <ele>34.74</ele>
        <time>2019-02-16T13:20:26Z</time>
      </trkpt>
      <trkpt lat="48.84481" lon="2.36759">
        <ele>34.26</ele>
        <time>2019-02-16T13:20:31Z</time>
      </trkpt>
      <trkpt lat="48.84471" lon="2.36768">
        <ele>35.23</ele>
        <time>2019-02-16T13:20:44Z</time>
      </trkpt>
      <trkpt lat="48.84457" lon="2.36791">
        <ele>35.23</ele>
        <time>2019-02-16T13:21:01Z</time>
      </trkpt>
      <trkpt lat="48.84447" lon="2.36803">
        <ele>35.71</ele>
        <time>2019-02-16T13:21:14Z</time>
      </trkpt>
      <trkpt lat="48.84437" lon="2.36817">
        <ele>35.71</ele>
        <time>2019-02-16T13:21:27Z</time>
      </trkpt>
      <trkpt lat="48.8443" lon="2.36827">
        <ele>36.19</ele>
        <time>2019-02-16T13:21:39Z</time>
      </trkpt>
      <trkpt lat="48.84422" lon="2.3684">
        <ele>36.19</ele>
        <time>2019-02-16T13:21:50Z</time>
      </trkpt>
      <trkpt lat="48.84418" lon="2.36849">
        <ele>36.67</ele>
        <time>2019-02-16T13:22:00Z</time>
      </trkpt>
      <trkpt lat="48.84418" lon="2.36851">
        <ele>36.67</ele>
        <time>2019-02-16T13:22:02Z</time>
      </trkpt>
      <trkpt lat="48.84417" lon="2.36854">
        <ele>36.67</ele>
        <time>2019-02-16T13:22:04Z</time>
      </trkpt>
      <trkpt lat="48.84409" lon="2.36865">
        <ele>36.67</ele>
        <time>2019-02-16T13:22:18Z</time>
      </trkpt>
      <trkpt lat="48.84404" lon="2.36887">
        <ele>37.15</ele>
        <time>2019-02-16T13:22:30Z</time>
      </trkpt>
      <trkpt lat="48.844" lon="2.36894">
        <ele>37.63</ele>
        <time>2019-02-16T13:22:41Z</time>
      </trkpt>
      <trkpt lat="48.84396" lon="2.36893">
        <ele>38.59</ele>
        <time>2019-02-16T13:22:54Z</time>
      </trkpt>
      <trkpt lat="48.84395" lon="2.36895">
        <ele>37.63</ele>
        <time>2019-02-16T13:23:11Z</time>
      </trkpt>
      <trkpt lat="48.84395" lon="2.36907">
        <ele>37.15</ele>
        <time>2019-02-16T13:23:21Z</time>
      </trkpt>
      <trkpt lat="48.84395" lon="2.36908">
        <ele>39.07</ele>
        <time>2019-02-16T13:23:22Z</time>
      </trkpt>
      <trkpt lat="48.84393" lon="2.36915">
        <ele>34.74</ele>
        <time>2019-02-16T13:23:27Z</time>
      </trkpt>
      <trkpt lat="48.84393" lon="2.36916">
        <ele>41.95</ele>
        <time>2019-02-16T13:23:28Z</time>
      </trkpt>
      <trkpt lat="48.84392" lon="2.36918">
        <ele>38.11</ele>
        <time>2019-02-16T13:23:29Z</time>
      </trkpt>
      <trkpt lat="48.84389" lon="2.36923">
        <ele>37.63</ele>
        <time>2019-02-16T13:23:34Z</time>
      </trkpt>
      <trkpt lat="48.84375" lon="2.3694">
        <ele>37.63</ele>
        <time>2019-02-16T13:23:51Z</time>
      </trkpt>
      <trkpt lat="48.84374" lon="2.36942">
        <ele>37.63</ele>
        <time>2019-02-16T13:23:53Z</time>
      </trkpt>
      <trkpt lat="48.84372" lon="2.36944">
        <ele>37.15</ele>
        <time>2019-02-16T13:23:55Z</time>
      </trkpt>
      <trkpt lat="48.84371" lon="2.36945">
        <ele>36.67</ele>
        <time>2019-02-16T13:23:56Z</time>
      </trkpt>
      <trkpt lat="48.8437" lon="2.36947">
        <ele>36.67</ele>
        <time>2019-02-16T13:23:57Z</time>
      </trkpt>
      <trkpt lat="48.84369" lon="2.36948">
        <ele>37.15</ele>
        <time>2019-02-16T13:23:58Z</time>
      </trkpt>
      <trkpt lat="48.84358" lon="2.36958">
        <ele>35.23</ele>
        <time>2019-02-16T13:24:10Z</time>
      </trkpt>
      <trkpt lat="48.84354" lon="2.3696">
        <ele>35.71</ele>
        <time>2019-02-16T13:24:13Z</time>
      </trkpt>
      <trkpt lat="48.84352" lon="2.36961">
        <ele>35.23</ele>
        <time>2019-02-16T13:24:16Z</time>
      </trkpt>
      <trkpt lat="48.84351" lon="2.36962">
        <ele>35.71</ele>
        <time>2019-02-16T13:24:17Z</time>
      </trkpt>
      <trkpt lat="48.84349" lon="2.36959">
        <ele>35.71</ele>
        <time>2019-02-16T13:24:33Z</time>
      </trkpt>
      <trkpt lat="48.84346" lon="2.36955">
        <ele>35.71</ele>
        <time>2019-02-16T13:24:53Z</time>
      </trkpt>
      <trkpt lat="48.8434" lon="2.36964">
        <ele>35.71</ele>
        <time>2019-02-16T13:25:05Z</time>
      </trkpt>
      <trkpt lat="48.84337" lon="2.36971">
        <ele>35.71</ele>
        <time>2019-02-16T13:25:11Z</time>
      </trkpt>
      <trkpt lat="48.84336" lon="2.36972">
        <ele>35.23</ele>
        <time>2019-02-16T13:25:12Z</time>
      </trkpt>
      <trkpt lat="48.84335" lon="2.36974">
        <ele>35.71</ele>
        <time>2019-02-16T13:25:13Z</time>
      </trkpt>
      <trkpt lat="48.84331" lon="2.3698">
        <ele>35.71</ele>
        <time>2019-02-16T13:25:24Z</time>
      </trkpt>
      <trkpt lat="48.84324" lon="2.36989">
        <ele>35.71</ele>
        <time>2019-02-16T13:25:36Z</time>
      </trkpt>
      <trkpt lat="48.84321" lon="2.36995">
        <ele>36.67</ele>
        <time>2019-02-16T13:25:48Z</time>
      </trkpt>
      <trkpt lat="48.84313" lon="2.37016">
        <ele>36.19</ele>
        <time>2019-02-16T13:26:01Z</time>
      </trkpt>
      <trkpt lat="48.84313" lon="2.37021">
        <ele>36.19</ele>
        <time>2019-02-16T13:26:03Z</time>
      </trkpt>
      <trkpt lat="48.84307" lon="2.37027">
        <ele>35.71</ele>
        <time>2019-02-16T13:26:08Z</time>
      </trkpt>
      <trkpt lat="48.84305" lon="2.37028">
        <ele>36.19</ele>
        <time>2019-02-16T13:26:09Z</time>
      </trkpt>
      <trkpt lat="48.84303" lon="2.37029">
        <ele>36.19</ele>
        <time>2019-02-16T13:26:10Z</time>
      </trkpt>
      <trkpt lat="48.84289" lon="2.37039">
        <ele>36.19</ele>
        <time>2019-02-16T13:26:20Z</time>
      </trkpt>
      <trkpt lat="48.84287" lon="2.37039">
        <ele>36.19</ele>
        <time>2019-02-16T13:26:21Z</time>
      </trkpt>
      <trkpt lat="48.84285" lon="2.37039">
        <ele>36.19</ele>
        <time>2019-02-16T13:26:22Z</time>
      </trkpt>
      <trkpt lat="48.84284" lon="2.37042">
        <ele>35.71</ele>
        <time>2019-02-16T13:26:27Z</time>
      </trkpt>
      <trkpt lat="48.84283" lon="2.37043">
        <ele>36.19</ele>
        <time>2019-02-16T13:26:28Z</time>
      </trkpt>
      <trkpt lat="48.84276" lon="2.37049">
        <ele>36.19</ele>
        <time>2019-02-16T13:26:37Z</time>
      </trkpt>
      <trkpt lat="48.84266" lon="2.37059">
        <ele>35.71</ele>
        <time>2019-02-16T13:26:49Z</time>
      </trkpt>
      <trkpt lat="48.84262" lon="2.37065">
        <ele>35.71</ele>
        <time>2019-02-16T13:26:54Z</time>
      </trkpt>
      <trkpt lat="48.84261" lon="2.37066">
        <ele>35.71</ele>
        <time>2019-02-16T13:26:55Z</time>
      </trkpt>
      <trkpt lat="48.84251" lon="2.3708">
        <ele>36.67</ele>
        <time>2019-02-16T13:27:08Z</time>
      </trkpt>
      <trkpt lat="48.84238" lon="2.37097">
        <ele>36.19</ele>
        <time>2019-02-16T13:27:22Z</time>
      </trkpt>
      <trkpt lat="48.84237" lon="2.371">
        <ele>36.19</ele>
        <time>2019-02-16T13:27:24Z</time>
      </trkpt>
      <trkpt lat="48.84236" lon="2.37103">
        <ele>36.67</ele>
        <time>2019-02-16T13:27:25Z</time>
      </trkpt>
      <trkpt lat="48.84235" lon="2.37105">
        <ele>37.15</ele>
        <time>2019-02-16T13:27:26Z</time>
      </trkpt>
      <trkpt lat="48.84225" lon="2.37126">
        <ele>37.15</ele>
        <time>2019-02-16T13:27:40Z</time>
      </trkpt>
      <trkpt lat="48.84224" lon="2.37126">
        <ele>36.19</ele>
        <time>2019-02-16T13:27:42Z</time>
      </trkpt>
      <trkpt lat="48.84222" lon="2.37127">
        <ele>36.19</ele>
        <time>2019-02-16T13:27:46Z</time>
      </trkpt>
      <trkpt lat="48.84221" lon="2.37128">
        <ele>36.67</ele>
        <time>2019-02-16T13:27:47Z</time>
      </trkpt>
      <trkpt lat="48.8422" lon="2.37129">
        <ele>36.19</ele>
        <time>2019-02-16T13:27:48Z</time>
      </trkpt>
      <trkpt lat="48.84214" lon="2.37143">
        <ele>36.67</ele>
        <time>2019-02-16T13:27:57Z</time>
      </trkpt>
      <trkpt lat="48.84211" lon="2.37146">
        <ele>36.67</ele>
        <time>2019-02-16T13:28:01Z</time>
      </trkpt>
      <trkpt lat="48.8421" lon="2.37147">
        <ele>36.67</ele>
        <time>2019-02-16T13:28:02Z</time>
      </trkpt>
      <trkpt lat="48.84209" lon="2.37148">
        <ele>36.19</ele>
        <time>2019-02-16T13:28:03Z</time>
      </trkpt>
      <trkpt lat="48.84208" lon="2.37149">
        <ele>36.67</ele>
        <time>2019-02-16T13:28:04Z</time>
      </trkpt>
      <trkpt lat="48.84208" lon="2.37151">
        <ele>36.67</ele>
        <time>2019-02-16T13:28:05Z</time>
      </trkpt>
      <trkpt lat="48.84198" lon="2.37161">
        <ele>36.19</ele>
        <time>2019-02-16T13:28:14Z</time>
      </trkpt>
      <trkpt lat="48.84197" lon="2.37162">
        <ele>36.67</ele>
        <time>2019-02-16T13:28:15Z</time>
      </trkpt>
      <trkpt lat="48.84196" lon="2.37165">
        <ele>36.67</ele>
        <time>2019-02-16T13:28:17Z</time>
      </trkpt>
      <trkpt lat="48.84194" lon="2.37166">
        <ele>36.67</ele>
        <time>2019-02-16T13:28:18Z</time>
      </trkpt>
      <trkpt lat="48.84193" lon="2.37166">
        <ele>36.67</ele>
        <time>2019-02-16T13:28:19Z</time>
      </trkpt>
      <trkpt lat="48.84182" lon="2.37172">
        <ele>37.15</ele>
        <time>2019-02-16T13:28:27Z</time>
      </trkpt>
      <trkpt lat="48.84171" lon="2.37193">
        <ele>36.19</ele>
        <time>2019-02-16T13:28:44Z</time>
      </trkpt>
      <trkpt lat="48.84153" lon="2.37218">
        <ele>36.67</ele>
        <time>2019-02-16T13:29:04Z</time>
      </trkpt>
      <trkpt lat="48.84147" lon="2.37223">
        <ele>36.19</ele>
        <time>2019-02-16T13:29:11Z</time>
      </trkpt>
      <trkpt lat="48.84146" lon="2.37225">
        <ele>35.71</ele>
        <time>2019-02-16T13:29:12Z</time>
      </trkpt>
      <trkpt lat="48.84145" lon="2.37226">
        <ele>36.19</ele>
        <time>2019-02-16T13:29:13Z</time>
      </trkpt>
      <trkpt lat="48.84144" lon="2.37227">
        <ele>36.19</ele>
        <time>2019-02-16T13:29:14Z</time>
      </trkpt>
      <trkpt lat="48.84125" lon="2.37249">
        <ele>36.67</ele>
        <time>2019-02-16T13:29:33Z</time>
      </trkpt>
      <trkpt lat="48.84112" lon="2.37268">
        <ele>37.15</ele>
        <time>2019-02-16T13:29:50Z</time>
      </trkpt>
      <trkpt lat="48.84096" lon="2.37293">
        <ele>36.67</ele>
        <time>2019-02-16T13:30:10Z</time>
      </trkpt>
      <trkpt lat="48.84081" lon="2.37317">
        <ele>36.19</ele>
        <time>2019-02-16T13:30:29Z</time>
      </trkpt>
      <trkpt lat="48.84062" lon="2.37332">
        <ele>36.19</ele>
        <time>2019-02-16T13:30:47Z</time>
      </trkpt>
      <trkpt lat="48.84045" lon="2.37348">
        <ele>35.71</ele>
        <time>2019-02-16T13:31:05Z</time>
      </trkpt>
      <trkpt lat="48.84038" lon="2.37346">
        <ele>36.67</ele>
        <time>2019-02-16T13:31:23Z</time>
      </trkpt>
      <trkpt lat="48.84036" lon="2.3735">
        <ele>36.19</ele>
        <time>2019-02-16T13:31:37Z</time>
      </trkpt>
      <trkpt lat="48.84023" lon="2.37371">
        <ele>36.19</ele>
        <time>2019-02-16T13:31:56Z</time>
      </trkpt>
      <trkpt lat="48.84011" lon="2.37385">
        <ele>35.71</ele>
        <time>2019-02-16T13:32:14Z</time>
      </trkpt>
      <trkpt lat="48.84002" lon="2.37392">
        <ele>36.19</ele>
        <time>2019-02-16T13:32:25Z</time>
      </trkpt>
      <trkpt lat="48.83993" lon="2.37401">
        <ele>36.67</ele>
        <time>2019-02-16T13:32:39Z</time>
      </trkpt>
      <trkpt lat="48.8399" lon="2.37406">
        <ele>36.19</ele>
        <time>2019-02-16T13:32:52Z</time>
      </trkpt>
      <trkpt lat="48.83989" lon="2.37408">
        <ele>35.71</ele>
        <time>2019-02-16T13:32:53Z</time>
      </trkpt>
      <trkpt lat="48.83988" lon="2.37409">
        <ele>36.19</ele>
        <time>2019-02-16T13:32:54Z</time>
      </trkpt>
      <trkpt lat="48.83987" lon="2.3741">
        <ele>36.19</ele>
        <time>2019-02-16T13:32:55Z</time>
      </trkpt>
      <trkpt lat="48.83986" lon="2.3741">
        <ele>35.71</ele>
        <time>2019-02-16T13:32:56Z</time>
      </trkpt>
      <trkpt lat="48.83982" lon="2.37416">
        <ele>35.71</ele>
        <time>2019-02-16T13:33:06Z</time>
      </trkpt>
      <trkpt lat="48.83976" lon="2.37423">
        <ele>35.71</ele>
        <time>2019-02-16T13:33:14Z</time>
      </trkpt>
      <trkpt lat="48.83975" lon="2.37424">
        <ele>36.19</ele>
        <time>2019-02-16T13:33:15Z</time>
      </trkpt>
      <trkpt lat="48.83974" lon="2.37425">
        <ele>36.19</ele>
        <time>2019-02-16T13:33:16Z</time>
      </trkpt>
      <trkpt lat="48.83966" lon="2.37433">
        <ele>35.71</ele>
        <time>2019-02-16T13:33:25Z</time>
      </trkpt>
      <trkpt lat="48.83964" lon="2.37437">
        <ele>35.71</ele>
        <time>2019-02-16T13:33:30Z</time>
      </trkpt>
      <trkpt lat="48.83963" lon="2.37438">
        <ele>35.71</ele>
        <time>2019-02-16T13:33:31Z</time>
      </trkpt>
      <trkpt lat="48.83958" lon="2.37444">
        <ele>36.19</ele>
        <time>2019-02-16T13:33:39Z</time>
      </trkpt>
      <trkpt lat="48.83957" lon="2.37445">
        <ele>36.19</ele>
        <time>2019-02-16T13:33:40Z</time>
      </trkpt>
      <trkpt lat="48.83955" lon="2.37447">
        <ele>35.71</ele>
        <time>2019-02-16T13:33:44Z</time>
      </trkpt>
      <trkpt lat="48.83954" lon="2.37449">
        <ele>36.19</ele>
        <time>2019-02-16T13:33:45Z</time>
      </trkpt>
      <trkpt lat="48.83954" lon="2.37451">
        <ele>36.19</ele>
        <time>2019-02-16T13:33:46Z</time>
      </trkpt>
      <trkpt lat="48.83947" lon="2.37458">
        <ele>37.15</ele>
        <time>2019-02-16T13:33:57Z</time>
      </trkpt>
      <trkpt lat="48.83939" lon="2.37471">
        <ele>38.11</ele>
        <time>2019-02-16T13:34:12Z</time>
      </trkpt>
      <trkpt lat="48.83931" lon="2.37478">
        <ele>39.55</ele>
        <time>2019-02-16T13:34:25Z</time>
      </trkpt>
      <trkpt lat="48.83923" lon="2.3748">
        <ele>40.03</ele>
        <time>2019-02-16T13:34:30Z</time>
      </trkpt>
      <trkpt lat="48.83921" lon="2.37481">
        <ele>39.55</ele>
        <time>2019-02-16T13:34:31Z</time>
      </trkpt>
      <trkpt lat="48.83918" lon="2.37482">
        <ele>39.55</ele>
        <time>2019-02-16T13:34:33Z</time>
      </trkpt>
      <trkpt lat="48.83914" lon="2.37483">
        <ele>39.55</ele>
        <time>2019-02-16T13:34:44Z</time>
      </trkpt>
      <trkpt lat="48.83911" lon="2.3749">
        <ele>40.03</ele>
        <time>2019-02-16T13:34:49Z</time>
      </trkpt>
      <trkpt lat="48.83897" lon="2.37514">
        <ele>41.47</ele>
        <time>2019-02-16T13:35:05Z</time>
      </trkpt>
      <trkpt lat="48.83888" lon="2.37532">
        <ele>40.03</ele>
        <time>2019-02-16T13:35:17Z</time>
      </trkpt>
      <trkpt lat="48.8388" lon="2.37542">
        <ele>40.51</ele>
        <time>2019-02-16T13:35:26Z</time>
      </trkpt>
      <trkpt lat="48.83879" lon="2.37543">
        <ele>40.51</ele>
        <time>2019-02-16T13:35:27Z</time>
      </trkpt>
      <trkpt lat="48.83878" lon="2.37544">
        <ele>40.51</ele>
        <time>2019-02-16T13:35:28Z</time>
      </trkpt>
      <trkpt lat="48.83872" lon="2.37553">
        <ele>40.51</ele>
        <time>2019-02-16T13:35:37Z</time>
      </trkpt>
      <trkpt lat="48.83871" lon="2.37554">
        <ele>41.47</ele>
        <time>2019-02-16T13:35:38Z</time>
      </trkpt>
      <trkpt lat="48.83868" lon="2.37551">
        <ele>41.47</ele>
        <time>2019-02-16T13:35:44Z</time>
      </trkpt>
      <trkpt lat="48.83867" lon="2.37549">
        <ele>41.47</ele>
        <time>2019-02-16T13:35:45Z</time>
      </trkpt>
      <trkpt lat="48.83866" lon="2.37547">
        <ele>40.99</ele>
        <time>2019-02-16T13:35:46Z</time>
      </trkpt>
      <trkpt lat="48.83862" lon="2.3754">
        <ele>41.47</ele>
        <time>2019-02-16T13:35:53Z</time>
      </trkpt>
      <trkpt lat="48.83852" lon="2.37527">
        <ele>41.47</ele>
        <time>2019-02-16T13:36:06Z</time>
      </trkpt>
      <trkpt lat="48.83841" lon="2.37509">
        <ele>41.47</ele>
        <time>2019-02-16T13:36:20Z</time>
      </trkpt>
      <trkpt lat="48.8383" lon="2.37491">
        <ele>41.95</ele>
        <time>2019-02-16T13:36:32Z</time>
      </trkpt>
      <trkpt lat="48.83822" lon="2.37477">
        <ele>42.44</ele>
        <time>2019-02-16T13:36:45Z</time>
      </trkpt>
      <trkpt lat="48.83819" lon="2.37472">
        <ele>42.44</ele>
        <time>2019-02-16T13:36:49Z</time>
      </trkpt>
      <trkpt lat="48.83819" lon="2.37471">
        <ele>42.44</ele>
        <time>2019-02-16T13:36:50Z</time>
      </trkpt>
      <trkpt lat="48.83814" lon="2.37459">
        <ele>42.44</ele>
        <time>2019-02-16T13:37:00Z</time>
      </trkpt>
      <trkpt lat="48.83814" lon="2.37457">
        <ele>42.92</ele>
        <time>2019-02-16T13:37:01Z</time>
      </trkpt>
      <trkpt lat="48.83813" lon="2.37455">
        <ele>42.44</ele>
        <time>2019-02-16T13:37:02Z</time>
      </trkpt>
      <trkpt lat="48.83812" lon="2.37454">
        <ele>42.44</ele>
        <time>2019-02-16T13:37:03Z</time>
      </trkpt>
      <trkpt lat="48.83811" lon="2.37453">
        <ele>42.44</ele>
        <time>2019-02-16T13:37:04Z</time>
      </trkpt>
      <trkpt lat="48.83801" lon="2.3744">
        <ele>41.95</ele>
        <time>2019-02-16T13:37:15Z</time>
      </trkpt>
      <trkpt lat="48.8379" lon="2.3742">
        <ele>41.47</ele>
        <time>2019-02-16T13:37:28Z</time>
      </trkpt>
      <trkpt lat="48.83788" lon="2.37415">
        <ele>41.47</ele>
        <time>2019-02-16T13:37:34Z</time>
      </trkpt>
      <trkpt lat="48.83787" lon="2.37413">
        <ele>41.95</ele>
        <time>2019-02-16T13:37:35Z</time>
      </trkpt>
      <trkpt lat="48.83786" lon="2.37411">
        <ele>41.95</ele>
        <time>2019-02-16T13:37:36Z</time>
      </trkpt>
      <trkpt lat="48.83783" lon="2.37405">
        <ele>41.47</ele>
        <time>2019-02-16T13:37:41Z</time>
      </trkpt>
      <trkpt lat="48.83774" lon="2.37393">
        <ele>41.47</ele>
        <time>2019-02-16T13:37:52Z</time>
      </trkpt>
      <trkpt lat="48.83773" lon="2.3739">
        <ele>41.47</ele>
        <time>2019-02-16T13:37:56Z</time>
      </trkpt>
      <trkpt lat="48.83774" lon="2.37388">
        <ele>41.47</ele>
        <time>2019-02-16T13:37:57Z</time>
      </trkpt>
      <trkpt lat="48.83774" lon="2.37386">
        <ele>40.99</ele>
        <time>2019-02-16T13:37:58Z</time>
      </trkpt>
      <trkpt lat="48.83778" lon="2.3738">
        <ele>38.59</ele>
        <time>2019-02-16T13:38:08Z</time>
      </trkpt>
      <trkpt lat="48.83782" lon="2.37378">
        <ele>36.67</ele>
        <time>2019-02-16T13:38:13Z</time>
      </trkpt>
      <trkpt lat="48.83783" lon="2.37379">
        <ele>36.19</ele>
        <time>2019-02-16T13:38:14Z</time>
      </trkpt>
      <trkpt lat="48.83782" lon="2.37388">
        <ele>35.71</ele>
        <time>2019-02-16T13:38:25Z</time>
      </trkpt>
      <trkpt lat="48.83784" lon="2.37398">
        <ele>35.71</ele>
        <time>2019-02-16T13:38:40Z</time>
      </trkpt>
      <trkpt lat="48.83736" lon="2.37436">
        <ele>35.71</ele>
        <time>2019-02-16T13:39:03Z</time>
      </trkpt>
      <trkpt lat="48.83735" lon="2.37435">
        <ele>35.71</ele>
        <time>2019-02-16T13:39:07Z</time>
      </trkpt>
      <trkpt lat="48.8373" lon="2.37438">
        <ele>35.71</ele>
        <time>2019-02-16T13:39:18Z</time>
      </trkpt>
      <trkpt lat="48.83727" lon="2.3744">
        <ele>36.19</ele>
        <time>2019-02-16T13:39:23Z</time>
      </trkpt>
      <trkpt lat="48.83724" lon="2.37445">
        <ele>35.71</ele>
        <time>2019-02-16T13:39:29Z</time>
      </trkpt>
      <trkpt lat="48.83718" lon="2.37455">
        <ele>36.19</ele>
        <time>2019-02-16T13:39:43Z</time>
      </trkpt>
      <trkpt lat="48.83704" lon="2.37469">
        <ele>36.19</ele>
        <time>2019-02-16T13:39:57Z</time>
      </trkpt>
      <trkpt lat="48.83702" lon="2.37471">
        <ele>36.19</ele>
        <time>2019-02-16T13:39:59Z</time>
      </trkpt>
      <trkpt lat="48.837" lon="2.3748">
        <ele>37.15</ele>
        <time>2019-02-16T13:40:14Z</time>
      </trkpt>
      <trkpt lat="48.83697" lon="2.3748">
        <ele>37.15</ele>
        <time>2019-02-16T13:40:40Z</time>
      </trkpt>
      <trkpt lat="48.83687" lon="2.37498">
        <ele>36.67</ele>
        <time>2019-02-16T13:40:52Z</time>
      </trkpt>
      <trkpt lat="48.83679" lon="2.37504">
        <ele>36.67</ele>
        <time>2019-02-16T13:41:11Z</time>
      </trkpt>
      <trkpt lat="48.83665" lon="2.37518">
        <ele>37.15</ele>
        <time>2019-02-16T13:41:30Z</time>
      </trkpt>
      <trkpt lat="48.83655" lon="2.37529">
        <ele>36.67</ele>
        <time>2019-02-16T13:41:45Z</time>
      </trkpt>
      <trkpt lat="48.83654" lon="2.37532">
        <ele>36.67</ele>
        <time>2019-02-16T13:41:47Z</time>
      </trkpt>
      <trkpt lat="48.83639" lon="2.37549">
        <ele>36.67</ele>
        <time>2019-02-16T13:42:05Z</time>
      </trkpt>
      <trkpt lat="48.83625" lon="2.37565">
        <ele>37.63</ele>
        <time>2019-02-16T13:42:21Z</time>
      </trkpt>
      <trkpt lat="48.8361" lon="2.37582">
        <ele>36.67</ele>
        <time>2019-02-16T13:42:40Z</time>
      </trkpt>
      <trkpt lat="48.83596" lon="2.37597">
        <ele>37.15</ele>
        <time>2019-02-16T13:42:59Z</time>
      </trkpt>
      <trkpt lat="48.83583" lon="2.3761">
        <ele>37.63</ele>
        <time>2019-02-16T13:43:14Z</time>
      </trkpt>
      <trkpt lat="48.83561" lon="2.3763">
        <ele>37.15</ele>
        <time>2019-02-16T13:43:37Z</time>
      </trkpt>
      <trkpt lat="48.83546" lon="2.37646">
        <ele>37.63</ele>
        <time>2019-02-16T13:43:56Z</time>
      </trkpt>
      <trkpt lat="48.83534" lon="2.37659">
        <ele>37.63</ele>
        <time>2019-02-16T13:44:12Z</time>
      </trkpt>
      <trkpt lat="48.83529" lon="2.37665">
        <ele>38.11</ele>
        <time>2019-02-16T13:44:19Z</time>
      </trkpt>
      <trkpt lat="48.8351" lon="2.37685">
        <ele>37.63</ele>
        <time>2019-02-16T13:44:38Z</time>
      </trkpt>
      <trkpt lat="48.83493" lon="2.37707">
        <ele>37.15</ele>
        <time>2019-02-16T13:44:57Z</time>
      </trkpt>
      <trkpt lat="48.83478" lon="2.37725">
        <ele>37.63</ele>
        <time>2019-02-16T13:45:17Z</time>
      </trkpt>
      <trkpt lat="48.83466" lon="2.37743">
        <ele>37.63</ele>
        <time>2019-02-16T13:45:35Z</time>
      </trkpt>
      <trkpt lat="48.83454" lon="2.37757">
        <ele>37.63</ele>
        <time>2019-02-16T13:45:52Z</time>
      </trkpt>
      <trkpt lat="48.83453" lon="2.37755">
        <ele>37.15</ele>
        <time>2019-02-16T13:46:02Z</time>
      </trkpt>
      <trkpt lat="48.83451" lon="2.37755">
        <ele>37.63</ele>
        <time>2019-02-16T13:46:03Z</time>
      </trkpt>
      <trkpt lat="48.83439" lon="2.37755">
        <ele>37.63</ele>
        <time>2019-02-16T13:46:15Z</time>
      </trkpt>
      <trkpt lat="48.83418" lon="2.37764">
        <ele>38.59</ele>
        <time>2019-02-16T13:46:33Z</time>
      </trkpt>
      <trkpt lat="48.83415" lon="2.37767">
        <ele>38.59</ele>
        <time>2019-02-16T13:46:46Z</time>
      </trkpt>
      <trkpt lat="48.83402" lon="2.37786">
        <ele>39.55</ele>
        <time>2019-02-16T13:47:02Z</time>
      </trkpt>
      <trkpt lat="48.83398" lon="2.37795">
        <ele>39.07</ele>
        <time>2019-02-16T13:47:09Z</time>
      </trkpt>
      <trkpt lat="48.83397" lon="2.37802">
        <ele>38.11</ele>
        <time>2019-02-16T13:47:17Z</time>
      </trkpt>
      <trkpt lat="48.83386" lon="2.37811">
        <ele>37.63</ele>
        <time>2019-02-16T13:47:29Z</time>
      </trkpt>
      <trkpt lat="48.83371" lon="2.3783">
        <ele>37.15</ele>
        <time>2019-02-16T13:47:45Z</time>
      </trkpt>
      <trkpt lat="48.83358" lon="2.37846">
        <ele>37.15</ele>
        <time>2019-02-16T13:47:59Z</time>
      </trkpt>
      <trkpt lat="48.83348" lon="2.37863">
        <ele>37.63</ele>
        <time>2019-02-16T13:48:13Z</time>
      </trkpt>
      <trkpt lat="48.83333" lon="2.37883">
        <ele>37.63</ele>
        <time>2019-02-16T13:48:29Z</time>
      </trkpt>
      <trkpt lat="48.83325" lon="2.37904">
        <ele>37.63</ele>
        <time>2019-02-16T13:48:45Z</time>
      </trkpt>
      <trkpt lat="48.83324" lon="2.37912">
        <ele>37.63</ele>
        <time>2019-02-16T13:48:50Z</time>
      </trkpt>
      <trkpt lat="48.83325" lon="2.3792">
        <ele>37.15</ele>
        <time>2019-02-16T13:48:55Z</time>
      </trkpt>
      <trkpt lat="48.83328" lon="2.37928">
        <ele>37.15</ele>
        <time>2019-02-16T13:49:09Z</time>
      </trkpt>
      <trkpt lat="48.83329" lon="2.37931">
        <ele>37.15</ele>
        <time>2019-02-16T13:49:30Z</time>
      </trkpt>
      <trkpt lat="48.83326" lon="2.37933">
        <ele>37.15</ele>
        <time>2019-02-16T13:49:33Z</time>
      </trkpt>
      <trkpt lat="48.83315" lon="2.37943">
        <ele>37.15</ele>
        <time>2019-02-16T13:49:45Z</time>
      </trkpt>
      <trkpt lat="48.83305" lon="2.3795">
        <ele>37.15</ele>
        <time>2019-02-16T13:49:57Z</time>
      </trkpt>
      <trkpt lat="48.83302" lon="2.37955">
        <ele>36.19</ele>
        <time>2019-02-16T13:50:02Z</time>
      </trkpt>
      <trkpt lat="48.8333" lon="2.37929">
        <ele>41.47</ele>
        <time>2019-02-16T14:15:52Z</time>
      </trkpt>
      <trkpt lat="48.83317" lon="2.37967">
        <ele>40.03</ele>
        <time>2019-02-16T14:16:07Z</time>
      </trkpt>
      <trkpt lat="48.83315" lon="2.37967">
        <ele>37.15</ele>
        <time>2019-02-16T14:16:19Z</time>
      </trkpt>
      <trkpt lat="48.83314" lon="2.37968">
        <ele>35.23</ele>
        <time>2019-02-16T14:16:37Z</time>
      </trkpt>
      <trkpt lat="48.83305" lon="2.37969">
        <ele>32.34</ele>
        <time>2019-02-16T14:16:50Z</time>
      </trkpt>
      <trkpt lat="48.83305" lon="2.37968">
        <ele>30.42</ele>
        <time>2019-02-16T14:17:00Z</time>
      </trkpt>
      <trkpt lat="48.83296" lon="2.37962">
        <ele>29.94</ele>
        <time>2019-02-16T14:17:12Z</time>
      </trkpt>
      <trkpt lat="48.83295" lon="2.37965">
        <ele>30.42</ele>
        <time>2019-02-16T14:17:26Z</time>
      </trkpt>
      <trkpt lat="48.83294" lon="2.37965">
        <ele>30.42</ele>
        <time>2019-02-16T14:17:30Z</time>
      </trkpt>
      <trkpt lat="48.8329" lon="2.37968">
        <ele>30.42</ele>
        <time>2019-02-16T14:17:40Z</time>
      </trkpt>
      <trkpt lat="48.8329" lon="2.37966">
        <ele>30.42</ele>
        <time>2019-02-16T14:17:56Z</time>
      </trkpt>
      <trkpt lat="48.83286" lon="2.37961">
        <ele>30.42</ele>
        <time>2019-02-16T14:18:06Z</time>
      </trkpt>
      <trkpt lat="48.8328" lon="2.37961">
        <ele>30.42</ele>
        <time>2019-02-16T14:18:12Z</time>
      </trkpt>
      <trkpt lat="48.83277" lon="2.37962">
        <ele>30.42</ele>
        <time>2019-02-16T14:18:15Z</time>
      </trkpt>
      <trkpt lat="48.83272" lon="2.37964">
        <ele>29.94</ele>
        <time>2019-02-16T14:18:21Z</time>
      </trkpt>
      <trkpt lat="48.83269" lon="2.37963">
        <ele>30.42</ele>
        <time>2019-02-16T14:18:24Z</time>
      </trkpt>
      <trkpt lat="48.83259" lon="2.37968">
        <ele>30.42</ele>
        <time>2019-02-16T14:18:35Z</time>
      </trkpt>
      <trkpt lat="48.83259" lon="2.37969">
        <ele>30.42</ele>
        <time>2019-02-16T14:18:36Z</time>
      </trkpt>
      <trkpt lat="48.83258" lon="2.3797">
        <ele>30.42</ele>
        <time>2019-02-16T14:18:37Z</time>
      </trkpt>
      <trkpt lat="48.83258" lon="2.3797">
        <ele>32.82</ele>
        <time>2019-02-16T14:18:45Z</time>
      </trkpt>
      <trkpt lat="48.83251" lon="2.37975">
        <ele>34.26</ele>
        <time>2019-02-16T14:18:53Z</time>
      </trkpt>
      <trkpt lat="48.83248" lon="2.37976">
        <ele>34.26</ele>
        <time>2019-02-16T14:18:54Z</time>
      </trkpt>
      <trkpt lat="48.83246" lon="2.37977">
        <ele>35.23</ele>
        <time>2019-02-16T14:18:55Z</time>
      </trkpt>
      <trkpt lat="48.83244" lon="2.3798">
        <ele>36.19</ele>
        <time>2019-02-16T14:18:57Z</time>
      </trkpt>
      <trkpt lat="48.83241" lon="2.37985">
        <ele>35.71</ele>
        <time>2019-02-16T14:19:02Z</time>
      </trkpt>
      <trkpt lat="48.83241" lon="2.37989">
        <ele>36.19</ele>
        <time>2019-02-16T14:19:03Z</time>
      </trkpt>
      <trkpt lat="48.83242" lon="2.37999">
        <ele>37.15</ele>
        <time>2019-02-16T14:19:11Z</time>
      </trkpt>
      <trkpt lat="48.83242" lon="2.38004">
        <ele>36.19</ele>
        <time>2019-02-16T14:19:19Z</time>
      </trkpt>
      <trkpt lat="48.83242" lon="2.3801">
        <ele>36.19</ele>
        <time>2019-02-16T14:19:25Z</time>
      </trkpt>
      <trkpt lat="48.83252" lon="2.38022">
        <ele>36.67</ele>
        <time>2019-02-16T14:19:38Z</time>
      </trkpt>
      <trkpt lat="48.83262" lon="2.38041">
        <ele>36.67</ele>
        <time>2019-02-16T14:19:51Z</time>
      </trkpt>
      <trkpt lat="48.83263" lon="2.38043">
        <ele>36.67</ele>
        <time>2019-02-16T14:19:53Z</time>
      </trkpt>
      <trkpt lat="48.83276" lon="2.38064">
        <ele>37.15</ele>
        <time>2019-02-16T14:20:06Z</time>
      </trkpt>
      <trkpt lat="48.83286" lon="2.38075">
        <ele>37.63</ele>
        <time>2019-02-16T14:20:19Z</time>
      </trkpt>
      <trkpt lat="48.83286" lon="2.38075">
        <ele>37.63</ele>
        <time>2019-02-16T14:20:33Z</time>
      </trkpt>
      <trkpt lat="48.83288" lon="2.38075">
        <ele>38.59</ele>
        <time>2019-02-16T14:20:48Z</time>
      </trkpt>
      <trkpt lat="48.83292" lon="2.38082">
        <ele>37.63</ele>
        <time>2019-02-16T14:21:00Z</time>
      </trkpt>
      <trkpt lat="48.83299" lon="2.38101">
        <ele>37.63</ele>
        <time>2019-02-16T14:21:14Z</time>
      </trkpt>
      <trkpt lat="48.83311" lon="2.3812">
        <ele>37.63</ele>
        <time>2019-02-16T14:21:28Z</time>
      </trkpt>
      <trkpt lat="48.83322" lon="2.38141">
        <ele>38.11</ele>
        <time>2019-02-16T14:21:43Z</time>
      </trkpt>
      <trkpt lat="48.8333" lon="2.38155">
        <ele>37.15</ele>
        <time>2019-02-16T14:21:57Z</time>
      </trkpt>
      <trkpt lat="48.83339" lon="2.38173">
        <ele>37.15</ele>
        <time>2019-02-16T14:22:11Z</time>
      </trkpt>
      <trkpt lat="48.8335" lon="2.38192">
        <ele>37.15</ele>
        <time>2019-02-16T14:22:22Z</time>
      </trkpt>
      <trkpt lat="48.83356" lon="2.38199">
        <ele>36.67</ele>
        <time>2019-02-16T14:22:34Z</time>
      </trkpt>
      <trkpt lat="48.83366" lon="2.38214">
        <ele>37.15</ele>
        <time>2019-02-16T14:22:46Z</time>
      </trkpt>
      <trkpt lat="48.83375" lon="2.3823">
        <ele>36.67</ele>
        <time>2019-02-16T14:22:59Z</time>
      </trkpt>
      <trkpt lat="48.83376" lon="2.38232">
        <ele>36.67</ele>
        <time>2019-02-16T14:23:02Z</time>
      </trkpt>
      <trkpt lat="48.83377" lon="2.38234">
        <ele>37.15</ele>
        <time>2019-02-16T14:23:03Z</time>
      </trkpt>
      <trkpt lat="48.83378" lon="2.38236">
        <ele>36.67</ele>
        <time>2019-02-16T14:23:04Z</time>
      </trkpt>
      <trkpt lat="48.83379" lon="2.3824">
        <ele>36.67</ele>
        <time>2019-02-16T14:23:08Z</time>
      </trkpt>
      <trkpt lat="48.83377" lon="2.38244">
        <ele>36.19</ele>
        <time>2019-02-16T14:23:19Z</time>
      </trkpt>
      <trkpt lat="48.83376" lon="2.38246">
        <ele>36.19</ele>
        <time>2019-02-16T14:23:21Z</time>
      </trkpt>
      <trkpt lat="48.83375" lon="2.38248">
        <ele>36.67</ele>
        <time>2019-02-16T14:23:22Z</time>
      </trkpt>
      <trkpt lat="48.83374" lon="2.38251">
        <ele>36.67</ele>
        <time>2019-02-16T14:23:23Z</time>
      </trkpt>
      <trkpt lat="48.83374" lon="2.38256">
        <ele>36.19</ele>
        <time>2019-02-16T14:23:24Z</time>
      </trkpt>
      <trkpt lat="48.83373" lon="2.3826">
        <ele>36.19</ele>
        <time>2019-02-16T14:23:25Z</time>
      </trkpt>
      <trkpt lat="48.83373" lon="2.38264">
        <ele>35.71</ele>
        <time>2019-02-16T14:23:26Z</time>
      </trkpt>
      <trkpt lat="48.83373" lon="2.38267">
        <ele>36.19</ele>
        <time>2019-02-16T14:23:27Z</time>
      </trkpt>
      <trkpt lat="48.83374" lon="2.38279">
        <ele>35.71</ele>
        <time>2019-02-16T14:23:31Z</time>
      </trkpt>
      <trkpt lat="48.83384" lon="2.38296">
        <ele>35.23</ele>
        <time>2019-02-16T14:23:42Z</time>
      </trkpt>
      <trkpt lat="48.8339" lon="2.38304">
        <ele>35.71</ele>
        <time>2019-02-16T14:23:58Z</time>
      </trkpt>
      <trkpt lat="48.83385" lon="2.38312">
        <ele>32.82</ele>
        <time>2019-02-16T14:24:12Z</time>
      </trkpt>
      <trkpt lat="48.83384" lon="2.38325">
        <ele>33.3</ele>
        <time>2019-02-16T14:24:22Z</time>
      </trkpt>
      <trkpt lat="48.83387" lon="2.38331">
        <ele>31.86</ele>
        <time>2019-02-16T14:24:26Z</time>
      </trkpt>
      <trkpt lat="48.8339" lon="2.38352">
        <ele>32.82</ele>
        <time>2019-02-16T14:24:41Z</time>
      </trkpt>
      <trkpt lat="48.83389" lon="2.3836">
        <ele>32.34</ele>
        <time>2019-02-16T14:24:55Z</time>
      </trkpt>
      <trkpt lat="48.83392" lon="2.38373">
        <ele>33.3</ele>
        <time>2019-02-16T14:25:13Z</time>
      </trkpt>
      <trkpt lat="48.83386" lon="2.38379">
        <ele>32.82</ele>
        <time>2019-02-16T14:25:28Z</time>
      </trkpt>
      <trkpt lat="48.83391" lon="2.3839">
        <ele>32.82</ele>
        <time>2019-02-16T14:25:39Z</time>
      </trkpt>
      <trkpt lat="48.83394" lon="2.38396">
        <ele>32.82</ele>
        <time>2019-02-16T14:25:45Z</time>
      </trkpt>
      <trkpt lat="48.83387" lon="2.38408">
        <ele>33.3</ele>
        <time>2019-02-16T14:25:57Z</time>
      </trkpt>
      <trkpt lat="48.83373" lon="2.38424">
        <ele>33.3</ele>
        <time>2019-02-16T14:26:13Z</time>
      </trkpt>
      <trkpt lat="48.83368" lon="2.38432">
        <ele>33.3</ele>
        <time>2019-02-16T14:26:24Z</time>
      </trkpt>
      <trkpt lat="48.83367" lon="2.38432">
        <ele>33.3</ele>
        <time>2019-02-16T14:26:25Z</time>
      </trkpt>
      <trkpt lat="48.83359" lon="2.38431">
        <ele>33.3</ele>
        <time>2019-02-16T14:26:33Z</time>
      </trkpt>
      <trkpt lat="48.8334" lon="2.38434">
        <ele>33.3</ele>
        <time>2019-02-16T14:26:49Z</time>
      </trkpt>
      <trkpt lat="48.83334" lon="2.38439">
        <ele>33.3</ele>
        <time>2019-02-16T14:27:01Z</time>
      </trkpt>
      <trkpt lat="48.83327" lon="2.3845">
        <ele>33.3</ele>
        <time>2019-02-16T14:27:13Z</time>
      </trkpt>
      <trkpt lat="48.83327" lon="2.3845">
        <ele>33.3</ele>
        <time>2019-02-16T14:27:14Z</time>
      </trkpt>
      <trkpt lat="48.83322" lon="2.38465">
        <ele>33.3</ele>
        <time>2019-02-16T14:27:25Z</time>
      </trkpt>
      <trkpt lat="48.83325" lon="2.38474">
        <ele>33.3</ele>
        <time>2019-02-16T14:27:32Z</time>
      </trkpt>
      <trkpt lat="48.83333" lon="2.38498">
        <ele>33.3</ele>
        <time>2019-02-16T14:27:45Z</time>
      </trkpt>
      <trkpt lat="48.83335" lon="2.38503">
        <ele>33.78</ele>
        <time>2019-02-16T14:27:49Z</time>
      </trkpt>
      <trkpt lat="48.83341" lon="2.38517">
        <ele>33.78</ele>
        <time>2019-02-16T14:27:59Z</time>
      </trkpt>
      <trkpt lat="48.83341" lon="2.38517">
        <ele>33.78</ele>
        <time>2019-02-16T14:28:00Z</time>
      </trkpt>
      <trkpt lat="48.83342" lon="2.38518">
        <ele>33.3</ele>
        <time>2019-02-16T14:28:01Z</time>
      </trkpt>
      <trkpt lat="48.83342" lon="2.38521">
        <ele>33.3</ele>
        <time>2019-02-16T14:28:02Z</time>
      </trkpt>
      <trkpt lat="48.83341" lon="2.38524">
        <ele>33.3</ele>
        <time>2019-02-16T14:28:06Z</time>
      </trkpt>
      <trkpt lat="48.83336" lon="2.3853">
        <ele>33.78</ele>
        <time>2019-02-16T14:28:15Z</time>
      </trkpt>
      <trkpt lat="48.83334" lon="2.38538">
        <ele>33.78</ele>
        <time>2019-02-16T14:28:26Z</time>
      </trkpt>
      <trkpt lat="48.83334" lon="2.38551">
        <ele>33.78</ele>
        <time>2019-02-16T14:28:36Z</time>
      </trkpt>
      <trkpt lat="48.8333" lon="2.38558">
        <ele>33.78</ele>
        <time>2019-02-16T14:28:49Z</time>
      </trkpt>
      <trkpt lat="48.83329" lon="2.38559">
        <ele>33.78</ele>
        <time>2019-02-16T14:28:50Z</time>
      </trkpt>
      <trkpt lat="48.83324" lon="2.38568">
        <ele>34.26</ele>
        <time>2019-02-16T14:29:02Z</time>
      </trkpt>
      <trkpt lat="48.83318" lon="2.38566">
        <ele>34.26</ele>
        <time>2019-02-16T14:29:15Z</time>
      </trkpt>
      <trkpt lat="48.8332" lon="2.38569">
        <ele>34.26</ele>
        <time>2019-02-16T14:29:35Z</time>
      </trkpt>
      <trkpt lat="48.83322" lon="2.3857">
        <ele>33.78</ele>
        <time>2019-02-16T14:29:55Z</time>
      </trkpt>
      <trkpt lat="48.83326" lon="2.38576">
        <ele>34.74</ele>
        <time>2019-02-16T14:30:19Z</time>
      </trkpt>
      <trkpt lat="48.83308" lon="2.38576">
        <ele>35.23</ele>
        <time>2019-02-16T14:30:36Z</time>
      </trkpt>
      <trkpt lat="48.83305" lon="2.38586">
        <ele>35.71</ele>
        <time>2019-02-16T14:30:48Z</time>
      </trkpt>
      <trkpt lat="48.83293" lon="2.38605">
        <ele>35.71</ele>
        <time>2019-02-16T14:31:04Z</time>
      </trkpt>
      <trkpt lat="48.83289" lon="2.38617">
        <ele>36.67</ele>
        <time>2019-02-16T14:31:13Z</time>
      </trkpt>
      <trkpt lat="48.83289" lon="2.38619">
        <ele>35.71</ele>
        <time>2019-02-16T14:31:26Z</time>
      </trkpt>
      <trkpt lat="48.83288" lon="2.38619">
        <ele>37.15</ele>
        <time>2019-02-16T14:31:38Z</time>
      </trkpt>
      <trkpt lat="48.83287" lon="2.3862">
        <ele>37.15</ele>
        <time>2019-02-16T14:31:50Z</time>
      </trkpt>
      <trkpt lat="48.83286" lon="2.38618">
        <ele>36.67</ele>
        <time>2019-02-16T14:31:54Z</time>
      </trkpt>
      <trkpt lat="48.83291" lon="2.38622">
        <ele>36.19</ele>
        <time>2019-02-16T14:32:09Z</time>
      </trkpt>
      <trkpt lat="48.8329" lon="2.38625">
        <ele>36.67</ele>
        <time>2019-02-16T14:32:22Z</time>
      </trkpt>
      <trkpt lat="48.83288" lon="2.38626">
        <ele>36.67</ele>
        <time>2019-02-16T14:32:23Z</time>
      </trkpt>
      <trkpt lat="48.83283" lon="2.38636">
        <ele>37.15</ele>
        <time>2019-02-16T14:32:37Z</time>
      </trkpt>
      <trkpt lat="48.83281" lon="2.38645">
        <ele>36.67</ele>
        <time>2019-02-16T14:32:43Z</time>
      </trkpt>
      <trkpt lat="48.83276" lon="2.38651">
        <ele>37.15</ele>
        <time>2019-02-16T14:32:56Z</time>
      </trkpt>
      <trkpt lat="48.83271" lon="2.38665">
        <ele>36.19</ele>
        <time>2019-02-16T14:33:11Z</time>
      </trkpt>
      <trkpt lat="48.8327" lon="2.38672">
        <ele>37.15</ele>
        <time>2019-02-16T14:33:23Z</time>
      </trkpt>
      <trkpt lat="48.83266" lon="2.38682">
        <ele>37.15</ele>
        <time>2019-02-16T14:33:33Z</time>
      </trkpt>
      <trkpt lat="48.83263" lon="2.38689">
        <ele>37.15</ele>
        <time>2019-02-16T14:33:45Z</time>
      </trkpt>
      <trkpt lat="48.83261" lon="2.3869">
        <ele>36.67</ele>
        <time>2019-02-16T14:33:49Z</time>
      </trkpt>
      <trkpt lat="48.8326" lon="2.3869">
        <ele>37.15</ele>
        <time>2019-02-16T14:33:50Z</time>
      </trkpt>
      <trkpt lat="48.83255" lon="2.38694">
        <ele>36.67</ele>
        <time>2019-02-16T14:33:58Z</time>
      </trkpt>
      <trkpt lat="48.83245" lon="2.38715">
        <ele>36.67</ele>
        <time>2019-02-16T14:34:08Z</time>
      </trkpt>
      <trkpt lat="48.83231" lon="2.38737">
        <ele>37.15</ele>
        <time>2019-02-16T14:34:21Z</time>
      </trkpt>
      <trkpt lat="48.83223" lon="2.38754">
        <ele>37.15</ele>
        <time>2019-02-16T14:34:33Z</time>
      </trkpt>
      <trkpt lat="48.8322" lon="2.38758">
        <ele>37.15</ele>
        <time>2019-02-16T14:34:35Z</time>
      </trkpt>
      <trkpt lat="48.83216" lon="2.38761">
        <ele>37.15</ele>
        <time>2019-02-16T14:34:36Z</time>
      </trkpt>
      <trkpt lat="48.83212" lon="2.38764">
        <ele>37.15</ele>
        <time>2019-02-16T14:34:37Z</time>
      </trkpt>
      <trkpt lat="48.8321" lon="2.38766">
        <ele>37.63</ele>
        <time>2019-02-16T14:34:38Z</time>
      </trkpt>
      <trkpt lat="48.83207" lon="2.38769">
        <ele>36.67</ele>
        <time>2019-02-16T14:34:39Z</time>
      </trkpt>
      <trkpt lat="48.83203" lon="2.38774">
        <ele>37.15</ele>
        <time>2019-02-16T14:34:41Z</time>
      </trkpt>
      <trkpt lat="48.83201" lon="2.38776">
        <ele>37.63</ele>
        <time>2019-02-16T14:34:42Z</time>
      </trkpt>
      <trkpt lat="48.83188" lon="2.38786">
        <ele>37.63</ele>
        <time>2019-02-16T14:34:52Z</time>
      </trkpt>
      <trkpt lat="48.83187" lon="2.3879">
        <ele>40.03</ele>
        <time>2019-02-16T14:34:59Z</time>
      </trkpt>
      <trkpt lat="48.83191" lon="2.38787">
        <ele>42.92</ele>
        <time>2019-02-16T14:35:10Z</time>
      </trkpt>
      <trkpt lat="48.83196" lon="2.38794">
        <ele>44.84</ele>
        <time>2019-02-16T14:35:19Z</time>
      </trkpt>
      <trkpt lat="48.83196" lon="2.38796">
        <ele>45.32</ele>
        <time>2019-02-16T14:35:20Z</time>
      </trkpt>
      <trkpt lat="48.83196" lon="2.38807">
        <ele>45.32</ele>
        <time>2019-02-16T14:35:29Z</time>
      </trkpt>
      <trkpt lat="48.83196" lon="2.38809">
        <ele>45.32</ele>
        <time>2019-02-16T14:35:30Z</time>
      </trkpt>
      <trkpt lat="48.83195" lon="2.3881">
        <ele>45.8</ele>
        <time>2019-02-16T14:35:31Z</time>
      </trkpt>
      <trkpt lat="48.83196" lon="2.3882">
        <ele>45.8</ele>
        <time>2019-02-16T14:35:39Z</time>
      </trkpt>
      <trkpt lat="48.83197" lon="2.38826">
        <ele>45.8</ele>
        <time>2019-02-16T14:35:51Z</time>
      </trkpt>
      <trkpt lat="48.83193" lon="2.38823">
        <ele>46.28</ele>
        <time>2019-02-16T14:35:57Z</time>
      </trkpt>
      <trkpt lat="48.83192" lon="2.38822">
        <ele>46.28</ele>
        <time>2019-02-16T14:35:58Z</time>
      </trkpt>
      <trkpt lat="48.83191" lon="2.3882">
        <ele>46.28</ele>
        <time>2019-02-16T14:35:59Z</time>
      </trkpt>
      <trkpt lat="48.83189" lon="2.38818">
        <ele>46.28</ele>
        <time>2019-02-16T14:36:00Z</time>
      </trkpt>
      <trkpt lat="48.83183" lon="2.38812">
        <ele>46.28</ele>
        <time>2019-02-16T14:36:10Z</time>
      </trkpt>
      <trkpt lat="48.83178" lon="2.3881">
        <ele>46.28</ele>
        <time>2019-02-16T14:36:13Z</time>
      </trkpt>
      <trkpt lat="48.83176" lon="2.3881">
        <ele>46.28</ele>
        <time>2019-02-16T14:36:14Z</time>
      </trkpt>
      <trkpt lat="48.83168" lon="2.38798">
        <ele>46.76</ele>
        <time>2019-02-16T14:36:26Z</time>
      </trkpt>
      <trkpt lat="48.83166" lon="2.38791">
        <ele>46.76</ele>
        <time>2019-02-16T14:36:30Z</time>
      </trkpt>
      <trkpt lat="48.83166" lon="2.38789">
        <ele>46.76</ele>
        <time>2019-02-16T14:36:31Z</time>
      </trkpt>
      <trkpt lat="48.83165" lon="2.38786">
        <ele>46.76</ele>
        <time>2019-02-16T14:36:32Z</time>
      </trkpt>
      <trkpt lat="48.83164" lon="2.38784">
        <ele>47.24</ele>
        <time>2019-02-16T14:36:33Z</time>
      </trkpt>
      <trkpt lat="48.83163" lon="2.38783">
        <ele>46.76</ele>
        <time>2019-02-16T14:36:34Z</time>
      </trkpt>
      <trkpt lat="48.83162" lon="2.38783">
        <ele>46.76</ele>
        <time>2019-02-16T14:36:35Z</time>
      </trkpt>
      <trkpt lat="48.8316" lon="2.38776">
        <ele>47.24</ele>
        <time>2019-02-16T14:36:40Z</time>
      </trkpt>
      <trkpt lat="48.83159" lon="2.38774">
        <ele>46.76</ele>
        <time>2019-02-16T14:36:41Z</time>
      </trkpt>
      <trkpt lat="48.83157" lon="2.38773">
        <ele>46.76</ele>
        <time>2019-02-16T14:36:42Z</time>
      </trkpt>
      <trkpt lat="48.83156" lon="2.38771">
        <ele>47.24</ele>
        <time>2019-02-16T14:36:43Z</time>
      </trkpt>
      <trkpt lat="48.83143" lon="2.38754">
        <ele>47.24</ele>
        <time>2019-02-16T14:36:56Z</time>
      </trkpt>
      <trkpt lat="48.83134" lon="2.38735">
        <ele>47.72</ele>
        <time>2019-02-16T14:37:08Z</time>
      </trkpt>
      <trkpt lat="48.83122" lon="2.38712">
        <ele>47.72</ele>
        <time>2019-02-16T14:37:17Z</time>
      </trkpt>
      <trkpt lat="48.8312" lon="2.3871">
        <ele>48.2</ele>
        <time>2019-02-16T14:37:18Z</time>
      </trkpt>
      <trkpt lat="48.83106" lon="2.38697">
        <ele>47.72</ele>
        <time>2019-02-16T14:37:28Z</time>
      </trkpt>
      <trkpt lat="48.83105" lon="2.38694">
        <ele>48.2</ele>
        <time>2019-02-16T14:37:29Z</time>
      </trkpt>
      <trkpt lat="48.83103" lon="2.38693">
        <ele>48.2</ele>
        <time>2019-02-16T14:37:30Z</time>
      </trkpt>
      <trkpt lat="48.83082" lon="2.38682">
        <ele>49.16</ele>
        <time>2019-02-16T14:37:39Z</time>
      </trkpt>
      <trkpt lat="48.83067" lon="2.38666">
        <ele>48.2</ele>
        <time>2019-02-16T14:37:50Z</time>
      </trkpt>
      <trkpt lat="48.83069" lon="2.38656">
        <ele>45.32</ele>
        <time>2019-02-16T14:37:59Z</time>
      </trkpt>
      <trkpt lat="48.83068" lon="2.38655">
        <ele>42.92</ele>
        <time>2019-02-16T14:38:08Z</time>
      </trkpt>
      <trkpt lat="48.83067" lon="2.38658">
        <ele>42.44</ele>
        <time>2019-02-16T14:38:10Z</time>
      </trkpt>
      <trkpt lat="48.83065" lon="2.38661">
        <ele>42.44</ele>
        <time>2019-02-16T14:38:11Z</time>
      </trkpt>
      <trkpt lat="48.83063" lon="2.38663">
        <ele>42.44</ele>
        <time>2019-02-16T14:38:12Z</time>
      </trkpt>
      <trkpt lat="48.83049" lon="2.38673">
        <ele>42.44</ele>
        <time>2019-02-16T14:38:20Z</time>
      </trkpt>
      <trkpt lat="48.83031" lon="2.38688">
        <ele>42.44</ele>
        <time>2019-02-16T14:38:30Z</time>
      </trkpt>
      <trkpt lat="48.83029" lon="2.3869">
        <ele>41.95</ele>
        <time>2019-02-16T14:38:31Z</time>
      </trkpt>
      <trkpt lat="48.83027" lon="2.38693">
        <ele>42.44</ele>
        <time>2019-02-16T14:38:32Z</time>
      </trkpt>
      <trkpt lat="48.83008" lon="2.38711">
        <ele>42.92</ele>
        <time>2019-02-16T14:38:45Z</time>
      </trkpt>
      <trkpt lat="48.83011" lon="2.38717">
        <ele>42.44</ele>
        <time>2019-02-16T14:39:03Z</time>
      </trkpt>
      <trkpt lat="48.8301" lon="2.38718">
        <ele>42.44</ele>
        <time>2019-02-16T14:39:08Z</time>
      </trkpt>
      <trkpt lat="48.83009" lon="2.3872">
        <ele>42.44</ele>
        <time>2019-02-16T14:39:18Z</time>
      </trkpt>
      <trkpt lat="48.83007" lon="2.38719">
        <ele>45.8</ele>
        <time>2019-02-16T14:39:30Z</time>
      </trkpt>
      <trkpt lat="48.83008" lon="2.38718">
        <ele>48.2</ele>
        <time>2019-02-16T14:39:42Z</time>
      </trkpt>
      <trkpt lat="48.83005" lon="2.38717">
        <ele>49.16</ele>
        <time>2019-02-16T14:39:51Z</time>
      </trkpt>
      <trkpt lat="48.82991" lon="2.38716">
        <ele>48.68</ele>
        <time>2019-02-16T14:40:00Z</time>
      </trkpt>
      <trkpt lat="48.82976" lon="2.38728">
        <ele>48.68</ele>
        <time>2019-02-16T14:40:13Z</time>
      </trkpt>
      <trkpt lat="48.82963" lon="2.38739">
        <ele>47.72</ele>
        <time>2019-02-16T14:40:25Z</time>
      </trkpt>
      <trkpt lat="48.82948" lon="2.3876">
        <ele>47.72</ele>
        <time>2019-02-16T14:40:42Z</time>
      </trkpt>
      <trkpt lat="48.82944" lon="2.38773">
        <ele>47.72</ele>
        <time>2019-02-16T14:40:55Z</time>
      </trkpt>
      <trkpt lat="48.82944" lon="2.38774">
        <ele>47.72</ele>
        <time>2019-02-16T14:40:56Z</time>
      </trkpt>
      <trkpt lat="48.8294" lon="2.38788">
        <ele>47.72</ele>
        <time>2019-02-16T14:41:09Z</time>
      </trkpt>
      <trkpt lat="48.82936" lon="2.38802">
        <ele>47.72</ele>
        <time>2019-02-16T14:41:23Z</time>
      </trkpt>
      <trkpt lat="48.82913" lon="2.38828">
        <ele>47.72</ele>
        <time>2019-02-16T14:41:37Z</time>
      </trkpt>
      <trkpt lat="48.82897" lon="2.38846">
        <ele>48.68</ele>
        <time>2019-02-16T14:41:51Z</time>
      </trkpt>
      <trkpt lat="48.82894" lon="2.38851">
        <ele>48.2</ele>
        <time>2019-02-16T14:42:05Z</time>
      </trkpt>
      <trkpt lat="48.82893" lon="2.38853">
        <ele>48.2</ele>
        <time>2019-02-16T14:42:20Z</time>
      </trkpt>
      <trkpt lat="48.82889" lon="2.38851">
        <ele>48.2</ele>
        <time>2019-02-16T14:42:29Z</time>
      </trkpt>
      <trkpt lat="48.82879" lon="2.3884">
        <ele>49.16</ele>
        <time>2019-02-16T14:42:41Z</time>
      </trkpt>
      <trkpt lat="48.82874" lon="2.38839">
        <ele>48.68</ele>
        <time>2019-02-16T14:42:44Z</time>
      </trkpt>
      <trkpt lat="48.82872" lon="2.38835">
        <ele>48.68</ele>
        <time>2019-02-16T14:42:47Z</time>
      </trkpt>
      <trkpt lat="48.82869" lon="2.38829">
        <ele>49.16</ele>
        <time>2019-02-16T14:42:51Z</time>
      </trkpt>
      <trkpt lat="48.82861" lon="2.38813">
        <ele>49.16</ele>
        <time>2019-02-16T14:43:00Z</time>
      </trkpt>
      <trkpt lat="48.82855" lon="2.38802">
        <ele>49.16</ele>
        <time>2019-02-16T14:43:07Z</time>
      </trkpt>
      <trkpt lat="48.82848" lon="2.38788">
        <ele>48.68</ele>
        <time>2019-02-16T14:43:18Z</time>
      </trkpt>
      <trkpt lat="48.82844" lon="2.3878">
        <ele>49.16</ele>
        <time>2019-02-16T14:43:25Z</time>
      </trkpt>
      <trkpt lat="48.82837" lon="2.38767">
        <ele>48.68</ele>
        <time>2019-02-16T14:43:35Z</time>
      </trkpt>
      <trkpt lat="48.82833" lon="2.38759">
        <ele>48.68</ele>
        <time>2019-02-16T14:43:42Z</time>
      </trkpt>
      <trkpt lat="48.82831" lon="2.38754">
        <ele>49.16</ele>
        <time>2019-02-16T14:43:47Z</time>
      </trkpt>
      <trkpt lat="48.8283" lon="2.38752">
        <ele>49.16</ele>
        <time>2019-02-16T14:43:50Z</time>
      </trkpt>
      <trkpt lat="48.82824" lon="2.38733">
        <ele>48.68</ele>
        <time>2019-02-16T14:44:02Z</time>
      </trkpt>
      <trkpt lat="48.82823" lon="2.38729">
        <ele>48.68</ele>
        <time>2019-02-16T14:44:07Z</time>
      </trkpt>
      <trkpt lat="48.82811" lon="2.38706">
        <ele>48.68</ele>
        <time>2019-02-16T14:44:18Z</time>
      </trkpt>
      <trkpt lat="48.82802" lon="2.38691">
        <ele>48.68</ele>
        <time>2019-02-16T14:44:30Z</time>
      </trkpt>
      <trkpt lat="48.82796" lon="2.38678">
        <ele>48.68</ele>
        <time>2019-02-16T14:44:38Z</time>
      </trkpt>
      <trkpt lat="48.82786" lon="2.38657">
        <ele>48.68</ele>
        <time>2019-02-16T14:44:51Z</time>
      </trkpt>
      <trkpt lat="48.82779" lon="2.38644">
        <ele>48.68</ele>
        <time>2019-02-16T14:45:01Z</time>
      </trkpt>
      <trkpt lat="48.82778" lon="2.38641">
        <ele>48.2</ele>
        <time>2019-02-16T14:45:03Z</time>
      </trkpt>
      <trkpt lat="48.82776" lon="2.38636">
        <ele>48.68</ele>
        <time>2019-02-16T14:45:08Z</time>
      </trkpt>
      <trkpt lat="48.82768" lon="2.38624">
        <ele>48.68</ele>
        <time>2019-02-16T14:45:18Z</time>
      </trkpt>
      <trkpt lat="48.82768" lon="2.38623">
        <ele>48.68</ele>
        <time>2019-02-16T14:45:20Z</time>
      </trkpt>
      <trkpt lat="48.8276" lon="2.38607">
        <ele>48.68</ele>
        <time>2019-02-16T14:45:30Z</time>
      </trkpt>
      <trkpt lat="48.82756" lon="2.38595">
        <ele>48.68</ele>
        <time>2019-02-16T14:45:39Z</time>
      </trkpt>
      <trkpt lat="48.82751" lon="2.38586">
        <ele>48.2</ele>
        <time>2019-02-16T14:45:45Z</time>
      </trkpt>
      <trkpt lat="48.8275" lon="2.38582">
        <ele>48.2</ele>
        <time>2019-02-16T14:45:48Z</time>
      </trkpt>
      <trkpt lat="48.82747" lon="2.38576">
        <ele>48.68</ele>
        <time>2019-02-16T14:45:52Z</time>
      </trkpt>
      <trkpt lat="48.82744" lon="2.38574">
        <ele>49.16</ele>
        <time>2019-02-16T14:45:54Z</time>
      </trkpt>
      <trkpt lat="48.82733" lon="2.38549">
        <ele>49.16</ele>
        <time>2019-02-16T14:46:11Z</time>
      </trkpt>
      <trkpt lat="48.82727" lon="2.38537">
        <ele>48.68</ele>
        <time>2019-02-16T14:46:27Z</time>
      </trkpt>
      <trkpt lat="48.82726" lon="2.38535">
        <ele>48.68</ele>
        <time>2019-02-16T14:46:40Z</time>
      </trkpt>
      <trkpt lat="48.82725" lon="2.3853">
        <ele>47.72</ele>
        <time>2019-02-16T14:46:49Z</time>
      </trkpt>
      <trkpt lat="48.82718" lon="2.38536">
        <ele>48.2</ele>
        <time>2019-02-16T14:47:01Z</time>
      </trkpt>
      <trkpt lat="48.82716" lon="2.38538">
        <ele>48.2</ele>
        <time>2019-02-16T14:47:07Z</time>
      </trkpt>
      <trkpt lat="48.82705" lon="2.3855">
        <ele>48.2</ele>
        <time>2019-02-16T14:47:14Z</time>
      </trkpt>
      <trkpt lat="48.82703" lon="2.38551">
        <ele>47.72</ele>
        <time>2019-02-16T14:47:16Z</time>
      </trkpt>
      <trkpt lat="48.82696" lon="2.38544">
        <ele>48.68</ele>
        <time>2019-02-16T14:47:26Z</time>
      </trkpt>
      <trkpt lat="48.82687" lon="2.38524">
        <ele>48.2</ele>
        <time>2019-02-16T14:47:42Z</time>
      </trkpt>
      <trkpt lat="48.82686" lon="2.38524">
        <ele>47.72</ele>
        <time>2019-02-16T14:47:45Z</time>
      </trkpt>
      <trkpt lat="48.82686" lon="2.38524">
        <ele>48.2</ele>
        <time>2019-02-16T14:47:49Z</time>
      </trkpt>
      <trkpt lat="48.82683" lon="2.38509">
        <ele>48.2</ele>
        <time>2019-02-16T14:47:59Z</time>
      </trkpt>
      <trkpt lat="48.82672" lon="2.3849">
        <ele>48.68</ele>
        <time>2019-02-16T14:48:10Z</time>
      </trkpt>
      <trkpt lat="48.82683" lon="2.38516">
        <ele>48.2</ele>
        <time>2019-02-16T14:48:21Z</time>
      </trkpt>
      <trkpt lat="48.82683" lon="2.38521">
        <ele>48.2</ele>
        <time>2019-02-16T14:48:27Z</time>
      </trkpt>
      <trkpt lat="48.82677" lon="2.38527">
        <ele>48.68</ele>
        <time>2019-02-16T14:48:32Z</time>
      </trkpt>
      <trkpt lat="48.82683" lon="2.38549">
        <ele>46.76</ele>
        <time>2019-02-16T14:48:47Z</time>
      </trkpt>
      <trkpt lat="48.82688" lon="2.38556">
        <ele>43.88</ele>
        <time>2019-02-16T14:48:58Z</time>
      </trkpt>
      <trkpt lat="48.82689" lon="2.38561">
        <ele>43.88</ele>
        <time>2019-02-16T14:49:02Z</time>
      </trkpt>
      <trkpt lat="48.8269" lon="2.38566">
        <ele>41.95</ele>
        <time>2019-02-16T14:49:07Z</time>
      </trkpt>
      <trkpt lat="48.8269" lon="2.38569">
        <ele>40.99</ele>
        <time>2019-02-16T14:49:09Z</time>
      </trkpt>
      <trkpt lat="48.82693" lon="2.38584">
        <ele>40.51</ele>
        <time>2019-02-16T14:49:19Z</time>
      </trkpt>
      <trkpt lat="48.82693" lon="2.38586">
        <ele>40.99</ele>
        <time>2019-02-16T14:49:23Z</time>
      </trkpt>
      <trkpt lat="48.82701" lon="2.38597">
        <ele>41.47</ele>
        <time>2019-02-16T14:49:35Z</time>
      </trkpt>
      <trkpt lat="48.82697" lon="2.38606">
        <ele>40.99</ele>
        <time>2019-02-16T14:49:45Z</time>
      </trkpt>
      <trkpt lat="48.82696" lon="2.38608">
        <ele>40.51</ele>
        <time>2019-02-16T14:49:48Z</time>
      </trkpt>
      <trkpt lat="48.82692" lon="2.38613">
        <ele>40.99</ele>
        <time>2019-02-16T14:49:54Z</time>
      </trkpt>
      <trkpt lat="48.82686" lon="2.38624">
        <ele>40.99</ele>
        <time>2019-02-16T14:50:02Z</time>
      </trkpt>
      <trkpt lat="48.82684" lon="2.38627">
        <ele>40.03</ele>
        <time>2019-02-16T14:50:04Z</time>
      </trkpt>
      <trkpt lat="48.82681" lon="2.38635">
        <ele>40.99</ele>
        <time>2019-02-16T14:50:10Z</time>
      </trkpt>
      <trkpt lat="48.82675" lon="2.38645">
        <ele>40.99</ele>
        <time>2019-02-16T14:50:15Z</time>
      </trkpt>
      <trkpt lat="48.82665" lon="2.38652">
        <ele>40.51</ele>
        <time>2019-02-16T14:50:22Z</time>
      </trkpt>
      <trkpt lat="48.82653" lon="2.38655">
        <ele>40.99</ele>
        <time>2019-02-16T14:50:26Z</time>
      </trkpt>
      <trkpt lat="48.82635" lon="2.38664">
        <ele>40.51</ele>
        <time>2019-02-16T14:50:37Z</time>
      </trkpt>
      <trkpt lat="48.82628" lon="2.3867">
        <ele>40.51</ele>
        <time>2019-02-16T14:50:48Z</time>
      </trkpt>
      <trkpt lat="48.8262" lon="2.38687">
        <ele>41.47</ele>
        <time>2019-02-16T14:51:02Z</time>
      </trkpt>
      <trkpt lat="48.8262" lon="2.38689">
        <ele>40.99</ele>
        <time>2019-02-16T14:51:05Z</time>
      </trkpt>
      <trkpt lat="48.8262" lon="2.38691">
        <ele>40.51</ele>
        <time>2019-02-16T14:51:06Z</time>
      </trkpt>
      <trkpt lat="48.8262" lon="2.38693">
        <ele>40.51</ele>
        <time>2019-02-16T14:51:07Z</time>
      </trkpt>
      <trkpt lat="48.82621" lon="2.38697">
        <ele>40.51</ele>
        <time>2019-02-16T14:51:09Z</time>
      </trkpt>
      <trkpt lat="48.8262" lon="2.387">
        <ele>40.99</ele>
        <time>2019-02-16T14:51:10Z</time>
      </trkpt>
      <trkpt lat="48.82621" lon="2.38702">
        <ele>40.99</ele>
        <time>2019-02-16T14:51:11Z</time>
      </trkpt>
      <trkpt lat="48.82621" lon="2.38713">
        <ele>40.99</ele>
        <time>2019-02-16T14:51:17Z</time>
      </trkpt>
      <trkpt lat="48.82618" lon="2.38714">
        <ele>41.47</ele>
        <time>2019-02-16T14:51:25Z</time>
      </trkpt>
      <trkpt lat="48.82617" lon="2.38714">
        <ele>41.47</ele>
        <time>2019-02-16T14:51:26Z</time>
      </trkpt>
      <trkpt lat="48.82584" lon="2.38735">
        <ele>40.03</ele>
        <time>2019-02-16T14:51:42Z</time>
      </trkpt>
      <trkpt lat="48.8257" lon="2.38746">
        <ele>40.99</ele>
        <time>2019-02-16T14:51:56Z</time>
      </trkpt>
      <trkpt lat="48.82555" lon="2.38756">
        <ele>41.47</ele>
        <time>2019-02-16T14:52:09Z</time>
      </trkpt>
      <trkpt lat="48.82542" lon="2.38776">
        <ele>41.47</ele>
        <time>2019-02-16T14:52:22Z</time>
      </trkpt>
      <trkpt lat="48.82537" lon="2.38789">
        <ele>40.51</ele>
        <time>2019-02-16T14:52:35Z</time>
      </trkpt>
      <trkpt lat="48.82537" lon="2.3879">
        <ele>40.99</ele>
        <time>2019-02-16T14:52:36Z</time>
      </trkpt>
      <trkpt lat="48.82536" lon="2.38792">
        <ele>40.99</ele>
        <time>2019-02-16T14:52:37Z</time>
      </trkpt>
      <trkpt lat="48.82533" lon="2.38805">
        <ele>40.51</ele>
        <time>2019-02-16T14:52:48Z</time>
      </trkpt>
      <trkpt lat="48.8253" lon="2.38819">
        <ele>40.51</ele>
        <time>2019-02-16T14:52:57Z</time>
      </trkpt>
      <trkpt lat="48.82518" lon="2.3883">
        <ele>40.99</ele>
        <time>2019-02-16T14:53:12Z</time>
      </trkpt>
      <trkpt lat="48.8252" lon="2.38832">
        <ele>40.51</ele>
        <time>2019-02-16T14:53:26Z</time>
      </trkpt>
      <trkpt lat="48.8252" lon="2.38835">
        <ele>40.51</ele>
        <time>2019-02-16T14:53:28Z</time>
      </trkpt>
      <trkpt lat="48.82521" lon="2.38837">
        <ele>40.51</ele>
        <time>2019-02-16T14:53:29Z</time>
      </trkpt>
      <trkpt lat="48.82519" lon="2.3885">
        <ele>40.51</ele>
        <time>2019-02-16T14:53:35Z</time>
      </trkpt>
      <trkpt lat="48.82518" lon="2.38853">
        <ele>40.51</ele>
        <time>2019-02-16T14:53:36Z</time>
      </trkpt>
      <trkpt lat="48.82517" lon="2.38857">
        <ele>40.03</ele>
        <time>2019-02-16T14:53:37Z</time>
      </trkpt>
      <trkpt lat="48.82516" lon="2.38861">
        <ele>40.03</ele>
        <time>2019-02-16T14:53:38Z</time>
      </trkpt>
      <trkpt lat="48.82515" lon="2.38865">
        <ele>40.51</ele>
        <time>2019-02-16T14:53:39Z</time>
      </trkpt>
      <trkpt lat="48.82514" lon="2.38869">
        <ele>40.99</ele>
        <time>2019-02-16T14:53:40Z</time>
      </trkpt>
      <trkpt lat="48.82512" lon="2.38875">
        <ele>40.51</ele>
        <time>2019-02-16T14:53:42Z</time>
      </trkpt>
      <trkpt lat="48.8251" lon="2.38877">
        <ele>40.51</ele>
        <time>2019-02-16T14:53:43Z</time>
      </trkpt>
      <trkpt lat="48.82502" lon="2.38898">
        <ele>40.51</ele>
        <time>2019-02-16T14:53:55Z</time>
      </trkpt>
      <trkpt lat="48.82494" lon="2.38902">
        <ele>40.99</ele>
        <time>2019-02-16T14:54:02Z</time>
      </trkpt>
      <trkpt lat="48.82485" lon="2.38913">
        <ele>41.47</ele>
        <time>2019-02-16T14:54:10Z</time>
      </trkpt>
      <trkpt lat="48.82481" lon="2.38921">
        <ele>41.47</ele>
        <time>2019-02-16T14:54:15Z</time>
      </trkpt>
      <trkpt lat="48.82479" lon="2.38924">
        <ele>41.47</ele>
        <time>2019-02-16T14:54:17Z</time>
      </trkpt>
      <trkpt lat="48.82477" lon="2.38926">
        <ele>41.47</ele>
        <time>2019-02-16T14:54:18Z</time>
      </trkpt>
      <trkpt lat="48.82476" lon="2.38927">
        <ele>41.47</ele>
        <time>2019-02-16T14:54:19Z</time>
      </trkpt>
      <trkpt lat="48.8247" lon="2.38942">
        <ele>41.47</ele>
        <time>2019-02-16T14:54:30Z</time>
      </trkpt>
      <trkpt lat="48.82469" lon="2.38944">
        <ele>41.47</ele>
        <time>2019-02-16T14:54:31Z</time>
      </trkpt>
      <trkpt lat="48.82468" lon="2.38945">
        <ele>41.47</ele>
        <time>2019-02-16T14:54:32Z</time>
      </trkpt>
      <trkpt lat="48.82458" lon="2.38957">
        <ele>40.99</ele>
        <time>2019-02-16T14:54:47Z</time>
      </trkpt>
      <trkpt lat="48.82455" lon="2.38958">
        <ele>41.47</ele>
        <time>2019-02-16T14:54:49Z</time>
      </trkpt>
      <trkpt lat="48.82449" lon="2.38966">
        <ele>41.95</ele>
        <time>2019-02-16T14:55:02Z</time>
      </trkpt>
      <trkpt lat="48.8243" lon="2.38987">
        <ele>41.95</ele>
        <time>2019-02-16T14:55:15Z</time>
      </trkpt>
      <trkpt lat="48.82409" lon="2.39009">
        <ele>41.95</ele>
        <time>2019-02-16T14:55:31Z</time>
      </trkpt>
      <trkpt lat="48.82407" lon="2.39016">
        <ele>41.95</ele>
        <time>2019-02-16T14:55:35Z</time>
      </trkpt>
      <trkpt lat="48.82407" lon="2.39018">
        <ele>41.95</ele>
        <time>2019-02-16T14:55:36Z</time>
      </trkpt>
      <trkpt lat="48.82396" lon="2.39038">
        <ele>41.95</ele>
        <time>2019-02-16T14:55:49Z</time>
      </trkpt>
      <trkpt lat="48.82385" lon="2.3905">
        <ele>42.92</ele>
        <time>2019-02-16T14:56:01Z</time>
      </trkpt>
      <trkpt lat="48.82383" lon="2.39051">
        <ele>43.4</ele>
        <time>2019-02-16T14:56:02Z</time>
      </trkpt>
      <trkpt lat="48.82377" lon="2.39068">
        <ele>42.92</ele>
        <time>2019-02-16T14:56:14Z</time>
      </trkpt>
      <trkpt lat="48.82363" lon="2.39092">
        <ele>42.92</ele>
        <time>2019-02-16T14:56:28Z</time>
      </trkpt>
      <trkpt lat="48.82355" lon="2.39102">
        <ele>42.92</ele>
        <time>2019-02-16T14:56:37Z</time>
      </trkpt>
      <trkpt lat="48.82351" lon="2.39106">
        <ele>43.4</ele>
        <time>2019-02-16T14:56:40Z</time>
      </trkpt>
      <trkpt lat="48.8235" lon="2.39107">
        <ele>43.88</ele>
        <time>2019-02-16T14:56:41Z</time>
      </trkpt>
      <trkpt lat="48.82343" lon="2.39116">
        <ele>42.92</ele>
        <time>2019-02-16T14:56:50Z</time>
      </trkpt>
      <trkpt lat="48.82342" lon="2.39117">
        <ele>42.92</ele>
        <time>2019-02-16T14:56:51Z</time>
      </trkpt>
      <trkpt lat="48.82341" lon="2.39119">
        <ele>43.4</ele>
        <time>2019-02-16T14:56:53Z</time>
      </trkpt>
      <trkpt lat="48.8234" lon="2.3912">
        <ele>43.4</ele>
        <time>2019-02-16T14:56:54Z</time>
      </trkpt>
      <trkpt lat="48.82327" lon="2.3914">
        <ele>42.92</ele>
        <time>2019-02-16T14:57:09Z</time>
      </trkpt>
      <trkpt lat="48.82319" lon="2.39158">
        <ele>43.88</ele>
        <time>2019-02-16T14:57:23Z</time>
      </trkpt>
      <trkpt lat="48.82297" lon="2.39166">
        <ele>43.88</ele>
        <time>2019-02-16T14:57:36Z</time>
      </trkpt>
      <trkpt lat="48.82293" lon="2.3917">
        <ele>43.88</ele>
        <time>2019-02-16T14:57:39Z</time>
      </trkpt>
      <trkpt lat="48.82287" lon="2.39187">
        <ele>43.88</ele>
        <time>2019-02-16T14:57:51Z</time>
      </trkpt>
      <trkpt lat="48.82286" lon="2.39189">
        <ele>43.88</ele>
        <time>2019-02-16T14:57:52Z</time>
      </trkpt>
      <trkpt lat="48.82286" lon="2.39192">
        <ele>43.88</ele>
        <time>2019-02-16T14:57:53Z</time>
      </trkpt>
      <trkpt lat="48.82285" lon="2.39194">
        <ele>43.88</ele>
        <time>2019-02-16T14:57:54Z</time>
      </trkpt>
      <trkpt lat="48.82284" lon="2.39196">
        <ele>43.88</ele>
        <time>2019-02-16T14:57:55Z</time>
      </trkpt>
      <trkpt lat="48.82273" lon="2.39212">
        <ele>43.88</ele>
        <time>2019-02-16T14:58:10Z</time>
      </trkpt>
      <trkpt lat="48.82272" lon="2.39213">
        <ele>44.36</ele>
        <time>2019-02-16T14:58:11Z</time>
      </trkpt>
      <trkpt lat="48.8227" lon="2.39214">
        <ele>43.88</ele>
        <time>2019-02-16T14:58:12Z</time>
      </trkpt>
      <trkpt lat="48.82268" lon="2.39215">
        <ele>43.88</ele>
        <time>2019-02-16T14:58:13Z</time>
      </trkpt>
      <trkpt lat="48.82266" lon="2.39224">
        <ele>44.36</ele>
        <time>2019-02-16T14:58:24Z</time>
      </trkpt>
      <trkpt lat="48.82263" lon="2.3923">
        <ele>44.36</ele>
        <time>2019-02-16T14:58:28Z</time>
      </trkpt>
      <trkpt lat="48.82262" lon="2.39232">
        <ele>44.36</ele>
        <time>2019-02-16T14:58:29Z</time>
      </trkpt>
      <trkpt lat="48.82261" lon="2.39234">
        <ele>44.36</ele>
        <time>2019-02-16T14:58:30Z</time>
      </trkpt>
      <trkpt lat="48.82261" lon="2.39236">
        <ele>44.36</ele>
        <time>2019-02-16T14:58:31Z</time>
      </trkpt>
      <trkpt lat="48.8226" lon="2.39238">
        <ele>44.36</ele>
        <time>2019-02-16T14:58:32Z</time>
      </trkpt>
      <trkpt lat="48.82257" lon="2.39242">
        <ele>44.36</ele>
        <time>2019-02-16T14:58:35Z</time>
      </trkpt>
      <trkpt lat="48.82251" lon="2.39257">
        <ele>44.84</ele>
        <time>2019-02-16T14:58:50Z</time>
      </trkpt>
      <trkpt lat="48.82241" lon="2.39274">
        <ele>45.8</ele>
        <time>2019-02-16T14:59:03Z</time>
      </trkpt>
      <trkpt lat="48.82226" lon="2.39285">
        <ele>45.8</ele>
        <time>2019-02-16T14:59:15Z</time>
      </trkpt>
      <trkpt lat="48.82226" lon="2.39286">
        <ele>45.8</ele>
        <time>2019-02-16T14:59:16Z</time>
      </trkpt>
      <trkpt lat="48.82219" lon="2.39299">
        <ele>45.8</ele>
        <time>2019-02-16T14:59:23Z</time>
      </trkpt>
      <trkpt lat="48.82218" lon="2.39301">
        <ele>45.8</ele>
        <time>2019-02-16T14:59:24Z</time>
      </trkpt>
      <trkpt lat="48.82209" lon="2.39322">
        <ele>46.28</ele>
        <time>2019-02-16T14:59:38Z</time>
      </trkpt>
      <trkpt lat="48.82196" lon="2.39336">
        <ele>46.76</ele>
        <time>2019-02-16T14:59:51Z</time>
      </trkpt>
      <trkpt lat="48.82191" lon="2.39341">
        <ele>47.24</ele>
        <time>2019-02-16T14:59:57Z</time>
      </trkpt>
      <trkpt lat="48.82172" lon="2.39356">
        <ele>46.76</ele>
        <time>2019-02-16T15:00:11Z</time>
      </trkpt>
      <trkpt lat="48.82171" lon="2.39358">
        <ele>47.24</ele>
        <time>2019-02-16T15:00:12Z</time>
      </trkpt>
      <trkpt lat="48.8217" lon="2.39359">
        <ele>47.24</ele>
        <time>2019-02-16T15:00:13Z</time>
      </trkpt>
      <trkpt lat="48.82169" lon="2.39361">
        <ele>47.24</ele>
        <time>2019-02-16T15:00:14Z</time>
      </trkpt>
      <trkpt lat="48.8216" lon="2.39377">
        <ele>47.72</ele>
        <time>2019-02-16T15:00:25Z</time>
      </trkpt>
      <trkpt lat="48.82159" lon="2.39378">
        <ele>47.72</ele>
        <time>2019-02-16T15:00:26Z</time>
      </trkpt>
      <trkpt lat="48.82159" lon="2.39379">
        <ele>47.72</ele>
        <time>2019-02-16T15:00:27Z</time>
      </trkpt>
      <trkpt lat="48.82157" lon="2.39381">
        <ele>47.24</ele>
        <time>2019-02-16T15:00:28Z</time>
      </trkpt>
      <trkpt lat="48.82156" lon="2.39382">
        <ele>47.24</ele>
        <time>2019-02-16T15:00:29Z</time>
      </trkpt>
      <trkpt lat="48.82154" lon="2.39382">
        <ele>47.24</ele>
        <time>2019-02-16T15:00:30Z</time>
      </trkpt>
      <trkpt lat="48.82153" lon="2.39383">
        <ele>47.24</ele>
        <time>2019-02-16T15:00:31Z</time>
      </trkpt>
      <trkpt lat="48.82142" lon="2.39395">
        <ele>47.72</ele>
        <time>2019-02-16T15:00:43Z</time>
      </trkpt>
      <trkpt lat="48.82137" lon="2.39402">
        <ele>47.72</ele>
        <time>2019-02-16T15:00:49Z</time>
      </trkpt>
      <trkpt lat="48.82137" lon="2.39405">
        <ele>47.72</ele>
        <time>2019-02-16T15:00:50Z</time>
      </trkpt>
      <trkpt lat="48.82123" lon="2.39424">
        <ele>47.72</ele>
        <time>2019-02-16T15:01:01Z</time>
      </trkpt>
      <trkpt lat="48.82115" lon="2.39438">
        <ele>48.2</ele>
        <time>2019-02-16T15:01:14Z</time>
      </trkpt>
      <trkpt lat="48.82109" lon="2.39449">
        <ele>48.68</ele>
        <time>2019-02-16T15:01:19Z</time>
      </trkpt>
      <trkpt lat="48.82102" lon="2.39467">
        <ele>48.2</ele>
        <time>2019-02-16T15:01:32Z</time>
      </trkpt>
      <trkpt lat="48.82085" lon="2.39486">
        <ele>49.16</ele>
        <time>2019-02-16T15:01:46Z</time>
      </trkpt>
      <trkpt lat="48.82074" lon="2.39485">
        <ele>48.2</ele>
        <time>2019-02-16T15:01:52Z</time>
      </trkpt>
      <trkpt lat="48.82072" lon="2.39486">
        <ele>48.2</ele>
        <time>2019-02-16T15:01:53Z</time>
      </trkpt>
      <trkpt lat="48.82069" lon="2.39488">
        <ele>48.68</ele>
        <time>2019-02-16T15:01:54Z</time>
      </trkpt>
      <trkpt lat="48.82067" lon="2.3949">
        <ele>48.68</ele>
        <time>2019-02-16T15:01:55Z</time>
      </trkpt>
      <trkpt lat="48.82064" lon="2.39493">
        <ele>48.68</ele>
        <time>2019-02-16T15:01:56Z</time>
      </trkpt>
      <trkpt lat="48.82062" lon="2.39496">
        <ele>48.2</ele>
        <time>2019-02-16T15:01:57Z</time>
      </trkpt>
      <trkpt lat="48.82056" lon="2.39502">
        <ele>48.68</ele>
        <time>2019-02-16T15:02:07Z</time>
      </trkpt>
      <trkpt lat="48.82049" lon="2.39511">
        <ele>49.65</ele>
        <time>2019-02-16T15:02:21Z</time>
      </trkpt>
      <trkpt lat="48.82037" lon="2.3951">
        <ele>49.65</ele>
        <time>2019-02-16T15:02:40Z</time>
      </trkpt>
      <trkpt lat="48.82036" lon="2.39512">
        <ele>49.65</ele>
        <time>2019-02-16T15:02:43Z</time>
      </trkpt>
      <trkpt lat="48.82035" lon="2.39513">
        <ele>49.65</ele>
        <time>2019-02-16T15:02:44Z</time>
      </trkpt>
      <trkpt lat="48.82032" lon="2.39514">
        <ele>50.13</ele>
        <time>2019-02-16T15:02:48Z</time>
      </trkpt>
      <trkpt lat="48.82031" lon="2.39516">
        <ele>49.16</ele>
        <time>2019-02-16T15:02:49Z</time>
      </trkpt>
      <trkpt lat="48.82021" lon="2.39525">
        <ele>49.65</ele>
        <time>2019-02-16T15:02:59Z</time>
      </trkpt>
      <trkpt lat="48.82011" lon="2.39537">
        <ele>50.13</ele>
        <time>2019-02-16T15:03:09Z</time>
      </trkpt>
      <trkpt lat="48.8201" lon="2.39539">
        <ele>50.13</ele>
        <time>2019-02-16T15:03:10Z</time>
      </trkpt>
      <trkpt lat="48.82006" lon="2.39554">
        <ele>49.65</ele>
        <time>2019-02-16T15:03:21Z</time>
      </trkpt>
      <trkpt lat="48.82" lon="2.39564">
        <ele>50.13</ele>
        <time>2019-02-16T15:03:29Z</time>
      </trkpt>
      <trkpt lat="48.81999" lon="2.39566">
        <ele>50.13</ele>
        <time>2019-02-16T15:03:30Z</time>
      </trkpt>
      <trkpt lat="48.81988" lon="2.39578">
        <ele>50.13</ele>
        <time>2019-02-16T15:03:41Z</time>
      </trkpt>
      <trkpt lat="48.81989" lon="2.39601">
        <ele>50.13</ele>
        <time>2019-02-16T15:03:52Z</time>
      </trkpt>
      <trkpt lat="48.81989" lon="2.39607">
        <ele>50.61</ele>
        <time>2019-02-16T15:04:00Z</time>
      </trkpt>
      <trkpt lat="48.81991" lon="2.39605">
        <ele>50.61</ele>
        <time>2019-02-16T15:04:11Z</time>
      </trkpt>
      <trkpt lat="48.81993" lon="2.39604">
        <ele>51.57</ele>
        <time>2019-02-16T15:04:32Z</time>
      </trkpt>
      <trkpt lat="48.8194" lon="2.39657">
        <ele>52.05</ele>
        <time>2019-02-16T15:04:52Z</time>
      </trkpt>
      <trkpt lat="48.81935" lon="2.39668">
        <ele>52.05</ele>
        <time>2019-02-16T15:04:56Z</time>
      </trkpt>
      <trkpt lat="48.81923" lon="2.39681">
        <ele>52.05</ele>
        <time>2019-02-16T15:05:06Z</time>
      </trkpt>
      <trkpt lat="48.81925" lon="2.3969">
        <ele>52.53</ele>
        <time>2019-02-16T15:05:16Z</time>
      </trkpt>
      <trkpt lat="48.81915" lon="2.39692">
        <ele>53.01</ele>
        <time>2019-02-16T15:05:36Z</time>
      </trkpt>
      <trkpt lat="48.81914" lon="2.3969">
        <ele>53.49</ele>
        <time>2019-02-16T15:05:48Z</time>
      </trkpt>
      <trkpt lat="48.81913" lon="2.39694">
        <ele>53.49</ele>
        <time>2019-02-16T15:06:00Z</time>
      </trkpt>
      <trkpt lat="48.81904" lon="2.39702">
        <ele>54.45</ele>
        <time>2019-02-16T15:06:16Z</time>
      </trkpt>
      <trkpt lat="48.81885" lon="2.39723">
        <ele>53.97</ele>
        <time>2019-02-16T15:06:31Z</time>
      </trkpt>
      <trkpt lat="48.81871" lon="2.39749">
        <ele>53.97</ele>
        <time>2019-02-16T15:06:41Z</time>
      </trkpt>
      <trkpt lat="48.81863" lon="2.39765">
        <ele>54.93</ele>
        <time>2019-02-16T15:06:55Z</time>
      </trkpt>
      <trkpt lat="48.8185" lon="2.39787">
        <ele>55.41</ele>
        <time>2019-02-16T15:07:11Z</time>
      </trkpt>
      <trkpt lat="48.81843" lon="2.39799">
        <ele>55.41</ele>
        <time>2019-02-16T15:07:32Z</time>
      </trkpt>
      <trkpt lat="48.81843" lon="2.39801">
        <ele>55.89</ele>
        <time>2019-02-16T15:07:33Z</time>
      </trkpt>
      <trkpt lat="48.81842" lon="2.39803">
        <ele>55.41</ele>
        <time>2019-02-16T15:07:34Z</time>
      </trkpt>
      <trkpt lat="48.81836" lon="2.39816">
        <ele>55.41</ele>
        <time>2019-02-16T15:07:40Z</time>
      </trkpt>
      <trkpt lat="48.81836" lon="2.39818">
        <ele>55.41</ele>
        <time>2019-02-16T15:07:41Z</time>
      </trkpt>
      <trkpt lat="48.81835" lon="2.3982">
        <ele>55.89</ele>
        <time>2019-02-16T15:07:42Z</time>
      </trkpt>
      <trkpt lat="48.81835" lon="2.39822">
        <ele>55.41</ele>
        <time>2019-02-16T15:07:43Z</time>
      </trkpt>
      <trkpt lat="48.81834" lon="2.39824">
        <ele>55.89</ele>
        <time>2019-02-16T15:07:44Z</time>
      </trkpt>
      <trkpt lat="48.81818" lon="2.39832">
        <ele>56.37</ele>
        <time>2019-02-16T15:07:56Z</time>
      </trkpt>
      <trkpt lat="48.81799" lon="2.39841">
        <ele>56.37</ele>
        <time>2019-02-16T15:08:13Z</time>
      </trkpt>
      <trkpt lat="48.81792" lon="2.39853">
        <ele>56.86</ele>
        <time>2019-02-16T15:08:25Z</time>
      </trkpt>
      <trkpt lat="48.81789" lon="2.3986">
        <ele>57.34</ele>
        <time>2019-02-16T15:08:33Z</time>
      </trkpt>
      <trkpt lat="48.81787" lon="2.39861">
        <ele>57.34</ele>
        <time>2019-02-16T15:08:34Z</time>
      </trkpt>
      <trkpt lat="48.81781" lon="2.39866">
        <ele>57.34</ele>
        <time>2019-02-16T15:08:39Z</time>
      </trkpt>
      <trkpt lat="48.81777" lon="2.39871">
        <ele>57.82</ele>
        <time>2019-02-16T15:08:44Z</time>
      </trkpt>
      <trkpt lat="48.81762" lon="2.39885">
        <ele>57.82</ele>
        <time>2019-02-16T15:08:56Z</time>
      </trkpt>
      <trkpt lat="48.81756" lon="2.39896">
        <ele>57.34</ele>
        <time>2019-02-16T15:09:06Z</time>
      </trkpt>
      <trkpt lat="48.81747" lon="2.39899">
        <ele>57.82</ele>
        <time>2019-02-16T15:09:16Z</time>
      </trkpt>
      <trkpt lat="48.81739" lon="2.39906">
        <ele>58.78</ele>
        <time>2019-02-16T15:09:30Z</time>
      </trkpt>
      <trkpt lat="48.81736" lon="2.39909">
        <ele>58.3</ele>
        <time>2019-02-16T15:09:33Z</time>
      </trkpt>
      <trkpt lat="48.8173" lon="2.39917">
        <ele>59.26</ele>
        <time>2019-02-16T15:09:43Z</time>
      </trkpt>
      <trkpt lat="48.81729" lon="2.39918">
        <ele>58.78</ele>
        <time>2019-02-16T15:09:44Z</time>
      </trkpt>
      <trkpt lat="48.8172" lon="2.39927">
        <ele>58.3</ele>
        <time>2019-02-16T15:09:56Z</time>
      </trkpt>
      <trkpt lat="48.81702" lon="2.39934">
        <ele>59.26</ele>
        <time>2019-02-16T15:10:10Z</time>
      </trkpt>
      <trkpt lat="48.81691" lon="2.39949">
        <ele>59.26</ele>
        <time>2019-02-16T15:10:22Z</time>
      </trkpt>
      <trkpt lat="48.81678" lon="2.39955">
        <ele>59.26</ele>
        <time>2019-02-16T15:10:32Z</time>
      </trkpt>
      <trkpt lat="48.81665" lon="2.39971">
        <ele>58.78</ele>
        <time>2019-02-16T15:10:41Z</time>
      </trkpt>
      <trkpt lat="48.81663" lon="2.39972">
        <ele>58.78</ele>
        <time>2019-02-16T15:10:42Z</time>
      </trkpt>
      <trkpt lat="48.81655" lon="2.3998">
        <ele>58.78</ele>
        <time>2019-02-16T15:10:51Z</time>
      </trkpt>
      <trkpt lat="48.81644" lon="2.39997">
        <ele>58.78</ele>
        <time>2019-02-16T15:11:02Z</time>
      </trkpt>
      <trkpt lat="48.81642" lon="2.4">
        <ele>58.3</ele>
        <time>2019-02-16T15:11:04Z</time>
      </trkpt>
      <trkpt lat="48.81634" lon="2.40012">
        <ele>59.26</ele>
        <time>2019-02-16T15:11:13Z</time>
      </trkpt>
      <trkpt lat="48.81631" lon="2.40016">
        <ele>58.78</ele>
        <time>2019-02-16T15:11:16Z</time>
      </trkpt>
      <trkpt lat="48.81629" lon="2.40018">
        <ele>58.78</ele>
        <time>2019-02-16T15:11:17Z</time>
      </trkpt>
      <trkpt lat="48.81623" lon="2.40025">
        <ele>59.26</ele>
        <time>2019-02-16T15:11:22Z</time>
      </trkpt>
      <trkpt lat="48.81622" lon="2.40027">
        <ele>58.78</ele>
        <time>2019-02-16T15:11:23Z</time>
      </trkpt>
      <trkpt lat="48.8162" lon="2.40029">
        <ele>58.78</ele>
        <time>2019-02-16T15:11:24Z</time>
      </trkpt>
      <trkpt lat="48.81618" lon="2.40031">
        <ele>58.78</ele>
        <time>2019-02-16T15:11:25Z</time>
      </trkpt>
      <trkpt lat="48.81617" lon="2.40032">
        <ele>59.26</ele>
        <time>2019-02-16T15:11:26Z</time>
      </trkpt>
      <trkpt lat="48.81615" lon="2.40035">
        <ele>58.78</ele>
        <time>2019-02-16T15:11:27Z</time>
      </trkpt>
      <trkpt lat="48.81613" lon="2.40037">
        <ele>59.26</ele>
        <time>2019-02-16T15:11:28Z</time>
      </trkpt>
      <trkpt lat="48.81609" lon="2.40043">
        <ele>58.78</ele>
        <time>2019-02-16T15:11:31Z</time>
      </trkpt>
      <trkpt lat="48.81598" lon="2.40052">
        <ele>58.78</ele>
        <time>2019-02-16T15:11:41Z</time>
      </trkpt>
      <trkpt lat="48.81597" lon="2.40053">
        <ele>58.78</ele>
        <time>2019-02-16T15:11:42Z</time>
      </trkpt>
      <trkpt lat="48.81596" lon="2.40054">
        <ele>59.26</ele>
        <time>2019-02-16T15:11:43Z</time>
      </trkpt>
      <trkpt lat="48.81593" lon="2.40055">
        <ele>59.26</ele>
        <time>2019-02-16T15:11:45Z</time>
      </trkpt>
      <trkpt lat="48.81587" lon="2.40061">
        <ele>59.26</ele>
        <time>2019-02-16T15:11:54Z</time>
      </trkpt>
      <trkpt lat="48.81579" lon="2.40069">
        <ele>58.78</ele>
        <time>2019-02-16T15:12:06Z</time>
      </trkpt>
      <trkpt lat="48.81577" lon="2.4007">
        <ele>59.26</ele>
        <time>2019-02-16T15:12:07Z</time>
      </trkpt>
      <trkpt lat="48.81576" lon="2.40071">
        <ele>58.78</ele>
        <time>2019-02-16T15:12:08Z</time>
      </trkpt>
      <trkpt lat="48.81571" lon="2.40076">
        <ele>59.26</ele>
        <time>2019-02-16T15:12:14Z</time>
      </trkpt>
      <trkpt lat="48.8157" lon="2.40078">
        <ele>58.78</ele>
        <time>2019-02-16T15:12:15Z</time>
      </trkpt>
      <trkpt lat="48.81569" lon="2.4008">
        <ele>58.78</ele>
        <time>2019-02-16T15:12:16Z</time>
      </trkpt>
      <trkpt lat="48.8156" lon="2.40093">
        <ele>59.26</ele>
        <time>2019-02-16T15:12:26Z</time>
      </trkpt>
      <trkpt lat="48.81555" lon="2.40099">
        <ele>59.26</ele>
        <time>2019-02-16T15:12:38Z</time>
      </trkpt>
      <trkpt lat="48.81551" lon="2.40107">
        <ele>58.78</ele>
        <time>2019-02-16T15:12:40Z</time>
      </trkpt>
      <trkpt lat="48.8155" lon="2.40108">
        <ele>58.78</ele>
        <time>2019-02-16T15:12:41Z</time>
      </trkpt>
      <trkpt lat="48.81549" lon="2.4011">
        <ele>58.78</ele>
        <time>2019-02-16T15:12:43Z</time>
      </trkpt>
      <trkpt lat="48.81544" lon="2.40124">
        <ele>58.78</ele>
        <time>2019-02-16T15:12:49Z</time>
      </trkpt>
      <trkpt lat="48.81542" lon="2.40127">
        <ele>58.3</ele>
        <time>2019-02-16T15:12:50Z</time>
      </trkpt>
      <trkpt lat="48.81541" lon="2.40129">
        <ele>58.78</ele>
        <time>2019-02-16T15:12:51Z</time>
      </trkpt>
      <trkpt lat="48.81539" lon="2.40132">
        <ele>58.3</ele>
        <time>2019-02-16T15:12:52Z</time>
      </trkpt>
      <trkpt lat="48.81538" lon="2.40133">
        <ele>58.78</ele>
        <time>2019-02-16T15:12:53Z</time>
      </trkpt>
      <trkpt lat="48.81537" lon="2.40134">
        <ele>58.3</ele>
        <time>2019-02-16T15:12:54Z</time>
      </trkpt>
      <trkpt lat="48.81535" lon="2.40136">
        <ele>58.78</ele>
        <time>2019-02-16T15:12:55Z</time>
      </trkpt>
      <trkpt lat="48.81534" lon="2.40137">
        <ele>59.26</ele>
        <time>2019-02-16T15:12:56Z</time>
      </trkpt>
      <trkpt lat="48.81529" lon="2.4014">
        <ele>58.3</ele>
        <time>2019-02-16T15:13:04Z</time>
      </trkpt>
      <trkpt lat="48.81526" lon="2.40142">
        <ele>58.3</ele>
        <time>2019-02-16T15:13:07Z</time>
      </trkpt>
      <trkpt lat="48.81525" lon="2.40143">
        <ele>58.3</ele>
        <time>2019-02-16T15:13:08Z</time>
      </trkpt>
      <trkpt lat="48.81524" lon="2.40144">
        <ele>58.78</ele>
        <time>2019-02-16T15:13:09Z</time>
      </trkpt>
      <trkpt lat="48.81514" lon="2.40154">
        <ele>58.3</ele>
        <time>2019-02-16T15:13:21Z</time>
      </trkpt>
      <trkpt lat="48.81501" lon="2.40165">
        <ele>58.78</ele>
        <time>2019-02-16T15:13:34Z</time>
      </trkpt>
      <trkpt lat="48.81495" lon="2.40167">
        <ele>58.78</ele>
        <time>2019-02-16T15:13:40Z</time>
      </trkpt>
      <trkpt lat="48.81493" lon="2.4017">
        <ele>58.3</ele>
        <time>2019-02-16T15:13:41Z</time>
      </trkpt>
      <trkpt lat="48.81487" lon="2.40174">
        <ele>58.78</ele>
        <time>2019-02-16T15:13:42Z</time>
      </trkpt>
      <trkpt lat="48.81477" lon="2.40194">
        <ele>58.78</ele>
        <time>2019-02-16T15:13:49Z</time>
      </trkpt>
      <trkpt lat="48.81477" lon="2.40197">
        <ele>58.78</ele>
        <time>2019-02-16T15:13:50Z</time>
      </trkpt>
      <trkpt lat="48.81475" lon="2.40204">
        <ele>58.78</ele>
        <time>2019-02-16T15:13:54Z</time>
      </trkpt>
      <trkpt lat="48.81475" lon="2.40227">
        <ele>58.3</ele>
        <time>2019-02-16T15:14:04Z</time>
      </trkpt>
      <trkpt lat="48.81468" lon="2.40241">
        <ele>58.3</ele>
        <time>2019-02-16T15:14:15Z</time>
      </trkpt>
      <trkpt lat="48.81467" lon="2.40243">
        <ele>58.3</ele>
        <time>2019-02-16T15:14:16Z</time>
      </trkpt>
      <trkpt lat="48.81466" lon="2.40246">
        <ele>58.78</ele>
        <time>2019-02-16T15:14:17Z</time>
      </trkpt>
      <trkpt lat="48.81461" lon="2.4026">
        <ele>57.82</ele>
        <time>2019-02-16T15:14:26Z</time>
      </trkpt>
      <trkpt lat="48.81458" lon="2.40268">
        <ele>58.3</ele>
        <time>2019-02-16T15:14:37Z</time>
      </trkpt>
      <trkpt lat="48.81457" lon="2.40273">
        <ele>57.82</ele>
        <time>2019-02-16T15:14:40Z</time>
      </trkpt>
      <trkpt lat="48.81456" lon="2.40274">
        <ele>57.82</ele>
        <time>2019-02-16T15:14:43Z</time>
      </trkpt>
      <trkpt lat="48.81456" lon="2.4028">
        <ele>57.34</ele>
        <time>2019-02-16T15:14:48Z</time>
      </trkpt>
      <trkpt lat="48.81456" lon="2.40282">
        <ele>57.34</ele>
        <time>2019-02-16T15:14:49Z</time>
      </trkpt>
      <trkpt lat="48.81456" lon="2.40284">
        <ele>57.34</ele>
        <time>2019-02-16T15:14:50Z</time>
      </trkpt>
      <trkpt lat="48.81456" lon="2.40287">
        <ele>57.82</ele>
        <time>2019-02-16T15:14:51Z</time>
      </trkpt>
      <trkpt lat="48.81455" lon="2.40289">
        <ele>57.82</ele>
        <time>2019-02-16T15:14:52Z</time>
      </trkpt>
      <trkpt lat="48.81455" lon="2.40291">
        <ele>57.82</ele>
        <time>2019-02-16T15:14:53Z</time>
      </trkpt>
      <trkpt lat="48.81455" lon="2.40297">
        <ele>57.34</ele>
        <time>2019-02-16T15:14:58Z</time>
      </trkpt>
      <trkpt lat="48.81455" lon="2.40299">
        <ele>57.82</ele>
        <time>2019-02-16T15:14:59Z</time>
      </trkpt>
      <trkpt lat="48.81455" lon="2.40301">
        <ele>57.34</ele>
        <time>2019-02-16T15:15:00Z</time>
      </trkpt>
      <trkpt lat="48.81453" lon="2.40311">
        <ele>56.86</ele>
        <time>2019-02-16T15:15:07Z</time>
      </trkpt>
      <trkpt lat="48.81451" lon="2.40337">
        <ele>57.34</ele>
        <time>2019-02-16T15:15:19Z</time>
      </trkpt>
      <trkpt lat="48.81451" lon="2.40351">
        <ele>57.34</ele>
        <time>2019-02-16T15:15:30Z</time>
      </trkpt>
      <trkpt lat="48.81456" lon="2.40377">
        <ele>57.82</ele>
        <time>2019-02-16T15:15:43Z</time>
      </trkpt>
      <trkpt lat="48.81456" lon="2.404">
        <ele>57.34</ele>
        <time>2019-02-16T15:15:52Z</time>
      </trkpt>
      <trkpt lat="48.81454" lon="2.40408">
        <ele>57.82</ele>
        <time>2019-02-16T15:15:55Z</time>
      </trkpt>
      <trkpt lat="48.81454" lon="2.4041">
        <ele>57.34</ele>
        <time>2019-02-16T15:15:56Z</time>
      </trkpt>
      <trkpt lat="48.81457" lon="2.40424">
        <ele>57.82</ele>
        <time>2019-02-16T15:16:07Z</time>
      </trkpt>
      <trkpt lat="48.81457" lon="2.40428">
        <ele>57.34</ele>
        <time>2019-02-16T15:16:09Z</time>
      </trkpt>
      <trkpt lat="48.81457" lon="2.40431">
        <ele>57.34</ele>
        <time>2019-02-16T15:16:10Z</time>
      </trkpt>
      <trkpt lat="48.81458" lon="2.40441">
        <ele>56.86</ele>
        <time>2019-02-16T15:16:14Z</time>
      </trkpt>
      <trkpt lat="48.81458" lon="2.40443">
        <ele>57.34</ele>
        <time>2019-02-16T15:16:15Z</time>
      </trkpt>
      <trkpt lat="48.81459" lon="2.40446">
        <ele>57.82</ele>
        <time>2019-02-16T15:16:17Z</time>
      </trkpt>
      <trkpt lat="48.81459" lon="2.40448">
        <ele>57.82</ele>
        <time>2019-02-16T15:16:18Z</time>
      </trkpt>
      <trkpt lat="48.81462" lon="2.40455">
        <ele>57.34</ele>
        <time>2019-02-16T15:16:21Z</time>
      </trkpt>
      <trkpt lat="48.81465" lon="2.4046">
        <ele>57.34</ele>
        <time>2019-02-16T15:16:23Z</time>
      </trkpt>
      <trkpt lat="48.81466" lon="2.40462">
        <ele>56.86</ele>
        <time>2019-02-16T15:16:24Z</time>
      </trkpt>
      <trkpt lat="48.81467" lon="2.40466">
        <ele>56.86</ele>
        <time>2019-02-16T15:16:25Z</time>
      </trkpt>
      <trkpt lat="48.81469" lon="2.40468">
        <ele>57.34</ele>
        <time>2019-02-16T15:16:26Z</time>
      </trkpt>
      <trkpt lat="48.81469" lon="2.40471">
        <ele>56.86</ele>
        <time>2019-02-16T15:16:27Z</time>
      </trkpt>
      <trkpt lat="48.8147" lon="2.40474">
        <ele>56.86</ele>
        <time>2019-02-16T15:16:28Z</time>
      </trkpt>
      <trkpt lat="48.81469" lon="2.40476">
        <ele>57.34</ele>
        <time>2019-02-16T15:16:29Z</time>
      </trkpt>
      <trkpt lat="48.81469" lon="2.40478">
        <ele>56.86</ele>
        <time>2019-02-16T15:16:30Z</time>
      </trkpt>
      <trkpt lat="48.81469" lon="2.4048">
        <ele>56.86</ele>
        <time>2019-02-16T15:16:31Z</time>
      </trkpt>
      <trkpt lat="48.8147" lon="2.40482">
        <ele>57.34</ele>
        <time>2019-02-16T15:16:32Z</time>
      </trkpt>
      <trkpt lat="48.81469" lon="2.40483">
        <ele>57.34</ele>
        <time>2019-02-16T15:16:33Z</time>
      </trkpt>
      <trkpt lat="48.81469" lon="2.40485">
        <ele>56.86</ele>
        <time>2019-02-16T15:16:34Z</time>
      </trkpt>
      <trkpt lat="48.8147" lon="2.40507">
        <ele>56.86</ele>
        <time>2019-02-16T15:16:45Z</time>
      </trkpt>
      <trkpt lat="48.81468" lon="2.4053">
        <ele>56.37</ele>
        <time>2019-02-16T15:16:57Z</time>
      </trkpt>
      <trkpt lat="48.81468" lon="2.40532">
        <ele>56.86</ele>
        <time>2019-02-16T15:16:58Z</time>
      </trkpt>
      <trkpt lat="48.81468" lon="2.40534">
        <ele>56.37</ele>
        <time>2019-02-16T15:16:59Z</time>
      </trkpt>
      <trkpt lat="48.8147" lon="2.40542">
        <ele>57.34</ele>
        <time>2019-02-16T15:17:04Z</time>
      </trkpt>
      <trkpt lat="48.81469" lon="2.40544">
        <ele>57.34</ele>
        <time>2019-02-16T15:17:05Z</time>
      </trkpt>
      <trkpt lat="48.8147" lon="2.40546">
        <ele>57.34</ele>
        <time>2019-02-16T15:17:06Z</time>
      </trkpt>
      <trkpt lat="48.8147" lon="2.40549">
        <ele>57.34</ele>
        <time>2019-02-16T15:17:08Z</time>
      </trkpt>
      <trkpt lat="48.8147" lon="2.4055">
        <ele>57.34</ele>
        <time>2019-02-16T15:17:09Z</time>
      </trkpt>
      <trkpt lat="48.8147" lon="2.40552">
        <ele>56.86</ele>
        <time>2019-02-16T15:17:10Z</time>
      </trkpt>
      <trkpt lat="48.8147" lon="2.40553">
        <ele>57.34</ele>
        <time>2019-02-16T15:17:11Z</time>
      </trkpt>
      <trkpt lat="48.8147" lon="2.40555">
        <ele>56.86</ele>
        <time>2019-02-16T15:17:12Z</time>
      </trkpt>
      <trkpt lat="48.8147" lon="2.40558">
        <ele>56.86</ele>
        <time>2019-02-16T15:17:13Z</time>
      </trkpt>
      <trkpt lat="48.81471" lon="2.4056">
        <ele>57.34</ele>
        <time>2019-02-16T15:17:14Z</time>
      </trkpt>
      <trkpt lat="48.81471" lon="2.40562">
        <ele>56.86</ele>
        <time>2019-02-16T15:17:15Z</time>
      </trkpt>
      <trkpt lat="48.8147" lon="2.40581">
        <ele>56.37</ele>
        <time>2019-02-16T15:17:28Z</time>
      </trkpt>
      <trkpt lat="48.81472" lon="2.40586">
        <ele>55.89</ele>
        <time>2019-02-16T15:17:30Z</time>
      </trkpt>
      <trkpt lat="48.8147" lon="2.40601">
        <ele>56.37</ele>
        <time>2019-02-16T15:17:40Z</time>
      </trkpt>
      <trkpt lat="48.81466" lon="2.40631">
        <ele>56.37</ele>
        <time>2019-02-16T15:17:54Z</time>
      </trkpt>
      <trkpt lat="48.81465" lon="2.40657">
        <ele>56.37</ele>
        <time>2019-02-16T15:18:07Z</time>
      </trkpt>
      <trkpt lat="48.81464" lon="2.40667">
        <ele>56.37</ele>
        <time>2019-02-16T15:18:12Z</time>
      </trkpt>
      <trkpt lat="48.81463" lon="2.40668">
        <ele>55.89</ele>
        <time>2019-02-16T15:18:13Z</time>
      </trkpt>
      <trkpt lat="48.81463" lon="2.4067">
        <ele>55.89</ele>
        <time>2019-02-16T15:18:14Z</time>
      </trkpt>
      <trkpt lat="48.81463" lon="2.40672">
        <ele>56.37</ele>
        <time>2019-02-16T15:18:15Z</time>
      </trkpt>
      <trkpt lat="48.8146" lon="2.40691">
        <ele>55.89</ele>
        <time>2019-02-16T15:18:27Z</time>
      </trkpt>
      <trkpt lat="48.81462" lon="2.40714">
        <ele>55.89</ele>
        <time>2019-02-16T15:18:40Z</time>
      </trkpt>
      <trkpt lat="48.81457" lon="2.40737">
        <ele>56.86</ele>
        <time>2019-02-16T15:18:54Z</time>
      </trkpt>
      <trkpt lat="48.81456" lon="2.4074">
        <ele>56.37</ele>
        <time>2019-02-16T15:18:56Z</time>
      </trkpt>
      <trkpt lat="48.81455" lon="2.40742">
        <ele>56.37</ele>
        <time>2019-02-16T15:18:57Z</time>
      </trkpt>
      <trkpt lat="48.81455" lon="2.40744">
        <ele>55.89</ele>
        <time>2019-02-16T15:18:58Z</time>
      </trkpt>
      <trkpt lat="48.81455" lon="2.40746">
        <ele>56.86</ele>
        <time>2019-02-16T15:18:59Z</time>
      </trkpt>
      <trkpt lat="48.81455" lon="2.40747">
        <ele>56.86</ele>
        <time>2019-02-16T15:19:00Z</time>
      </trkpt>
      <trkpt lat="48.81455" lon="2.40749">
        <ele>56.86</ele>
        <time>2019-02-16T15:19:01Z</time>
      </trkpt>
      <trkpt lat="48.81454" lon="2.4075">
        <ele>56.86</ele>
        <time>2019-02-16T15:19:02Z</time>
      </trkpt>
      <trkpt lat="48.81454" lon="2.40751">
        <ele>56.86</ele>
        <time>2019-02-16T15:19:03Z</time>
      </trkpt>
      <trkpt lat="48.81454" lon="2.40753">
        <ele>56.86</ele>
        <time>2019-02-16T15:19:04Z</time>
      </trkpt>
      <trkpt lat="48.81455" lon="2.4077">
        <ele>56.86</ele>
        <time>2019-02-16T15:19:12Z</time>
      </trkpt>
      <trkpt lat="48.81456" lon="2.40772">
        <ele>56.86</ele>
        <time>2019-02-16T15:19:13Z</time>
      </trkpt>
      <trkpt lat="48.81456" lon="2.40775">
        <ele>56.86</ele>
        <time>2019-02-16T15:19:14Z</time>
      </trkpt>
      <trkpt lat="48.81459" lon="2.40796">
        <ele>57.34</ele>
        <time>2019-02-16T15:19:27Z</time>
      </trkpt>
      <trkpt lat="48.81456" lon="2.40813">
        <ele>58.78</ele>
        <time>2019-02-16T15:19:37Z</time>
      </trkpt>
      <trkpt lat="48.81463" lon="2.40828">
        <ele>58.78</ele>
        <time>2019-02-16T15:19:42Z</time>
      </trkpt>
      <trkpt lat="48.81464" lon="2.40831">
        <ele>58.3</ele>
        <time>2019-02-16T15:19:43Z</time>
      </trkpt>
      <trkpt lat="48.81465" lon="2.40833">
        <ele>59.26</ele>
        <time>2019-02-16T15:19:44Z</time>
      </trkpt>
      <trkpt lat="48.81465" lon="2.40836">
        <ele>58.78</ele>
        <time>2019-02-16T15:19:45Z</time>
      </trkpt>
      <trkpt lat="48.81465" lon="2.40838">
        <ele>58.78</ele>
        <time>2019-02-16T15:19:46Z</time>
      </trkpt>
      <trkpt lat="48.81465" lon="2.40841">
        <ele>58.78</ele>
        <time>2019-02-16T15:19:48Z</time>
      </trkpt>
      <trkpt lat="48.81465" lon="2.40844">
        <ele>59.26</ele>
        <time>2019-02-16T15:19:50Z</time>
      </trkpt>
      <trkpt lat="48.81461" lon="2.40862">
        <ele>60.22</ele>
        <time>2019-02-16T15:20:03Z</time>
      </trkpt>
      <trkpt lat="48.81461" lon="2.40866">
        <ele>59.74</ele>
        <time>2019-02-16T15:20:15Z</time>
      </trkpt>
      <trkpt lat="48.81461" lon="2.4087">
        <ele>59.74</ele>
        <time>2019-02-16T15:20:17Z</time>
      </trkpt>
      <trkpt lat="48.8146" lon="2.40872">
        <ele>59.74</ele>
        <time>2019-02-16T15:20:18Z</time>
      </trkpt>
      <trkpt lat="48.8146" lon="2.40879">
        <ele>60.22</ele>
        <time>2019-02-16T15:20:21Z</time>
      </trkpt>
      <trkpt lat="48.81459" lon="2.40881">
        <ele>59.74</ele>
        <time>2019-02-16T15:20:24Z</time>
      </trkpt>
      <trkpt lat="48.81461" lon="2.40895">
        <ele>60.22</ele>
        <time>2019-02-16T15:20:31Z</time>
      </trkpt>
      <trkpt lat="48.81463" lon="2.40915">
        <ele>61.66</ele>
        <time>2019-02-16T15:20:42Z</time>
      </trkpt>
      <trkpt lat="48.81462" lon="2.40921">
        <ele>61.66</ele>
        <time>2019-02-16T15:20:57Z</time>
      </trkpt>
      <trkpt lat="48.8146" lon="2.40923">
        <ele>61.66</ele>
        <time>2019-02-16T15:20:58Z</time>
      </trkpt>
      <trkpt lat="48.81458" lon="2.40925">
        <ele>61.66</ele>
        <time>2019-02-16T15:20:59Z</time>
      </trkpt>
      <trkpt lat="48.81456" lon="2.40927">
        <ele>61.18</ele>
        <time>2019-02-16T15:21:00Z</time>
      </trkpt>
      <trkpt lat="48.81455" lon="2.40928">
        <ele>60.7</ele>
        <time>2019-02-16T15:21:01Z</time>
      </trkpt>
      <trkpt lat="48.81445" lon="2.40935">
        <ele>61.66</ele>
        <time>2019-02-16T15:21:09Z</time>
      </trkpt>
      <trkpt lat="48.81445" lon="2.40937">
        <ele>61.18</ele>
        <time>2019-02-16T15:21:10Z</time>
      </trkpt>
      <trkpt lat="48.81445" lon="2.40938">
        <ele>61.66</ele>
        <time>2019-02-16T15:21:11Z</time>
      </trkpt>
      <trkpt lat="48.81445" lon="2.4094">
        <ele>61.18</ele>
        <time>2019-02-16T15:21:12Z</time>
      </trkpt>
      <trkpt lat="48.81447" lon="2.40947">
        <ele>61.66</ele>
        <time>2019-02-16T15:21:24Z</time>
      </trkpt>
      <trkpt lat="48.81448" lon="2.40951">
        <ele>61.18</ele>
        <time>2019-02-16T15:21:40Z</time>
      </trkpt>
      <trkpt lat="48.81448" lon="2.40965">
        <ele>61.66</ele>
        <time>2019-02-16T15:21:51Z</time>
      </trkpt>
      <trkpt lat="48.81448" lon="2.40984">
        <ele>62.14</ele>
        <time>2019-02-16T15:22:01Z</time>
      </trkpt>
      <trkpt lat="48.8145" lon="2.4099">
        <ele>61.66</ele>
        <time>2019-02-16T15:22:06Z</time>
      </trkpt>
      <trkpt lat="48.8145" lon="2.40992">
        <ele>61.66</ele>
        <time>2019-02-16T15:22:07Z</time>
      </trkpt>
      <trkpt lat="48.8145" lon="2.40997">
        <ele>61.18</ele>
        <time>2019-02-16T15:22:12Z</time>
      </trkpt>
      <trkpt lat="48.8145" lon="2.40999">
        <ele>61.18</ele>
        <time>2019-02-16T15:22:13Z</time>
      </trkpt>
      <trkpt lat="48.8145" lon="2.41001">
        <ele>61.18</ele>
        <time>2019-02-16T15:22:14Z</time>
      </trkpt>
      <trkpt lat="48.8145" lon="2.41003">
        <ele>61.66</ele>
        <time>2019-02-16T15:22:15Z</time>
      </trkpt>
      <trkpt lat="48.8145" lon="2.41005">
        <ele>61.66</ele>
        <time>2019-02-16T15:22:16Z</time>
      </trkpt>
      <trkpt lat="48.8145" lon="2.4101">
        <ele>61.66</ele>
        <time>2019-02-16T15:22:19Z</time>
      </trkpt>
      <trkpt lat="48.8145" lon="2.41012">
        <ele>61.18</ele>
        <time>2019-02-16T15:22:20Z</time>
      </trkpt>
      <trkpt lat="48.81451" lon="2.41021">
        <ele>61.18</ele>
        <time>2019-02-16T15:22:24Z</time>
      </trkpt>
      <trkpt lat="48.81451" lon="2.41023">
        <ele>61.66</ele>
        <time>2019-02-16T15:22:25Z</time>
      </trkpt>
      <trkpt lat="48.81451" lon="2.41025">
        <ele>61.18</ele>
        <time>2019-02-16T15:22:26Z</time>
      </trkpt>
      <trkpt lat="48.81451" lon="2.41027">
        <ele>61.18</ele>
        <time>2019-02-16T15:22:27Z</time>
      </trkpt>
      <trkpt lat="48.81451" lon="2.41031">
        <ele>61.18</ele>
        <time>2019-02-16T15:22:30Z</time>
      </trkpt>
      <trkpt lat="48.81451" lon="2.41033">
        <ele>61.66</ele>
        <time>2019-02-16T15:22:31Z</time>
      </trkpt>
      <trkpt lat="48.81451" lon="2.41035">
        <ele>61.18</ele>
        <time>2019-02-16T15:22:32Z</time>
      </trkpt>
      <trkpt lat="48.81449" lon="2.41056">
        <ele>61.18</ele>
        <time>2019-02-16T15:22:44Z</time>
      </trkpt>
      <trkpt lat="48.81451" lon="2.41058">
        <ele>60.7</ele>
        <time>2019-02-16T15:22:57Z</time>
      </trkpt>
      <trkpt lat="48.81451" lon="2.41057">
        <ele>61.18</ele>
        <time>2019-02-16T15:23:10Z</time>
      </trkpt>
      <trkpt lat="48.8145" lon="2.41067">
        <ele>60.7</ele>
        <time>2019-02-16T15:23:19Z</time>
      </trkpt>
      <trkpt lat="48.81449" lon="2.41069">
        <ele>60.7</ele>
        <time>2019-02-16T15:23:20Z</time>
      </trkpt>
      <trkpt lat="48.81449" lon="2.41071">
        <ele>60.7</ele>
        <time>2019-02-16T15:23:21Z</time>
      </trkpt>
      <trkpt lat="48.81449" lon="2.41082">
        <ele>60.22</ele>
        <time>2019-02-16T15:23:27Z</time>
      </trkpt>
      <trkpt lat="48.8145" lon="2.41091">
        <ele>60.22</ele>
        <time>2019-02-16T15:23:37Z</time>
      </trkpt>
      <trkpt lat="48.8145" lon="2.41097">
        <ele>59.26</ele>
        <time>2019-02-16T15:23:44Z</time>
      </trkpt>
      <trkpt lat="48.8145" lon="2.41101">
        <ele>59.74</ele>
        <time>2019-02-16T15:23:46Z</time>
      </trkpt>
      <trkpt lat="48.8145" lon="2.41107">
        <ele>59.74</ele>
        <time>2019-02-16T15:23:53Z</time>
      </trkpt>
      <trkpt lat="48.8145" lon="2.41109">
        <ele>59.26</ele>
        <time>2019-02-16T15:23:54Z</time>
      </trkpt>
      <trkpt lat="48.8145" lon="2.41112">
        <ele>59.26</ele>
        <time>2019-02-16T15:23:55Z</time>
      </trkpt>
      <trkpt lat="48.81449" lon="2.41131">
        <ele>58.3</ele>
        <time>2019-02-16T15:24:06Z</time>
      </trkpt>
      <trkpt lat="48.81447" lon="2.41156">
        <ele>57.82</ele>
        <time>2019-02-16T15:24:18Z</time>
      </trkpt>
      <trkpt lat="48.81449" lon="2.41176">
        <ele>56.37</ele>
        <time>2019-02-16T15:24:28Z</time>
      </trkpt>
      <trkpt lat="48.81454" lon="2.41181">
        <ele>57.34</ele>
        <time>2019-02-16T15:24:40Z</time>
      </trkpt>
      <trkpt lat="48.81456" lon="2.41182">
        <ele>56.37</ele>
        <time>2019-02-16T15:24:41Z</time>
      </trkpt>
      <trkpt lat="48.81457" lon="2.41183">
        <ele>56.37</ele>
        <time>2019-02-16T15:24:42Z</time>
      </trkpt>
      <trkpt lat="48.81459" lon="2.41184">
        <ele>56.37</ele>
        <time>2019-02-16T15:24:43Z</time>
      </trkpt>
      <trkpt lat="48.8146" lon="2.41186">
        <ele>56.86</ele>
        <time>2019-02-16T15:24:44Z</time>
      </trkpt>
      <trkpt lat="48.81462" lon="2.41187">
        <ele>56.37</ele>
        <time>2019-02-16T15:24:45Z</time>
      </trkpt>
      <trkpt lat="48.81463" lon="2.41189">
        <ele>55.89</ele>
        <time>2019-02-16T15:24:46Z</time>
      </trkpt>
      <trkpt lat="48.81473" lon="2.41205">
        <ele>55.41</ele>
        <time>2019-02-16T15:24:55Z</time>
      </trkpt>
      <trkpt lat="48.81475" lon="2.41211">
        <ele>54.45</ele>
        <time>2019-02-16T15:25:03Z</time>
      </trkpt>
      <trkpt lat="48.81476" lon="2.41214">
        <ele>53.97</ele>
        <time>2019-02-16T15:25:11Z</time>
      </trkpt>
      <trkpt lat="48.8148" lon="2.41214">
        <ele>53.97</ele>
        <time>2019-02-16T15:25:15Z</time>
      </trkpt>
      <trkpt lat="48.81492" lon="2.41219">
        <ele>53.01</ele>
        <time>2019-02-16T15:25:26Z</time>
      </trkpt>
      <trkpt lat="48.81506" lon="2.41219">
        <ele>53.01</ele>
        <time>2019-02-16T15:25:40Z</time>
      </trkpt>
      <trkpt lat="48.81522" lon="2.41217">
        <ele>52.53</ele>
        <time>2019-02-16T15:25:55Z</time>
      </trkpt>
      <trkpt lat="48.81539" lon="2.41219">
        <ele>52.53</ele>
        <time>2019-02-16T15:26:04Z</time>
      </trkpt>
      <trkpt lat="48.81542" lon="2.4122">
        <ele>52.53</ele>
        <time>2019-02-16T15:26:06Z</time>
      </trkpt>
      <trkpt lat="48.81556" lon="2.41232">
        <ele>52.05</ele>
        <time>2019-02-16T15:26:16Z</time>
      </trkpt>
      <trkpt lat="48.81566" lon="2.41238">
        <ele>52.05</ele>
        <time>2019-02-16T15:26:23Z</time>
      </trkpt>
      <trkpt lat="48.81568" lon="2.41238">
        <ele>52.05</ele>
        <time>2019-02-16T15:26:25Z</time>
      </trkpt>
      <trkpt lat="48.81577" lon="2.41239">
        <ele>52.53</ele>
        <time>2019-02-16T15:26:32Z</time>
      </trkpt>
      <trkpt lat="48.81578" lon="2.41239">
        <ele>52.53</ele>
        <time>2019-02-16T15:26:33Z</time>
      </trkpt>
      <trkpt lat="48.81586" lon="2.41238">
        <ele>53.01</ele>
        <time>2019-02-16T15:26:43Z</time>
      </trkpt>
      <trkpt lat="48.81591" lon="2.41239">
        <ele>53.01</ele>
        <time>2019-02-16T15:26:48Z</time>
      </trkpt>
      <trkpt lat="48.81593" lon="2.41238">
        <ele>53.01</ele>
        <time>2019-02-16T15:26:49Z</time>
      </trkpt>
      <trkpt lat="48.81595" lon="2.41236">
        <ele>52.53</ele>
        <time>2019-02-16T15:26:50Z</time>
      </trkpt>
      <trkpt lat="48.81597" lon="2.41234">
        <ele>52.53</ele>
        <time>2019-02-16T15:26:51Z</time>
      </trkpt>
      <trkpt lat="48.81598" lon="2.41231">
        <ele>52.53</ele>
        <time>2019-02-16T15:26:52Z</time>
      </trkpt>
      <trkpt lat="48.81602" lon="2.41214">
        <ele>53.49</ele>
        <time>2019-02-16T15:27:03Z</time>
      </trkpt>
      <trkpt lat="48.81605" lon="2.41169">
        <ele>53.01</ele>
        <time>2019-02-16T15:27:21Z</time>
      </trkpt>
      <trkpt lat="48.81605" lon="2.41165">
        <ele>53.01</ele>
        <time>2019-02-16T15:27:23Z</time>
      </trkpt>
      <trkpt lat="48.81605" lon="2.41162">
        <ele>53.01</ele>
        <time>2019-02-16T15:27:24Z</time>
      </trkpt>
      <trkpt lat="48.81605" lon="2.41147">
        <ele>53.49</ele>
        <time>2019-02-16T15:27:33Z</time>
      </trkpt>
      <trkpt lat="48.81611" lon="2.41129">
        <ele>51.57</ele>
        <time>2019-02-16T15:27:51Z</time>
      </trkpt>
      <trkpt lat="48.81612" lon="2.41126">
        <ele>50.61</ele>
        <time>2019-02-16T15:27:54Z</time>
      </trkpt>
      <trkpt lat="48.81612" lon="2.41125">
        <ele>52.05</ele>
        <time>2019-02-16T15:27:55Z</time>
      </trkpt>
      <trkpt lat="48.81615" lon="2.41113">
        <ele>49.65</ele>
        <time>2019-02-16T15:28:05Z</time>
      </trkpt>
      <trkpt lat="48.81616" lon="2.41111">
        <ele>49.65</ele>
        <time>2019-02-16T15:28:06Z</time>
      </trkpt>
      <trkpt lat="48.81616" lon="2.41109">
        <ele>49.65</ele>
        <time>2019-02-16T15:28:07Z</time>
      </trkpt>
      <trkpt lat="48.81616" lon="2.41103">
        <ele>49.65</ele>
        <time>2019-02-16T15:28:10Z</time>
      </trkpt>
      <trkpt lat="48.81616" lon="2.41101">
        <ele>49.16</ele>
        <time>2019-02-16T15:28:11Z</time>
      </trkpt>
      <trkpt lat="48.81605" lon="2.41083">
        <ele>49.65</ele>
        <time>2019-02-16T15:28:24Z</time>
      </trkpt>
      <trkpt lat="48.81588" lon="2.41071">
        <ele>48.68</ele>
        <time>2019-02-16T15:28:37Z</time>
      </trkpt>
      <trkpt lat="48.81586" lon="2.41071">
        <ele>48.68</ele>
        <time>2019-02-16T15:28:43Z</time>
      </trkpt>
      <trkpt lat="48.81567" lon="2.41079">
        <ele>49.16</ele>
        <time>2019-02-16T15:28:59Z</time>
      </trkpt>
      <trkpt lat="48.81566" lon="2.4108">
        <ele>49.16</ele>
        <time>2019-02-16T15:29:01Z</time>
      </trkpt>
      <trkpt lat="48.81562" lon="2.41079">
        <ele>48.68</ele>
        <time>2019-02-16T15:29:05Z</time>
      </trkpt>
      <trkpt lat="48.81558" lon="2.41083">
        <ele>48.68</ele>
        <time>2019-02-16T15:29:16Z</time>
      </trkpt>
      <trkpt lat="48.81556" lon="2.41085">
        <ele>48.68</ele>
        <time>2019-02-16T15:29:19Z</time>
      </trkpt>
      <trkpt lat="48.81554" lon="2.41087">
        <ele>48.68</ele>
        <time>2019-02-16T15:29:21Z</time>
      </trkpt>
      <trkpt lat="48.81546" lon="2.41089">
        <ele>49.65</ele>
        <time>2019-02-16T15:29:29Z</time>
      </trkpt>
      <trkpt lat="48.81534" lon="2.41093">
        <ele>48.68</ele>
        <time>2019-02-16T15:29:42Z</time>
      </trkpt>
      <trkpt lat="48.81523" lon="2.41096">
        <ele>48.68</ele>
        <time>2019-02-16T15:29:50Z</time>
      </trkpt>
      <trkpt lat="48.81518" lon="2.41098">
        <ele>48.68</ele>
        <time>2019-02-16T15:29:55Z</time>
      </trkpt>
      <trkpt lat="48.81507" lon="2.41103">
        <ele>49.65</ele>
        <time>2019-02-16T15:30:09Z</time>
      </trkpt>
      <trkpt lat="48.81496" lon="2.41106">
        <ele>53.01</ele>
        <time>2019-02-16T15:30:24Z</time>
      </trkpt>
      <trkpt lat="48.81494" lon="2.41109">
        <ele>53.49</ele>
        <time>2019-02-16T15:30:30Z</time>
      </trkpt>
      <trkpt lat="48.81499" lon="2.41109">
        <ele>53.01</ele>
        <time>2019-02-16T15:30:41Z</time>
      </trkpt>
      <trkpt lat="48.815" lon="2.41109">
        <ele>52.53</ele>
        <time>2019-02-16T15:30:43Z</time>
      </trkpt>
      <trkpt lat="48.81502" lon="2.4111">
        <ele>53.49</ele>
        <time>2019-02-16T15:30:46Z</time>
      </trkpt>
      <trkpt lat="48.81512" lon="2.41107">
        <ele>53.01</ele>
        <time>2019-02-16T15:30:57Z</time>
      </trkpt>
      <trkpt lat="48.81521" lon="2.41106">
        <ele>53.01</ele>
        <time>2019-02-16T15:31:09Z</time>
      </trkpt>
      <trkpt lat="48.81534" lon="2.41107">
        <ele>53.01</ele>
        <time>2019-02-16T15:31:22Z</time>
      </trkpt>
      <trkpt lat="48.81539" lon="2.41107">
        <ele>52.53</ele>
        <time>2019-02-16T15:31:27Z</time>
      </trkpt>
      <trkpt lat="48.81553" lon="2.41108">
        <ele>52.05</ele>
        <time>2019-02-16T15:31:39Z</time>
      </trkpt>
      <trkpt lat="48.81549" lon="2.4111">
        <ele>52.53</ele>
        <time>2019-02-16T15:31:50Z</time>
      </trkpt>
      <trkpt lat="48.81551" lon="2.41109">
        <ele>52.53</ele>
        <time>2019-02-16T15:32:04Z</time>
      </trkpt>
      <trkpt lat="48.81545" lon="2.41129">
        <ele>52.53</ele>
        <time>2019-02-16T15:32:26Z</time>
      </trkpt>
      <trkpt lat="48.81555" lon="2.41147">
        <ele>53.01</ele>
        <time>2019-02-16T15:32:44Z</time>
      </trkpt>
      <trkpt lat="48.81568" lon="2.41168">
        <ele>53.97</ele>
        <time>2019-02-16T15:33:11Z</time>
      </trkpt>
      <trkpt lat="48.81567" lon="2.41181">
        <ele>52.53</ele>
        <time>2019-02-16T15:33:30Z</time>
      </trkpt>
      <trkpt lat="48.81566" lon="2.4118">
        <ele>52.53</ele>
        <time>2019-02-16T15:33:46Z</time>
      </trkpt>
      <trkpt lat="48.81566" lon="2.41183">
        <ele>53.01</ele>
        <time>2019-02-16T15:34:04Z</time>
      </trkpt>
      <trkpt lat="48.81569" lon="2.41177">
        <ele>53.97</ele>
        <time>2019-02-16T15:34:26Z</time>
      </trkpt>
      <trkpt lat="48.81571" lon="2.41172">
        <ele>53.01</ele>
        <time>2019-02-16T15:34:29Z</time>
      </trkpt>
      <trkpt lat="48.81573" lon="2.41168">
        <ele>53.49</ele>
        <time>2019-02-16T15:34:31Z</time>
      </trkpt>
      <trkpt lat="48.8158" lon="2.41072">
        <ele>53.49</ele>
        <time>2019-02-16T15:34:52Z</time>
      </trkpt>
      <trkpt lat="48.81574" lon="2.41064">
        <ele>53.97</ele>
        <time>2019-02-16T15:35:17Z</time>
      </trkpt>
      <trkpt lat="48.81587" lon="2.41106">
        <ele>53.49</ele>
        <time>2019-02-16T15:38:03Z</time>
      </trkpt>
      <trkpt lat="48.81586" lon="2.41106">
        <ele>53.49</ele>
        <time>2019-02-16T15:38:04Z</time>
      </trkpt>
      <trkpt lat="48.81559" lon="2.41099">
        <ele>53.49</ele>
        <time>2019-02-16T15:38:21Z</time>
      </trkpt>
      <trkpt lat="48.81548" lon="2.41098">
        <ele>53.49</ele>
        <time>2019-02-16T15:38:31Z</time>
      </trkpt>
      <trkpt lat="48.81545" lon="2.41098">
        <ele>54.45</ele>
        <time>2019-02-16T15:38:41Z</time>
      </trkpt>
      <trkpt lat="48.81545" lon="2.41097">
        <ele>53.49</ele>
        <time>2019-02-16T15:39:06Z</time>
      </trkpt>
      <trkpt lat="48.81545" lon="2.41096">
        <ele>53.49</ele>
        <time>2019-02-16T15:39:26Z</time>
      </trkpt>
      <trkpt lat="48.81543" lon="2.41099">
        <ele>53.01</ele>
        <time>2019-02-16T15:39:46Z</time>
      </trkpt>
      <trkpt lat="48.81543" lon="2.41098">
        <ele>53.01</ele>
        <time>2019-02-16T15:40:19Z</time>
      </trkpt>
      <trkpt lat="48.81545" lon="2.41096">
        <ele>53.01</ele>
        <time>2019-02-16T15:40:30Z</time>
      </trkpt>
      <trkpt lat="48.81545" lon="2.41096">
        <ele>53.01</ele>
        <time>2019-02-16T15:40:39Z</time>
      </trkpt>
      <trkpt lat="48.81545" lon="2.41095">
        <ele>52.53</ele>
        <time>2019-02-16T15:40:54Z</time>
      </trkpt>
      <trkpt lat="48.81544" lon="2.41094">
        <ele>52.53</ele>
        <time>2019-02-16T15:41:04Z</time>
      </trkpt>
      <trkpt lat="48.81546" lon="2.41098">
        <ele>52.05</ele>
        <time>2019-02-16T15:41:24Z</time>
      </trkpt>
      <trkpt lat="48.81543" lon="2.411">
        <ele>52.53</ele>
        <time>2019-02-16T15:41:44Z</time>
      </trkpt>
      <trkpt lat="48.8154" lon="2.41104">
        <ele>52.53</ele>
        <time>2019-02-16T15:41:51Z</time>
      </trkpt>
      <trkpt lat="48.81532" lon="2.41102">
        <ele>52.53</ele>
        <time>2019-02-16T15:42:04Z</time>
      </trkpt>
      <trkpt lat="48.81529" lon="2.41103">
        <ele>52.53</ele>
        <time>2019-02-16T15:42:09Z</time>
      </trkpt>
      <trkpt lat="48.81526" lon="2.41106">
        <ele>52.53</ele>
        <time>2019-02-16T15:42:13Z</time>
      </trkpt>
      <trkpt lat="48.81523" lon="2.41107">
        <ele>52.05</ele>
        <time>2019-02-16T15:42:16Z</time>
      </trkpt>
      <trkpt lat="48.8151" lon="2.41107">
        <ele>52.53</ele>
        <time>2019-02-16T15:42:27Z</time>
      </trkpt>
      <trkpt lat="48.81499" lon="2.41106">
        <ele>52.05</ele>
        <time>2019-02-16T15:42:39Z</time>
      </trkpt>
      <trkpt lat="48.81499" lon="2.41106">
        <ele>52.05</ele>
        <time>2019-02-16T15:42:40Z</time>
      </trkpt>
      <trkpt lat="48.81489" lon="2.41118">
        <ele>51.57</ele>
        <time>2019-02-16T15:42:51Z</time>
      </trkpt>
      <trkpt lat="48.81488" lon="2.41125">
        <ele>52.05</ele>
        <time>2019-02-16T15:42:54Z</time>
      </trkpt>
      <trkpt lat="48.81485" lon="2.41134">
        <ele>51.57</ele>
        <time>2019-02-16T15:43:00Z</time>
      </trkpt>
      <trkpt lat="48.81485" lon="2.41141">
        <ele>51.57</ele>
        <time>2019-02-16T15:43:04Z</time>
      </trkpt>
      <trkpt lat="48.81482" lon="2.41147">
        <ele>51.57</ele>
        <time>2019-02-16T15:43:09Z</time>
      </trkpt>
      <trkpt lat="48.81481" lon="2.41156">
        <ele>51.57</ele>
        <time>2019-02-16T15:43:14Z</time>
      </trkpt>
      <trkpt lat="48.81472" lon="2.41184">
        <ele>51.57</ele>
        <time>2019-02-16T15:43:26Z</time>
      </trkpt>
      <trkpt lat="48.81471" lon="2.41193">
        <ele>52.05</ele>
        <time>2019-02-16T15:43:34Z</time>
      </trkpt>
      <trkpt lat="48.81472" lon="2.41195">
        <ele>52.05</ele>
        <time>2019-02-16T15:43:35Z</time>
      </trkpt>
      <trkpt lat="48.81474" lon="2.41196">
        <ele>51.57</ele>
        <time>2019-02-16T15:43:36Z</time>
      </trkpt>
      <trkpt lat="48.81488" lon="2.41219">
        <ele>50.61</ele>
        <time>2019-02-16T15:43:48Z</time>
      </trkpt>
      <trkpt lat="48.81486" lon="2.41217">
        <ele>50.13</ele>
        <time>2019-02-16T15:43:54Z</time>
      </trkpt>
      <trkpt lat="48.81488" lon="2.41222">
        <ele>50.61</ele>
        <time>2019-02-16T15:44:00Z</time>
      </trkpt>
      <trkpt lat="48.81491" lon="2.41221">
        <ele>50.13</ele>
        <time>2019-02-16T15:44:06Z</time>
      </trkpt>
      <trkpt lat="48.81493" lon="2.41221">
        <ele>50.61</ele>
        <time>2019-02-16T15:44:08Z</time>
      </trkpt>
      <trkpt lat="48.81494" lon="2.41221">
        <ele>50.13</ele>
        <time>2019-02-16T15:44:09Z</time>
      </trkpt>
      <trkpt lat="48.81495" lon="2.41221">
        <ele>50.13</ele>
        <time>2019-02-16T15:44:10Z</time>
      </trkpt>
      <trkpt lat="48.81496" lon="2.4122">
        <ele>51.09</ele>
        <time>2019-02-16T15:44:11Z</time>
      </trkpt>
      <trkpt lat="48.81505" lon="2.41221">
        <ele>50.13</ele>
        <time>2019-02-16T15:44:20Z</time>
      </trkpt>
      <trkpt lat="48.81519" lon="2.41221">
        <ele>49.65</ele>
        <time>2019-02-16T15:44:32Z</time>
      </trkpt>
      <trkpt lat="48.81521" lon="2.4122">
        <ele>49.65</ele>
        <time>2019-02-16T15:44:33Z</time>
      </trkpt>
      <trkpt lat="48.81522" lon="2.4122">
        <ele>49.16</ele>
        <time>2019-02-16T15:44:34Z</time>
      </trkpt>
      <trkpt lat="48.81531" lon="2.41219">
        <ele>49.16</ele>
        <time>2019-02-16T15:44:43Z</time>
      </trkpt>
      <trkpt lat="48.81533" lon="2.4122">
        <ele>49.16</ele>
        <time>2019-02-16T15:44:45Z</time>
      </trkpt>
      <trkpt lat="48.81534" lon="2.41219">
        <ele>49.16</ele>
        <time>2019-02-16T15:44:46Z</time>
      </trkpt>
      <trkpt lat="48.81536" lon="2.4122">
        <ele>49.65</ele>
        <time>2019-02-16T15:44:47Z</time>
      </trkpt>
      <trkpt lat="48.81538" lon="2.4122">
        <ele>49.16</ele>
        <time>2019-02-16T15:44:48Z</time>
      </trkpt>
      <trkpt lat="48.81539" lon="2.4122">
        <ele>50.13</ele>
        <time>2019-02-16T15:44:49Z</time>
      </trkpt>
      <trkpt lat="48.8154" lon="2.4122">
        <ele>49.16</ele>
        <time>2019-02-16T15:44:50Z</time>
      </trkpt>
      <trkpt lat="48.81556" lon="2.41223">
        <ele>49.16</ele>
        <time>2019-02-16T15:45:04Z</time>
      </trkpt>
      <trkpt lat="48.8156" lon="2.41226">
        <ele>49.16</ele>
        <time>2019-02-16T15:45:07Z</time>
      </trkpt>
      <trkpt lat="48.81562" lon="2.41227">
        <ele>48.68</ele>
        <time>2019-02-16T15:45:09Z</time>
      </trkpt>
      <trkpt lat="48.81563" lon="2.41226">
        <ele>49.16</ele>
        <time>2019-02-16T15:45:10Z</time>
      </trkpt>
      <trkpt lat="48.81565" lon="2.41225">
        <ele>48.68</ele>
        <time>2019-02-16T15:45:11Z</time>
      </trkpt>
      <trkpt lat="48.81577" lon="2.4124">
        <ele>49.16</ele>
        <time>2019-02-16T15:45:21Z</time>
      </trkpt>
      <trkpt lat="48.81579" lon="2.41243">
        <ele>49.16</ele>
        <time>2019-02-16T15:45:22Z</time>
      </trkpt>
      <trkpt lat="48.8158" lon="2.41245">
        <ele>49.16</ele>
        <time>2019-02-16T15:45:23Z</time>
      </trkpt>
      <trkpt lat="48.81581" lon="2.41247">
        <ele>49.65</ele>
        <time>2019-02-16T15:45:24Z</time>
      </trkpt>
      <trkpt lat="48.81582" lon="2.41249">
        <ele>49.65</ele>
        <time>2019-02-16T15:45:25Z</time>
      </trkpt>
      <trkpt lat="48.81589" lon="2.41262">
        <ele>49.65</ele>
        <time>2019-02-16T15:45:36Z</time>
      </trkpt>
      <trkpt lat="48.8159" lon="2.4127">
        <ele>49.65</ele>
        <time>2019-02-16T15:45:40Z</time>
      </trkpt>
      <trkpt lat="48.81587" lon="2.41289">
        <ele>48.68</ele>
        <time>2019-02-16T15:45:53Z</time>
      </trkpt>
      <trkpt lat="48.81587" lon="2.41296">
        <ele>48.68</ele>
        <time>2019-02-16T15:45:56Z</time>
      </trkpt>
      <trkpt lat="48.81588" lon="2.41297">
        <ele>48.2</ele>
        <time>2019-02-16T15:45:57Z</time>
      </trkpt>
      <trkpt lat="48.81589" lon="2.41303">
        <ele>49.16</ele>
        <time>2019-02-16T15:46:01Z</time>
      </trkpt>
      <trkpt lat="48.81592" lon="2.41318">
        <ele>49.16</ele>
        <time>2019-02-16T15:46:08Z</time>
      </trkpt>
      <trkpt lat="48.81593" lon="2.4132">
        <ele>49.16</ele>
        <time>2019-02-16T15:46:09Z</time>
      </trkpt>
      <trkpt lat="48.81594" lon="2.41321">
        <ele>50.61</ele>
        <time>2019-02-16T15:46:14Z</time>
      </trkpt>
      <trkpt lat="48.81593" lon="2.41323">
        <ele>52.05</ele>
        <time>2019-02-16T15:46:19Z</time>
      </trkpt>
      <trkpt lat="48.81594" lon="2.41325">
        <ele>52.05</ele>
        <time>2019-02-16T15:46:21Z</time>
      </trkpt>
      <trkpt lat="48.81595" lon="2.41327">
        <ele>52.05</ele>
        <time>2019-02-16T15:46:22Z</time>
      </trkpt>
      <trkpt lat="48.81603" lon="2.41327">
        <ele>53.01</ele>
        <time>2019-02-16T15:46:32Z</time>
      </trkpt>
      <trkpt lat="48.8161" lon="2.41327">
        <ele>53.49</ele>
        <time>2019-02-16T15:46:39Z</time>
      </trkpt>
      <trkpt lat="48.81629" lon="2.4133">
        <ele>53.01</ele>
        <time>2019-02-16T15:46:53Z</time>
      </trkpt>
      <trkpt lat="48.81645" lon="2.41334">
        <ele>53.01</ele>
        <time>2019-02-16T15:47:07Z</time>
      </trkpt>
      <trkpt lat="48.81646" lon="2.41334">
        <ele>53.49</ele>
        <time>2019-02-16T15:47:08Z</time>
      </trkpt>
      <trkpt lat="48.81648" lon="2.41334">
        <ele>53.01</ele>
        <time>2019-02-16T15:47:09Z</time>
      </trkpt>
      <trkpt lat="48.81651" lon="2.41334">
        <ele>53.01</ele>
        <time>2019-02-16T15:47:12Z</time>
      </trkpt>
      <trkpt lat="48.81656" lon="2.41335">
        <ele>52.53</ele>
        <time>2019-02-16T15:47:17Z</time>
      </trkpt>
      <trkpt lat="48.81658" lon="2.41335">
        <ele>53.01</ele>
        <time>2019-02-16T15:47:19Z</time>
      </trkpt>
      <trkpt lat="48.8166" lon="2.41335">
        <ele>52.53</ele>
        <time>2019-02-16T15:47:20Z</time>
      </trkpt>
      <trkpt lat="48.81662" lon="2.41335">
        <ele>52.53</ele>
        <time>2019-02-16T15:47:21Z</time>
      </trkpt>
      <trkpt lat="48.81663" lon="2.41335">
        <ele>52.05</ele>
        <time>2019-02-16T15:47:22Z</time>
      </trkpt>
      <trkpt lat="48.81665" lon="2.41336">
        <ele>51.57</ele>
        <time>2019-02-16T15:47:23Z</time>
      </trkpt>
      <trkpt lat="48.81674" lon="2.41337">
        <ele>50.61</ele>
        <time>2019-02-16T15:47:36Z</time>
      </trkpt>
      <trkpt lat="48.81674" lon="2.41338">
        <ele>50.61</ele>
        <time>2019-02-16T15:47:40Z</time>
      </trkpt>
      <trkpt lat="48.81673" lon="2.4133">
        <ele>49.65</ele>
        <time>2019-02-16T15:47:54Z</time>
      </trkpt>
      <trkpt lat="48.81668" lon="2.4133">
        <ele>46.76</ele>
        <time>2019-02-16T15:48:07Z</time>
      </trkpt>
      <trkpt lat="48.81667" lon="2.41328">
        <ele>46.76</ele>
        <time>2019-02-16T15:48:22Z</time>
      </trkpt>
      <trkpt lat="48.81666" lon="2.41332">
        <ele>46.76</ele>
        <time>2019-02-16T15:48:37Z</time>
      </trkpt>
      <trkpt lat="48.81664" lon="2.4134">
        <ele>46.28</ele>
        <time>2019-02-16T15:48:53Z</time>
      </trkpt>
      <trkpt lat="48.81663" lon="2.41345">
        <ele>45.8</ele>
        <time>2019-02-16T15:48:56Z</time>
      </trkpt>
      <trkpt lat="48.81663" lon="2.41348">
        <ele>45.32</ele>
        <time>2019-02-16T15:48:57Z</time>
      </trkpt>
      <trkpt lat="48.81662" lon="2.4135">
        <ele>46.28</ele>
        <time>2019-02-16T15:48:58Z</time>
      </trkpt>
      <trkpt lat="48.81662" lon="2.41354">
        <ele>45.8</ele>
        <time>2019-02-16T15:49:00Z</time>
      </trkpt>
      <trkpt lat="48.81662" lon="2.41356">
        <ele>45.8</ele>
        <time>2019-02-16T15:49:01Z</time>
      </trkpt>
      <trkpt lat="48.81662" lon="2.41358">
        <ele>45.32</ele>
        <time>2019-02-16T15:49:02Z</time>
      </trkpt>
      <trkpt lat="48.81661" lon="2.41374">
        <ele>45.8</ele>
        <time>2019-02-16T15:49:09Z</time>
      </trkpt>
      <trkpt lat="48.81661" lon="2.41377">
        <ele>46.76</ele>
        <time>2019-02-16T15:49:11Z</time>
      </trkpt>
      <trkpt lat="48.8166" lon="2.41382">
        <ele>46.76</ele>
        <time>2019-02-16T15:49:25Z</time>
      </trkpt>
      <trkpt lat="48.81661" lon="2.41385">
        <ele>45.8</ele>
        <time>2019-02-16T15:49:27Z</time>
      </trkpt>
      <trkpt lat="48.81661" lon="2.41387">
        <ele>45.32</ele>
        <time>2019-02-16T15:49:29Z</time>
      </trkpt>
      <trkpt lat="48.81661" lon="2.4139">
        <ele>45.8</ele>
        <time>2019-02-16T15:49:31Z</time>
      </trkpt>
      <trkpt lat="48.81661" lon="2.41392">
        <ele>45.32</ele>
        <time>2019-02-16T15:49:32Z</time>
      </trkpt>
      <trkpt lat="48.8166" lon="2.41394">
        <ele>45.8</ele>
        <time>2019-02-16T15:49:33Z</time>
      </trkpt>
      <trkpt lat="48.81659" lon="2.41398">
        <ele>46.76</ele>
        <time>2019-02-16T15:49:45Z</time>
      </trkpt>
      <trkpt lat="48.81658" lon="2.41407">
        <ele>47.72</ele>
        <time>2019-02-16T15:49:52Z</time>
      </trkpt>
      <trkpt lat="48.81658" lon="2.41408">
        <ele>47.24</ele>
        <time>2019-02-16T15:49:53Z</time>
      </trkpt>
      <trkpt lat="48.81658" lon="2.41424">
        <ele>46.76</ele>
        <time>2019-02-16T15:50:04Z</time>
      </trkpt>
      <trkpt lat="48.81656" lon="2.41449">
        <ele>46.76</ele>
        <time>2019-02-16T15:50:18Z</time>
      </trkpt>
      <trkpt lat="48.81657" lon="2.41477">
        <ele>47.72</ele>
        <time>2019-02-16T15:50:30Z</time>
      </trkpt>
      <trkpt lat="48.81656" lon="2.41491">
        <ele>46.28</ele>
        <time>2019-02-16T15:50:41Z</time>
      </trkpt>
      <trkpt lat="48.81661" lon="2.41524">
        <ele>46.76</ele>
        <time>2019-02-16T15:50:57Z</time>
      </trkpt>
      <trkpt lat="48.81659" lon="2.41531">
        <ele>46.28</ele>
        <time>2019-02-16T15:51:02Z</time>
      </trkpt>
      <trkpt lat="48.8166" lon="2.41535">
        <ele>46.28</ele>
        <time>2019-02-16T15:51:03Z</time>
      </trkpt>
      <trkpt lat="48.8166" lon="2.41538">
        <ele>46.28</ele>
        <time>2019-02-16T15:51:04Z</time>
      </trkpt>
      <trkpt lat="48.81661" lon="2.4154">
        <ele>46.28</ele>
        <time>2019-02-16T15:51:05Z</time>
      </trkpt>
      <trkpt lat="48.81661" lon="2.41542">
        <ele>46.28</ele>
        <time>2019-02-16T15:51:06Z</time>
      </trkpt>
      <trkpt lat="48.81661" lon="2.41544">
        <ele>46.28</ele>
        <time>2019-02-16T15:51:07Z</time>
      </trkpt>
      <trkpt lat="48.81662" lon="2.41564">
        <ele>46.28</ele>
        <time>2019-02-16T15:51:20Z</time>
      </trkpt>
      <trkpt lat="48.81671" lon="2.41591">
        <ele>46.76</ele>
        <time>2019-02-16T15:51:33Z</time>
      </trkpt>
      <trkpt lat="48.81675" lon="2.41597">
        <ele>45.8</ele>
        <time>2019-02-16T15:51:41Z</time>
      </trkpt>
      <trkpt lat="48.81674" lon="2.41616">
        <ele>45.8</ele>
        <time>2019-02-16T15:51:53Z</time>
      </trkpt>
      <trkpt lat="48.81677" lon="2.41639">
        <ele>46.76</ele>
        <time>2019-02-16T15:52:04Z</time>
      </trkpt>
      <trkpt lat="48.81678" lon="2.41664">
        <ele>45.8</ele>
        <time>2019-02-16T15:52:16Z</time>
      </trkpt>
      <trkpt lat="48.81678" lon="2.41684">
        <ele>45.32</ele>
        <time>2019-02-16T15:52:28Z</time>
      </trkpt>
      <trkpt lat="48.81679" lon="2.41687">
        <ele>45.8</ele>
        <time>2019-02-16T15:52:29Z</time>
      </trkpt>
      <trkpt lat="48.8168" lon="2.41702">
        <ele>45.32</ele>
        <time>2019-02-16T15:52:36Z</time>
      </trkpt>
      <trkpt lat="48.81681" lon="2.41704">
        <ele>45.32</ele>
        <time>2019-02-16T15:52:37Z</time>
      </trkpt>
      <trkpt lat="48.81682" lon="2.41708">
        <ele>45.32</ele>
        <time>2019-02-16T15:52:38Z</time>
      </trkpt>
      <trkpt lat="48.81682" lon="2.41711">
        <ele>45.8</ele>
        <time>2019-02-16T15:52:39Z</time>
      </trkpt>
      <trkpt lat="48.81683" lon="2.41713">
        <ele>44.84</ele>
        <time>2019-02-16T15:52:40Z</time>
      </trkpt>
      <trkpt lat="48.81683" lon="2.41726">
        <ele>45.32</ele>
        <time>2019-02-16T15:52:52Z</time>
      </trkpt>
      <trkpt lat="48.81686" lon="2.41739">
        <ele>46.28</ele>
        <time>2019-02-16T15:52:58Z</time>
      </trkpt>
      <trkpt lat="48.81686" lon="2.41741">
        <ele>45.32</ele>
        <time>2019-02-16T15:52:59Z</time>
      </trkpt>
      <trkpt lat="48.81686" lon="2.41744">
        <ele>45.32</ele>
        <time>2019-02-16T15:53:00Z</time>
      </trkpt>
      <trkpt lat="48.81686" lon="2.41746">
        <ele>45.32</ele>
        <time>2019-02-16T15:53:01Z</time>
      </trkpt>
      <trkpt lat="48.81687" lon="2.41748">
        <ele>44.84</ele>
        <time>2019-02-16T15:53:02Z</time>
      </trkpt>
      <trkpt lat="48.81687" lon="2.41751">
        <ele>45.8</ele>
        <time>2019-02-16T15:53:03Z</time>
      </trkpt>
      <trkpt lat="48.81687" lon="2.41754">
        <ele>45.8</ele>
        <time>2019-02-16T15:53:04Z</time>
      </trkpt>
      <trkpt lat="48.81687" lon="2.41756">
        <ele>45.32</ele>
        <time>2019-02-16T15:53:05Z</time>
      </trkpt>
      <trkpt lat="48.81695" lon="2.41779">
        <ele>45.32</ele>
        <time>2019-02-16T15:53:15Z</time>
      </trkpt>
      <trkpt lat="48.81695" lon="2.41781">
        <ele>45.8</ele>
        <time>2019-02-16T15:53:16Z</time>
      </trkpt>
      <trkpt lat="48.81696" lon="2.41784">
        <ele>45.8</ele>
        <time>2019-02-16T15:53:17Z</time>
      </trkpt>
      <trkpt lat="48.81696" lon="2.41794">
        <ele>45.32</ele>
        <time>2019-02-16T15:53:27Z</time>
      </trkpt>
      <trkpt lat="48.81697" lon="2.41794">
        <ele>45.32</ele>
        <time>2019-02-16T15:53:46Z</time>
      </trkpt>
      <trkpt lat="48.81701" lon="2.41804">
        <ele>45.32</ele>
        <time>2019-02-16T15:53:54Z</time>
      </trkpt>
      <trkpt lat="48.81701" lon="2.41806">
        <ele>45.32</ele>
        <time>2019-02-16T15:53:55Z</time>
      </trkpt>
      <trkpt lat="48.81702" lon="2.41813">
        <ele>45.32</ele>
        <time>2019-02-16T15:54:06Z</time>
      </trkpt>
      <trkpt lat="48.81702" lon="2.4182">
        <ele>45.32</ele>
        <time>2019-02-16T15:54:10Z</time>
      </trkpt>
      <trkpt lat="48.81702" lon="2.41822">
        <ele>44.84</ele>
        <time>2019-02-16T15:54:11Z</time>
      </trkpt>
      <trkpt lat="48.81701" lon="2.41823">
        <ele>45.32</ele>
        <time>2019-02-16T15:54:12Z</time>
      </trkpt>
      <trkpt lat="48.81701" lon="2.41825">
        <ele>45.32</ele>
        <time>2019-02-16T15:54:13Z</time>
      </trkpt>
      <trkpt lat="48.81701" lon="2.41826">
        <ele>44.84</ele>
        <time>2019-02-16T15:54:14Z</time>
      </trkpt>
      <trkpt lat="48.81706" lon="2.41845">
        <ele>44.84</ele>
        <time>2019-02-16T15:54:27Z</time>
      </trkpt>
      <trkpt lat="48.81707" lon="2.41846">
        <ele>45.32</ele>
        <time>2019-02-16T15:54:28Z</time>
      </trkpt>
      <trkpt lat="48.81707" lon="2.4185">
        <ele>45.8</ele>
        <time>2019-02-16T15:54:29Z</time>
      </trkpt>
      <trkpt lat="48.81711" lon="2.41874">
        <ele>45.32</ele>
        <time>2019-02-16T15:54:41Z</time>
      </trkpt>
      <trkpt lat="48.81711" lon="2.41876">
        <ele>45.32</ele>
        <time>2019-02-16T15:54:42Z</time>
      </trkpt>
      <trkpt lat="48.8171" lon="2.41893">
        <ele>44.36</ele>
        <time>2019-02-16T15:54:56Z</time>
      </trkpt>
      <trkpt lat="48.8171" lon="2.41907">
        <ele>44.36</ele>
        <time>2019-02-16T15:55:01Z</time>
      </trkpt>
      <trkpt lat="48.8171" lon="2.41909">
        <ele>44.36</ele>
        <time>2019-02-16T15:55:02Z</time>
      </trkpt>
      <trkpt lat="48.81717" lon="2.4194">
        <ele>45.32</ele>
        <time>2019-02-16T15:55:15Z</time>
      </trkpt>
      <trkpt lat="48.81718" lon="2.41945">
        <ele>44.36</ele>
        <time>2019-02-16T15:55:18Z</time>
      </trkpt>
      <trkpt lat="48.81722" lon="2.41955">
        <ele>45.8</ele>
        <time>2019-02-16T15:55:24Z</time>
      </trkpt>
      <trkpt lat="48.81728" lon="2.41976">
        <ele>44.84</ele>
        <time>2019-02-16T15:55:37Z</time>
      </trkpt>
      <trkpt lat="48.81729" lon="2.41989">
        <ele>44.36</ele>
        <time>2019-02-16T15:55:41Z</time>
      </trkpt>
      <trkpt lat="48.81729" lon="2.41993">
        <ele>44.36</ele>
        <time>2019-02-16T15:55:42Z</time>
      </trkpt>
      <trkpt lat="48.81722" lon="2.42014">
        <ele>44.36</ele>
        <time>2019-02-16T15:55:50Z</time>
      </trkpt>
      <trkpt lat="48.81722" lon="2.42015">
        <ele>45.32</ele>
        <time>2019-02-16T15:55:51Z</time>
      </trkpt>
      <trkpt lat="48.8172" lon="2.42018">
        <ele>44.84</ele>
        <time>2019-02-16T15:55:54Z</time>
      </trkpt>
      <trkpt lat="48.81718" lon="2.42048">
        <ele>44.84</ele>
        <time>2019-02-16T15:56:09Z</time>
      </trkpt>
      <trkpt lat="48.81717" lon="2.42053">
        <ele>44.84</ele>
        <time>2019-02-16T15:56:12Z</time>
      </trkpt>
      <trkpt lat="48.81717" lon="2.42055">
        <ele>44.84</ele>
        <time>2019-02-16T15:56:13Z</time>
      </trkpt>
      <trkpt lat="48.81718" lon="2.42074">
        <ele>45.32</ele>
        <time>2019-02-16T15:56:27Z</time>
      </trkpt>
      <trkpt lat="48.81715" lon="2.42085">
        <ele>45.32</ele>
        <time>2019-02-16T15:56:39Z</time>
      </trkpt>
      <trkpt lat="48.81714" lon="2.42087">
        <ele>46.76</ele>
        <time>2019-02-16T15:56:41Z</time>
      </trkpt>
      <trkpt lat="48.81716" lon="2.42107">
        <ele>46.28</ele>
        <time>2019-02-16T15:56:54Z</time>
      </trkpt>
      <trkpt lat="48.81717" lon="2.42115">
        <ele>46.76</ele>
        <time>2019-02-16T15:57:06Z</time>
      </trkpt>
      <trkpt lat="48.81717" lon="2.42133">
        <ele>46.28</ele>
        <time>2019-02-16T15:57:17Z</time>
      </trkpt>
      <trkpt lat="48.81713" lon="2.42157">
        <ele>45.8</ele>
        <time>2019-02-16T15:57:30Z</time>
      </trkpt>
      <trkpt lat="48.81708" lon="2.42174">
        <ele>46.76</ele>
        <time>2019-02-16T15:57:42Z</time>
      </trkpt>
      <trkpt lat="48.81707" lon="2.42206">
        <ele>46.76</ele>
        <time>2019-02-16T15:57:57Z</time>
      </trkpt>
      <trkpt lat="48.81714" lon="2.42221">
        <ele>46.28</ele>
        <time>2019-02-16T15:58:07Z</time>
      </trkpt>
      <trkpt lat="48.81716" lon="2.42225">
        <ele>46.76</ele>
        <time>2019-02-16T15:58:09Z</time>
      </trkpt>
      <trkpt lat="48.81717" lon="2.42227">
        <ele>46.76</ele>
        <time>2019-02-16T15:58:10Z</time>
      </trkpt>
      <trkpt lat="48.81723" lon="2.42241">
        <ele>48.2</ele>
        <time>2019-02-16T15:58:22Z</time>
      </trkpt>
      <trkpt lat="48.81723" lon="2.42244">
        <ele>47.72</ele>
        <time>2019-02-16T15:58:23Z</time>
      </trkpt>
      <trkpt lat="48.81721" lon="2.42277">
        <ele>48.2</ele>
        <time>2019-02-16T15:58:41Z</time>
      </trkpt>
      <trkpt lat="48.81717" lon="2.42298">
        <ele>47.72</ele>
        <time>2019-02-16T15:58:54Z</time>
      </trkpt>
      <trkpt lat="48.81709" lon="2.42323">
        <ele>48.2</ele>
        <time>2019-02-16T15:59:08Z</time>
      </trkpt>
      <trkpt lat="48.81704" lon="2.42342">
        <ele>48.2</ele>
        <time>2019-02-16T15:59:20Z</time>
      </trkpt>
      <trkpt lat="48.81702" lon="2.42364">
        <ele>48.2</ele>
        <time>2019-02-16T15:59:34Z</time>
      </trkpt>
      <trkpt lat="48.81696" lon="2.42394">
        <ele>48.2</ele>
        <time>2019-02-16T15:59:48Z</time>
      </trkpt>
      <trkpt lat="48.81695" lon="2.42395">
        <ele>48.2</ele>
        <time>2019-02-16T15:59:49Z</time>
      </trkpt>
      <trkpt lat="48.81691" lon="2.4241">
        <ele>47.72</ele>
        <time>2019-02-16T15:59:58Z</time>
      </trkpt>
      <trkpt lat="48.81694" lon="2.42412">
        <ele>46.76</ele>
        <time>2019-02-16T16:00:04Z</time>
      </trkpt>
      <trkpt lat="48.81694" lon="2.42414">
        <ele>46.76</ele>
        <time>2019-02-16T16:00:05Z</time>
      </trkpt>
      <trkpt lat="48.81693" lon="2.42415">
        <ele>46.76</ele>
        <time>2019-02-16T16:00:06Z</time>
      </trkpt>
      <trkpt lat="48.81693" lon="2.42427">
        <ele>46.76</ele>
        <time>2019-02-16T16:00:14Z</time>
      </trkpt>
      <trkpt lat="48.81692" lon="2.42429">
        <ele>47.24</ele>
        <time>2019-02-16T16:00:15Z</time>
      </trkpt>
      <trkpt lat="48.81691" lon="2.42431">
        <ele>46.76</ele>
        <time>2019-02-16T16:00:16Z</time>
      </trkpt>
      <trkpt lat="48.8169" lon="2.42432">
        <ele>46.76</ele>
        <time>2019-02-16T16:00:17Z</time>
      </trkpt>
      <trkpt lat="48.81688" lon="2.42433">
        <ele>46.76</ele>
        <time>2019-02-16T16:00:18Z</time>
      </trkpt>
      <trkpt lat="48.81686" lon="2.42437">
        <ele>47.24</ele>
        <time>2019-02-16T16:00:22Z</time>
      </trkpt>
      <trkpt lat="48.81684" lon="2.42438">
        <ele>47.24</ele>
        <time>2019-02-16T16:00:23Z</time>
      </trkpt>
      <trkpt lat="48.81679" lon="2.42436">
        <ele>48.2</ele>
        <time>2019-02-16T16:00:31Z</time>
      </trkpt>
      <trkpt lat="48.81673" lon="2.42437">
        <ele>50.13</ele>
        <time>2019-02-16T16:00:40Z</time>
      </trkpt>
      <trkpt lat="48.81668" lon="2.42434">
        <ele>50.61</ele>
        <time>2019-02-16T16:00:49Z</time>
      </trkpt>
      <trkpt lat="48.81663" lon="2.42435">
        <ele>52.05</ele>
        <time>2019-02-16T16:00:56Z</time>
      </trkpt>
      <trkpt lat="48.81658" lon="2.42438">
        <ele>52.53</ele>
        <time>2019-02-16T16:01:07Z</time>
      </trkpt>
      <trkpt lat="48.81652" lon="2.4244">
        <ele>52.53</ele>
        <time>2019-02-16T16:01:21Z</time>
      </trkpt>
      <trkpt lat="48.81651" lon="2.4244">
        <ele>52.53</ele>
        <time>2019-02-16T16:01:23Z</time>
      </trkpt>
      <trkpt lat="48.8165" lon="2.42441">
        <ele>52.53</ele>
        <time>2019-02-16T16:01:25Z</time>
      </trkpt>
      <trkpt lat="48.81646" lon="2.42438">
        <ele>53.01</ele>
        <time>2019-02-16T16:01:31Z</time>
      </trkpt>
      <trkpt lat="48.81639" lon="2.42435">
        <ele>53.49</ele>
        <time>2019-02-16T16:01:42Z</time>
      </trkpt>
      <trkpt lat="48.81634" lon="2.42428">
        <ele>53.01</ele>
        <time>2019-02-16T16:02:12Z</time>
      </trkpt>
      <trkpt lat="48.81633" lon="2.42438">
        <ele>52.53</ele>
        <time>2019-02-16T16:02:33Z</time>
      </trkpt>
      <trkpt lat="48.81627" lon="2.42437">
        <ele>52.53</ele>
        <time>2019-02-16T16:02:45Z</time>
      </trkpt>
      <trkpt lat="48.81618" lon="2.42438">
        <ele>52.05</ele>
        <time>2019-02-16T16:02:56Z</time>
      </trkpt>
      <trkpt lat="48.81617" lon="2.42438">
        <ele>52.53</ele>
        <time>2019-02-16T16:02:57Z</time>
      </trkpt>
      <trkpt lat="48.81616" lon="2.42437">
        <ele>52.05</ele>
        <time>2019-02-16T16:02:58Z</time>
      </trkpt>
      <trkpt lat="48.81605" lon="2.42438">
        <ele>51.09</ele>
        <time>2019-02-16T16:03:08Z</time>
      </trkpt>
      <trkpt lat="48.81603" lon="2.42438">
        <ele>50.61</ele>
        <time>2019-02-16T16:03:09Z</time>
      </trkpt>
      <trkpt lat="48.81597" lon="2.42434">
        <ele>50.13</ele>
        <time>2019-02-16T16:03:20Z</time>
      </trkpt>
      <trkpt lat="48.81596" lon="2.42434">
        <ele>49.16</ele>
        <time>2019-02-16T16:03:37Z</time>
      </trkpt>
      <trkpt lat="48.81597" lon="2.42435">
        <ele>48.68</ele>
        <time>2019-02-16T16:03:48Z</time>
      </trkpt>
      <trkpt lat="48.81596" lon="2.42436">
        <ele>49.16</ele>
        <time>2019-02-16T16:03:57Z</time>
      </trkpt>
      <trkpt lat="48.81584" lon="2.42436">
        <ele>46.76</ele>
        <time>2019-02-16T16:04:07Z</time>
      </trkpt>
      <trkpt lat="48.81579" lon="2.42436">
        <ele>44.84</ele>
        <time>2019-02-16T16:04:17Z</time>
      </trkpt>
      <trkpt lat="48.8158" lon="2.4244">
        <ele>44.84</ele>
        <time>2019-02-16T16:04:21Z</time>
      </trkpt>
      <trkpt lat="48.8158" lon="2.42442">
        <ele>44.84</ele>
        <time>2019-02-16T16:04:22Z</time>
      </trkpt>
      <trkpt lat="48.81584" lon="2.42444">
        <ele>42.44</ele>
        <time>2019-02-16T16:04:27Z</time>
      </trkpt>
      <trkpt lat="48.81585" lon="2.42445">
        <ele>42.44</ele>
        <time>2019-02-16T16:04:28Z</time>
      </trkpt>
      <trkpt lat="48.8159" lon="2.42451">
        <ele>42.44</ele>
        <time>2019-02-16T16:04:41Z</time>
      </trkpt>
      <trkpt lat="48.81588" lon="2.42447">
        <ele>42.44</ele>
        <time>2019-02-16T16:05:06Z</time>
      </trkpt>
      <trkpt lat="48.81588" lon="2.42449">
        <ele>42.44</ele>
        <time>2019-02-16T16:05:14Z</time>
      </trkpt>
      <trkpt lat="48.81589" lon="2.42448">
        <ele>42.44</ele>
        <time>2019-02-16T16:05:24Z</time>
      </trkpt>
      <trkpt lat="48.81588" lon="2.42452">
        <ele>41.95</ele>
        <time>2019-02-16T16:05:52Z</time>
      </trkpt>
      <trkpt lat="48.81586" lon="2.42452">
        <ele>42.44</ele>
        <time>2019-02-16T16:05:59Z</time>
      </trkpt>
      <trkpt lat="48.81585" lon="2.42453">
        <ele>42.92</ele>
        <time>2019-02-16T16:06:09Z</time>
      </trkpt>
      <trkpt lat="48.81586" lon="2.42453">
        <ele>41.95</ele>
        <time>2019-02-16T16:06:20Z</time>
      </trkpt>
      <trkpt lat="48.81586" lon="2.42452">
        <ele>42.44</ele>
        <time>2019-02-16T16:06:33Z</time>
      </trkpt>
      <trkpt lat="48.81588" lon="2.42452">
        <ele>42.44</ele>
        <time>2019-02-16T16:06:46Z</time>
      </trkpt>
      <trkpt lat="48.81588" lon="2.42452">
        <ele>42.44</ele>
        <time>2019-02-16T16:07:06Z</time>
      </trkpt>
      <trkpt lat="48.8159" lon="2.42459">
        <ele>41.47</ele>
        <time>2019-02-16T16:07:17Z</time>
      </trkpt>
      <trkpt lat="48.81589" lon="2.42464">
        <ele>41.95</ele>
        <time>2019-02-16T16:07:29Z</time>
      </trkpt>
      <trkpt lat="48.81588" lon="2.42476">
        <ele>41.95</ele>
        <time>2019-02-16T16:07:41Z</time>
      </trkpt>
      <trkpt lat="48.8159" lon="2.42491">
        <ele>40.99</ele>
        <time>2019-02-16T16:07:53Z</time>
      </trkpt>
      <trkpt lat="48.81589" lon="2.42506">
        <ele>40.99</ele>
        <time>2019-02-16T16:08:05Z</time>
      </trkpt>
      <trkpt lat="48.81591" lon="2.42509">
        <ele>41.47</ele>
        <time>2019-02-16T16:08:16Z</time>
      </trkpt>
      <trkpt lat="48.81593" lon="2.42516">
        <ele>40.99</ele>
        <time>2019-02-16T16:08:26Z</time>
      </trkpt>
      <trkpt lat="48.81593" lon="2.42518">
        <ele>40.51</ele>
        <time>2019-02-16T16:08:27Z</time>
      </trkpt>
      <trkpt lat="48.81593" lon="2.42523">
        <ele>40.99</ele>
        <time>2019-02-16T16:08:29Z</time>
      </trkpt>
      <trkpt lat="48.81596" lon="2.42533">
        <ele>40.51</ele>
        <time>2019-02-16T16:08:35Z</time>
      </trkpt>
      <trkpt lat="48.81597" lon="2.42547">
        <ele>40.51</ele>
        <time>2019-02-16T16:08:41Z</time>
      </trkpt>
      <trkpt lat="48.81594" lon="2.42559">
        <ele>40.51</ele>
        <time>2019-02-16T16:08:51Z</time>
      </trkpt>
      <trkpt lat="48.81596" lon="2.42568">
        <ele>40.51</ele>
        <time>2019-02-16T16:08:56Z</time>
      </trkpt>
      <trkpt lat="48.81595" lon="2.42584">
        <ele>40.03</ele>
        <time>2019-02-16T16:09:05Z</time>
      </trkpt>
      <trkpt lat="48.81597" lon="2.42588">
        <ele>40.51</ele>
        <time>2019-02-16T16:09:10Z</time>
      </trkpt>
      <trkpt lat="48.81597" lon="2.42601">
        <ele>40.51</ele>
        <time>2019-02-16T16:09:19Z</time>
      </trkpt>
      <trkpt lat="48.81597" lon="2.42602">
        <ele>40.99</ele>
        <time>2019-02-16T16:09:20Z</time>
      </trkpt>
      <trkpt lat="48.81598" lon="2.42607">
        <ele>40.51</ele>
        <time>2019-02-16T16:09:26Z</time>
      </trkpt>
      <trkpt lat="48.81599" lon="2.42619">
        <ele>40.99</ele>
        <time>2019-02-16T16:09:33Z</time>
      </trkpt>
      <trkpt lat="48.816" lon="2.42622">
        <ele>40.99</ele>
        <time>2019-02-16T16:09:38Z</time>
      </trkpt>
      <trkpt lat="48.81601" lon="2.42627">
        <ele>40.99</ele>
        <time>2019-02-16T16:09:52Z</time>
      </trkpt>
      <trkpt lat="48.81598" lon="2.42635">
        <ele>41.95</ele>
        <time>2019-02-16T16:10:02Z</time>
      </trkpt>
      <trkpt lat="48.81598" lon="2.42648">
        <ele>41.95</ele>
        <time>2019-02-16T16:10:10Z</time>
      </trkpt>
      <trkpt lat="48.81601" lon="2.42671">
        <ele>42.44</ele>
        <time>2019-02-16T16:10:24Z</time>
      </trkpt>
      <trkpt lat="48.81598" lon="2.427">
        <ele>41.95</ele>
        <time>2019-02-16T16:10:38Z</time>
      </trkpt>
      <trkpt lat="48.81598" lon="2.42719">
        <ele>41.95</ele>
        <time>2019-02-16T16:10:51Z</time>
      </trkpt>
      <trkpt lat="48.81598" lon="2.4274">
        <ele>42.44</ele>
        <time>2019-02-16T16:11:01Z</time>
      </trkpt>
      <trkpt lat="48.81599" lon="2.42761">
        <ele>41.47</ele>
        <time>2019-02-16T16:11:11Z</time>
      </trkpt>
      <trkpt lat="48.816" lon="2.42764">
        <ele>41.95</ele>
        <time>2019-02-16T16:11:14Z</time>
      </trkpt>
      <trkpt lat="48.816" lon="2.42778">
        <ele>41.95</ele>
        <time>2019-02-16T16:11:24Z</time>
      </trkpt>
      <trkpt lat="48.81602" lon="2.42799">
        <ele>41.95</ele>
        <time>2019-02-16T16:11:34Z</time>
      </trkpt>
      <trkpt lat="48.81601" lon="2.42804">
        <ele>41.95</ele>
        <time>2019-02-16T16:11:37Z</time>
      </trkpt>
      <trkpt lat="48.81605" lon="2.42826">
        <ele>40.03</ele>
        <time>2019-02-16T16:11:53Z</time>
      </trkpt>
      <trkpt lat="48.81606" lon="2.42827">
        <ele>40.03</ele>
        <time>2019-02-16T16:11:54Z</time>
      </trkpt>
      <trkpt lat="48.81607" lon="2.42827">
        <ele>40.03</ele>
        <time>2019-02-16T16:11:55Z</time>
      </trkpt>
      <trkpt lat="48.8161" lon="2.42847">
        <ele>39.55</ele>
        <time>2019-02-16T16:12:08Z</time>
      </trkpt>
      <trkpt lat="48.8161" lon="2.42858">
        <ele>39.55</ele>
        <time>2019-02-16T16:12:20Z</time>
      </trkpt>
      <trkpt lat="48.81611" lon="2.42867">
        <ele>39.07</ele>
        <time>2019-02-16T16:12:31Z</time>
      </trkpt>
      <trkpt lat="48.8161" lon="2.42874">
        <ele>39.55</ele>
        <time>2019-02-16T16:12:36Z</time>
      </trkpt>
      <trkpt lat="48.8161" lon="2.42876">
        <ele>39.55</ele>
        <time>2019-02-16T16:12:37Z</time>
      </trkpt>
      <trkpt lat="48.81609" lon="2.42878">
        <ele>39.55</ele>
        <time>2019-02-16T16:12:38Z</time>
      </trkpt>
      <trkpt lat="48.81608" lon="2.42891">
        <ele>40.03</ele>
        <time>2019-02-16T16:12:45Z</time>
      </trkpt>
      <trkpt lat="48.81608" lon="2.42893">
        <ele>40.03</ele>
        <time>2019-02-16T16:12:46Z</time>
      </trkpt>
      <trkpt lat="48.81609" lon="2.42905">
        <ele>40.51</ele>
        <time>2019-02-16T16:12:57Z</time>
      </trkpt>
      <trkpt lat="48.81609" lon="2.42918">
        <ele>40.99</ele>
        <time>2019-02-16T16:13:05Z</time>
      </trkpt>
      <trkpt lat="48.81608" lon="2.4293">
        <ele>41.95</ele>
        <time>2019-02-16T16:13:11Z</time>
      </trkpt>
      <trkpt lat="48.81598" lon="2.42949">
        <ele>41.47</ele>
        <time>2019-02-16T16:13:24Z</time>
      </trkpt>
      <trkpt lat="48.81595" lon="2.42979">
        <ele>41.47</ele>
        <time>2019-02-16T16:13:39Z</time>
      </trkpt>
      <trkpt lat="48.81592" lon="2.42993">
        <ele>41.95</ele>
        <time>2019-02-16T16:13:48Z</time>
      </trkpt>
      <trkpt lat="48.81592" lon="2.42997">
        <ele>41.47</ele>
        <time>2019-02-16T16:13:50Z</time>
      </trkpt>
      <trkpt lat="48.8159" lon="2.43008">
        <ele>41.95</ele>
        <time>2019-02-16T16:13:56Z</time>
      </trkpt>
      <trkpt lat="48.81587" lon="2.43018">
        <ele>41.47</ele>
        <time>2019-02-16T16:14:00Z</time>
      </trkpt>
      <trkpt lat="48.81587" lon="2.43022">
        <ele>41.47</ele>
        <time>2019-02-16T16:14:01Z</time>
      </trkpt>
      <trkpt lat="48.81587" lon="2.43025">
        <ele>41.47</ele>
        <time>2019-02-16T16:14:02Z</time>
      </trkpt>
      <trkpt lat="48.81586" lon="2.43027">
        <ele>41.47</ele>
        <time>2019-02-16T16:14:03Z</time>
      </trkpt>
      <trkpt lat="48.81586" lon="2.4303">
        <ele>41.95</ele>
        <time>2019-02-16T16:14:04Z</time>
      </trkpt>
      <trkpt lat="48.81581" lon="2.43048">
        <ele>40.99</ele>
        <time>2019-02-16T16:14:15Z</time>
      </trkpt>
      <trkpt lat="48.81579" lon="2.43054">
        <ele>40.99</ele>
        <time>2019-02-16T16:14:19Z</time>
      </trkpt>
      <trkpt lat="48.81575" lon="2.43072">
        <ele>40.99</ele>
        <time>2019-02-16T16:14:33Z</time>
      </trkpt>
      <trkpt lat="48.81575" lon="2.43074">
        <ele>40.99</ele>
        <time>2019-02-16T16:14:34Z</time>
      </trkpt>
      <trkpt lat="48.81575" lon="2.43083">
        <ele>40.99</ele>
        <time>2019-02-16T16:14:37Z</time>
      </trkpt>
      <trkpt lat="48.81576" lon="2.43086">
        <ele>40.99</ele>
        <time>2019-02-16T16:14:38Z</time>
      </trkpt>
      <trkpt lat="48.81577" lon="2.43088">
        <ele>40.99</ele>
        <time>2019-02-16T16:14:39Z</time>
      </trkpt>
      <trkpt lat="48.81577" lon="2.43097">
        <ele>41.47</ele>
        <time>2019-02-16T16:14:47Z</time>
      </trkpt>
      <trkpt lat="48.81579" lon="2.43116">
        <ele>40.99</ele>
        <time>2019-02-16T16:15:00Z</time>
      </trkpt>
      <trkpt lat="48.81576" lon="2.43126">
        <ele>40.99</ele>
        <time>2019-02-16T16:15:07Z</time>
      </trkpt>
      <trkpt lat="48.81576" lon="2.43127">
        <ele>40.99</ele>
        <time>2019-02-16T16:15:08Z</time>
      </trkpt>
      <trkpt lat="48.81575" lon="2.4313">
        <ele>40.99</ele>
        <time>2019-02-16T16:15:09Z</time>
      </trkpt>
      <trkpt lat="48.81569" lon="2.43161">
        <ele>40.51</ele>
        <time>2019-02-16T16:15:23Z</time>
      </trkpt>
      <trkpt lat="48.8157" lon="2.43185">
        <ele>40.51</ele>
        <time>2019-02-16T16:15:36Z</time>
      </trkpt>
      <trkpt lat="48.81573" lon="2.4321">
        <ele>40.51</ele>
        <time>2019-02-16T16:15:53Z</time>
      </trkpt>
      <trkpt lat="48.81574" lon="2.43214">
        <ele>40.99</ele>
        <time>2019-02-16T16:15:57Z</time>
      </trkpt>
      <trkpt lat="48.81576" lon="2.43215">
        <ele>40.99</ele>
        <time>2019-02-16T16:15:58Z</time>
      </trkpt>
      <trkpt lat="48.81577" lon="2.43217">
        <ele>40.99</ele>
        <time>2019-02-16T16:15:59Z</time>
      </trkpt>
      <trkpt lat="48.81583" lon="2.43235">
        <ele>40.51</ele>
        <time>2019-02-16T16:16:10Z</time>
      </trkpt>
      <trkpt lat="48.81584" lon="2.43254">
        <ele>40.99</ele>
        <time>2019-02-16T16:16:22Z</time>
      </trkpt>
      <trkpt lat="48.81584" lon="2.43272">
        <ele>40.51</ele>
        <time>2019-02-16T16:16:34Z</time>
      </trkpt>
      <trkpt lat="48.81585" lon="2.43274">
        <ele>40.51</ele>
        <time>2019-02-16T16:16:35Z</time>
      </trkpt>
      <trkpt lat="48.81571" lon="2.43312">
        <ele>40.99</ele>
        <time>2019-02-16T16:16:50Z</time>
      </trkpt>
      <trkpt lat="48.8157" lon="2.43323">
        <ele>40.99</ele>
        <time>2019-02-16T16:16:56Z</time>
      </trkpt>
      <trkpt lat="48.81571" lon="2.43344">
        <ele>40.51</ele>
        <time>2019-02-16T16:17:10Z</time>
      </trkpt>
      <trkpt lat="48.81573" lon="2.43362">
        <ele>40.99</ele>
        <time>2019-02-16T16:17:20Z</time>
      </trkpt>
      <trkpt lat="48.81575" lon="2.43389">
        <ele>40.51</ele>
        <time>2019-02-16T16:17:35Z</time>
      </trkpt>
      <trkpt lat="48.81575" lon="2.43392">
        <ele>40.99</ele>
        <time>2019-02-16T16:17:43Z</time>
      </trkpt>
      <trkpt lat="48.81575" lon="2.43395">
        <ele>40.51</ele>
        <time>2019-02-16T16:17:45Z</time>
      </trkpt>
      <trkpt lat="48.81578" lon="2.43408">
        <ele>40.03</ele>
        <time>2019-02-16T16:17:51Z</time>
      </trkpt>
      <trkpt lat="48.81582" lon="2.43436">
        <ele>40.51</ele>
        <time>2019-02-16T16:18:05Z</time>
      </trkpt>
      <trkpt lat="48.81582" lon="2.43456">
        <ele>40.99</ele>
        <time>2019-02-16T16:18:18Z</time>
      </trkpt>
      <trkpt lat="48.8158" lon="2.4346">
        <ele>40.03</ele>
        <time>2019-02-16T16:18:21Z</time>
      </trkpt>
      <trkpt lat="48.81578" lon="2.43473">
        <ele>41.47</ele>
        <time>2019-02-16T16:18:29Z</time>
      </trkpt>
      <trkpt lat="48.81572" lon="2.43493">
        <ele>40.03</ele>
        <time>2019-02-16T16:18:41Z</time>
      </trkpt>
      <trkpt lat="48.81574" lon="2.43519">
        <ele>38.59</ele>
        <time>2019-02-16T16:18:55Z</time>
      </trkpt>
      <trkpt lat="48.81574" lon="2.43544">
        <ele>38.59</ele>
        <time>2019-02-16T16:19:11Z</time>
      </trkpt>
      <trkpt lat="48.81573" lon="2.43568">
        <ele>38.59</ele>
        <time>2019-02-16T16:19:25Z</time>
      </trkpt>
      <trkpt lat="48.81573" lon="2.43574">
        <ele>38.59</ele>
        <time>2019-02-16T16:19:28Z</time>
      </trkpt>
      <trkpt lat="48.8157" lon="2.43592">
        <ele>38.59</ele>
        <time>2019-02-16T16:19:38Z</time>
      </trkpt>
      <trkpt lat="48.81568" lon="2.4361">
        <ele>38.59</ele>
        <time>2019-02-16T16:19:48Z</time>
      </trkpt>
      <trkpt lat="48.81566" lon="2.43615">
        <ele>38.59</ele>
        <time>2019-02-16T16:19:51Z</time>
      </trkpt>
      <trkpt lat="48.81565" lon="2.43635">
        <ele>38.59</ele>
        <time>2019-02-16T16:20:03Z</time>
      </trkpt>
      <trkpt lat="48.81564" lon="2.43653">
        <ele>38.59</ele>
        <time>2019-02-16T16:20:16Z</time>
      </trkpt>
      <trkpt lat="48.81564" lon="2.4366">
        <ele>38.59</ele>
        <time>2019-02-16T16:20:19Z</time>
      </trkpt>
      <trkpt lat="48.81562" lon="2.43682">
        <ele>39.07</ele>
        <time>2019-02-16T16:20:31Z</time>
      </trkpt>
      <trkpt lat="48.81563" lon="2.43698">
        <ele>38.59</ele>
        <time>2019-02-16T16:20:38Z</time>
      </trkpt>
      <trkpt lat="48.81563" lon="2.43699">
        <ele>38.59</ele>
        <time>2019-02-16T16:20:39Z</time>
      </trkpt>
      <trkpt lat="48.81565" lon="2.43708">
        <ele>39.07</ele>
        <time>2019-02-16T16:20:46Z</time>
      </trkpt>
      <trkpt lat="48.81564" lon="2.43711">
        <ele>40.03</ele>
        <time>2019-02-16T16:20:51Z</time>
      </trkpt>
      <trkpt lat="48.81563" lon="2.43714">
        <ele>40.51</ele>
        <time>2019-02-16T16:20:53Z</time>
      </trkpt>
      <trkpt lat="48.81563" lon="2.43716">
        <ele>40.99</ele>
        <time>2019-02-16T16:20:54Z</time>
      </trkpt>
      <trkpt lat="48.81563" lon="2.4372">
        <ele>40.99</ele>
        <time>2019-02-16T16:20:57Z</time>
      </trkpt>
      <trkpt lat="48.81562" lon="2.43724">
        <ele>40.99</ele>
        <time>2019-02-16T16:21:02Z</time>
      </trkpt>
      <trkpt lat="48.81565" lon="2.43741">
        <ele>40.51</ele>
        <time>2019-02-16T16:21:15Z</time>
      </trkpt>
      <trkpt lat="48.81569" lon="2.43765">
        <ele>40.03</ele>
        <time>2019-02-16T16:21:28Z</time>
      </trkpt>
      <trkpt lat="48.81579" lon="2.43769">
        <ele>38.59</ele>
        <time>2019-02-16T16:21:39Z</time>
      </trkpt>
      <trkpt lat="48.81588" lon="2.43784">
        <ele>38.11</ele>
        <time>2019-02-16T16:21:51Z</time>
      </trkpt>
      <trkpt lat="48.81594" lon="2.43795">
        <ele>38.11</ele>
        <time>2019-02-16T16:22:05Z</time>
      </trkpt>
      <trkpt lat="48.81597" lon="2.43821">
        <ele>38.11</ele>
        <time>2019-02-16T16:22:18Z</time>
      </trkpt>
      <trkpt lat="48.81599" lon="2.43839">
        <ele>38.59</ele>
        <time>2019-02-16T16:22:29Z</time>
      </trkpt>
      <trkpt lat="48.81597" lon="2.43866">
        <ele>38.59</ele>
        <time>2019-02-16T16:22:43Z</time>
      </trkpt>
      <trkpt lat="48.81593" lon="2.43871">
        <ele>39.55</ele>
        <time>2019-02-16T16:22:54Z</time>
      </trkpt>
      <trkpt lat="48.81588" lon="2.43887">
        <ele>41.47</ele>
        <time>2019-02-16T16:23:07Z</time>
      </trkpt>
      <trkpt lat="48.81589" lon="2.43911">
        <ele>38.59</ele>
        <time>2019-02-16T16:23:19Z</time>
      </trkpt>
      <trkpt lat="48.81588" lon="2.43912">
        <ele>38.11</ele>
        <time>2019-02-16T16:23:21Z</time>
      </trkpt>
      <trkpt lat="48.8159" lon="2.43923">
        <ele>37.63</ele>
        <time>2019-02-16T16:23:30Z</time>
      </trkpt>
      <trkpt lat="48.81591" lon="2.43925">
        <ele>37.63</ele>
        <time>2019-02-16T16:23:31Z</time>
      </trkpt>
      <trkpt lat="48.81592" lon="2.43927">
        <ele>37.63</ele>
        <time>2019-02-16T16:23:32Z</time>
      </trkpt>
      <trkpt lat="48.81592" lon="2.43929">
        <ele>38.11</ele>
        <time>2019-02-16T16:23:33Z</time>
      </trkpt>
      <trkpt lat="48.81592" lon="2.43932">
        <ele>37.63</ele>
        <time>2019-02-16T16:23:34Z</time>
      </trkpt>
      <trkpt lat="48.81591" lon="2.43934">
        <ele>37.63</ele>
        <time>2019-02-16T16:23:35Z</time>
      </trkpt>
      <trkpt lat="48.8159" lon="2.43952">
        <ele>38.11</ele>
        <time>2019-02-16T16:23:47Z</time>
      </trkpt>
      <trkpt lat="48.81592" lon="2.4396">
        <ele>38.11</ele>
        <time>2019-02-16T16:23:52Z</time>
      </trkpt>
      <trkpt lat="48.81592" lon="2.43962">
        <ele>38.11</ele>
        <time>2019-02-16T16:23:53Z</time>
      </trkpt>
      <trkpt lat="48.81594" lon="2.43975">
        <ele>38.11</ele>
        <time>2019-02-16T16:24:03Z</time>
      </trkpt>
      <trkpt lat="48.81594" lon="2.43983">
        <ele>38.11</ele>
        <time>2019-02-16T16:24:09Z</time>
      </trkpt>
      <trkpt lat="48.81594" lon="2.4399">
        <ele>38.11</ele>
        <time>2019-02-16T16:24:14Z</time>
      </trkpt>
      <trkpt lat="48.81594" lon="2.43992">
        <ele>38.11</ele>
        <time>2019-02-16T16:24:15Z</time>
      </trkpt>
      <trkpt lat="48.81592" lon="2.44009">
        <ele>38.59</ele>
        <time>2019-02-16T16:24:27Z</time>
      </trkpt>
      <trkpt lat="48.81585" lon="2.44029">
        <ele>38.59</ele>
        <time>2019-02-16T16:24:39Z</time>
      </trkpt>
      <trkpt lat="48.81584" lon="2.44038">
        <ele>39.55</ele>
        <time>2019-02-16T16:24:46Z</time>
      </trkpt>
      <trkpt lat="48.81581" lon="2.4406">
        <ele>38.11</ele>
        <time>2019-02-16T16:24:59Z</time>
      </trkpt>
      <trkpt lat="48.81581" lon="2.44074">
        <ele>38.59</ele>
        <time>2019-02-16T16:25:15Z</time>
      </trkpt>
      <trkpt lat="48.81581" lon="2.44081">
        <ele>38.11</ele>
        <time>2019-02-16T16:25:20Z</time>
      </trkpt>
      <trkpt lat="48.81581" lon="2.44084">
        <ele>38.11</ele>
        <time>2019-02-16T16:25:21Z</time>
      </trkpt>
      <trkpt lat="48.81581" lon="2.44086">
        <ele>38.59</ele>
        <time>2019-02-16T16:25:22Z</time>
      </trkpt>
      <trkpt lat="48.8158" lon="2.44099">
        <ele>38.59</ele>
        <time>2019-02-16T16:25:33Z</time>
      </trkpt>
      <trkpt lat="48.81581" lon="2.44105">
        <ele>38.59</ele>
        <time>2019-02-16T16:25:37Z</time>
      </trkpt>
      <trkpt lat="48.81582" lon="2.44109">
        <ele>39.55</ele>
        <time>2019-02-16T16:25:39Z</time>
      </trkpt>
      <trkpt lat="48.81582" lon="2.44113">
        <ele>39.55</ele>
        <time>2019-02-16T16:25:43Z</time>
      </trkpt>
      <trkpt lat="48.81582" lon="2.44116">
        <ele>40.03</ele>
        <time>2019-02-16T16:25:44Z</time>
      </trkpt>
      <trkpt lat="48.81582" lon="2.44118">
        <ele>39.55</ele>
        <time>2019-02-16T16:25:45Z</time>
      </trkpt>
      <trkpt lat="48.81582" lon="2.44122">
        <ele>39.55</ele>
        <time>2019-02-16T16:25:46Z</time>
      </trkpt>
      <trkpt lat="48.81583" lon="2.44124">
        <ele>40.03</ele>
        <time>2019-02-16T16:25:47Z</time>
      </trkpt>
      <trkpt lat="48.8158" lon="2.4414">
        <ele>40.03</ele>
        <time>2019-02-16T16:25:58Z</time>
      </trkpt>
      <trkpt lat="48.81583" lon="2.44157">
        <ele>40.03</ele>
        <time>2019-02-16T16:26:10Z</time>
      </trkpt>
      <trkpt lat="48.81583" lon="2.44159">
        <ele>39.55</ele>
        <time>2019-02-16T16:26:11Z</time>
      </trkpt>
      <trkpt lat="48.81583" lon="2.44161">
        <ele>40.03</ele>
        <time>2019-02-16T16:26:12Z</time>
      </trkpt>
      <trkpt lat="48.81583" lon="2.44164">
        <ele>39.55</ele>
        <time>2019-02-16T16:26:13Z</time>
      </trkpt>
      <trkpt lat="48.81583" lon="2.44167">
        <ele>39.55</ele>
        <time>2019-02-16T16:26:14Z</time>
      </trkpt>
      <trkpt lat="48.81583" lon="2.44169">
        <ele>40.03</ele>
        <time>2019-02-16T16:26:15Z</time>
      </trkpt>
      <trkpt lat="48.81582" lon="2.44191">
        <ele>40.03</ele>
        <time>2019-02-16T16:26:29Z</time>
      </trkpt>
      <trkpt lat="48.81582" lon="2.4421">
        <ele>39.55</ele>
        <time>2019-02-16T16:26:43Z</time>
      </trkpt>
      <trkpt lat="48.81582" lon="2.44217">
        <ele>39.07</ele>
        <time>2019-02-16T16:26:47Z</time>
      </trkpt>
      <trkpt lat="48.81583" lon="2.44221">
        <ele>39.55</ele>
        <time>2019-02-16T16:26:48Z</time>
      </trkpt>
      <trkpt lat="48.81583" lon="2.44224">
        <ele>39.07</ele>
        <time>2019-02-16T16:26:49Z</time>
      </trkpt>
      <trkpt lat="48.81583" lon="2.44228">
        <ele>39.07</ele>
        <time>2019-02-16T16:26:50Z</time>
      </trkpt>
      <trkpt lat="48.81583" lon="2.44231">
        <ele>38.59</ele>
        <time>2019-02-16T16:26:51Z</time>
      </trkpt>
      <trkpt lat="48.81581" lon="2.44246">
        <ele>38.59</ele>
        <time>2019-02-16T16:27:01Z</time>
      </trkpt>
      <trkpt lat="48.81582" lon="2.4426">
        <ele>38.59</ele>
        <time>2019-02-16T16:27:15Z</time>
      </trkpt>
      <trkpt lat="48.81583" lon="2.44259">
        <ele>38.59</ele>
        <time>2019-02-16T16:27:22Z</time>
      </trkpt>
      <trkpt lat="48.81581" lon="2.44272">
        <ele>38.11</ele>
        <time>2019-02-16T16:27:35Z</time>
      </trkpt>
      <trkpt lat="48.81583" lon="2.44286">
        <ele>39.55</ele>
        <time>2019-02-16T16:27:48Z</time>
      </trkpt>
      <trkpt lat="48.81584" lon="2.44289">
        <ele>39.55</ele>
        <time>2019-02-16T16:27:50Z</time>
      </trkpt>
      <trkpt lat="48.81585" lon="2.44312">
        <ele>40.03</ele>
        <time>2019-02-16T16:28:04Z</time>
      </trkpt>
      <trkpt lat="48.81585" lon="2.44325">
        <ele>39.55</ele>
        <time>2019-02-16T16:28:13Z</time>
      </trkpt>
      <trkpt lat="48.81586" lon="2.44335">
        <ele>40.03</ele>
        <time>2019-02-16T16:28:18Z</time>
      </trkpt>
      <trkpt lat="48.81586" lon="2.44353">
        <ele>39.55</ele>
        <time>2019-02-16T16:28:27Z</time>
      </trkpt>
      <trkpt lat="48.81591" lon="2.44372">
        <ele>38.59</ele>
        <time>2019-02-16T16:28:38Z</time>
      </trkpt>
      <trkpt lat="48.81592" lon="2.44374">
        <ele>38.59</ele>
        <time>2019-02-16T16:28:39Z</time>
      </trkpt>
      <trkpt lat="48.81594" lon="2.44379">
        <ele>38.11</ele>
        <time>2019-02-16T16:28:41Z</time>
      </trkpt>
      <trkpt lat="48.81595" lon="2.44381">
        <ele>38.11</ele>
        <time>2019-02-16T16:28:42Z</time>
      </trkpt>
      <trkpt lat="48.81595" lon="2.44383">
        <ele>38.11</ele>
        <time>2019-02-16T16:28:43Z</time>
      </trkpt>
      <trkpt lat="48.81595" lon="2.44386">
        <ele>38.11</ele>
        <time>2019-02-16T16:28:44Z</time>
      </trkpt>
      <trkpt lat="48.81596" lon="2.44388">
        <ele>38.11</ele>
        <time>2019-02-16T16:28:45Z</time>
      </trkpt>
      <trkpt lat="48.81587" lon="2.44404">
        <ele>38.11</ele>
        <time>2019-02-16T16:28:55Z</time>
      </trkpt>
      <trkpt lat="48.81586" lon="2.4442">
        <ele>38.11</ele>
        <time>2019-02-16T16:29:02Z</time>
      </trkpt>
      <trkpt lat="48.81588" lon="2.44444">
        <ele>37.63</ele>
        <time>2019-02-16T16:29:17Z</time>
      </trkpt>
      <trkpt lat="48.81582" lon="2.44465">
        <ele>39.07</ele>
        <time>2019-02-16T16:29:32Z</time>
      </trkpt>
      <trkpt lat="48.81582" lon="2.44472">
        <ele>39.07</ele>
        <time>2019-02-16T16:29:36Z</time>
      </trkpt>
      <trkpt lat="48.81581" lon="2.44493">
        <ele>39.07</ele>
        <time>2019-02-16T16:29:50Z</time>
      </trkpt>
      <trkpt lat="48.81581" lon="2.44506">
        <ele>39.07</ele>
        <time>2019-02-16T16:29:59Z</time>
      </trkpt>
      <trkpt lat="48.8158" lon="2.44519">
        <ele>39.07</ele>
        <time>2019-02-16T16:30:06Z</time>
      </trkpt>
      <trkpt lat="48.81581" lon="2.44523">
        <ele>39.55</ele>
        <time>2019-02-16T16:30:08Z</time>
      </trkpt>
      <trkpt lat="48.81581" lon="2.44546">
        <ele>39.55</ele>
        <time>2019-02-16T16:30:21Z</time>
      </trkpt>
      <trkpt lat="48.81584" lon="2.4457">
        <ele>38.59</ele>
        <time>2019-02-16T16:30:33Z</time>
      </trkpt>
      <trkpt lat="48.81585" lon="2.4459">
        <ele>38.59</ele>
        <time>2019-02-16T16:30:43Z</time>
      </trkpt>
      <trkpt lat="48.81585" lon="2.44618">
        <ele>39.07</ele>
        <time>2019-02-16T16:30:57Z</time>
      </trkpt>
      <trkpt lat="48.81585" lon="2.44634">
        <ele>37.63</ele>
        <time>2019-02-16T16:31:09Z</time>
      </trkpt>
      <trkpt lat="48.81585" lon="2.44637">
        <ele>38.11</ele>
        <time>2019-02-16T16:31:10Z</time>
      </trkpt>
      <trkpt lat="48.81585" lon="2.44641">
        <ele>37.63</ele>
        <time>2019-02-16T16:31:11Z</time>
      </trkpt>
      <trkpt lat="48.81586" lon="2.44644">
        <ele>38.11</ele>
        <time>2019-02-16T16:31:12Z</time>
      </trkpt>
      <trkpt lat="48.81585" lon="2.44646">
        <ele>37.63</ele>
        <time>2019-02-16T16:31:13Z</time>
      </trkpt>
      <trkpt lat="48.81585" lon="2.44648">
        <ele>37.63</ele>
        <time>2019-02-16T16:31:14Z</time>
      </trkpt>
      <trkpt lat="48.81585" lon="2.44651">
        <ele>37.63</ele>
        <time>2019-02-16T16:31:27Z</time>
      </trkpt>
      <trkpt lat="48.81584" lon="2.44654">
        <ele>37.63</ele>
        <time>2019-02-16T16:31:33Z</time>
      </trkpt>
      <trkpt lat="48.81584" lon="2.44656">
        <ele>36.67</ele>
        <time>2019-02-16T16:31:34Z</time>
      </trkpt>
      <trkpt lat="48.81584" lon="2.44658">
        <ele>37.63</ele>
        <time>2019-02-16T16:31:35Z</time>
      </trkpt>
      <trkpt lat="48.81584" lon="2.44659">
        <ele>37.63</ele>
        <time>2019-02-16T16:31:36Z</time>
      </trkpt>
      <trkpt lat="48.81584" lon="2.44661">
        <ele>37.63</ele>
        <time>2019-02-16T16:31:37Z</time>
      </trkpt>
      <trkpt lat="48.81584" lon="2.44662">
        <ele>37.63</ele>
        <time>2019-02-16T16:31:38Z</time>
      </trkpt>
      <trkpt lat="48.81584" lon="2.44664">
        <ele>37.15</ele>
        <time>2019-02-16T16:31:39Z</time>
      </trkpt>
      <trkpt lat="48.81584" lon="2.44677">
        <ele>37.63</ele>
        <time>2019-02-16T16:31:50Z</time>
      </trkpt>
      <trkpt lat="48.81583" lon="2.44693">
        <ele>37.63</ele>
        <time>2019-02-16T16:31:56Z</time>
      </trkpt>
      <trkpt lat="48.81583" lon="2.44695">
        <ele>38.11</ele>
        <time>2019-02-16T16:31:57Z</time>
      </trkpt>
      <trkpt lat="48.81583" lon="2.44697">
        <ele>38.11</ele>
        <time>2019-02-16T16:31:58Z</time>
      </trkpt>
      <trkpt lat="48.81583" lon="2.44699">
        <ele>37.63</ele>
        <time>2019-02-16T16:31:59Z</time>
      </trkpt>
      <trkpt lat="48.81585" lon="2.44705">
        <ele>37.63</ele>
        <time>2019-02-16T16:32:04Z</time>
      </trkpt>
      <trkpt lat="48.81585" lon="2.4471">
        <ele>37.63</ele>
        <time>2019-02-16T16:32:06Z</time>
      </trkpt>
      <trkpt lat="48.81585" lon="2.44713">
        <ele>37.63</ele>
        <time>2019-02-16T16:32:07Z</time>
      </trkpt>
      <trkpt lat="48.81585" lon="2.44716">
        <ele>37.63</ele>
        <time>2019-02-16T16:32:08Z</time>
      </trkpt>
      <trkpt lat="48.81584" lon="2.44726">
        <ele>37.63</ele>
        <time>2019-02-16T16:32:12Z</time>
      </trkpt>
      <trkpt lat="48.81584" lon="2.44727">
        <ele>37.15</ele>
        <time>2019-02-16T16:32:13Z</time>
      </trkpt>
      <trkpt lat="48.81583" lon="2.44729">
        <ele>37.15</ele>
        <time>2019-02-16T16:32:14Z</time>
      </trkpt>
      <trkpt lat="48.81584" lon="2.44734">
        <ele>38.11</ele>
        <time>2019-02-16T16:32:19Z</time>
      </trkpt>
      <trkpt lat="48.81584" lon="2.44736">
        <ele>38.11</ele>
        <time>2019-02-16T16:32:20Z</time>
      </trkpt>
      <trkpt lat="48.81584" lon="2.44759">
        <ele>37.15</ele>
        <time>2019-02-16T16:32:36Z</time>
      </trkpt>
      <trkpt lat="48.81582" lon="2.44784">
        <ele>37.63</ele>
        <time>2019-02-16T16:32:47Z</time>
      </trkpt>
      <trkpt lat="48.81579" lon="2.44817">
        <ele>37.63</ele>
        <time>2019-02-16T16:33:03Z</time>
      </trkpt>
      <trkpt lat="48.81579" lon="2.44844">
        <ele>37.63</ele>
        <time>2019-02-16T16:33:18Z</time>
      </trkpt>
      <trkpt lat="48.81578" lon="2.44874">
        <ele>37.15</ele>
        <time>2019-02-16T16:33:34Z</time>
      </trkpt>
      <trkpt lat="48.81576" lon="2.4489">
        <ele>37.63</ele>
        <time>2019-02-16T16:33:43Z</time>
      </trkpt>
      <trkpt lat="48.81577" lon="2.44892">
        <ele>37.63</ele>
        <time>2019-02-16T16:33:44Z</time>
      </trkpt>
      <trkpt lat="48.81577" lon="2.44893">
        <ele>37.63</ele>
        <time>2019-02-16T16:33:45Z</time>
      </trkpt>
      <trkpt lat="48.81577" lon="2.44895">
        <ele>37.63</ele>
        <time>2019-02-16T16:33:46Z</time>
      </trkpt>
      <trkpt lat="48.81577" lon="2.44897">
        <ele>37.63</ele>
        <time>2019-02-16T16:33:47Z</time>
      </trkpt>
      <trkpt lat="48.81577" lon="2.44899">
        <ele>37.15</ele>
        <time>2019-02-16T16:33:48Z</time>
      </trkpt>
      <trkpt lat="48.81577" lon="2.44901">
        <ele>37.15</ele>
        <time>2019-02-16T16:33:49Z</time>
      </trkpt>
      <trkpt lat="48.81577" lon="2.44924">
        <ele>37.15</ele>
        <time>2019-02-16T16:34:01Z</time>
      </trkpt>
      <trkpt lat="48.81576" lon="2.44942">
        <ele>37.63</ele>
        <time>2019-02-16T16:34:11Z</time>
      </trkpt>
      <trkpt lat="48.81575" lon="2.44962">
        <ele>37.63</ele>
        <time>2019-02-16T16:34:22Z</time>
      </trkpt>
      <trkpt lat="48.81573" lon="2.44987">
        <ele>37.63</ele>
        <time>2019-02-16T16:34:37Z</time>
      </trkpt>
      <trkpt lat="48.81573" lon="2.44989">
        <ele>37.63</ele>
        <time>2019-02-16T16:34:38Z</time>
      </trkpt>
      <trkpt lat="48.81573" lon="2.44991">
        <ele>37.15</ele>
        <time>2019-02-16T16:34:39Z</time>
      </trkpt>
      <trkpt lat="48.81571" lon="2.45009">
        <ele>37.15</ele>
        <time>2019-02-16T16:34:50Z</time>
      </trkpt>
      <trkpt lat="48.81571" lon="2.45013">
        <ele>37.63</ele>
        <time>2019-02-16T16:34:52Z</time>
      </trkpt>
      <trkpt lat="48.8157" lon="2.45015">
        <ele>37.15</ele>
        <time>2019-02-16T16:34:53Z</time>
      </trkpt>
      <trkpt lat="48.81569" lon="2.45041">
        <ele>37.15</ele>
        <time>2019-02-16T16:35:09Z</time>
      </trkpt>
      <trkpt lat="48.81569" lon="2.45059">
        <ele>36.67</ele>
        <time>2019-02-16T16:35:19Z</time>
      </trkpt>
      <trkpt lat="48.81568" lon="2.45061">
        <ele>37.63</ele>
        <time>2019-02-16T16:35:20Z</time>
      </trkpt>
      <trkpt lat="48.81567" lon="2.45062">
        <ele>36.67</ele>
        <time>2019-02-16T16:35:21Z</time>
      </trkpt>
      <trkpt lat="48.81565" lon="2.45066">
        <ele>37.15</ele>
        <time>2019-02-16T16:35:23Z</time>
      </trkpt>
      <trkpt lat="48.81565" lon="2.45068">
        <ele>36.67</ele>
        <time>2019-02-16T16:35:24Z</time>
      </trkpt>
      <trkpt lat="48.81565" lon="2.45069">
        <ele>36.67</ele>
        <time>2019-02-16T16:35:25Z</time>
      </trkpt>
      <trkpt lat="48.81562" lon="2.45075">
        <ele>37.15</ele>
        <time>2019-02-16T16:35:29Z</time>
      </trkpt>
      <trkpt lat="48.81558" lon="2.45092">
        <ele>37.15</ele>
        <time>2019-02-16T16:35:42Z</time>
      </trkpt>
      <trkpt lat="48.81551" lon="2.45112">
        <ele>36.67</ele>
        <time>2019-02-16T16:35:57Z</time>
      </trkpt>
      <trkpt lat="48.81537" lon="2.45136">
        <ele>38.11</ele>
        <time>2019-02-16T16:36:10Z</time>
      </trkpt>
      <trkpt lat="48.81532" lon="2.45144">
        <ele>37.15</ele>
        <time>2019-02-16T16:36:17Z</time>
      </trkpt>
      <trkpt lat="48.81531" lon="2.45145">
        <ele>37.15</ele>
        <time>2019-02-16T16:36:18Z</time>
      </trkpt>
      <trkpt lat="48.8153" lon="2.45147">
        <ele>36.67</ele>
        <time>2019-02-16T16:36:19Z</time>
      </trkpt>
      <trkpt lat="48.8153" lon="2.45148">
        <ele>36.67</ele>
        <time>2019-02-16T16:36:20Z</time>
      </trkpt>
      <trkpt lat="48.81525" lon="2.45156">
        <ele>36.67</ele>
        <time>2019-02-16T16:36:28Z</time>
      </trkpt>
      <trkpt lat="48.81525" lon="2.45157">
        <ele>36.67</ele>
        <time>2019-02-16T16:36:29Z</time>
      </trkpt>
      <trkpt lat="48.81522" lon="2.45162">
        <ele>36.67</ele>
        <time>2019-02-16T16:36:33Z</time>
      </trkpt>
      <trkpt lat="48.81521" lon="2.45163">
        <ele>36.19</ele>
        <time>2019-02-16T16:36:34Z</time>
      </trkpt>
      <trkpt lat="48.8152" lon="2.45164">
        <ele>36.67</ele>
        <time>2019-02-16T16:36:35Z</time>
      </trkpt>
      <trkpt lat="48.81519" lon="2.45165">
        <ele>36.67</ele>
        <time>2019-02-16T16:36:36Z</time>
      </trkpt>
      <trkpt lat="48.81507" lon="2.45183">
        <ele>36.67</ele>
        <time>2019-02-16T16:36:49Z</time>
      </trkpt>
      <trkpt lat="48.81498" lon="2.45194">
        <ele>36.67</ele>
        <time>2019-02-16T16:36:58Z</time>
      </trkpt>
      <trkpt lat="48.81482" lon="2.45221">
        <ele>36.67</ele>
        <time>2019-02-16T16:37:15Z</time>
      </trkpt>
      <trkpt lat="48.81471" lon="2.45231">
        <ele>36.67</ele>
        <time>2019-02-16T16:37:25Z</time>
      </trkpt>
      <trkpt lat="48.81468" lon="2.45235">
        <ele>36.19</ele>
        <time>2019-02-16T16:37:29Z</time>
      </trkpt>
      <trkpt lat="48.81468" lon="2.45235">
        <ele>36.19</ele>
        <time>2019-02-16T16:37:30Z</time>
      </trkpt>
      <trkpt lat="48.81465" lon="2.45237">
        <ele>36.67</ele>
        <time>2019-02-16T16:37:33Z</time>
      </trkpt>
      <trkpt lat="48.81464" lon="2.45238">
        <ele>36.19</ele>
        <time>2019-02-16T16:37:34Z</time>
      </trkpt>
      <trkpt lat="48.81457" lon="2.45245">
        <ele>36.19</ele>
        <time>2019-02-16T16:37:40Z</time>
      </trkpt>
      <trkpt lat="48.81448" lon="2.45262">
        <ele>36.19</ele>
        <time>2019-02-16T16:37:54Z</time>
      </trkpt>
      <trkpt lat="48.81435" lon="2.45276">
        <ele>36.19</ele>
        <time>2019-02-16T16:38:09Z</time>
      </trkpt>
      <trkpt lat="48.81432" lon="2.4528">
        <ele>36.19</ele>
        <time>2019-02-16T16:38:12Z</time>
      </trkpt>
      <trkpt lat="48.81431" lon="2.45282">
        <ele>36.19</ele>
        <time>2019-02-16T16:38:13Z</time>
      </trkpt>
      <trkpt lat="48.81429" lon="2.45284">
        <ele>36.19</ele>
        <time>2019-02-16T16:38:14Z</time>
      </trkpt>
      <trkpt lat="48.81428" lon="2.45286">
        <ele>35.71</ele>
        <time>2019-02-16T16:38:15Z</time>
      </trkpt>
      <trkpt lat="48.81423" lon="2.45293">
        <ele>36.19</ele>
        <time>2019-02-16T16:38:21Z</time>
      </trkpt>
      <trkpt lat="48.81416" lon="2.453">
        <ele>36.19</ele>
        <time>2019-02-16T16:38:30Z</time>
      </trkpt>
      <trkpt lat="48.81414" lon="2.45302">
        <ele>36.19</ele>
        <time>2019-02-16T16:38:31Z</time>
      </trkpt>
      <trkpt lat="48.81402" lon="2.45317">
        <ele>36.19</ele>
        <time>2019-02-16T16:38:43Z</time>
      </trkpt>
      <trkpt lat="48.814" lon="2.45323">
        <ele>36.19</ele>
        <time>2019-02-16T16:38:48Z</time>
      </trkpt>
      <trkpt lat="48.81397" lon="2.45327">
        <ele>36.19</ele>
        <time>2019-02-16T16:38:52Z</time>
      </trkpt>
      <trkpt lat="48.81396" lon="2.45328">
        <ele>35.71</ele>
        <time>2019-02-16T16:38:53Z</time>
      </trkpt>
      <trkpt lat="48.81395" lon="2.4533">
        <ele>36.19</ele>
        <time>2019-02-16T16:38:54Z</time>
      </trkpt>
      <trkpt lat="48.81393" lon="2.45331">
        <ele>36.19</ele>
        <time>2019-02-16T16:38:55Z</time>
      </trkpt>
      <trkpt lat="48.81392" lon="2.45332">
        <ele>36.19</ele>
        <time>2019-02-16T16:38:56Z</time>
      </trkpt>
      <trkpt lat="48.81391" lon="2.45333">
        <ele>36.67</ele>
        <time>2019-02-16T16:38:57Z</time>
      </trkpt>
      <trkpt lat="48.8139" lon="2.45335">
        <ele>35.71</ele>
        <time>2019-02-16T16:38:58Z</time>
      </trkpt>
      <trkpt lat="48.81381" lon="2.45345">
        <ele>36.19</ele>
        <time>2019-02-16T16:39:10Z</time>
      </trkpt>
      <trkpt lat="48.81376" lon="2.4535">
        <ele>35.71</ele>
        <time>2019-02-16T16:39:15Z</time>
      </trkpt>
      <trkpt lat="48.81374" lon="2.45352">
        <ele>36.19</ele>
        <time>2019-02-16T16:39:16Z</time>
      </trkpt>
      <trkpt lat="48.81373" lon="2.45353">
        <ele>36.67</ele>
        <time>2019-02-16T16:39:17Z</time>
      </trkpt>
      <trkpt lat="48.81372" lon="2.45355">
        <ele>36.19</ele>
        <time>2019-02-16T16:39:18Z</time>
      </trkpt>
      <trkpt lat="48.81361" lon="2.45369">
        <ele>36.19</ele>
        <time>2019-02-16T16:39:29Z</time>
      </trkpt>
      <trkpt lat="48.81357" lon="2.45373">
        <ele>36.19</ele>
        <time>2019-02-16T16:39:32Z</time>
      </trkpt>
      <trkpt lat="48.81347" lon="2.45384">
        <ele>36.19</ele>
        <time>2019-02-16T16:39:44Z</time>
      </trkpt>
      <trkpt lat="48.81334" lon="2.45403">
        <ele>36.19</ele>
        <time>2019-02-16T16:39:58Z</time>
      </trkpt>
      <trkpt lat="48.81322" lon="2.45415">
        <ele>36.67</ele>
        <time>2019-02-16T16:40:10Z</time>
      </trkpt>
      <trkpt lat="48.81316" lon="2.45422">
        <ele>36.19</ele>
        <time>2019-02-16T16:40:14Z</time>
      </trkpt>
      <trkpt lat="48.81315" lon="2.45423">
        <ele>36.19</ele>
        <time>2019-02-16T16:40:15Z</time>
      </trkpt>
      <trkpt lat="48.81306" lon="2.45435">
        <ele>35.71</ele>
        <time>2019-02-16T16:40:27Z</time>
      </trkpt>
      <trkpt lat="48.81291" lon="2.45453">
        <ele>36.19</ele>
        <time>2019-02-16T16:40:42Z</time>
      </trkpt>
      <trkpt lat="48.81288" lon="2.45458">
        <ele>39.55</ele>
        <time>2019-02-16T16:40:45Z</time>
      </trkpt>
      <trkpt lat="48.81286" lon="2.45459">
        <ele>35.23</ele>
        <time>2019-02-16T16:40:46Z</time>
      </trkpt>
      <trkpt lat="48.81272" lon="2.45475">
        <ele>36.67</ele>
        <time>2019-02-16T16:41:00Z</time>
      </trkpt>
      <trkpt lat="48.81266" lon="2.45478">
        <ele>35.71</ele>
        <time>2019-02-16T16:41:05Z</time>
      </trkpt>
      <trkpt lat="48.81265" lon="2.45478">
        <ele>35.71</ele>
        <time>2019-02-16T16:41:06Z</time>
      </trkpt>
      <trkpt lat="48.8126" lon="2.45474">
        <ele>37.15</ele>
        <time>2019-02-16T16:41:13Z</time>
      </trkpt>
      <trkpt lat="48.8126" lon="2.45472">
        <ele>39.07</ele>
        <time>2019-02-16T16:41:16Z</time>
      </trkpt>
      <trkpt lat="48.81256" lon="2.45474">
        <ele>39.07</ele>
        <time>2019-02-16T16:41:21Z</time>
      </trkpt>
      <trkpt lat="48.81254" lon="2.45475">
        <ele>39.07</ele>
        <time>2019-02-16T16:41:22Z</time>
      </trkpt>
      <trkpt lat="48.81252" lon="2.45477">
        <ele>39.07</ele>
        <time>2019-02-16T16:41:23Z</time>
      </trkpt>
      <trkpt lat="48.81251" lon="2.45478">
        <ele>39.07</ele>
        <time>2019-02-16T16:41:24Z</time>
      </trkpt>
      <trkpt lat="48.81249" lon="2.45479">
        <ele>39.07</ele>
        <time>2019-02-16T16:41:25Z</time>
      </trkpt>
      <trkpt lat="48.81248" lon="2.4548">
        <ele>39.07</ele>
        <time>2019-02-16T16:41:26Z</time>
      </trkpt>
      <trkpt lat="48.81246" lon="2.45481">
        <ele>39.55</ele>
        <time>2019-02-16T16:41:27Z</time>
      </trkpt>
      <trkpt lat="48.81246" lon="2.45482">
        <ele>39.07</ele>
        <time>2019-02-16T16:41:28Z</time>
      </trkpt>
      <trkpt lat="48.81238" lon="2.45487">
        <ele>39.07</ele>
        <time>2019-02-16T16:41:37Z</time>
      </trkpt>
      <trkpt lat="48.8123" lon="2.45494">
        <ele>38.59</ele>
        <time>2019-02-16T16:41:44Z</time>
      </trkpt>
      <trkpt lat="48.81228" lon="2.45495">
        <ele>39.55</ele>
        <time>2019-02-16T16:41:45Z</time>
      </trkpt>
      <trkpt lat="48.81216" lon="2.45505">
        <ele>39.07</ele>
        <time>2019-02-16T16:41:56Z</time>
      </trkpt>
      <trkpt lat="48.81212" lon="2.4551">
        <ele>39.07</ele>
        <time>2019-02-16T16:42:03Z</time>
      </trkpt>
      <trkpt lat="48.8121" lon="2.45512">
        <ele>39.55</ele>
        <time>2019-02-16T16:42:05Z</time>
      </trkpt>
      <trkpt lat="48.81209" lon="2.45514">
        <ele>39.07</ele>
        <time>2019-02-16T16:42:06Z</time>
      </trkpt>
      <trkpt lat="48.81207" lon="2.45515">
        <ele>39.55</ele>
        <time>2019-02-16T16:42:07Z</time>
      </trkpt>
      <trkpt lat="48.81193" lon="2.45527">
        <ele>39.07</ele>
        <time>2019-02-16T16:42:16Z</time>
      </trkpt>
      <trkpt lat="48.81189" lon="2.45535">
        <ele>40.03</ele>
        <time>2019-02-16T16:42:27Z</time>
      </trkpt>
      <trkpt lat="48.81183" lon="2.45544">
        <ele>39.07</ele>
        <time>2019-02-16T16:42:36Z</time>
      </trkpt>
      <trkpt lat="48.81182" lon="2.45545">
        <ele>39.07</ele>
        <time>2019-02-16T16:42:37Z</time>
      </trkpt>
      <trkpt lat="48.8118" lon="2.45546">
        <ele>40.03</ele>
        <time>2019-02-16T16:42:38Z</time>
      </trkpt>
      <trkpt lat="48.81175" lon="2.45553">
        <ele>39.55</ele>
        <time>2019-02-16T16:42:42Z</time>
      </trkpt>
      <trkpt lat="48.81174" lon="2.45555">
        <ele>39.07</ele>
        <time>2019-02-16T16:42:43Z</time>
      </trkpt>
      <trkpt lat="48.81159" lon="2.45571">
        <ele>39.07</ele>
        <time>2019-02-16T16:42:58Z</time>
      </trkpt>
      <trkpt lat="48.81145" lon="2.45585">
        <ele>38.59</ele>
        <time>2019-02-16T16:43:11Z</time>
      </trkpt>
      <trkpt lat="48.81134" lon="2.45596">
        <ele>38.11</ele>
        <time>2019-02-16T16:43:24Z</time>
      </trkpt>
      <trkpt lat="48.81117" lon="2.45617">
        <ele>37.63</ele>
        <time>2019-02-16T16:43:36Z</time>
      </trkpt>
      <trkpt lat="48.81116" lon="2.45617">
        <ele>37.15</ele>
        <time>2019-02-16T16:43:37Z</time>
      </trkpt>
      <trkpt lat="48.81114" lon="2.45618">
        <ele>37.63</ele>
        <time>2019-02-16T16:43:39Z</time>
      </trkpt>
      <trkpt lat="48.81113" lon="2.45621">
        <ele>37.15</ele>
        <time>2019-02-16T16:43:43Z</time>
      </trkpt>
      <trkpt lat="48.81108" lon="2.45628">
        <ele>36.67</ele>
        <time>2019-02-16T16:43:52Z</time>
      </trkpt>
      <trkpt lat="48.811" lon="2.45638">
        <ele>36.67</ele>
        <time>2019-02-16T16:44:03Z</time>
      </trkpt>
      <trkpt lat="48.81094" lon="2.45647">
        <ele>36.19</ele>
        <time>2019-02-16T16:44:11Z</time>
      </trkpt>
      <trkpt lat="48.81081" lon="2.45666">
        <ele>36.19</ele>
        <time>2019-02-16T16:44:24Z</time>
      </trkpt>
      <trkpt lat="48.81068" lon="2.45676">
        <ele>37.15</ele>
        <time>2019-02-16T16:44:37Z</time>
      </trkpt>
      <trkpt lat="48.81066" lon="2.45681">
        <ele>36.19</ele>
        <time>2019-02-16T16:44:41Z</time>
      </trkpt>
      <trkpt lat="48.81065" lon="2.45683">
        <ele>36.67</ele>
        <time>2019-02-16T16:44:42Z</time>
      </trkpt>
      <trkpt lat="48.81053" lon="2.45707">
        <ele>37.15</ele>
        <time>2019-02-16T16:44:53Z</time>
      </trkpt>
      <trkpt lat="48.8105" lon="2.45711">
        <ele>36.67</ele>
        <time>2019-02-16T16:44:57Z</time>
      </trkpt>
      <trkpt lat="48.81048" lon="2.45714">
        <ele>37.15</ele>
        <time>2019-02-16T16:44:59Z</time>
      </trkpt>
      <trkpt lat="48.81047" lon="2.45716">
        <ele>37.15</ele>
        <time>2019-02-16T16:45:00Z</time>
      </trkpt>
      <trkpt lat="48.81032" lon="2.4575">
        <ele>37.15</ele>
        <time>2019-02-16T16:45:17Z</time>
      </trkpt>
      <trkpt lat="48.81022" lon="2.4577">
        <ele>37.63</ele>
        <time>2019-02-16T16:45:30Z</time>
      </trkpt>
      <trkpt lat="48.81013" lon="2.45793">
        <ele>38.11</ele>
        <time>2019-02-16T16:45:44Z</time>
      </trkpt>
      <trkpt lat="48.81001" lon="2.45799">
        <ele>38.59</ele>
        <time>2019-02-16T16:45:55Z</time>
      </trkpt>
      <trkpt lat="48.80997" lon="2.45795">
        <ele>39.07</ele>
        <time>2019-02-16T16:46:00Z</time>
      </trkpt>
      <trkpt lat="48.80996" lon="2.45795">
        <ele>39.55</ele>
        <time>2019-02-16T16:46:01Z</time>
      </trkpt>
      <trkpt lat="48.80991" lon="2.45793">
        <ele>39.55</ele>
        <time>2019-02-16T16:46:13Z</time>
      </trkpt>
      <trkpt lat="48.80989" lon="2.45803">
        <ele>39.07</ele>
        <time>2019-02-16T16:46:25Z</time>
      </trkpt>
      <trkpt lat="48.80982" lon="2.4582">
        <ele>39.07</ele>
        <time>2019-02-16T16:46:38Z</time>
      </trkpt>
      <trkpt lat="48.80978" lon="2.45832">
        <ele>38.59</ele>
        <time>2019-02-16T16:46:46Z</time>
      </trkpt>
      <trkpt lat="48.80972" lon="2.45853">
        <ele>38.59</ele>
        <time>2019-02-16T16:47:00Z</time>
      </trkpt>
      <trkpt lat="48.80958" lon="2.4587">
        <ele>38.59</ele>
        <time>2019-02-16T16:47:15Z</time>
      </trkpt>
      <trkpt lat="48.80954" lon="2.45865">
        <ele>38.11</ele>
        <time>2019-02-16T16:47:21Z</time>
      </trkpt>
      <trkpt lat="48.80951" lon="2.45861">
        <ele>39.07</ele>
        <time>2019-02-16T16:47:24Z</time>
      </trkpt>
      <trkpt lat="48.8094" lon="2.45847">
        <ele>38.59</ele>
        <time>2019-02-16T16:47:35Z</time>
      </trkpt>
      <trkpt lat="48.80929" lon="2.45828">
        <ele>39.07</ele>
        <time>2019-02-16T16:47:50Z</time>
      </trkpt>
      <trkpt lat="48.80918" lon="2.45809">
        <ele>38.59</ele>
        <time>2019-02-16T16:48:03Z</time>
      </trkpt>
      <trkpt lat="48.80909" lon="2.45799">
        <ele>39.07</ele>
        <time>2019-02-16T16:48:13Z</time>
      </trkpt>
      <trkpt lat="48.80899" lon="2.45786">
        <ele>39.55</ele>
        <time>2019-02-16T16:48:23Z</time>
      </trkpt>
      <trkpt lat="48.80889" lon="2.45768">
        <ele>39.55</ele>
        <time>2019-02-16T16:48:35Z</time>
      </trkpt>
      <trkpt lat="48.80887" lon="2.45766">
        <ele>40.03</ele>
        <time>2019-02-16T16:48:37Z</time>
      </trkpt>
      <trkpt lat="48.80886" lon="2.45766">
        <ele>40.03</ele>
        <time>2019-02-16T16:48:38Z</time>
      </trkpt>
      <trkpt lat="48.80885" lon="2.45766">
        <ele>40.03</ele>
        <time>2019-02-16T16:48:39Z</time>
      </trkpt>
      <trkpt lat="48.80877" lon="2.45765">
        <ele>40.03</ele>
        <time>2019-02-16T16:48:47Z</time>
      </trkpt>
      <trkpt lat="48.80876" lon="2.45766">
        <ele>39.55</ele>
        <time>2019-02-16T16:48:48Z</time>
      </trkpt>
      <trkpt lat="48.80871" lon="2.45767">
        <ele>39.55</ele>
        <time>2019-02-16T16:48:52Z</time>
      </trkpt>
      <trkpt lat="48.80869" lon="2.45766">
        <ele>39.07</ele>
        <time>2019-02-16T16:48:53Z</time>
      </trkpt>
      <trkpt lat="48.80861" lon="2.45759">
        <ele>40.03</ele>
        <time>2019-02-16T16:49:06Z</time>
      </trkpt>
    </trkseg>
  </trk>
</gpx>